<?xml version="1.0" encoding="UTF-8" standalone="no" ?>
<gpx xmlns="http://www.topografix.com/GPX/1/1" xmlns:xsi="http://www.w3.org/2001/XMLSchema-instance" xsi:schemaLocation="http://www.topografix.com/GPX/1/1 http://www.topografix.com/GPX/1/1/gpx.xsd" version="1.1" creator="VisuGPX - https://www.visugpx.com">
  <metadata>
    <name>20 mai 2019 20:22:32</name>
    <desc><![CDATA[Rando laurent du 20 mai 2019]]></desc>
  </metadata>
  <trk>
    <name><![CDATA[20 mai 2019 20:22:32]]></name>
    <trkseg>
      <trkpt lat="48.85741" lon="2.34735">
        <ele>81.37</ele>
        <time>2019-05-20T18:22:30.999Z</time>
      </trkpt>
      <trkpt lat="48.85739" lon="2.3472">
        <ele>81.66</ele>
        <time>2019-05-20T18:22:42.999Z</time>
      </trkpt>
      <trkpt lat="48.85744" lon="2.34708">
        <ele>81.58</ele>
        <time>2019-05-20T18:22:52.999Z</time>
      </trkpt>
      <trkpt lat="48.85744" lon="2.34692">
        <ele>83.05</ele>
        <time>2019-05-20T18:23:13.999Z</time>
      </trkpt>
      <trkpt lat="48.85733" lon="2.34694">
        <ele>83.58</ele>
        <time>2019-05-20T18:23:52.999Z</time>
      </trkpt>
      <trkpt lat="48.85723" lon="2.34691">
        <ele>83.51</ele>
        <time>2019-05-20T18:23:57.999Z</time>
      </trkpt>
      <trkpt lat="48.85712" lon="2.34686">
        <ele>83.5</ele>
        <time>2019-05-20T18:24:02.999Z</time>
      </trkpt>
      <trkpt lat="48.85704" lon="2.34679">
        <ele>83.53</ele>
        <time>2019-05-20T18:24:06.999Z</time>
      </trkpt>
      <trkpt lat="48.85695" lon="2.34675">
        <ele>83.61</ele>
        <time>2019-05-20T18:24:10.999Z</time>
      </trkpt>
      <trkpt lat="48.85685" lon="2.34669">
        <ele>83.75</ele>
        <time>2019-05-20T18:24:15.999Z</time>
      </trkpt>
      <trkpt lat="48.85675" lon="2.34662">
        <ele>83.92</ele>
        <time>2019-05-20T18:24:20.999Z</time>
      </trkpt>
      <trkpt lat="48.85667" lon="2.34655">
        <ele>84.07</ele>
        <time>2019-05-20T18:24:24.999Z</time>
      </trkpt>
      <trkpt lat="48.85656" lon="2.3465">
        <ele>84.24</ele>
        <time>2019-05-20T18:24:28.999Z</time>
      </trkpt>
      <trkpt lat="48.85647" lon="2.34646">
        <ele>84.44</ele>
        <time>2019-05-20T18:24:32.999Z</time>
      </trkpt>
      <trkpt lat="48.85639" lon="2.3464">
        <ele>84.67</ele>
        <time>2019-05-20T18:24:36.999Z</time>
      </trkpt>
      <trkpt lat="48.8563" lon="2.34634">
        <ele>84.91</ele>
        <time>2019-05-20T18:24:40.999Z</time>
      </trkpt>
      <trkpt lat="48.85619" lon="2.34627">
        <ele>85.13</ele>
        <time>2019-05-20T18:24:44.999Z</time>
      </trkpt>
      <trkpt lat="48.85611" lon="2.3462">
        <ele>85.28</ele>
        <time>2019-05-20T18:24:47.999Z</time>
      </trkpt>
      <trkpt lat="48.85603" lon="2.34613">
        <ele>85.42</ele>
        <time>2019-05-20T18:24:50.999Z</time>
      </trkpt>
      <trkpt lat="48.85595" lon="2.34603">
        <ele>85.59</ele>
        <time>2019-05-20T18:24:54.999Z</time>
      </trkpt>
      <trkpt lat="48.85587" lon="2.34594">
        <ele>85.72</ele>
        <time>2019-05-20T18:24:57.999Z</time>
      </trkpt>
      <trkpt lat="48.85577" lon="2.34587">
        <ele>85.88</ele>
        <time>2019-05-20T18:25:01.999Z</time>
      </trkpt>
      <trkpt lat="48.85565" lon="2.34583">
        <ele>86</ele>
        <time>2019-05-20T18:25:04.999Z</time>
      </trkpt>
      <trkpt lat="48.85554" lon="2.34576">
        <ele>86.12</ele>
        <time>2019-05-20T18:25:07.999Z</time>
      </trkpt>
      <trkpt lat="48.85545" lon="2.34568">
        <ele>86.29</ele>
        <time>2019-05-20T18:25:11.999Z</time>
      </trkpt>
      <trkpt lat="48.85536" lon="2.34561">
        <ele>86.41</ele>
        <time>2019-05-20T18:25:14.999Z</time>
      </trkpt>
      <trkpt lat="48.85527" lon="2.34553">
        <ele>86.52</ele>
        <time>2019-05-20T18:25:17.999Z</time>
      </trkpt>
      <trkpt lat="48.85517" lon="2.34544">
        <ele>86.64</ele>
        <time>2019-05-20T18:25:20.999Z</time>
      </trkpt>
      <trkpt lat="48.85508" lon="2.34533">
        <ele>86.75</ele>
        <time>2019-05-20T18:25:23.999Z</time>
      </trkpt>
      <trkpt lat="48.85502" lon="2.34521">
        <ele>86.86</ele>
        <time>2019-05-20T18:25:26.999Z</time>
      </trkpt>
      <trkpt lat="48.85495" lon="2.34512">
        <ele>86.95</ele>
        <time>2019-05-20T18:25:29.999Z</time>
      </trkpt>
      <trkpt lat="48.85485" lon="2.34503">
        <ele>87.04</ele>
        <time>2019-05-20T18:25:32.999Z</time>
      </trkpt>
      <trkpt lat="48.85476" lon="2.34495">
        <ele>87.13</ele>
        <time>2019-05-20T18:25:35.999Z</time>
      </trkpt>
      <trkpt lat="48.85469" lon="2.34485">
        <ele>87.21</ele>
        <time>2019-05-20T18:25:38.999Z</time>
      </trkpt>
      <trkpt lat="48.85461" lon="2.34477">
        <ele>87.29</ele>
        <time>2019-05-20T18:25:41.999Z</time>
      </trkpt>
      <trkpt lat="48.8545" lon="2.34478">
        <ele>87.39</ele>
        <time>2019-05-20T18:25:45.999Z</time>
      </trkpt>
      <trkpt lat="48.85439" lon="2.34472">
        <ele>87.49</ele>
        <time>2019-05-20T18:25:49.999Z</time>
      </trkpt>
      <trkpt lat="48.8543" lon="2.34469">
        <ele>87.56</ele>
        <time>2019-05-20T18:25:52.999Z</time>
      </trkpt>
      <trkpt lat="48.85422" lon="2.34462">
        <ele>87.64</ele>
        <time>2019-05-20T18:25:55.999Z</time>
      </trkpt>
      <trkpt lat="48.85412" lon="2.34452">
        <ele>87.73</ele>
        <time>2019-05-20T18:25:59.999Z</time>
      </trkpt>
      <trkpt lat="48.85405" lon="2.34443">
        <ele>87.83</ele>
        <time>2019-05-20T18:26:03.999Z</time>
      </trkpt>
      <trkpt lat="48.85398" lon="2.34433">
        <ele>87.97</ele>
        <time>2019-05-20T18:26:08.999Z</time>
      </trkpt>
      <trkpt lat="48.85391" lon="2.34424">
        <ele>88.3</ele>
        <time>2019-05-20T18:26:25.999Z</time>
      </trkpt>
      <trkpt lat="48.85394" lon="2.3441">
        <ele>88.46</ele>
        <time>2019-05-20T18:26:32.999Z</time>
      </trkpt>
      <trkpt lat="48.85398" lon="2.34396">
        <ele>88.57</ele>
        <time>2019-05-20T18:26:37.999Z</time>
      </trkpt>
      <trkpt lat="48.85405" lon="2.34386">
        <ele>88.65</ele>
        <time>2019-05-20T18:26:41.999Z</time>
      </trkpt>
      <trkpt lat="48.85412" lon="2.34371">
        <ele>88.71</ele>
        <time>2019-05-20T18:26:44.999Z</time>
      </trkpt>
      <trkpt lat="48.85417" lon="2.34358">
        <ele>88.76</ele>
        <time>2019-05-20T18:26:47.999Z</time>
      </trkpt>
      <trkpt lat="48.85422" lon="2.34344">
        <ele>88.81</ele>
        <time>2019-05-20T18:26:50.999Z</time>
      </trkpt>
      <trkpt lat="48.85423" lon="2.34328">
        <ele>88.87</ele>
        <time>2019-05-20T18:26:53.999Z</time>
      </trkpt>
      <trkpt lat="48.85428" lon="2.34316">
        <ele>88.92</ele>
        <time>2019-05-20T18:26:56.999Z</time>
      </trkpt>
      <trkpt lat="48.85422" lon="2.34303">
        <ele>88.98</ele>
        <time>2019-05-20T18:27:00.999Z</time>
      </trkpt>
      <trkpt lat="48.85415" lon="2.34293">
        <ele>89.08</ele>
        <time>2019-05-20T18:27:02.999Z</time>
      </trkpt>
      <trkpt lat="48.85406" lon="2.34286">
        <ele>89.19</ele>
        <time>2019-05-20T18:27:04.999Z</time>
      </trkpt>
      <trkpt lat="48.85396" lon="2.34273">
        <ele>89.23</ele>
        <time>2019-05-20T18:27:06.999Z</time>
      </trkpt>
      <trkpt lat="48.85386" lon="2.34261">
        <ele>89.23</ele>
        <time>2019-05-20T18:27:08.999Z</time>
      </trkpt>
      <trkpt lat="48.85377" lon="2.34257">
        <ele>89.22</ele>
        <time>2019-05-20T18:27:10.999Z</time>
      </trkpt>
      <trkpt lat="48.85367" lon="2.34251">
        <ele>89.22</ele>
        <time>2019-05-20T18:27:12.999Z</time>
      </trkpt>
      <trkpt lat="48.85355" lon="2.34249">
        <ele>89.2</ele>
        <time>2019-05-20T18:27:15.999Z</time>
      </trkpt>
      <trkpt lat="48.85348" lon="2.34238">
        <ele>89.2</ele>
        <time>2019-05-20T18:27:18.999Z</time>
      </trkpt>
      <trkpt lat="48.85335" lon="2.34239">
        <ele>89.2</ele>
        <time>2019-05-20T18:27:21.999Z</time>
      </trkpt>
      <trkpt lat="48.85332" lon="2.34218">
        <ele>89.2</ele>
        <time>2019-05-20T18:27:23.999Z</time>
      </trkpt>
      <trkpt lat="48.85333" lon="2.34204">
        <ele>89.2</ele>
        <time>2019-05-20T18:27:26.999Z</time>
      </trkpt>
      <trkpt lat="48.85332" lon="2.34188">
        <ele>89.2</ele>
        <time>2019-05-20T18:27:29.999Z</time>
      </trkpt>
      <trkpt lat="48.85332" lon="2.3417">
        <ele>89.2</ele>
        <time>2019-05-20T18:27:32.999Z</time>
      </trkpt>
      <trkpt lat="48.85332" lon="2.34155">
        <ele>89.2</ele>
        <time>2019-05-20T18:27:35.999Z</time>
      </trkpt>
      <trkpt lat="48.85334" lon="2.34138">
        <ele>89.2</ele>
        <time>2019-05-20T18:27:38.999Z</time>
      </trkpt>
      <trkpt lat="48.85337" lon="2.34121">
        <ele>89.2</ele>
        <time>2019-05-20T18:27:41.999Z</time>
      </trkpt>
      <trkpt lat="48.85342" lon="2.34109">
        <ele>89.21</ele>
        <time>2019-05-20T18:27:44.999Z</time>
      </trkpt>
      <trkpt lat="48.85335" lon="2.34093">
        <ele>89.21</ele>
        <time>2019-05-20T18:27:48.999Z</time>
      </trkpt>
      <trkpt lat="48.85327" lon="2.34086">
        <ele>89.2</ele>
        <time>2019-05-20T18:27:51.999Z</time>
      </trkpt>
      <trkpt lat="48.85317" lon="2.34078">
        <ele>89.2</ele>
        <time>2019-05-20T18:27:54.999Z</time>
      </trkpt>
      <trkpt lat="48.85308" lon="2.34071">
        <ele>89.2</ele>
        <time>2019-05-20T18:27:57.999Z</time>
      </trkpt>
      <trkpt lat="48.85297" lon="2.34068">
        <ele>89.2</ele>
        <time>2019-05-20T18:28:01.999Z</time>
      </trkpt>
      <trkpt lat="48.85286" lon="2.34062">
        <ele>89.2</ele>
        <time>2019-05-20T18:28:05.999Z</time>
      </trkpt>
      <trkpt lat="48.85275" lon="2.34059">
        <ele>89.21</ele>
        <time>2019-05-20T18:28:09.999Z</time>
      </trkpt>
      <trkpt lat="48.85265" lon="2.34056">
        <ele>89.22</ele>
        <time>2019-05-20T18:28:12.999Z</time>
      </trkpt>
      <trkpt lat="48.85256" lon="2.34053">
        <ele>89.23</ele>
        <time>2019-05-20T18:28:15.999Z</time>
      </trkpt>
      <trkpt lat="48.85247" lon="2.34048">
        <ele>89.25</ele>
        <time>2019-05-20T18:28:18.999Z</time>
      </trkpt>
      <trkpt lat="48.85235" lon="2.34049">
        <ele>89.27</ele>
        <time>2019-05-20T18:28:22.999Z</time>
      </trkpt>
      <trkpt lat="48.85224" lon="2.34048">
        <ele>89.29</ele>
        <time>2019-05-20T18:28:26.999Z</time>
      </trkpt>
      <trkpt lat="48.85215" lon="2.34044">
        <ele>89.33</ele>
        <time>2019-05-20T18:28:31.999Z</time>
      </trkpt>
      <trkpt lat="48.85212" lon="2.34028">
        <ele>89.37</ele>
        <time>2019-05-20T18:28:38.999Z</time>
      </trkpt>
      <trkpt lat="48.85208" lon="2.34014">
        <ele>89.39</ele>
        <time>2019-05-20T18:28:41.999Z</time>
      </trkpt>
      <trkpt lat="48.85202" lon="2.34001">
        <ele>89.41</ele>
        <time>2019-05-20T18:28:44.999Z</time>
      </trkpt>
      <trkpt lat="48.85194" lon="2.33993">
        <ele>89.43</ele>
        <time>2019-05-20T18:28:47.999Z</time>
      </trkpt>
      <trkpt lat="48.85185" lon="2.33985">
        <ele>89.46</ele>
        <time>2019-05-20T18:28:50.999Z</time>
      </trkpt>
      <trkpt lat="48.85179" lon="2.33973">
        <ele>89.5</ele>
        <time>2019-05-20T18:28:55.999Z</time>
      </trkpt>
      <trkpt lat="48.85175" lon="2.33957">
        <ele>89.53</ele>
        <time>2019-05-20T18:28:59.999Z</time>
      </trkpt>
      <trkpt lat="48.85171" lon="2.33941">
        <ele>89.57</ele>
        <time>2019-05-20T18:29:04.999Z</time>
      </trkpt>
      <trkpt lat="48.85165" lon="2.33926">
        <ele>89.6</ele>
        <time>2019-05-20T18:29:08.999Z</time>
      </trkpt>
      <trkpt lat="48.85156" lon="2.33928">
        <ele>89.63</ele>
        <time>2019-05-20T18:29:11.999Z</time>
      </trkpt>
      <trkpt lat="48.85148" lon="2.33935">
        <ele>89.65</ele>
        <time>2019-05-20T18:29:14.999Z</time>
      </trkpt>
      <trkpt lat="48.85137" lon="2.33944">
        <ele>89.69</ele>
        <time>2019-05-20T18:29:18.999Z</time>
      </trkpt>
      <trkpt lat="48.85128" lon="2.33949">
        <ele>89.71</ele>
        <time>2019-05-20T18:29:21.999Z</time>
      </trkpt>
      <trkpt lat="48.85115" lon="2.33952">
        <ele>89.74</ele>
        <time>2019-05-20T18:29:24.999Z</time>
      </trkpt>
      <trkpt lat="48.85103" lon="2.33953">
        <ele>89.77</ele>
        <time>2019-05-20T18:29:27.999Z</time>
      </trkpt>
      <trkpt lat="48.85091" lon="2.33962">
        <ele>89.79</ele>
        <time>2019-05-20T18:29:30.999Z</time>
      </trkpt>
      <trkpt lat="48.8508" lon="2.33966">
        <ele>89.82</ele>
        <time>2019-05-20T18:29:33.999Z</time>
      </trkpt>
      <trkpt lat="48.8507" lon="2.3397">
        <ele>89.9</ele>
        <time>2019-05-20T18:29:36.999Z</time>
      </trkpt>
      <trkpt lat="48.85058" lon="2.33976">
        <ele>90</ele>
        <time>2019-05-20T18:29:39.999Z</time>
      </trkpt>
      <trkpt lat="48.85046" lon="2.3398">
        <ele>90.11</ele>
        <time>2019-05-20T18:29:42.999Z</time>
      </trkpt>
      <trkpt lat="48.85038" lon="2.33985">
        <ele>90.2</ele>
        <time>2019-05-20T18:29:44.999Z</time>
      </trkpt>
      <trkpt lat="48.85025" lon="2.3399">
        <ele>90.33</ele>
        <time>2019-05-20T18:29:47.999Z</time>
      </trkpt>
      <trkpt lat="48.85016" lon="2.33993">
        <ele>90.81</ele>
        <time>2019-05-20T18:29:49.999Z</time>
      </trkpt>
      <trkpt lat="48.85008" lon="2.33998">
        <ele>91.19</ele>
        <time>2019-05-20T18:29:51.999Z</time>
      </trkpt>
      <trkpt lat="48.84997" lon="2.34004">
        <ele>91.26</ele>
        <time>2019-05-20T18:29:53.999Z</time>
      </trkpt>
      <trkpt lat="48.84988" lon="2.34006">
        <ele>91.36</ele>
        <time>2019-05-20T18:29:56.999Z</time>
      </trkpt>
      <trkpt lat="48.84976" lon="2.34005">
        <ele>92.26</ele>
        <time>2019-05-20T18:29:59.999Z</time>
      </trkpt>
      <trkpt lat="48.84966" lon="2.34006">
        <ele>92.55</ele>
        <time>2019-05-20T18:30:01.999Z</time>
      </trkpt>
      <trkpt lat="48.84955" lon="2.34004">
        <ele>92.76</ele>
        <time>2019-05-20T18:30:03.999Z</time>
      </trkpt>
      <trkpt lat="48.84946" lon="2.34008">
        <ele>92.91</ele>
        <time>2019-05-20T18:30:05.999Z</time>
      </trkpt>
      <trkpt lat="48.84936" lon="2.34013">
        <ele>93</ele>
        <time>2019-05-20T18:30:07.999Z</time>
      </trkpt>
      <trkpt lat="48.84927" lon="2.34019">
        <ele>93.02</ele>
        <time>2019-05-20T18:30:09.999Z</time>
      </trkpt>
      <trkpt lat="48.84916" lon="2.34027">
        <ele>93.26</ele>
        <time>2019-05-20T18:30:11.999Z</time>
      </trkpt>
      <trkpt lat="48.84905" lon="2.34033">
        <ele>93.44</ele>
        <time>2019-05-20T18:30:14.999Z</time>
      </trkpt>
      <trkpt lat="48.84892" lon="2.34036">
        <ele>93.47</ele>
        <time>2019-05-20T18:30:17.999Z</time>
      </trkpt>
      <trkpt lat="48.84882" lon="2.34037">
        <ele>93.52</ele>
        <time>2019-05-20T18:30:20.999Z</time>
      </trkpt>
      <trkpt lat="48.84872" lon="2.34039">
        <ele>94.55</ele>
        <time>2019-05-20T18:30:41.999Z</time>
      </trkpt>
      <trkpt lat="48.84861" lon="2.34045">
        <ele>94.87</ele>
        <time>2019-05-20T18:30:45.999Z</time>
      </trkpt>
      <trkpt lat="48.84852" lon="2.34045">
        <ele>95.1</ele>
        <time>2019-05-20T18:30:48.999Z</time>
      </trkpt>
      <trkpt lat="48.84842" lon="2.3405">
        <ele>96.03</ele>
        <time>2019-05-20T18:30:51.999Z</time>
      </trkpt>
      <trkpt lat="48.84831" lon="2.34056">
        <ele>96.29</ele>
        <time>2019-05-20T18:30:55.999Z</time>
      </trkpt>
      <trkpt lat="48.84821" lon="2.3406">
        <ele>96.56</ele>
        <time>2019-05-20T18:30:59.999Z</time>
      </trkpt>
      <trkpt lat="48.84808" lon="2.34064">
        <ele>96.83</ele>
        <time>2019-05-20T18:31:03.999Z</time>
      </trkpt>
      <trkpt lat="48.84799" lon="2.34069">
        <ele>97.02</ele>
        <time>2019-05-20T18:31:06.999Z</time>
      </trkpt>
      <trkpt lat="48.84788" lon="2.34076">
        <ele>97.21</ele>
        <time>2019-05-20T18:31:09.999Z</time>
      </trkpt>
      <trkpt lat="48.84779" lon="2.34082">
        <ele>97.44</ele>
        <time>2019-05-20T18:31:13.999Z</time>
      </trkpt>
      <trkpt lat="48.8477" lon="2.34089">
        <ele>97.68</ele>
        <time>2019-05-20T18:31:18.999Z</time>
      </trkpt>
      <trkpt lat="48.8476" lon="2.34085">
        <ele>97.94</ele>
        <time>2019-05-20T18:31:23.999Z</time>
      </trkpt>
      <trkpt lat="48.84754" lon="2.34075">
        <ele>98.31</ele>
        <time>2019-05-20T18:31:29.999Z</time>
      </trkpt>
      <trkpt lat="48.84753" lon="2.3406">
        <ele>98.57</ele>
        <time>2019-05-20T18:31:33.999Z</time>
      </trkpt>
      <trkpt lat="48.8475" lon="2.34045">
        <ele>99.75</ele>
        <time>2019-05-20T18:31:36.999Z</time>
      </trkpt>
      <trkpt lat="48.84743" lon="2.34033">
        <ele>99.87</ele>
        <time>2019-05-20T18:31:39.999Z</time>
      </trkpt>
      <trkpt lat="48.84731" lon="2.34029">
        <ele>100</ele>
        <time>2019-05-20T18:31:43.999Z</time>
      </trkpt>
      <trkpt lat="48.84722" lon="2.34031">
        <ele>100.08</ele>
        <time>2019-05-20T18:31:46.999Z</time>
      </trkpt>
      <trkpt lat="48.84712" lon="2.34037">
        <ele>100.22</ele>
        <time>2019-05-20T18:31:50.999Z</time>
      </trkpt>
      <trkpt lat="48.84702" lon="2.3404">
        <ele>100.34</ele>
        <time>2019-05-20T18:31:53.999Z</time>
      </trkpt>
      <trkpt lat="48.8469" lon="2.3404">
        <ele>100.47</ele>
        <time>2019-05-20T18:31:56.999Z</time>
      </trkpt>
      <trkpt lat="48.84678" lon="2.34039">
        <ele>100.6</ele>
        <time>2019-05-20T18:31:59.999Z</time>
      </trkpt>
      <trkpt lat="48.8467" lon="2.34036">
        <ele>100.68</ele>
        <time>2019-05-20T18:32:01.999Z</time>
      </trkpt>
      <trkpt lat="48.8466" lon="2.34032">
        <ele>101.43</ele>
        <time>2019-05-20T18:32:03.999Z</time>
      </trkpt>
      <trkpt lat="48.84651" lon="2.34027">
        <ele>101.9</ele>
        <time>2019-05-20T18:32:05.999Z</time>
      </trkpt>
      <trkpt lat="48.84641" lon="2.34024">
        <ele>102.22</ele>
        <time>2019-05-20T18:32:07.999Z</time>
      </trkpt>
      <trkpt lat="48.84631" lon="2.34019">
        <ele>102.44</ele>
        <time>2019-05-20T18:32:09.999Z</time>
      </trkpt>
      <trkpt lat="48.84621" lon="2.34012">
        <ele>102.61</ele>
        <time>2019-05-20T18:32:11.999Z</time>
      </trkpt>
      <trkpt lat="48.84611" lon="2.34005">
        <ele>102.73</ele>
        <time>2019-05-20T18:32:13.999Z</time>
      </trkpt>
      <trkpt lat="48.846" lon="2.33999">
        <ele>102.89</ele>
        <time>2019-05-20T18:32:15.999Z</time>
      </trkpt>
      <trkpt lat="48.84588" lon="2.33992">
        <ele>103.02</ele>
        <time>2019-05-20T18:32:17.999Z</time>
      </trkpt>
      <trkpt lat="48.84578" lon="2.33984">
        <ele>103.14</ele>
        <time>2019-05-20T18:32:19.999Z</time>
      </trkpt>
      <trkpt lat="48.84566" lon="2.33975">
        <ele>103.25</ele>
        <time>2019-05-20T18:32:21.999Z</time>
      </trkpt>
      <trkpt lat="48.84554" lon="2.33967">
        <ele>103.35</ele>
        <time>2019-05-20T18:32:23.999Z</time>
      </trkpt>
      <trkpt lat="48.84541" lon="2.33961">
        <ele>103.47</ele>
        <time>2019-05-20T18:32:25.999Z</time>
      </trkpt>
      <trkpt lat="48.84528" lon="2.33953">
        <ele>103.59</ele>
        <time>2019-05-20T18:32:27.999Z</time>
      </trkpt>
      <trkpt lat="48.84516" lon="2.33946">
        <ele>103.67</ele>
        <time>2019-05-20T18:32:29.999Z</time>
      </trkpt>
      <trkpt lat="48.84503" lon="2.33938">
        <ele>103.76</ele>
        <time>2019-05-20T18:32:31.999Z</time>
      </trkpt>
      <trkpt lat="48.84489" lon="2.33931">
        <ele>103.9</ele>
        <time>2019-05-20T18:32:33.999Z</time>
      </trkpt>
      <trkpt lat="48.84476" lon="2.33925">
        <ele>104.01</ele>
        <time>2019-05-20T18:32:35.999Z</time>
      </trkpt>
      <trkpt lat="48.84461" lon="2.3392">
        <ele>104.07</ele>
        <time>2019-05-20T18:32:37.999Z</time>
      </trkpt>
      <trkpt lat="48.84449" lon="2.33914">
        <ele>104.14</ele>
        <time>2019-05-20T18:32:39.999Z</time>
      </trkpt>
      <trkpt lat="48.84437" lon="2.33911">
        <ele>104.29</ele>
        <time>2019-05-20T18:32:41.999Z</time>
      </trkpt>
      <trkpt lat="48.84425" lon="2.33907">
        <ele>104.44</ele>
        <time>2019-05-20T18:32:43.999Z</time>
      </trkpt>
      <trkpt lat="48.84415" lon="2.33902">
        <ele>104.48</ele>
        <time>2019-05-20T18:32:45.999Z</time>
      </trkpt>
      <trkpt lat="48.84406" lon="2.33897">
        <ele>104.52</ele>
        <time>2019-05-20T18:32:47.999Z</time>
      </trkpt>
      <trkpt lat="48.84398" lon="2.3389">
        <ele>104.66</ele>
        <time>2019-05-20T18:32:50.999Z</time>
      </trkpt>
      <trkpt lat="48.84388" lon="2.33892">
        <ele>105.04</ele>
        <time>2019-05-20T18:33:03.999Z</time>
      </trkpt>
      <trkpt lat="48.84382" lon="2.33903">
        <ele>105.03</ele>
        <time>2019-05-20T18:33:07.999Z</time>
      </trkpt>
      <trkpt lat="48.84379" lon="2.33916">
        <ele>104.91</ele>
        <time>2019-05-20T18:33:12.999Z</time>
      </trkpt>
      <trkpt lat="48.84367" lon="2.33915">
        <ele>104.69</ele>
        <time>2019-05-20T18:33:18.999Z</time>
      </trkpt>
      <trkpt lat="48.84356" lon="2.33917">
        <ele>104.58</ele>
        <time>2019-05-20T18:33:21.999Z</time>
      </trkpt>
      <trkpt lat="48.84343" lon="2.33912">
        <ele>104.46</ele>
        <time>2019-05-20T18:33:24.999Z</time>
      </trkpt>
      <trkpt lat="48.84332" lon="2.3391">
        <ele>104.33</ele>
        <time>2019-05-20T18:33:27.999Z</time>
      </trkpt>
      <trkpt lat="48.84322" lon="2.33913">
        <ele>104.19</ele>
        <time>2019-05-20T18:33:30.999Z</time>
      </trkpt>
      <trkpt lat="48.8431" lon="2.33916">
        <ele>103.09</ele>
        <time>2019-05-20T18:33:33.999Z</time>
      </trkpt>
      <trkpt lat="48.84301" lon="2.33916">
        <ele>102.73</ele>
        <time>2019-05-20T18:33:35.999Z</time>
      </trkpt>
      <trkpt lat="48.84292" lon="2.33916">
        <ele>102.52</ele>
        <time>2019-05-20T18:33:37.999Z</time>
      </trkpt>
      <trkpt lat="48.84279" lon="2.33915">
        <ele>102.42</ele>
        <time>2019-05-20T18:33:40.999Z</time>
      </trkpt>
      <trkpt lat="48.84266" lon="2.33914">
        <ele>102.23</ele>
        <time>2019-05-20T18:33:43.999Z</time>
      </trkpt>
      <trkpt lat="48.84253" lon="2.33912">
        <ele>102.27</ele>
        <time>2019-05-20T18:33:46.999Z</time>
      </trkpt>
      <trkpt lat="48.84242" lon="2.33913">
        <ele>102.32</ele>
        <time>2019-05-20T18:33:48.999Z</time>
      </trkpt>
      <trkpt lat="48.8423" lon="2.33912">
        <ele>102.37</ele>
        <time>2019-05-20T18:33:50.999Z</time>
      </trkpt>
      <trkpt lat="48.84218" lon="2.33909">
        <ele>102.49</ele>
        <time>2019-05-20T18:33:53.999Z</time>
      </trkpt>
      <trkpt lat="48.84206" lon="2.33909">
        <ele>102.66</ele>
        <time>2019-05-20T18:33:56.999Z</time>
      </trkpt>
      <trkpt lat="48.84193" lon="2.33909">
        <ele>102.59</ele>
        <time>2019-05-20T18:33:59.999Z</time>
      </trkpt>
      <trkpt lat="48.84176" lon="2.3391">
        <ele>102.47</ele>
        <time>2019-05-20T18:34:01.999Z</time>
      </trkpt>
      <trkpt lat="48.84167" lon="2.33903">
        <ele>102.45</ele>
        <time>2019-05-20T18:34:03.999Z</time>
      </trkpt>
      <trkpt lat="48.84152" lon="2.33901">
        <ele>102.31</ele>
        <time>2019-05-20T18:34:06.999Z</time>
      </trkpt>
      <trkpt lat="48.84142" lon="2.33895">
        <ele>102.26</ele>
        <time>2019-05-20T18:34:10.999Z</time>
      </trkpt>
      <trkpt lat="48.84135" lon="2.33906">
        <ele>102.26</ele>
        <time>2019-05-20T18:34:16.999Z</time>
      </trkpt>
      <trkpt lat="48.84134" lon="2.33923">
        <ele>102.2</ele>
        <time>2019-05-20T18:34:21.999Z</time>
      </trkpt>
      <trkpt lat="48.84129" lon="2.33938">
        <ele>102.15</ele>
        <time>2019-05-20T18:34:25.999Z</time>
      </trkpt>
      <trkpt lat="48.84127" lon="2.33951">
        <ele>102.09</ele>
        <time>2019-05-20T18:34:28.999Z</time>
      </trkpt>
      <trkpt lat="48.84123" lon="2.33964">
        <ele>101.95</ele>
        <time>2019-05-20T18:34:34.999Z</time>
      </trkpt>
      <trkpt lat="48.84117" lon="2.33979">
        <ele>101.65</ele>
        <time>2019-05-20T18:34:45.999Z</time>
      </trkpt>
      <trkpt lat="48.8411" lon="2.33992">
        <ele>101.55</ele>
        <time>2019-05-20T18:34:49.999Z</time>
      </trkpt>
      <trkpt lat="48.84107" lon="2.34009">
        <ele>101.51</ele>
        <time>2019-05-20T18:34:52.999Z</time>
      </trkpt>
      <trkpt lat="48.84104" lon="2.34027">
        <ele>101.52</ele>
        <time>2019-05-20T18:34:55.999Z</time>
      </trkpt>
      <trkpt lat="48.84103" lon="2.3404">
        <ele>101.51</ele>
        <time>2019-05-20T18:34:58.999Z</time>
      </trkpt>
      <trkpt lat="48.841" lon="2.34057">
        <ele>101.49</ele>
        <time>2019-05-20T18:35:02.999Z</time>
      </trkpt>
      <trkpt lat="48.84095" lon="2.34071">
        <ele>101.46</ele>
        <time>2019-05-20T18:35:07.999Z</time>
      </trkpt>
      <trkpt lat="48.84083" lon="2.34071">
        <ele>101.42</ele>
        <time>2019-05-20T18:35:11.999Z</time>
      </trkpt>
      <trkpt lat="48.84073" lon="2.34068">
        <ele>101.39</ele>
        <time>2019-05-20T18:35:15.999Z</time>
      </trkpt>
      <trkpt lat="48.84062" lon="2.34073">
        <ele>101.26</ele>
        <time>2019-05-20T18:35:20.999Z</time>
      </trkpt>
      <trkpt lat="48.84053" lon="2.34079">
        <ele>100.93</ele>
        <time>2019-05-20T18:35:25.999Z</time>
      </trkpt>
      <trkpt lat="48.84042" lon="2.34072">
        <ele>100.69</ele>
        <time>2019-05-20T18:35:29.999Z</time>
      </trkpt>
      <trkpt lat="48.84033" lon="2.34066">
        <ele>100.6</ele>
        <time>2019-05-20T18:35:32.999Z</time>
      </trkpt>
      <trkpt lat="48.84023" lon="2.34056">
        <ele>99.55</ele>
        <time>2019-05-20T18:35:35.999Z</time>
      </trkpt>
      <trkpt lat="48.84011" lon="2.3405">
        <ele>99.85</ele>
        <time>2019-05-20T18:35:38.999Z</time>
      </trkpt>
      <trkpt lat="48.84" lon="2.34041">
        <ele>99.87</ele>
        <time>2019-05-20T18:35:40.999Z</time>
      </trkpt>
      <trkpt lat="48.83991" lon="2.34034">
        <ele>100.05</ele>
        <time>2019-05-20T18:35:41.999Z</time>
      </trkpt>
      <trkpt lat="48.83979" lon="2.34027">
        <ele>100.98</ele>
        <time>2019-05-20T18:35:44.999Z</time>
      </trkpt>
      <trkpt lat="48.83968" lon="2.3402">
        <ele>102.31</ele>
        <time>2019-05-20T18:35:47.999Z</time>
      </trkpt>
      <trkpt lat="48.83959" lon="2.34016">
        <ele>102.8</ele>
        <time>2019-05-20T18:35:50.999Z</time>
      </trkpt>
      <trkpt lat="48.83948" lon="2.34012">
        <ele>103.43</ele>
        <time>2019-05-20T18:35:53.999Z</time>
      </trkpt>
      <trkpt lat="48.83939" lon="2.34003">
        <ele>103.55</ele>
        <time>2019-05-20T18:35:56.999Z</time>
      </trkpt>
      <trkpt lat="48.83929" lon="2.33997">
        <ele>103.68</ele>
        <time>2019-05-20T18:35:59.999Z</time>
      </trkpt>
      <trkpt lat="48.83918" lon="2.33989">
        <ele>103.79</ele>
        <time>2019-05-20T18:36:02.999Z</time>
      </trkpt>
      <trkpt lat="48.83909" lon="2.33985">
        <ele>103.89</ele>
        <time>2019-05-20T18:36:05.999Z</time>
      </trkpt>
      <trkpt lat="48.83901" lon="2.33977">
        <ele>104.06</ele>
        <time>2019-05-20T18:36:09.999Z</time>
      </trkpt>
      <trkpt lat="48.83897" lon="2.33964">
        <ele>105.11</ele>
        <time>2019-05-20T18:37:00.999Z</time>
      </trkpt>
      <trkpt lat="48.83887" lon="2.33963">
        <ele>108.54</ele>
        <time>2019-05-20T18:39:26.999Z</time>
      </trkpt>
      <trkpt lat="48.83878" lon="2.33959">
        <ele>108.62</ele>
        <time>2019-05-20T18:39:29.999Z</time>
      </trkpt>
      <trkpt lat="48.83868" lon="2.33954">
        <ele>108.72</ele>
        <time>2019-05-20T18:39:32.999Z</time>
      </trkpt>
      <trkpt lat="48.83859" lon="2.33949">
        <ele>108.81</ele>
        <time>2019-05-20T18:39:35.999Z</time>
      </trkpt>
      <trkpt lat="48.8385" lon="2.33942">
        <ele>108.9</ele>
        <time>2019-05-20T18:39:38.999Z</time>
      </trkpt>
      <trkpt lat="48.8384" lon="2.33937">
        <ele>108.99</ele>
        <time>2019-05-20T18:39:41.999Z</time>
      </trkpt>
      <trkpt lat="48.8383" lon="2.33927">
        <ele>109.08</ele>
        <time>2019-05-20T18:39:44.999Z</time>
      </trkpt>
      <trkpt lat="48.83818" lon="2.33919">
        <ele>109.16</ele>
        <time>2019-05-20T18:39:47.999Z</time>
      </trkpt>
      <trkpt lat="48.83808" lon="2.33908">
        <ele>109.7</ele>
        <time>2019-05-20T18:39:50.999Z</time>
      </trkpt>
      <trkpt lat="48.83796" lon="2.33899">
        <ele>109.76</ele>
        <time>2019-05-20T18:39:53.999Z</time>
      </trkpt>
      <trkpt lat="48.83786" lon="2.33892">
        <ele>109.83</ele>
        <time>2019-05-20T18:39:57.000Z</time>
      </trkpt>
      <trkpt lat="48.83777" lon="2.33884">
        <ele>109.89</ele>
        <time>2019-05-20T18:40:00.000Z</time>
      </trkpt>
      <trkpt lat="48.83767" lon="2.33876">
        <ele>109.95</ele>
        <time>2019-05-20T18:40:03.000Z</time>
      </trkpt>
      <trkpt lat="48.83756" lon="2.33869">
        <ele>110.01</ele>
        <time>2019-05-20T18:40:06.000Z</time>
      </trkpt>
      <trkpt lat="48.83747" lon="2.33863">
        <ele>110.07</ele>
        <time>2019-05-20T18:40:09.000Z</time>
      </trkpt>
      <trkpt lat="48.83738" lon="2.33857">
        <ele>110.33</ele>
        <time>2019-05-20T18:40:12.000Z</time>
      </trkpt>
      <trkpt lat="48.83727" lon="2.3385">
        <ele>110.53</ele>
        <time>2019-05-20T18:40:15.000Z</time>
      </trkpt>
      <trkpt lat="48.83715" lon="2.33844">
        <ele>110.9</ele>
        <time>2019-05-20T18:40:18.000Z</time>
      </trkpt>
      <trkpt lat="48.83703" lon="2.33839">
        <ele>110.93</ele>
        <time>2019-05-20T18:40:21.000Z</time>
      </trkpt>
      <trkpt lat="48.83693" lon="2.33834">
        <ele>110.96</ele>
        <time>2019-05-20T18:40:24.000Z</time>
      </trkpt>
      <trkpt lat="48.83682" lon="2.33829">
        <ele>111.11</ele>
        <time>2019-05-20T18:40:27.000Z</time>
      </trkpt>
      <trkpt lat="48.83673" lon="2.33825">
        <ele>111.32</ele>
        <time>2019-05-20T18:40:29.000Z</time>
      </trkpt>
      <trkpt lat="48.83661" lon="2.33818">
        <ele>111.53</ele>
        <time>2019-05-20T18:40:32.000Z</time>
      </trkpt>
      <trkpt lat="48.83649" lon="2.33811">
        <ele>111.66</ele>
        <time>2019-05-20T18:40:35.000Z</time>
      </trkpt>
      <trkpt lat="48.83638" lon="2.33803">
        <ele>111.78</ele>
        <time>2019-05-20T18:40:38.000Z</time>
      </trkpt>
      <trkpt lat="48.83627" lon="2.33794">
        <ele>111.89</ele>
        <time>2019-05-20T18:40:41.000Z</time>
      </trkpt>
      <trkpt lat="48.83615" lon="2.33787">
        <ele>112</ele>
        <time>2019-05-20T18:40:44.000Z</time>
      </trkpt>
      <trkpt lat="48.83606" lon="2.33785">
        <ele>112.05</ele>
        <time>2019-05-20T18:40:46.000Z</time>
      </trkpt>
      <trkpt lat="48.83594" lon="2.33777">
        <ele>112.09</ele>
        <time>2019-05-20T18:40:49.000Z</time>
      </trkpt>
      <trkpt lat="48.83585" lon="2.33772">
        <ele>112.12</ele>
        <time>2019-05-20T18:40:51.000Z</time>
      </trkpt>
      <trkpt lat="48.83575" lon="2.33767">
        <ele>112.15</ele>
        <time>2019-05-20T18:40:53.000Z</time>
      </trkpt>
      <trkpt lat="48.83567" lon="2.33762">
        <ele>112.17</ele>
        <time>2019-05-20T18:40:55.000Z</time>
      </trkpt>
      <trkpt lat="48.83555" lon="2.33754">
        <ele>112.16</ele>
        <time>2019-05-20T18:40:58.000Z</time>
      </trkpt>
      <trkpt lat="48.83546" lon="2.33749">
        <ele>112.16</ele>
        <time>2019-05-20T18:41:00.000Z</time>
      </trkpt>
      <trkpt lat="48.83538" lon="2.33742">
        <ele>112.19</ele>
        <time>2019-05-20T18:41:02.000Z</time>
      </trkpt>
      <trkpt lat="48.83529" lon="2.33735">
        <ele>112.24</ele>
        <time>2019-05-20T18:41:04.000Z</time>
      </trkpt>
      <trkpt lat="48.83521" lon="2.33729">
        <ele>112.27</ele>
        <time>2019-05-20T18:41:06.000Z</time>
      </trkpt>
      <trkpt lat="48.83513" lon="2.33723">
        <ele>112.27</ele>
        <time>2019-05-20T18:41:08.000Z</time>
      </trkpt>
      <trkpt lat="48.83504" lon="2.33717">
        <ele>112.26</ele>
        <time>2019-05-20T18:41:10.000Z</time>
      </trkpt>
      <trkpt lat="48.83496" lon="2.33711">
        <ele>112.26</ele>
        <time>2019-05-20T18:41:12.000Z</time>
      </trkpt>
      <trkpt lat="48.83487" lon="2.33705">
        <ele>112.28</ele>
        <time>2019-05-20T18:41:14.000Z</time>
      </trkpt>
      <trkpt lat="48.83477" lon="2.33698">
        <ele>112.3</ele>
        <time>2019-05-20T18:41:16.000Z</time>
      </trkpt>
      <trkpt lat="48.83467" lon="2.3369">
        <ele>112.29</ele>
        <time>2019-05-20T18:41:19.000Z</time>
      </trkpt>
      <trkpt lat="48.83456" lon="2.33683">
        <ele>112.24</ele>
        <time>2019-05-20T18:41:22.000Z</time>
      </trkpt>
      <trkpt lat="48.83445" lon="2.3368">
        <ele>112.24</ele>
        <time>2019-05-20T18:41:24.000Z</time>
      </trkpt>
      <trkpt lat="48.83432" lon="2.33676">
        <ele>112.26</ele>
        <time>2019-05-20T18:41:27.000Z</time>
      </trkpt>
      <trkpt lat="48.83422" lon="2.33674">
        <ele>112.3</ele>
        <time>2019-05-20T18:41:29.000Z</time>
      </trkpt>
      <trkpt lat="48.83413" lon="2.33666">
        <ele>112.35</ele>
        <time>2019-05-20T18:41:31.000Z</time>
      </trkpt>
      <trkpt lat="48.83405" lon="2.3366">
        <ele>112.4</ele>
        <time>2019-05-20T18:41:33.000Z</time>
      </trkpt>
      <trkpt lat="48.83395" lon="2.33656">
        <ele>112.44</ele>
        <time>2019-05-20T18:41:35.000Z</time>
      </trkpt>
      <trkpt lat="48.83385" lon="2.33654">
        <ele>112.48</ele>
        <time>2019-05-20T18:41:37.000Z</time>
      </trkpt>
      <trkpt lat="48.83374" lon="2.33645">
        <ele>112.52</ele>
        <time>2019-05-20T18:41:40.000Z</time>
      </trkpt>
      <trkpt lat="48.83365" lon="2.33638">
        <ele>112.52</ele>
        <time>2019-05-20T18:41:42.000Z</time>
      </trkpt>
      <trkpt lat="48.83357" lon="2.33631">
        <ele>112.53</ele>
        <time>2019-05-20T18:41:44.000Z</time>
      </trkpt>
      <trkpt lat="48.83347" lon="2.33622">
        <ele>112.54</ele>
        <time>2019-05-20T18:41:47.000Z</time>
      </trkpt>
      <trkpt lat="48.83339" lon="2.33614">
        <ele>112.54</ele>
        <time>2019-05-20T18:41:51.000Z</time>
      </trkpt>
      <trkpt lat="48.83331" lon="2.33605">
        <ele>112.56</ele>
        <time>2019-05-20T18:41:56.000Z</time>
      </trkpt>
      <trkpt lat="48.83322" lon="2.33599">
        <ele>112.56</ele>
        <time>2019-05-20T18:42:00.000Z</time>
      </trkpt>
      <trkpt lat="48.83313" lon="2.33594">
        <ele>112.54</ele>
        <time>2019-05-20T18:42:20.000Z</time>
      </trkpt>
      <trkpt lat="48.83302" lon="2.3359">
        <ele>112.49</ele>
        <time>2019-05-20T18:42:25.000Z</time>
      </trkpt>
      <trkpt lat="48.83293" lon="2.33585">
        <ele>112.47</ele>
        <time>2019-05-20T18:42:28.000Z</time>
      </trkpt>
      <trkpt lat="48.83284" lon="2.33577">
        <ele>112.44</ele>
        <time>2019-05-20T18:42:31.000Z</time>
      </trkpt>
      <trkpt lat="48.83275" lon="2.3357">
        <ele>112.42</ele>
        <time>2019-05-20T18:42:34.000Z</time>
      </trkpt>
      <trkpt lat="48.83262" lon="2.33564">
        <ele>112.4</ele>
        <time>2019-05-20T18:42:37.000Z</time>
      </trkpt>
      <trkpt lat="48.83255" lon="2.33556">
        <ele>112.31</ele>
        <time>2019-05-20T18:42:39.000Z</time>
      </trkpt>
      <trkpt lat="48.83246" lon="2.33547">
        <ele>112.26</ele>
        <time>2019-05-20T18:42:41.000Z</time>
      </trkpt>
      <trkpt lat="48.8324" lon="2.33536">
        <ele>112.25</ele>
        <time>2019-05-20T18:42:43.000Z</time>
      </trkpt>
      <trkpt lat="48.83229" lon="2.33528">
        <ele>112.25</ele>
        <time>2019-05-20T18:42:46.000Z</time>
      </trkpt>
      <trkpt lat="48.83216" lon="2.33531">
        <ele>112.31</ele>
        <time>2019-05-20T18:42:48.000Z</time>
      </trkpt>
      <trkpt lat="48.83204" lon="2.33528">
        <ele>112.44</ele>
        <time>2019-05-20T18:42:51.000Z</time>
      </trkpt>
      <trkpt lat="48.83192" lon="2.33523">
        <ele>112.51</ele>
        <time>2019-05-20T18:42:54.000Z</time>
      </trkpt>
      <trkpt lat="48.8318" lon="2.33519">
        <ele>112.64</ele>
        <time>2019-05-20T18:42:57.000Z</time>
      </trkpt>
      <trkpt lat="48.83169" lon="2.3351">
        <ele>112.73</ele>
        <time>2019-05-20T18:43:00.000Z</time>
      </trkpt>
      <trkpt lat="48.8316" lon="2.33496">
        <ele>112.78</ele>
        <time>2019-05-20T18:43:03.000Z</time>
      </trkpt>
      <trkpt lat="48.83149" lon="2.33491">
        <ele>112.79</ele>
        <time>2019-05-20T18:43:06.000Z</time>
      </trkpt>
      <trkpt lat="48.83136" lon="2.33493">
        <ele>112.8</ele>
        <time>2019-05-20T18:43:09.000Z</time>
      </trkpt>
      <trkpt lat="48.83125" lon="2.33488">
        <ele>112.82</ele>
        <time>2019-05-20T18:43:12.000Z</time>
      </trkpt>
      <trkpt lat="48.83114" lon="2.33483">
        <ele>112.84</ele>
        <time>2019-05-20T18:43:15.000Z</time>
      </trkpt>
      <trkpt lat="48.83103" lon="2.33475">
        <ele>112.96</ele>
        <time>2019-05-20T18:43:18.000Z</time>
      </trkpt>
      <trkpt lat="48.83094" lon="2.33469">
        <ele>113.04</ele>
        <time>2019-05-20T18:43:20.000Z</time>
      </trkpt>
      <trkpt lat="48.83084" lon="2.33461">
        <ele>113.06</ele>
        <time>2019-05-20T18:43:23.000Z</time>
      </trkpt>
      <trkpt lat="48.83072" lon="2.3345">
        <ele>113.11</ele>
        <time>2019-05-20T18:43:26.000Z</time>
      </trkpt>
      <trkpt lat="48.83064" lon="2.33442">
        <ele>113.12</ele>
        <time>2019-05-20T18:43:28.000Z</time>
      </trkpt>
      <trkpt lat="48.83052" lon="2.33434">
        <ele>113.19</ele>
        <time>2019-05-20T18:43:31.000Z</time>
      </trkpt>
      <trkpt lat="48.83041" lon="2.33425">
        <ele>113.19</ele>
        <time>2019-05-20T18:43:34.000Z</time>
      </trkpt>
      <trkpt lat="48.83032" lon="2.33419">
        <ele>113.2</ele>
        <time>2019-05-20T18:43:37.000Z</time>
      </trkpt>
      <trkpt lat="48.83025" lon="2.3341">
        <ele>113.21</ele>
        <time>2019-05-20T18:43:41.000Z</time>
      </trkpt>
      <trkpt lat="48.83015" lon="2.33405">
        <ele>113.22</ele>
        <time>2019-05-20T18:43:48.000Z</time>
      </trkpt>
      <trkpt lat="48.83005" lon="2.33406">
        <ele>113.19</ele>
        <time>2019-05-20T18:43:53.000Z</time>
      </trkpt>
      <trkpt lat="48.82995" lon="2.33411">
        <ele>113.14</ele>
        <time>2019-05-20T18:43:59.000Z</time>
      </trkpt>
      <trkpt lat="48.82986" lon="2.33406">
        <ele>113.09</ele>
        <time>2019-05-20T18:44:04.000Z</time>
      </trkpt>
      <trkpt lat="48.82976" lon="2.33402">
        <ele>113.06</ele>
        <time>2019-05-20T18:44:08.000Z</time>
      </trkpt>
      <trkpt lat="48.82963" lon="2.33404">
        <ele>113.03</ele>
        <time>2019-05-20T18:44:12.000Z</time>
      </trkpt>
      <trkpt lat="48.82954" lon="2.33407">
        <ele>112.89</ele>
        <time>2019-05-20T18:44:14.000Z</time>
      </trkpt>
      <trkpt lat="48.82942" lon="2.33413">
        <ele>112.55</ele>
        <time>2019-05-20T18:44:17.000Z</time>
      </trkpt>
      <trkpt lat="48.82933" lon="2.33419">
        <ele>112.45</ele>
        <time>2019-05-20T18:44:19.000Z</time>
      </trkpt>
      <trkpt lat="48.82924" lon="2.33423">
        <ele>112.33</ele>
        <time>2019-05-20T18:44:21.000Z</time>
      </trkpt>
      <trkpt lat="48.82914" lon="2.33426">
        <ele>112.3</ele>
        <time>2019-05-20T18:44:23.000Z</time>
      </trkpt>
      <trkpt lat="48.82906" lon="2.33427">
        <ele>112.25</ele>
        <time>2019-05-20T18:44:25.000Z</time>
      </trkpt>
      <trkpt lat="48.82896" lon="2.33429">
        <ele>112.22</ele>
        <time>2019-05-20T18:44:27.000Z</time>
      </trkpt>
      <trkpt lat="48.82883" lon="2.33432">
        <ele>112.14</ele>
        <time>2019-05-20T18:44:30.000Z</time>
      </trkpt>
      <trkpt lat="48.82872" lon="2.33436">
        <ele>112.03</ele>
        <time>2019-05-20T18:44:32.000Z</time>
      </trkpt>
      <trkpt lat="48.82861" lon="2.3344">
        <ele>111.98</ele>
        <time>2019-05-20T18:44:34.000Z</time>
      </trkpt>
      <trkpt lat="48.82851" lon="2.33445">
        <ele>111.96</ele>
        <time>2019-05-20T18:44:36.000Z</time>
      </trkpt>
      <trkpt lat="48.82842" lon="2.33449">
        <ele>111.9</ele>
        <time>2019-05-20T18:44:38.000Z</time>
      </trkpt>
      <trkpt lat="48.82831" lon="2.33452">
        <ele>111.81</ele>
        <time>2019-05-20T18:44:40.000Z</time>
      </trkpt>
      <trkpt lat="48.82822" lon="2.33455">
        <ele>111.74</ele>
        <time>2019-05-20T18:44:42.000Z</time>
      </trkpt>
      <trkpt lat="48.82812" lon="2.33459">
        <ele>111.69</ele>
        <time>2019-05-20T18:44:44.000Z</time>
      </trkpt>
      <trkpt lat="48.82804" lon="2.33463">
        <ele>111.65</ele>
        <time>2019-05-20T18:44:46.000Z</time>
      </trkpt>
      <trkpt lat="48.8279" lon="2.33467">
        <ele>111.46</ele>
        <time>2019-05-20T18:44:49.000Z</time>
      </trkpt>
      <trkpt lat="48.82779" lon="2.33471">
        <ele>111.25</ele>
        <time>2019-05-20T18:44:52.000Z</time>
      </trkpt>
      <trkpt lat="48.82768" lon="2.33473">
        <ele>111.03</ele>
        <time>2019-05-20T18:44:55.000Z</time>
      </trkpt>
      <trkpt lat="48.82757" lon="2.33478">
        <ele>110.8</ele>
        <time>2019-05-20T18:44:58.000Z</time>
      </trkpt>
      <trkpt lat="48.82747" lon="2.33482">
        <ele>110.57</ele>
        <time>2019-05-20T18:45:01.000Z</time>
      </trkpt>
      <trkpt lat="48.82735" lon="2.33487">
        <ele>110.23</ele>
        <time>2019-05-20T18:45:05.000Z</time>
      </trkpt>
      <trkpt lat="48.82726" lon="2.3349">
        <ele>109.96</ele>
        <time>2019-05-20T18:45:08.000Z</time>
      </trkpt>
      <trkpt lat="48.82716" lon="2.33494">
        <ele>109.7</ele>
        <time>2019-05-20T18:45:11.000Z</time>
      </trkpt>
      <trkpt lat="48.82706" lon="2.33499">
        <ele>109.45</ele>
        <time>2019-05-20T18:45:14.000Z</time>
      </trkpt>
      <trkpt lat="48.82694" lon="2.33502">
        <ele>107.99</ele>
        <time>2019-05-20T18:45:17.000Z</time>
      </trkpt>
      <trkpt lat="48.82682" lon="2.33505">
        <ele>107.86</ele>
        <time>2019-05-20T18:45:20.000Z</time>
      </trkpt>
      <trkpt lat="48.82671" lon="2.33509">
        <ele>107.75</ele>
        <time>2019-05-20T18:45:23.000Z</time>
      </trkpt>
      <trkpt lat="48.8266" lon="2.33511">
        <ele>107.65</ele>
        <time>2019-05-20T18:45:26.000Z</time>
      </trkpt>
      <trkpt lat="48.82647" lon="2.33514">
        <ele>107.55</ele>
        <time>2019-05-20T18:45:29.000Z</time>
      </trkpt>
      <trkpt lat="48.82637" lon="2.33517">
        <ele>107.3</ele>
        <time>2019-05-20T18:45:31.000Z</time>
      </trkpt>
      <trkpt lat="48.82629" lon="2.33522">
        <ele>107.12</ele>
        <time>2019-05-20T18:45:33.000Z</time>
      </trkpt>
      <trkpt lat="48.82618" lon="2.33523">
        <ele>107.08</ele>
        <time>2019-05-20T18:45:35.000Z</time>
      </trkpt>
      <trkpt lat="48.82609" lon="2.33527">
        <ele>107.08</ele>
        <time>2019-05-20T18:45:37.000Z</time>
      </trkpt>
      <trkpt lat="48.82597" lon="2.33532">
        <ele>107.19</ele>
        <time>2019-05-20T18:45:40.000Z</time>
      </trkpt>
      <trkpt lat="48.82587" lon="2.33536">
        <ele>107.35</ele>
        <time>2019-05-20T18:45:42.000Z</time>
      </trkpt>
      <trkpt lat="48.82575" lon="2.33541">
        <ele>107.54</ele>
        <time>2019-05-20T18:45:45.000Z</time>
      </trkpt>
      <trkpt lat="48.82564" lon="2.33548">
        <ele>107.63</ele>
        <time>2019-05-20T18:45:48.000Z</time>
      </trkpt>
      <trkpt lat="48.82555" lon="2.33551">
        <ele>107.78</ele>
        <time>2019-05-20T18:45:50.000Z</time>
      </trkpt>
      <trkpt lat="48.82546" lon="2.33555">
        <ele>108</ele>
        <time>2019-05-20T18:45:52.000Z</time>
      </trkpt>
      <trkpt lat="48.82534" lon="2.3356">
        <ele>108.27</ele>
        <time>2019-05-20T18:45:55.000Z</time>
      </trkpt>
      <trkpt lat="48.82521" lon="2.33564">
        <ele>108.54</ele>
        <time>2019-05-20T18:45:58.000Z</time>
      </trkpt>
      <trkpt lat="48.82509" lon="2.33569">
        <ele>108.59</ele>
        <time>2019-05-20T18:46:01.000Z</time>
      </trkpt>
      <trkpt lat="48.82498" lon="2.33572">
        <ele>108.6</ele>
        <time>2019-05-20T18:46:03.000Z</time>
      </trkpt>
      <trkpt lat="48.82489" lon="2.33575">
        <ele>108.64</ele>
        <time>2019-05-20T18:46:05.000Z</time>
      </trkpt>
      <trkpt lat="48.82479" lon="2.3358">
        <ele>108.65</ele>
        <time>2019-05-20T18:46:08.000Z</time>
      </trkpt>
      <trkpt lat="48.8247" lon="2.33585">
        <ele>108.65</ele>
        <time>2019-05-20T18:46:11.000Z</time>
      </trkpt>
      <trkpt lat="48.82457" lon="2.33587">
        <ele>108.64</ele>
        <time>2019-05-20T18:46:14.000Z</time>
      </trkpt>
      <trkpt lat="48.82448" lon="2.33589">
        <ele>108.64</ele>
        <time>2019-05-20T18:46:16.000Z</time>
      </trkpt>
      <trkpt lat="48.82439" lon="2.33594">
        <ele>108.66</ele>
        <time>2019-05-20T18:46:20.000Z</time>
      </trkpt>
      <trkpt lat="48.82429" lon="2.33601">
        <ele>108.65</ele>
        <time>2019-05-20T18:46:25.000Z</time>
      </trkpt>
      <trkpt lat="48.82429" lon="2.33616">
        <ele>108.99</ele>
        <time>2019-05-20T18:47:08.000Z</time>
      </trkpt>
      <trkpt lat="48.82432" lon="2.33629">
        <ele>109.12</ele>
        <time>2019-05-20T18:47:12.000Z</time>
      </trkpt>
      <trkpt lat="48.82435" lon="2.33645">
        <ele>109.24</ele>
        <time>2019-05-20T18:47:16.000Z</time>
      </trkpt>
      <trkpt lat="48.82436" lon="2.33661">
        <ele>109.34</ele>
        <time>2019-05-20T18:47:19.000Z</time>
      </trkpt>
      <trkpt lat="48.82441" lon="2.33681">
        <ele>109.97</ele>
        <time>2019-05-20T18:47:22.000Z</time>
      </trkpt>
      <trkpt lat="48.82441" lon="2.33699">
        <ele>110.37</ele>
        <time>2019-05-20T18:47:24.000Z</time>
      </trkpt>
      <trkpt lat="48.82443" lon="2.33716">
        <ele>110.63</ele>
        <time>2019-05-20T18:47:26.000Z</time>
      </trkpt>
      <trkpt lat="48.82447" lon="2.3373">
        <ele>110.81</ele>
        <time>2019-05-20T18:47:28.000Z</time>
      </trkpt>
      <trkpt lat="48.82448" lon="2.33749">
        <ele>110.93</ele>
        <time>2019-05-20T18:47:30.000Z</time>
      </trkpt>
      <trkpt lat="48.8245" lon="2.33769">
        <ele>110.99</ele>
        <time>2019-05-20T18:47:32.000Z</time>
      </trkpt>
      <trkpt lat="48.82451" lon="2.33787">
        <ele>111</ele>
        <time>2019-05-20T18:47:34.000Z</time>
      </trkpt>
      <trkpt lat="48.82451" lon="2.33809">
        <ele>111.01</ele>
        <time>2019-05-20T18:47:36.000Z</time>
      </trkpt>
      <trkpt lat="48.82451" lon="2.3383">
        <ele>111</ele>
        <time>2019-05-20T18:47:38.000Z</time>
      </trkpt>
      <trkpt lat="48.82452" lon="2.33847">
        <ele>110.96</ele>
        <time>2019-05-20T18:47:40.000Z</time>
      </trkpt>
      <trkpt lat="48.82454" lon="2.33867">
        <ele>110.97</ele>
        <time>2019-05-20T18:47:42.000Z</time>
      </trkpt>
      <trkpt lat="48.82457" lon="2.33887">
        <ele>110.99</ele>
        <time>2019-05-20T18:47:44.000Z</time>
      </trkpt>
      <trkpt lat="48.82461" lon="2.33907">
        <ele>110.99</ele>
        <time>2019-05-20T18:47:46.000Z</time>
      </trkpt>
      <trkpt lat="48.82464" lon="2.33922">
        <ele>110.98</ele>
        <time>2019-05-20T18:47:48.000Z</time>
      </trkpt>
      <trkpt lat="48.82467" lon="2.33941">
        <ele>110.98</ele>
        <time>2019-05-20T18:47:50.000Z</time>
      </trkpt>
      <trkpt lat="48.82468" lon="2.33964">
        <ele>111.01</ele>
        <time>2019-05-20T18:47:53.000Z</time>
      </trkpt>
      <trkpt lat="48.82467" lon="2.33982">
        <ele>111.02</ele>
        <time>2019-05-20T18:47:56.000Z</time>
      </trkpt>
      <trkpt lat="48.82463" lon="2.33997">
        <ele>111.03</ele>
        <time>2019-05-20T18:48:00.000Z</time>
      </trkpt>
      <trkpt lat="48.82454" lon="2.34">
        <ele>111.05</ele>
        <time>2019-05-20T18:48:05.000Z</time>
      </trkpt>
      <trkpt lat="48.82465" lon="2.33999">
        <ele>111.12</ele>
        <time>2019-05-20T18:48:25.000Z</time>
      </trkpt>
      <trkpt lat="48.82472" lon="2.34011">
        <ele>111.14</ele>
        <time>2019-05-20T18:48:32.000Z</time>
      </trkpt>
      <trkpt lat="48.82479" lon="2.34021">
        <ele>111.15</ele>
        <time>2019-05-20T18:48:34.000Z</time>
      </trkpt>
      <trkpt lat="48.82489" lon="2.34028">
        <ele>111.16</ele>
        <time>2019-05-20T18:48:37.000Z</time>
      </trkpt>
      <trkpt lat="48.82502" lon="2.34044">
        <ele>111.23</ele>
        <time>2019-05-20T18:48:41.000Z</time>
      </trkpt>
      <trkpt lat="48.82513" lon="2.3405">
        <ele>111.25</ele>
        <time>2019-05-20T18:48:43.000Z</time>
      </trkpt>
      <trkpt lat="48.82526" lon="2.34064">
        <ele>111.27</ele>
        <time>2019-05-20T18:48:45.000Z</time>
      </trkpt>
      <trkpt lat="48.82536" lon="2.3407">
        <ele>111.29</ele>
        <time>2019-05-20T18:48:47.000Z</time>
      </trkpt>
      <trkpt lat="48.82546" lon="2.34077">
        <ele>111.33</ele>
        <time>2019-05-20T18:48:49.000Z</time>
      </trkpt>
      <trkpt lat="48.82556" lon="2.34088">
        <ele>111.36</ele>
        <time>2019-05-20T18:48:51.000Z</time>
      </trkpt>
      <trkpt lat="48.82567" lon="2.34098">
        <ele>111.38</ele>
        <time>2019-05-20T18:48:53.000Z</time>
      </trkpt>
      <trkpt lat="48.82583" lon="2.34114">
        <ele>111.4</ele>
        <time>2019-05-20T18:48:56.000Z</time>
      </trkpt>
      <trkpt lat="48.82596" lon="2.34124">
        <ele>111.38</ele>
        <time>2019-05-20T18:48:58.000Z</time>
      </trkpt>
      <trkpt lat="48.82609" lon="2.34134">
        <ele>111.35</ele>
        <time>2019-05-20T18:49:00.000Z</time>
      </trkpt>
      <trkpt lat="48.82623" lon="2.34142">
        <ele>111.34</ele>
        <time>2019-05-20T18:49:02.000Z</time>
      </trkpt>
      <trkpt lat="48.82615" lon="2.34152">
        <ele>111.34</ele>
        <time>2019-05-20T18:49:08.000Z</time>
      </trkpt>
      <trkpt lat="48.82605" lon="2.34151">
        <ele>111.34</ele>
        <time>2019-05-20T18:49:10.000Z</time>
      </trkpt>
      <trkpt lat="48.82591" lon="2.34151">
        <ele>111.35</ele>
        <time>2019-05-20T18:49:13.000Z</time>
      </trkpt>
      <trkpt lat="48.82578" lon="2.34149">
        <ele>111.33</ele>
        <time>2019-05-20T18:49:16.000Z</time>
      </trkpt>
      <trkpt lat="48.82569" lon="2.34147">
        <ele>111.31</ele>
        <time>2019-05-20T18:49:18.000Z</time>
      </trkpt>
      <trkpt lat="48.82559" lon="2.34145">
        <ele>111.29</ele>
        <time>2019-05-20T18:49:20.000Z</time>
      </trkpt>
      <trkpt lat="48.82549" lon="2.34147">
        <ele>111.16</ele>
        <time>2019-05-20T18:49:22.000Z</time>
      </trkpt>
      <trkpt lat="48.82538" lon="2.34147">
        <ele>111.04</ele>
        <time>2019-05-20T18:49:24.000Z</time>
      </trkpt>
      <trkpt lat="48.82528" lon="2.34147">
        <ele>110.98</ele>
        <time>2019-05-20T18:49:26.000Z</time>
      </trkpt>
      <trkpt lat="48.82517" lon="2.34146">
        <ele>110.9</ele>
        <time>2019-05-20T18:49:28.000Z</time>
      </trkpt>
      <trkpt lat="48.82506" lon="2.34143">
        <ele>110.89</ele>
        <time>2019-05-20T18:49:30.000Z</time>
      </trkpt>
      <trkpt lat="48.82494" lon="2.34143">
        <ele>110.82</ele>
        <time>2019-05-20T18:49:32.000Z</time>
      </trkpt>
      <trkpt lat="48.82481" lon="2.34142">
        <ele>110.8</ele>
        <time>2019-05-20T18:49:35.000Z</time>
      </trkpt>
      <trkpt lat="48.8247" lon="2.3414">
        <ele>110.72</ele>
        <time>2019-05-20T18:49:39.000Z</time>
      </trkpt>
      <trkpt lat="48.8246" lon="2.34136">
        <ele>111.93</ele>
        <time>2019-05-20T18:50:46.000Z</time>
      </trkpt>
      <trkpt lat="48.82451" lon="2.3413">
        <ele>112.35</ele>
        <time>2019-05-20T18:50:49.000Z</time>
      </trkpt>
      <trkpt lat="48.82439" lon="2.34125">
        <ele>112.72</ele>
        <time>2019-05-20T18:50:52.000Z</time>
      </trkpt>
      <trkpt lat="48.82429" lon="2.34125">
        <ele>112.95</ele>
        <time>2019-05-20T18:50:54.000Z</time>
      </trkpt>
      <trkpt lat="48.82416" lon="2.34126">
        <ele>114.19</ele>
        <time>2019-05-20T18:50:57.000Z</time>
      </trkpt>
      <trkpt lat="48.82403" lon="2.34124">
        <ele>115.09</ele>
        <time>2019-05-20T18:51:00.000Z</time>
      </trkpt>
      <trkpt lat="48.82392" lon="2.34123">
        <ele>115.72</ele>
        <time>2019-05-20T18:51:02.000Z</time>
      </trkpt>
      <trkpt lat="48.82381" lon="2.34128">
        <ele>115.84</ele>
        <time>2019-05-20T18:51:05.000Z</time>
      </trkpt>
      <trkpt lat="48.82369" lon="2.34133">
        <ele>115.95</ele>
        <time>2019-05-20T18:51:08.000Z</time>
      </trkpt>
      <trkpt lat="48.82359" lon="2.3414">
        <ele>116.03</ele>
        <time>2019-05-20T18:51:10.000Z</time>
      </trkpt>
      <trkpt lat="48.82348" lon="2.34144">
        <ele>116.17</ele>
        <time>2019-05-20T18:51:13.000Z</time>
      </trkpt>
      <trkpt lat="48.82339" lon="2.34148">
        <ele>117.03</ele>
        <time>2019-05-20T18:51:15.000Z</time>
      </trkpt>
      <trkpt lat="48.82329" lon="2.34151">
        <ele>117.1</ele>
        <time>2019-05-20T18:51:17.000Z</time>
      </trkpt>
      <trkpt lat="48.82317" lon="2.34155">
        <ele>117.81</ele>
        <time>2019-05-20T18:51:20.000Z</time>
      </trkpt>
      <trkpt lat="48.82304" lon="2.34161">
        <ele>118.43</ele>
        <time>2019-05-20T18:51:23.000Z</time>
      </trkpt>
      <trkpt lat="48.82293" lon="2.34165">
        <ele>118.73</ele>
        <time>2019-05-20T18:51:25.000Z</time>
      </trkpt>
      <trkpt lat="48.82284" lon="2.34167">
        <ele>118.87</ele>
        <time>2019-05-20T18:51:27.000Z</time>
      </trkpt>
      <trkpt lat="48.82274" lon="2.3417">
        <ele>119.03</ele>
        <time>2019-05-20T18:51:29.000Z</time>
      </trkpt>
      <trkpt lat="48.82261" lon="2.3418">
        <ele>119.22</ele>
        <time>2019-05-20T18:51:31.000Z</time>
      </trkpt>
      <trkpt lat="48.82253" lon="2.34188">
        <ele>119.29</ele>
        <time>2019-05-20T18:51:33.000Z</time>
      </trkpt>
      <trkpt lat="48.82243" lon="2.34194">
        <ele>119.3</ele>
        <time>2019-05-20T18:51:35.000Z</time>
      </trkpt>
      <trkpt lat="48.82233" lon="2.34202">
        <ele>119.29</ele>
        <time>2019-05-20T18:51:38.000Z</time>
      </trkpt>
      <trkpt lat="48.8222" lon="2.34206">
        <ele>119.27</ele>
        <time>2019-05-20T18:51:42.000Z</time>
      </trkpt>
      <trkpt lat="48.82211" lon="2.34212">
        <ele>119.26</ele>
        <time>2019-05-20T18:51:44.000Z</time>
      </trkpt>
      <trkpt lat="48.82199" lon="2.3422">
        <ele>119.12</ele>
        <time>2019-05-20T18:51:47.000Z</time>
      </trkpt>
      <trkpt lat="48.8219" lon="2.34228">
        <ele>119.07</ele>
        <time>2019-05-20T18:51:49.000Z</time>
      </trkpt>
      <trkpt lat="48.82181" lon="2.34238">
        <ele>119.06</ele>
        <time>2019-05-20T18:51:52.000Z</time>
      </trkpt>
      <trkpt lat="48.82172" lon="2.34244">
        <ele>119.05</ele>
        <time>2019-05-20T18:51:55.000Z</time>
      </trkpt>
      <trkpt lat="48.82162" lon="2.3425">
        <ele>119.03</ele>
        <time>2019-05-20T18:51:59.000Z</time>
      </trkpt>
      <trkpt lat="48.8215" lon="2.34253">
        <ele>119</ele>
        <time>2019-05-20T18:52:03.000Z</time>
      </trkpt>
      <trkpt lat="48.8214" lon="2.34258">
        <ele>118.97</ele>
        <time>2019-05-20T18:52:06.000Z</time>
      </trkpt>
      <trkpt lat="48.82131" lon="2.34263">
        <ele>118.79</ele>
        <time>2019-05-20T18:52:19.000Z</time>
      </trkpt>
      <trkpt lat="48.82121" lon="2.34268">
        <ele>118.7</ele>
        <time>2019-05-20T18:52:24.000Z</time>
      </trkpt>
      <trkpt lat="48.82111" lon="2.34272">
        <ele>118.65</ele>
        <time>2019-05-20T18:52:27.000Z</time>
      </trkpt>
      <trkpt lat="48.821" lon="2.34276">
        <ele>118.46</ele>
        <time>2019-05-20T18:52:30.000Z</time>
      </trkpt>
      <trkpt lat="48.8209" lon="2.34281">
        <ele>118.43</ele>
        <time>2019-05-20T18:52:33.000Z</time>
      </trkpt>
      <trkpt lat="48.82079" lon="2.34281">
        <ele>118.33</ele>
        <time>2019-05-20T18:52:36.000Z</time>
      </trkpt>
      <trkpt lat="48.8207" lon="2.34282">
        <ele>118.26</ele>
        <time>2019-05-20T18:52:38.000Z</time>
      </trkpt>
      <trkpt lat="48.82059" lon="2.34281">
        <ele>118.24</ele>
        <time>2019-05-20T18:52:40.000Z</time>
      </trkpt>
      <trkpt lat="48.82047" lon="2.34281">
        <ele>118.22</ele>
        <time>2019-05-20T18:52:43.000Z</time>
      </trkpt>
      <trkpt lat="48.82038" lon="2.34283">
        <ele>118.19</ele>
        <time>2019-05-20T18:52:45.000Z</time>
      </trkpt>
      <trkpt lat="48.82028" lon="2.34282">
        <ele>118.16</ele>
        <time>2019-05-20T18:52:47.000Z</time>
      </trkpt>
      <trkpt lat="48.82017" lon="2.34281">
        <ele>118.1</ele>
        <time>2019-05-20T18:52:49.000Z</time>
      </trkpt>
      <trkpt lat="48.82003" lon="2.34279">
        <ele>118.01</ele>
        <time>2019-05-20T18:52:52.000Z</time>
      </trkpt>
      <trkpt lat="48.81994" lon="2.34279">
        <ele>117.96</ele>
        <time>2019-05-20T18:52:54.000Z</time>
      </trkpt>
      <trkpt lat="48.81982" lon="2.3428">
        <ele>117.93</ele>
        <time>2019-05-20T18:52:57.000Z</time>
      </trkpt>
      <trkpt lat="48.81972" lon="2.34282">
        <ele>117.91</ele>
        <time>2019-05-20T18:53:02.000Z</time>
      </trkpt>
      <trkpt lat="48.81963" lon="2.3428">
        <ele>117.54</ele>
        <time>2019-05-20T18:54:28.000Z</time>
      </trkpt>
      <trkpt lat="48.81955" lon="2.34286">
        <ele>117.3</ele>
        <time>2019-05-20T18:54:49.000Z</time>
      </trkpt>
      <trkpt lat="48.81959" lon="2.34298">
        <ele>117.25</ele>
        <time>2019-05-20T18:54:53.000Z</time>
      </trkpt>
      <trkpt lat="48.81958" lon="2.34315">
        <ele>117.2</ele>
        <time>2019-05-20T18:54:57.000Z</time>
      </trkpt>
      <trkpt lat="48.81953" lon="2.34331">
        <ele>117.16</ele>
        <time>2019-05-20T18:55:00.000Z</time>
      </trkpt>
      <trkpt lat="48.8195" lon="2.34348">
        <ele>117.12</ele>
        <time>2019-05-20T18:55:03.000Z</time>
      </trkpt>
      <trkpt lat="48.81946" lon="2.34364">
        <ele>117.08</ele>
        <time>2019-05-20T18:55:06.000Z</time>
      </trkpt>
      <trkpt lat="48.81944" lon="2.34381">
        <ele>116.93</ele>
        <time>2019-05-20T18:55:09.000Z</time>
      </trkpt>
      <trkpt lat="48.81942" lon="2.34398">
        <ele>116.8</ele>
        <time>2019-05-20T18:55:12.000Z</time>
      </trkpt>
      <trkpt lat="48.81939" lon="2.34414">
        <ele>116.77</ele>
        <time>2019-05-20T18:55:15.000Z</time>
      </trkpt>
      <trkpt lat="48.81937" lon="2.34429">
        <ele>116.74</ele>
        <time>2019-05-20T18:55:18.000Z</time>
      </trkpt>
      <trkpt lat="48.81935" lon="2.34444">
        <ele>116.71</ele>
        <time>2019-05-20T18:55:21.000Z</time>
      </trkpt>
      <trkpt lat="48.81932" lon="2.34458">
        <ele>116.67</ele>
        <time>2019-05-20T18:55:24.000Z</time>
      </trkpt>
      <trkpt lat="48.81929" lon="2.34474">
        <ele>116.63</ele>
        <time>2019-05-20T18:55:28.000Z</time>
      </trkpt>
      <trkpt lat="48.81931" lon="2.3449">
        <ele>116.56</ele>
        <time>2019-05-20T18:55:34.000Z</time>
      </trkpt>
      <trkpt lat="48.81935" lon="2.34506">
        <ele>116.51</ele>
        <time>2019-05-20T18:55:39.000Z</time>
      </trkpt>
      <trkpt lat="48.81943" lon="2.34519">
        <ele>116.47</ele>
        <time>2019-05-20T18:55:42.000Z</time>
      </trkpt>
      <trkpt lat="48.81948" lon="2.34537">
        <ele>116.32</ele>
        <time>2019-05-20T18:55:45.000Z</time>
      </trkpt>
      <trkpt lat="48.81955" lon="2.34553">
        <ele>116.1</ele>
        <time>2019-05-20T18:55:47.000Z</time>
      </trkpt>
      <trkpt lat="48.81959" lon="2.34568">
        <ele>115.92</ele>
        <time>2019-05-20T18:55:49.000Z</time>
      </trkpt>
      <trkpt lat="48.81962" lon="2.34581">
        <ele>115.76</ele>
        <time>2019-05-20T18:55:51.000Z</time>
      </trkpt>
      <trkpt lat="48.81965" lon="2.34596">
        <ele>115.61</ele>
        <time>2019-05-20T18:55:53.000Z</time>
      </trkpt>
      <trkpt lat="48.81968" lon="2.3461">
        <ele>115.49</ele>
        <time>2019-05-20T18:55:55.000Z</time>
      </trkpt>
      <trkpt lat="48.81973" lon="2.34624">
        <ele>115.37</ele>
        <time>2019-05-20T18:55:57.000Z</time>
      </trkpt>
      <trkpt lat="48.81978" lon="2.34636">
        <ele>115.29</ele>
        <time>2019-05-20T18:55:59.000Z</time>
      </trkpt>
      <trkpt lat="48.81983" lon="2.34651">
        <ele>115.24</ele>
        <time>2019-05-20T18:56:01.000Z</time>
      </trkpt>
      <trkpt lat="48.81987" lon="2.34668">
        <ele>115.21</ele>
        <time>2019-05-20T18:56:03.000Z</time>
      </trkpt>
      <trkpt lat="48.8199" lon="2.34684">
        <ele>115.16</ele>
        <time>2019-05-20T18:56:05.000Z</time>
      </trkpt>
      <trkpt lat="48.81996" lon="2.34701">
        <ele>115.11</ele>
        <time>2019-05-20T18:56:07.000Z</time>
      </trkpt>
      <trkpt lat="48.82001" lon="2.34717">
        <ele>115.08</ele>
        <time>2019-05-20T18:56:09.000Z</time>
      </trkpt>
      <trkpt lat="48.82004" lon="2.34731">
        <ele>115.05</ele>
        <time>2019-05-20T18:56:11.000Z</time>
      </trkpt>
      <trkpt lat="48.82008" lon="2.34746">
        <ele>115.03</ele>
        <time>2019-05-20T18:56:13.000Z</time>
      </trkpt>
      <trkpt lat="48.82011" lon="2.34761">
        <ele>114.98</ele>
        <time>2019-05-20T18:56:15.000Z</time>
      </trkpt>
      <trkpt lat="48.82016" lon="2.34778">
        <ele>114.89</ele>
        <time>2019-05-20T18:56:17.000Z</time>
      </trkpt>
      <trkpt lat="48.82019" lon="2.34793">
        <ele>114.81</ele>
        <time>2019-05-20T18:56:19.000Z</time>
      </trkpt>
      <trkpt lat="48.82024" lon="2.3481">
        <ele>114.74</ele>
        <time>2019-05-20T18:56:21.000Z</time>
      </trkpt>
      <trkpt lat="48.82027" lon="2.34827">
        <ele>114.67</ele>
        <time>2019-05-20T18:56:23.000Z</time>
      </trkpt>
      <trkpt lat="48.82033" lon="2.34843">
        <ele>114.62</ele>
        <time>2019-05-20T18:56:25.000Z</time>
      </trkpt>
      <trkpt lat="48.82038" lon="2.34862">
        <ele>114.5</ele>
        <time>2019-05-20T18:56:27.000Z</time>
      </trkpt>
      <trkpt lat="48.82044" lon="2.34882">
        <ele>114.37</ele>
        <time>2019-05-20T18:56:29.000Z</time>
      </trkpt>
      <trkpt lat="48.8205" lon="2.34901">
        <ele>114.18</ele>
        <time>2019-05-20T18:56:31.000Z</time>
      </trkpt>
      <trkpt lat="48.82056" lon="2.34921">
        <ele>113.97</ele>
        <time>2019-05-20T18:56:33.000Z</time>
      </trkpt>
      <trkpt lat="48.82061" lon="2.34941">
        <ele>113.76</ele>
        <time>2019-05-20T18:56:35.000Z</time>
      </trkpt>
      <trkpt lat="48.82067" lon="2.3496">
        <ele>113.46</ele>
        <time>2019-05-20T18:56:37.000Z</time>
      </trkpt>
      <trkpt lat="48.82074" lon="2.34978">
        <ele>113.19</ele>
        <time>2019-05-20T18:56:39.000Z</time>
      </trkpt>
      <trkpt lat="48.82078" lon="2.34997">
        <ele>112.98</ele>
        <time>2019-05-20T18:56:41.000Z</time>
      </trkpt>
      <trkpt lat="48.82081" lon="2.35017">
        <ele>112.84</ele>
        <time>2019-05-20T18:56:43.000Z</time>
      </trkpt>
      <trkpt lat="48.82085" lon="2.35036">
        <ele>112.08</ele>
        <time>2019-05-20T18:56:45.000Z</time>
      </trkpt>
      <trkpt lat="48.8209" lon="2.35054">
        <ele>111.08</ele>
        <time>2019-05-20T18:56:47.000Z</time>
      </trkpt>
      <trkpt lat="48.82094" lon="2.35072">
        <ele>110.4</ele>
        <time>2019-05-20T18:56:49.000Z</time>
      </trkpt>
      <trkpt lat="48.82099" lon="2.35091">
        <ele>109.93</ele>
        <time>2019-05-20T18:56:51.000Z</time>
      </trkpt>
      <trkpt lat="48.82103" lon="2.35113">
        <ele>109.78</ele>
        <time>2019-05-20T18:56:53.000Z</time>
      </trkpt>
      <trkpt lat="48.82105" lon="2.35137">
        <ele>110.01</ele>
        <time>2019-05-20T18:56:55.000Z</time>
      </trkpt>
      <trkpt lat="48.82107" lon="2.35164">
        <ele>110.24</ele>
        <time>2019-05-20T18:56:57.000Z</time>
      </trkpt>
      <trkpt lat="48.82109" lon="2.3519">
        <ele>110.52</ele>
        <time>2019-05-20T18:56:59.000Z</time>
      </trkpt>
      <trkpt lat="48.82108" lon="2.35217">
        <ele>110.84</ele>
        <time>2019-05-20T18:57:01.000Z</time>
      </trkpt>
      <trkpt lat="48.82108" lon="2.35243">
        <ele>111.11</ele>
        <time>2019-05-20T18:57:03.000Z</time>
      </trkpt>
      <trkpt lat="48.82107" lon="2.35269">
        <ele>111.35</ele>
        <time>2019-05-20T18:57:05.000Z</time>
      </trkpt>
      <trkpt lat="48.82107" lon="2.35297">
        <ele>111.55</ele>
        <time>2019-05-20T18:57:07.000Z</time>
      </trkpt>
      <trkpt lat="48.82107" lon="2.35321">
        <ele>110.63</ele>
        <time>2019-05-20T18:57:09.000Z</time>
      </trkpt>
      <trkpt lat="48.82107" lon="2.35346">
        <ele>110.08</ele>
        <time>2019-05-20T18:57:11.000Z</time>
      </trkpt>
      <trkpt lat="48.82106" lon="2.35372">
        <ele>109.43</ele>
        <time>2019-05-20T18:57:13.000Z</time>
      </trkpt>
      <trkpt lat="48.82106" lon="2.35395">
        <ele>108.55</ele>
        <time>2019-05-20T18:57:15.000Z</time>
      </trkpt>
      <trkpt lat="48.82106" lon="2.35418">
        <ele>107.64</ele>
        <time>2019-05-20T18:57:17.000Z</time>
      </trkpt>
      <trkpt lat="48.82105" lon="2.35439">
        <ele>107.19</ele>
        <time>2019-05-20T18:57:19.000Z</time>
      </trkpt>
      <trkpt lat="48.82102" lon="2.35458">
        <ele>107.49</ele>
        <time>2019-05-20T18:57:21.000Z</time>
      </trkpt>
      <trkpt lat="48.82099" lon="2.35475">
        <ele>107.62</ele>
        <time>2019-05-20T18:57:23.000Z</time>
      </trkpt>
      <trkpt lat="48.82092" lon="2.35488">
        <ele>107.96</ele>
        <time>2019-05-20T18:57:25.000Z</time>
      </trkpt>
      <trkpt lat="48.82085" lon="2.35504">
        <ele>107.92</ele>
        <time>2019-05-20T18:57:28.000Z</time>
      </trkpt>
      <trkpt lat="48.82079" lon="2.3552">
        <ele>108.06</ele>
        <time>2019-05-20T18:57:31.000Z</time>
      </trkpt>
      <trkpt lat="48.82072" lon="2.35537">
        <ele>108.4</ele>
        <time>2019-05-20T18:57:34.000Z</time>
      </trkpt>
      <trkpt lat="48.82067" lon="2.35551">
        <ele>108.42</ele>
        <time>2019-05-20T18:57:37.000Z</time>
      </trkpt>
      <trkpt lat="48.82062" lon="2.35564">
        <ele>108.41</ele>
        <time>2019-05-20T18:57:40.000Z</time>
      </trkpt>
      <trkpt lat="48.82056" lon="2.35577">
        <ele>108.33</ele>
        <time>2019-05-20T18:57:45.000Z</time>
      </trkpt>
      <trkpt lat="48.82048" lon="2.35585">
        <ele>108.14</ele>
        <time>2019-05-20T18:58:15.000Z</time>
      </trkpt>
      <trkpt lat="48.8204" lon="2.35592">
        <ele>107.67</ele>
        <time>2019-05-20T18:58:18.000Z</time>
      </trkpt>
      <trkpt lat="48.8203" lon="2.35599">
        <ele>106.99</ele>
        <time>2019-05-20T18:58:20.000Z</time>
      </trkpt>
      <trkpt lat="48.82019" lon="2.35612">
        <ele>106.5</ele>
        <time>2019-05-20T18:58:22.000Z</time>
      </trkpt>
      <trkpt lat="48.8201" lon="2.35626">
        <ele>106.12</ele>
        <time>2019-05-20T18:58:24.000Z</time>
      </trkpt>
      <trkpt lat="48.82002" lon="2.35639">
        <ele>105.87</ele>
        <time>2019-05-20T18:58:26.000Z</time>
      </trkpt>
      <trkpt lat="48.81993" lon="2.35652">
        <ele>105.63</ele>
        <time>2019-05-20T18:58:28.000Z</time>
      </trkpt>
      <trkpt lat="48.81984" lon="2.35666">
        <ele>105.38</ele>
        <time>2019-05-20T18:58:30.000Z</time>
      </trkpt>
      <trkpt lat="48.81974" lon="2.35682">
        <ele>105.16</ele>
        <time>2019-05-20T18:58:32.000Z</time>
      </trkpt>
      <trkpt lat="48.81964" lon="2.35698">
        <ele>104.97</ele>
        <time>2019-05-20T18:58:34.000Z</time>
      </trkpt>
      <trkpt lat="48.81955" lon="2.35714">
        <ele>104.82</ele>
        <time>2019-05-20T18:58:36.000Z</time>
      </trkpt>
      <trkpt lat="48.81946" lon="2.3573">
        <ele>104.73</ele>
        <time>2019-05-20T18:58:38.000Z</time>
      </trkpt>
      <trkpt lat="48.81937" lon="2.35746">
        <ele>104.65</ele>
        <time>2019-05-20T18:58:40.000Z</time>
      </trkpt>
      <trkpt lat="48.81928" lon="2.35759">
        <ele>104.6</ele>
        <time>2019-05-20T18:58:42.000Z</time>
      </trkpt>
      <trkpt lat="48.81922" lon="2.35773">
        <ele>104.5</ele>
        <time>2019-05-20T18:58:44.000Z</time>
      </trkpt>
      <trkpt lat="48.81916" lon="2.35789">
        <ele>104.26</ele>
        <time>2019-05-20T18:58:46.000Z</time>
      </trkpt>
      <trkpt lat="48.81911" lon="2.35803">
        <ele>103.96</ele>
        <time>2019-05-20T18:58:48.000Z</time>
      </trkpt>
      <trkpt lat="48.81907" lon="2.35818">
        <ele>103.73</ele>
        <time>2019-05-20T18:58:50.000Z</time>
      </trkpt>
      <trkpt lat="48.81902" lon="2.35833">
        <ele>103.53</ele>
        <time>2019-05-20T18:58:52.000Z</time>
      </trkpt>
      <trkpt lat="48.81899" lon="2.35849">
        <ele>103.53</ele>
        <time>2019-05-20T18:58:54.000Z</time>
      </trkpt>
      <trkpt lat="48.81896" lon="2.35863">
        <ele>103.45</ele>
        <time>2019-05-20T18:58:56.000Z</time>
      </trkpt>
      <trkpt lat="48.81894" lon="2.3588">
        <ele>103.47</ele>
        <time>2019-05-20T18:58:59.000Z</time>
      </trkpt>
      <trkpt lat="48.81893" lon="2.35897">
        <ele>103.63</ele>
        <time>2019-05-20T18:59:02.000Z</time>
      </trkpt>
      <trkpt lat="48.81891" lon="2.35913">
        <ele>103.87</ele>
        <time>2019-05-20T18:59:05.000Z</time>
      </trkpt>
      <trkpt lat="48.81889" lon="2.35928">
        <ele>104.22</ele>
        <time>2019-05-20T18:59:09.000Z</time>
      </trkpt>
      <trkpt lat="48.81886" lon="2.35943">
        <ele>106.08</ele>
        <time>2019-05-20T19:00:17.000Z</time>
      </trkpt>
      <trkpt lat="48.81887" lon="2.35961">
        <ele>106.22</ele>
        <time>2019-05-20T19:00:21.000Z</time>
      </trkpt>
      <trkpt lat="48.81889" lon="2.35976">
        <ele>106.31</ele>
        <time>2019-05-20T19:00:24.000Z</time>
      </trkpt>
      <trkpt lat="48.81893" lon="2.35993">
        <ele>106.4</ele>
        <time>2019-05-20T19:00:27.000Z</time>
      </trkpt>
      <trkpt lat="48.81895" lon="2.36013">
        <ele>107.12</ele>
        <time>2019-05-20T19:00:30.000Z</time>
      </trkpt>
      <trkpt lat="48.81898" lon="2.36028">
        <ele>107.39</ele>
        <time>2019-05-20T19:00:32.000Z</time>
      </trkpt>
      <trkpt lat="48.819" lon="2.36044">
        <ele>107.56</ele>
        <time>2019-05-20T19:00:34.000Z</time>
      </trkpt>
      <trkpt lat="48.81903" lon="2.36061">
        <ele>107.66</ele>
        <time>2019-05-20T19:00:36.000Z</time>
      </trkpt>
      <trkpt lat="48.81905" lon="2.36079">
        <ele>107.72</ele>
        <time>2019-05-20T19:00:38.000Z</time>
      </trkpt>
      <trkpt lat="48.81908" lon="2.36096">
        <ele>107.76</ele>
        <time>2019-05-20T19:00:40.000Z</time>
      </trkpt>
      <trkpt lat="48.81909" lon="2.36112">
        <ele>107.77</ele>
        <time>2019-05-20T19:00:42.000Z</time>
      </trkpt>
      <trkpt lat="48.81912" lon="2.36131">
        <ele>107.77</ele>
        <time>2019-05-20T19:00:44.000Z</time>
      </trkpt>
      <trkpt lat="48.81915" lon="2.36149">
        <ele>107.74</ele>
        <time>2019-05-20T19:00:46.000Z</time>
      </trkpt>
      <trkpt lat="48.81918" lon="2.36168">
        <ele>107.7</ele>
        <time>2019-05-20T19:00:48.000Z</time>
      </trkpt>
      <trkpt lat="48.8192" lon="2.36184">
        <ele>107.68</ele>
        <time>2019-05-20T19:00:50.000Z</time>
      </trkpt>
      <trkpt lat="48.81924" lon="2.36198">
        <ele>107.69</ele>
        <time>2019-05-20T19:00:52.000Z</time>
      </trkpt>
      <trkpt lat="48.81934" lon="2.3621">
        <ele>107.68</ele>
        <time>2019-05-20T19:00:55.000Z</time>
      </trkpt>
      <trkpt lat="48.8194" lon="2.36228">
        <ele>107.67</ele>
        <time>2019-05-20T19:00:58.000Z</time>
      </trkpt>
      <trkpt lat="48.81944" lon="2.36248">
        <ele>107.67</ele>
        <time>2019-05-20T19:01:01.000Z</time>
      </trkpt>
      <trkpt lat="48.8195" lon="2.36262">
        <ele>107.64</ele>
        <time>2019-05-20T19:01:03.000Z</time>
      </trkpt>
      <trkpt lat="48.81958" lon="2.36281">
        <ele>107.64</ele>
        <time>2019-05-20T19:01:05.000Z</time>
      </trkpt>
      <trkpt lat="48.81965" lon="2.36296">
        <ele>107.64</ele>
        <time>2019-05-20T19:01:07.000Z</time>
      </trkpt>
      <trkpt lat="48.81971" lon="2.36315">
        <ele>107.66</ele>
        <time>2019-05-20T19:01:09.000Z</time>
      </trkpt>
      <trkpt lat="48.81974" lon="2.36329">
        <ele>107.66</ele>
        <time>2019-05-20T19:01:10.000Z</time>
      </trkpt>
      <trkpt lat="48.81979" lon="2.36344">
        <ele>107.68</ele>
        <time>2019-05-20T19:01:12.000Z</time>
      </trkpt>
      <trkpt lat="48.81987" lon="2.36363">
        <ele>107.69</ele>
        <time>2019-05-20T19:01:14.000Z</time>
      </trkpt>
      <trkpt lat="48.81992" lon="2.36384">
        <ele>107.71</ele>
        <time>2019-05-20T19:01:16.000Z</time>
      </trkpt>
      <trkpt lat="48.81999" lon="2.36402">
        <ele>107.79</ele>
        <time>2019-05-20T19:01:18.000Z</time>
      </trkpt>
      <trkpt lat="48.82004" lon="2.36419">
        <ele>107.92</ele>
        <time>2019-05-20T19:01:20.000Z</time>
      </trkpt>
      <trkpt lat="48.82008" lon="2.36437">
        <ele>108.04</ele>
        <time>2019-05-20T19:01:22.000Z</time>
      </trkpt>
      <trkpt lat="48.82013" lon="2.36453">
        <ele>108.13</ele>
        <time>2019-05-20T19:01:24.000Z</time>
      </trkpt>
      <trkpt lat="48.82018" lon="2.3647">
        <ele>108.21</ele>
        <time>2019-05-20T19:01:26.000Z</time>
      </trkpt>
      <trkpt lat="48.82023" lon="2.36489">
        <ele>108.27</ele>
        <time>2019-05-20T19:01:28.000Z</time>
      </trkpt>
      <trkpt lat="48.82029" lon="2.36506">
        <ele>108.32</ele>
        <time>2019-05-20T19:01:30.000Z</time>
      </trkpt>
      <trkpt lat="48.82035" lon="2.36525">
        <ele>108.36</ele>
        <time>2019-05-20T19:01:32.000Z</time>
      </trkpt>
      <trkpt lat="48.82041" lon="2.36545">
        <ele>108.42</ele>
        <time>2019-05-20T19:01:34.000Z</time>
      </trkpt>
      <trkpt lat="48.82046" lon="2.36564">
        <ele>108.49</ele>
        <time>2019-05-20T19:01:36.000Z</time>
      </trkpt>
      <trkpt lat="48.82052" lon="2.36579">
        <ele>108.59</ele>
        <time>2019-05-20T19:01:38.000Z</time>
      </trkpt>
      <trkpt lat="48.82058" lon="2.36592">
        <ele>108.63</ele>
        <time>2019-05-20T19:01:40.000Z</time>
      </trkpt>
      <trkpt lat="48.82061" lon="2.36605">
        <ele>108.69</ele>
        <time>2019-05-20T19:01:42.000Z</time>
      </trkpt>
      <trkpt lat="48.82063" lon="2.36618">
        <ele>108.72</ele>
        <time>2019-05-20T19:01:44.000Z</time>
      </trkpt>
      <trkpt lat="48.82067" lon="2.36633">
        <ele>108.81</ele>
        <time>2019-05-20T19:01:46.000Z</time>
      </trkpt>
      <trkpt lat="48.8207" lon="2.36648">
        <ele>108.73</ele>
        <time>2019-05-20T19:01:48.000Z</time>
      </trkpt>
      <trkpt lat="48.82073" lon="2.36662">
        <ele>108.49</ele>
        <time>2019-05-20T19:01:50.000Z</time>
      </trkpt>
      <trkpt lat="48.82077" lon="2.36677">
        <ele>108.3</ele>
        <time>2019-05-20T19:01:52.000Z</time>
      </trkpt>
      <trkpt lat="48.82081" lon="2.36693">
        <ele>108.34</ele>
        <time>2019-05-20T19:01:54.000Z</time>
      </trkpt>
      <trkpt lat="48.82085" lon="2.3671">
        <ele>108.53</ele>
        <time>2019-05-20T19:01:56.000Z</time>
      </trkpt>
      <trkpt lat="48.82091" lon="2.36726">
        <ele>108.68</ele>
        <time>2019-05-20T19:01:58.000Z</time>
      </trkpt>
      <trkpt lat="48.82097" lon="2.36742">
        <ele>108.81</ele>
        <time>2019-05-20T19:02:00.000Z</time>
      </trkpt>
      <trkpt lat="48.82101" lon="2.36757">
        <ele>108.91</ele>
        <time>2019-05-20T19:02:02.000Z</time>
      </trkpt>
      <trkpt lat="48.82108" lon="2.36773">
        <ele>108.53</ele>
        <time>2019-05-20T19:02:04.000Z</time>
      </trkpt>
      <trkpt lat="48.82113" lon="2.36787">
        <ele>107.82</ele>
        <time>2019-05-20T19:02:06.000Z</time>
      </trkpt>
      <trkpt lat="48.82118" lon="2.36802">
        <ele>107.08</ele>
        <time>2019-05-20T19:02:08.000Z</time>
      </trkpt>
      <trkpt lat="48.82122" lon="2.36816">
        <ele>106.42</ele>
        <time>2019-05-20T19:02:10.000Z</time>
      </trkpt>
      <trkpt lat="48.82127" lon="2.36834">
        <ele>105.7</ele>
        <time>2019-05-20T19:02:13.000Z</time>
      </trkpt>
      <trkpt lat="48.82133" lon="2.3685">
        <ele>105.67</ele>
        <time>2019-05-20T19:02:16.000Z</time>
      </trkpt>
      <trkpt lat="48.82138" lon="2.36865">
        <ele>105.62</ele>
        <time>2019-05-20T19:02:20.000Z</time>
      </trkpt>
      <trkpt lat="48.82147" lon="2.36871">
        <ele>106.38</ele>
        <time>2019-05-20T19:03:03.000Z</time>
      </trkpt>
      <trkpt lat="48.8215" lon="2.36884">
        <ele>106.64</ele>
        <time>2019-05-20T19:03:06.000Z</time>
      </trkpt>
      <trkpt lat="48.82151" lon="2.36903">
        <ele>106.92</ele>
        <time>2019-05-20T19:03:09.000Z</time>
      </trkpt>
      <trkpt lat="48.82152" lon="2.36918">
        <ele>107.21</ele>
        <time>2019-05-20T19:03:12.000Z</time>
      </trkpt>
      <trkpt lat="48.8215" lon="2.36932">
        <ele>107.62</ele>
        <time>2019-05-20T19:03:16.000Z</time>
      </trkpt>
      <trkpt lat="48.82145" lon="2.36944">
        <ele>108.04</ele>
        <time>2019-05-20T19:03:20.000Z</time>
      </trkpt>
      <trkpt lat="48.8214" lon="2.36956">
        <ele>108.36</ele>
        <time>2019-05-20T19:03:23.000Z</time>
      </trkpt>
      <trkpt lat="48.82134" lon="2.3697">
        <ele>108.67</ele>
        <time>2019-05-20T19:03:26.000Z</time>
      </trkpt>
      <trkpt lat="48.82129" lon="2.36982">
        <ele>108.97</ele>
        <time>2019-05-20T19:03:29.000Z</time>
      </trkpt>
      <trkpt lat="48.82122" lon="2.36992">
        <ele>109.17</ele>
        <time>2019-05-20T19:03:31.000Z</time>
      </trkpt>
      <trkpt lat="48.82114" lon="2.37003">
        <ele>109.49</ele>
        <time>2019-05-20T19:03:34.000Z</time>
      </trkpt>
      <trkpt lat="48.82108" lon="2.37015">
        <ele>109.79</ele>
        <time>2019-05-20T19:03:37.000Z</time>
      </trkpt>
      <trkpt lat="48.82103" lon="2.37026">
        <ele>110.19</ele>
        <time>2019-05-20T19:03:41.000Z</time>
      </trkpt>
      <trkpt lat="48.82106" lon="2.3704">
        <ele>110.68</ele>
        <time>2019-05-20T19:03:46.000Z</time>
      </trkpt>
      <trkpt lat="48.82114" lon="2.37047">
        <ele>111.17</ele>
        <time>2019-05-20T19:03:51.000Z</time>
      </trkpt>
      <trkpt lat="48.8212" lon="2.37062">
        <ele>111.6</ele>
        <time>2019-05-20T19:03:56.000Z</time>
      </trkpt>
      <trkpt lat="48.82126" lon="2.3708">
        <ele>111.9</ele>
        <time>2019-05-20T19:04:00.000Z</time>
      </trkpt>
      <trkpt lat="48.8213" lon="2.37094">
        <ele>112.11</ele>
        <time>2019-05-20T19:04:03.000Z</time>
      </trkpt>
      <trkpt lat="48.82135" lon="2.37108">
        <ele>112.3</ele>
        <time>2019-05-20T19:04:06.000Z</time>
      </trkpt>
      <trkpt lat="48.82144" lon="2.37122">
        <ele>112.49</ele>
        <time>2019-05-20T19:04:09.000Z</time>
      </trkpt>
      <trkpt lat="48.8215" lon="2.37133">
        <ele>113.12</ele>
        <time>2019-05-20T19:04:11.000Z</time>
      </trkpt>
      <trkpt lat="48.82156" lon="2.37146">
        <ele>113.26</ele>
        <time>2019-05-20T19:04:14.000Z</time>
      </trkpt>
      <trkpt lat="48.82163" lon="2.37162">
        <ele>113.39</ele>
        <time>2019-05-20T19:04:17.000Z</time>
      </trkpt>
      <trkpt lat="48.82165" lon="2.37178">
        <ele>113.51</ele>
        <time>2019-05-20T19:04:20.000Z</time>
      </trkpt>
      <trkpt lat="48.82168" lon="2.37194">
        <ele>113.63</ele>
        <time>2019-05-20T19:04:23.000Z</time>
      </trkpt>
      <trkpt lat="48.82169" lon="2.37209">
        <ele>113.8</ele>
        <time>2019-05-20T19:04:27.000Z</time>
      </trkpt>
      <trkpt lat="48.82165" lon="2.37221">
        <ele>113.93</ele>
        <time>2019-05-20T19:04:30.000Z</time>
      </trkpt>
      <trkpt lat="48.82164" lon="2.37236">
        <ele>114.13</ele>
        <time>2019-05-20T19:04:35.000Z</time>
      </trkpt>
      <trkpt lat="48.82154" lon="2.37241">
        <ele>114.34</ele>
        <time>2019-05-20T19:04:40.000Z</time>
      </trkpt>
      <trkpt lat="48.82146" lon="2.3725">
        <ele>114.66</ele>
        <time>2019-05-20T19:04:47.000Z</time>
      </trkpt>
      <trkpt lat="48.82144" lon="2.37264">
        <ele>114.98</ele>
        <time>2019-05-20T19:04:55.000Z</time>
      </trkpt>
      <trkpt lat="48.82134" lon="2.37258">
        <ele>115.31</ele>
        <time>2019-05-20T19:05:29.000Z</time>
      </trkpt>
      <trkpt lat="48.82126" lon="2.37252">
        <ele>115.33</ele>
        <time>2019-05-20T19:05:32.000Z</time>
      </trkpt>
      <trkpt lat="48.82114" lon="2.37251">
        <ele>115.35</ele>
        <time>2019-05-20T19:05:35.000Z</time>
      </trkpt>
      <trkpt lat="48.82106" lon="2.37245">
        <ele>115.36</ele>
        <time>2019-05-20T19:05:38.000Z</time>
      </trkpt>
      <trkpt lat="48.82097" lon="2.37238">
        <ele>115.37</ele>
        <time>2019-05-20T19:05:41.000Z</time>
      </trkpt>
      <trkpt lat="48.82087" lon="2.3723">
        <ele>115.39</ele>
        <time>2019-05-20T19:05:44.000Z</time>
      </trkpt>
      <trkpt lat="48.82077" lon="2.3723">
        <ele>115.41</ele>
        <time>2019-05-20T19:05:48.000Z</time>
      </trkpt>
      <trkpt lat="48.82069" lon="2.37238">
        <ele>115.44</ele>
        <time>2019-05-20T19:05:52.000Z</time>
      </trkpt>
      <trkpt lat="48.8206" lon="2.37248">
        <ele>115.47</ele>
        <time>2019-05-20T19:05:56.000Z</time>
      </trkpt>
      <trkpt lat="48.8205" lon="2.37257">
        <ele>115.52</ele>
        <time>2019-05-20T19:06:00.000Z</time>
      </trkpt>
      <trkpt lat="48.82042" lon="2.37262">
        <ele>115.58</ele>
        <time>2019-05-20T19:06:03.000Z</time>
      </trkpt>
      <trkpt lat="48.82033" lon="2.37268">
        <ele>115.68</ele>
        <time>2019-05-20T19:06:07.000Z</time>
      </trkpt>
      <trkpt lat="48.82023" lon="2.37269">
        <ele>115.78</ele>
        <time>2019-05-20T19:06:11.000Z</time>
      </trkpt>
      <trkpt lat="48.82013" lon="2.37266">
        <ele>115.89</ele>
        <time>2019-05-20T19:06:15.000Z</time>
      </trkpt>
      <trkpt lat="48.82003" lon="2.37265">
        <ele>116.04</ele>
        <time>2019-05-20T19:06:21.000Z</time>
      </trkpt>
      <trkpt lat="48.81999" lon="2.37282">
        <ele>116.2</ele>
        <time>2019-05-20T19:06:27.000Z</time>
      </trkpt>
      <trkpt lat="48.81996" lon="2.37297">
        <ele>116.31</ele>
        <time>2019-05-20T19:06:31.000Z</time>
      </trkpt>
      <trkpt lat="48.81989" lon="2.37306">
        <ele>116.78</ele>
        <time>2019-05-20T19:06:50.000Z</time>
      </trkpt>
      <trkpt lat="48.81983" lon="2.37319">
        <ele>117.33</ele>
        <time>2019-05-20T19:07:14.000Z</time>
      </trkpt>
      <trkpt lat="48.81977" lon="2.3733">
        <ele>117.52</ele>
        <time>2019-05-20T19:07:19.000Z</time>
      </trkpt>
      <trkpt lat="48.8197" lon="2.37342">
        <ele>117.72</ele>
        <time>2019-05-20T19:07:24.000Z</time>
      </trkpt>
      <trkpt lat="48.81964" lon="2.37354">
        <ele>118.05</ele>
        <time>2019-05-20T19:07:33.000Z</time>
      </trkpt>
      <trkpt lat="48.81956" lon="2.37361">
        <ele>118.3</ele>
        <time>2019-05-20T19:07:40.000Z</time>
      </trkpt>
      <trkpt lat="48.81949" lon="2.37374">
        <ele>118.46</ele>
        <time>2019-05-20T19:07:45.000Z</time>
      </trkpt>
      <trkpt lat="48.81947" lon="2.37389">
        <ele>118.58</ele>
        <time>2019-05-20T19:07:49.000Z</time>
      </trkpt>
      <trkpt lat="48.8195" lon="2.37402">
        <ele>118.69</ele>
        <time>2019-05-20T19:07:53.000Z</time>
      </trkpt>
      <trkpt lat="48.81953" lon="2.37415">
        <ele>118.79</ele>
        <time>2019-05-20T19:07:57.000Z</time>
      </trkpt>
      <trkpt lat="48.81957" lon="2.37429">
        <ele>118.88</ele>
        <time>2019-05-20T19:08:01.000Z</time>
      </trkpt>
      <trkpt lat="48.81961" lon="2.37446">
        <ele>118.95</ele>
        <time>2019-05-20T19:08:05.000Z</time>
      </trkpt>
      <trkpt lat="48.81965" lon="2.37459">
        <ele>118.99</ele>
        <time>2019-05-20T19:08:08.000Z</time>
      </trkpt>
      <trkpt lat="48.81969" lon="2.37473">
        <ele>119.03</ele>
        <time>2019-05-20T19:08:11.000Z</time>
      </trkpt>
      <trkpt lat="48.81976" lon="2.37488">
        <ele>119.08</ele>
        <time>2019-05-20T19:08:14.000Z</time>
      </trkpt>
      <trkpt lat="48.8198" lon="2.37502">
        <ele>119.12</ele>
        <time>2019-05-20T19:08:17.000Z</time>
      </trkpt>
      <trkpt lat="48.81986" lon="2.37517">
        <ele>119.17</ele>
        <time>2019-05-20T19:08:21.000Z</time>
      </trkpt>
      <trkpt lat="48.81991" lon="2.37532">
        <ele>119.21</ele>
        <time>2019-05-20T19:08:25.000Z</time>
      </trkpt>
      <trkpt lat="48.81995" lon="2.37547">
        <ele>119.23</ele>
        <time>2019-05-20T19:08:28.000Z</time>
      </trkpt>
      <trkpt lat="48.81995" lon="2.37561">
        <ele>119.25</ele>
        <time>2019-05-20T19:08:31.000Z</time>
      </trkpt>
      <trkpt lat="48.81992" lon="2.37576">
        <ele>119.27</ele>
        <time>2019-05-20T19:08:34.000Z</time>
      </trkpt>
      <trkpt lat="48.81989" lon="2.3759">
        <ele>119.29</ele>
        <time>2019-05-20T19:08:37.000Z</time>
      </trkpt>
      <trkpt lat="48.81978" lon="2.37596">
        <ele>119.32</ele>
        <time>2019-05-20T19:08:40.000Z</time>
      </trkpt>
      <trkpt lat="48.81968" lon="2.37601">
        <ele>119.34</ele>
        <time>2019-05-20T19:08:43.000Z</time>
      </trkpt>
      <trkpt lat="48.81956" lon="2.37607">
        <ele>119.36</ele>
        <time>2019-05-20T19:08:47.000Z</time>
      </trkpt>
      <trkpt lat="48.81946" lon="2.37612">
        <ele>119.37</ele>
        <time>2019-05-20T19:08:50.000Z</time>
      </trkpt>
      <trkpt lat="48.81936" lon="2.37616">
        <ele>119.37</ele>
        <time>2019-05-20T19:08:53.000Z</time>
      </trkpt>
      <trkpt lat="48.81924" lon="2.37619">
        <ele>119.37</ele>
        <time>2019-05-20T19:08:57.000Z</time>
      </trkpt>
      <trkpt lat="48.81915" lon="2.37621">
        <ele>119.37</ele>
        <time>2019-05-20T19:09:01.000Z</time>
      </trkpt>
      <trkpt lat="48.81904" lon="2.37626">
        <ele>119.35</ele>
        <time>2019-05-20T19:09:05.000Z</time>
      </trkpt>
      <trkpt lat="48.81894" lon="2.3763">
        <ele>119.33</ele>
        <time>2019-05-20T19:09:09.000Z</time>
      </trkpt>
      <trkpt lat="48.81883" lon="2.37636">
        <ele>119.29</ele>
        <time>2019-05-20T19:09:13.000Z</time>
      </trkpt>
      <trkpt lat="48.81871" lon="2.37642">
        <ele>119.25</ele>
        <time>2019-05-20T19:09:17.000Z</time>
      </trkpt>
      <trkpt lat="48.81862" lon="2.37649">
        <ele>119.22</ele>
        <time>2019-05-20T19:09:20.000Z</time>
      </trkpt>
      <trkpt lat="48.81854" lon="2.37655">
        <ele>119.18</ele>
        <time>2019-05-20T19:09:23.000Z</time>
      </trkpt>
      <trkpt lat="48.81842" lon="2.3766">
        <ele>119.13</ele>
        <time>2019-05-20T19:09:27.000Z</time>
      </trkpt>
      <trkpt lat="48.81834" lon="2.37664">
        <ele>119.09</ele>
        <time>2019-05-20T19:09:30.000Z</time>
      </trkpt>
      <trkpt lat="48.81825" lon="2.3767">
        <ele>119.05</ele>
        <time>2019-05-20T19:09:34.000Z</time>
      </trkpt>
      <trkpt lat="48.81816" lon="2.37674">
        <ele>118.88</ele>
        <time>2019-05-20T19:09:53.000Z</time>
      </trkpt>
      <trkpt lat="48.81807" lon="2.37684">
        <ele>118.82</ele>
        <time>2019-05-20T19:09:58.000Z</time>
      </trkpt>
      <trkpt lat="48.81801" lon="2.37693">
        <ele>118.78</ele>
        <time>2019-05-20T19:10:02.000Z</time>
      </trkpt>
      <trkpt lat="48.81791" lon="2.37702">
        <ele>118.74</ele>
        <time>2019-05-20T19:10:06.000Z</time>
      </trkpt>
      <trkpt lat="48.81781" lon="2.37712">
        <ele>118.61</ele>
        <time>2019-05-20T19:10:09.000Z</time>
      </trkpt>
      <trkpt lat="48.8177" lon="2.37724">
        <ele>118.48</ele>
        <time>2019-05-20T19:10:12.000Z</time>
      </trkpt>
      <trkpt lat="48.81762" lon="2.37732">
        <ele>118.35</ele>
        <time>2019-05-20T19:10:14.000Z</time>
      </trkpt>
      <trkpt lat="48.81753" lon="2.37742">
        <ele>118.33</ele>
        <time>2019-05-20T19:10:17.000Z</time>
      </trkpt>
      <trkpt lat="48.81743" lon="2.37751">
        <ele>118.32</ele>
        <time>2019-05-20T19:10:20.000Z</time>
      </trkpt>
      <trkpt lat="48.81732" lon="2.37761">
        <ele>118.16</ele>
        <time>2019-05-20T19:10:23.000Z</time>
      </trkpt>
      <trkpt lat="48.81722" lon="2.37771">
        <ele>118.07</ele>
        <time>2019-05-20T19:10:26.000Z</time>
      </trkpt>
      <trkpt lat="48.81711" lon="2.37781">
        <ele>117.95</ele>
        <time>2019-05-20T19:10:29.000Z</time>
      </trkpt>
      <trkpt lat="48.81701" lon="2.37792">
        <ele>117.94</ele>
        <time>2019-05-20T19:10:32.000Z</time>
      </trkpt>
      <trkpt lat="48.81692" lon="2.37801">
        <ele>117.92</ele>
        <time>2019-05-20T19:10:35.000Z</time>
      </trkpt>
      <trkpt lat="48.81683" lon="2.3781">
        <ele>117.88</ele>
        <time>2019-05-20T19:10:38.000Z</time>
      </trkpt>
      <trkpt lat="48.81675" lon="2.37819">
        <ele>117.87</ele>
        <time>2019-05-20T19:10:41.000Z</time>
      </trkpt>
      <trkpt lat="48.8167" lon="2.37836">
        <ele>117.86</ele>
        <time>2019-05-20T19:10:44.000Z</time>
      </trkpt>
      <trkpt lat="48.81677" lon="2.37856">
        <ele>117.74</ele>
        <time>2019-05-20T19:10:47.000Z</time>
      </trkpt>
      <trkpt lat="48.81683" lon="2.37873">
        <ele>117.67</ele>
        <time>2019-05-20T19:10:49.000Z</time>
      </trkpt>
      <trkpt lat="48.81688" lon="2.37891">
        <ele>117.61</ele>
        <time>2019-05-20T19:10:51.000Z</time>
      </trkpt>
      <trkpt lat="48.81692" lon="2.37907">
        <ele>117.56</ele>
        <time>2019-05-20T19:10:53.000Z</time>
      </trkpt>
      <trkpt lat="48.81696" lon="2.37921">
        <ele>117.51</ele>
        <time>2019-05-20T19:10:55.000Z</time>
      </trkpt>
      <trkpt lat="48.81701" lon="2.37937">
        <ele>117.47</ele>
        <time>2019-05-20T19:10:57.000Z</time>
      </trkpt>
      <trkpt lat="48.81705" lon="2.37952">
        <ele>117.42</ele>
        <time>2019-05-20T19:10:59.000Z</time>
      </trkpt>
      <trkpt lat="48.81709" lon="2.37968">
        <ele>117.37</ele>
        <time>2019-05-20T19:11:01.000Z</time>
      </trkpt>
      <trkpt lat="48.81714" lon="2.37985">
        <ele>117.31</ele>
        <time>2019-05-20T19:11:03.000Z</time>
      </trkpt>
      <trkpt lat="48.81717" lon="2.38001">
        <ele>117.26</ele>
        <time>2019-05-20T19:11:05.000Z</time>
      </trkpt>
      <trkpt lat="48.81721" lon="2.38016">
        <ele>117.19</ele>
        <time>2019-05-20T19:11:07.000Z</time>
      </trkpt>
      <trkpt lat="48.81724" lon="2.38031">
        <ele>117.12</ele>
        <time>2019-05-20T19:11:09.000Z</time>
      </trkpt>
      <trkpt lat="48.81727" lon="2.38044">
        <ele>117.06</ele>
        <time>2019-05-20T19:11:11.000Z</time>
      </trkpt>
      <trkpt lat="48.81733" lon="2.38061">
        <ele>116.94</ele>
        <time>2019-05-20T19:11:14.000Z</time>
      </trkpt>
      <trkpt lat="48.81739" lon="2.38077">
        <ele>116.74</ele>
        <time>2019-05-20T19:11:17.000Z</time>
      </trkpt>
      <trkpt lat="48.81743" lon="2.38096">
        <ele>116.45</ele>
        <time>2019-05-20T19:11:20.000Z</time>
      </trkpt>
      <trkpt lat="48.81749" lon="2.38108">
        <ele>116.41</ele>
        <time>2019-05-20T19:11:23.000Z</time>
      </trkpt>
      <trkpt lat="48.81754" lon="2.38124">
        <ele>116.36</ele>
        <time>2019-05-20T19:11:26.000Z</time>
      </trkpt>
      <trkpt lat="48.81758" lon="2.38139">
        <ele>116.29</ele>
        <time>2019-05-20T19:11:29.000Z</time>
      </trkpt>
      <trkpt lat="48.81762" lon="2.38155">
        <ele>116.2</ele>
        <time>2019-05-20T19:11:33.000Z</time>
      </trkpt>
      <trkpt lat="48.81758" lon="2.38167">
        <ele>116</ele>
        <time>2019-05-20T19:11:40.000Z</time>
      </trkpt>
      <trkpt lat="48.8175" lon="2.38161">
        <ele>115.5</ele>
        <time>2019-05-20T19:11:59.000Z</time>
      </trkpt>
      <trkpt lat="48.81759" lon="2.38158">
        <ele>112.67</ele>
        <time>2019-05-20T19:13:19.000Z</time>
      </trkpt>
      <trkpt lat="48.81765" lon="2.3817">
        <ele>112.35</ele>
        <time>2019-05-20T19:13:25.000Z</time>
      </trkpt>
      <trkpt lat="48.81772" lon="2.38181">
        <ele>112.15</ele>
        <time>2019-05-20T19:13:29.000Z</time>
      </trkpt>
      <trkpt lat="48.81777" lon="2.38194">
        <ele>111.9</ele>
        <time>2019-05-20T19:13:34.000Z</time>
      </trkpt>
      <trkpt lat="48.81783" lon="2.38205">
        <ele>111.72</ele>
        <time>2019-05-20T19:13:38.000Z</time>
      </trkpt>
      <trkpt lat="48.8179" lon="2.38218">
        <ele>111.54</ele>
        <time>2019-05-20T19:13:42.000Z</time>
      </trkpt>
      <trkpt lat="48.81796" lon="2.3823">
        <ele>111.41</ele>
        <time>2019-05-20T19:13:45.000Z</time>
      </trkpt>
      <trkpt lat="48.81802" lon="2.38244">
        <ele>111.29</ele>
        <time>2019-05-20T19:13:48.000Z</time>
      </trkpt>
      <trkpt lat="48.81809" lon="2.38257">
        <ele>111.16</ele>
        <time>2019-05-20T19:13:51.000Z</time>
      </trkpt>
      <trkpt lat="48.81814" lon="2.3827">
        <ele>111.04</ele>
        <time>2019-05-20T19:13:54.000Z</time>
      </trkpt>
      <trkpt lat="48.8182" lon="2.38283">
        <ele>110.93</ele>
        <time>2019-05-20T19:13:57.000Z</time>
      </trkpt>
      <trkpt lat="48.81826" lon="2.38298">
        <ele>110.81</ele>
        <time>2019-05-20T19:14:00.000Z</time>
      </trkpt>
      <trkpt lat="48.8183" lon="2.38311">
        <ele>110.7</ele>
        <time>2019-05-20T19:14:03.000Z</time>
      </trkpt>
      <trkpt lat="48.81835" lon="2.38323">
        <ele>110.58</ele>
        <time>2019-05-20T19:14:06.000Z</time>
      </trkpt>
      <trkpt lat="48.81841" lon="2.38335">
        <ele>110.47</ele>
        <time>2019-05-20T19:14:09.000Z</time>
      </trkpt>
      <trkpt lat="48.81845" lon="2.3835">
        <ele>110.36</ele>
        <time>2019-05-20T19:14:12.000Z</time>
      </trkpt>
      <trkpt lat="48.81848" lon="2.38365">
        <ele>110.25</ele>
        <time>2019-05-20T19:14:15.000Z</time>
      </trkpt>
      <trkpt lat="48.81854" lon="2.38379">
        <ele>110.18</ele>
        <time>2019-05-20T19:14:17.000Z</time>
      </trkpt>
      <trkpt lat="48.8186" lon="2.38396">
        <ele>110.03</ele>
        <time>2019-05-20T19:14:21.000Z</time>
      </trkpt>
      <trkpt lat="48.81866" lon="2.38409">
        <ele>109.93</ele>
        <time>2019-05-20T19:14:24.000Z</time>
      </trkpt>
      <trkpt lat="48.81875" lon="2.38423">
        <ele>109.49</ele>
        <time>2019-05-20T19:14:27.000Z</time>
      </trkpt>
      <trkpt lat="48.81884" lon="2.38433">
        <ele>108.94</ele>
        <time>2019-05-20T19:14:30.000Z</time>
      </trkpt>
      <trkpt lat="48.81891" lon="2.38444">
        <ele>108.87</ele>
        <time>2019-05-20T19:14:33.000Z</time>
      </trkpt>
      <trkpt lat="48.81898" lon="2.38457">
        <ele>108.81</ele>
        <time>2019-05-20T19:14:36.000Z</time>
      </trkpt>
      <trkpt lat="48.81904" lon="2.38469">
        <ele>108.75</ele>
        <time>2019-05-20T19:14:39.000Z</time>
      </trkpt>
      <trkpt lat="48.81909" lon="2.38481">
        <ele>108.69</ele>
        <time>2019-05-20T19:14:42.000Z</time>
      </trkpt>
      <trkpt lat="48.81916" lon="2.38494">
        <ele>108.63</ele>
        <time>2019-05-20T19:14:45.000Z</time>
      </trkpt>
      <trkpt lat="48.81923" lon="2.38507">
        <ele>108.58</ele>
        <time>2019-05-20T19:14:48.000Z</time>
      </trkpt>
      <trkpt lat="48.81929" lon="2.3852">
        <ele>108.53</ele>
        <time>2019-05-20T19:14:51.000Z</time>
      </trkpt>
      <trkpt lat="48.81934" lon="2.38533">
        <ele>108.47</ele>
        <time>2019-05-20T19:14:54.000Z</time>
      </trkpt>
      <trkpt lat="48.8194" lon="2.38545">
        <ele>108.42</ele>
        <time>2019-05-20T19:14:57.000Z</time>
      </trkpt>
      <trkpt lat="48.81946" lon="2.38558">
        <ele>108.37</ele>
        <time>2019-05-20T19:15:00.000Z</time>
      </trkpt>
      <trkpt lat="48.81952" lon="2.38572">
        <ele>108.33</ele>
        <time>2019-05-20T19:15:03.000Z</time>
      </trkpt>
      <trkpt lat="48.81958" lon="2.38583">
        <ele>108.28</ele>
        <time>2019-05-20T19:15:06.000Z</time>
      </trkpt>
      <trkpt lat="48.81963" lon="2.38596">
        <ele>108.24</ele>
        <time>2019-05-20T19:15:09.000Z</time>
      </trkpt>
      <trkpt lat="48.81969" lon="2.38609">
        <ele>108.19</ele>
        <time>2019-05-20T19:15:11.999Z</time>
      </trkpt>
      <trkpt lat="48.81974" lon="2.38623">
        <ele>108.14</ele>
        <time>2019-05-20T19:15:15.999Z</time>
      </trkpt>
      <trkpt lat="48.81979" lon="2.38637">
        <ele>108.08</ele>
        <time>2019-05-20T19:15:19.999Z</time>
      </trkpt>
      <trkpt lat="48.81984" lon="2.38651">
        <ele>108.02</ele>
        <time>2019-05-20T19:15:23.999Z</time>
      </trkpt>
      <trkpt lat="48.81989" lon="2.38665">
        <ele>107.97</ele>
        <time>2019-05-20T19:15:26.999Z</time>
      </trkpt>
      <trkpt lat="48.81994" lon="2.38679">
        <ele>107.92</ele>
        <time>2019-05-20T19:15:29.999Z</time>
      </trkpt>
      <trkpt lat="48.82" lon="2.38696">
        <ele>107.86</ele>
        <time>2019-05-20T19:15:32.999Z</time>
      </trkpt>
      <trkpt lat="48.82005" lon="2.38709">
        <ele>107.78</ele>
        <time>2019-05-20T19:15:35.999Z</time>
      </trkpt>
      <trkpt lat="48.82011" lon="2.38723">
        <ele>107.68</ele>
        <time>2019-05-20T19:15:38.999Z</time>
      </trkpt>
      <trkpt lat="48.82017" lon="2.38736">
        <ele>107.59</ele>
        <time>2019-05-20T19:15:41.999Z</time>
      </trkpt>
      <trkpt lat="48.82022" lon="2.3875">
        <ele>107.48</ele>
        <time>2019-05-20T19:15:44.999Z</time>
      </trkpt>
      <trkpt lat="48.82028" lon="2.38765">
        <ele>107.38</ele>
        <time>2019-05-20T19:15:47.999Z</time>
      </trkpt>
      <trkpt lat="48.82034" lon="2.38778">
        <ele>107.26</ele>
        <time>2019-05-20T19:15:50.999Z</time>
      </trkpt>
      <trkpt lat="48.82039" lon="2.38792">
        <ele>107.15</ele>
        <time>2019-05-20T19:15:53.999Z</time>
      </trkpt>
      <trkpt lat="48.82045" lon="2.38807">
        <ele>106.64</ele>
        <time>2019-05-20T19:15:56.999Z</time>
      </trkpt>
      <trkpt lat="48.82049" lon="2.38823">
        <ele>106.22</ele>
        <time>2019-05-20T19:15:59.999Z</time>
      </trkpt>
      <trkpt lat="48.82054" lon="2.38835">
        <ele>105.68</ele>
        <time>2019-05-20T19:16:01.999Z</time>
      </trkpt>
      <trkpt lat="48.82059" lon="2.38847">
        <ele>105.3</ele>
        <time>2019-05-20T19:16:03.999Z</time>
      </trkpt>
      <trkpt lat="48.82064" lon="2.38864">
        <ele>104.94</ele>
        <time>2019-05-20T19:16:06.999Z</time>
      </trkpt>
      <trkpt lat="48.82068" lon="2.38881">
        <ele>104.71</ele>
        <time>2019-05-20T19:16:09.999Z</time>
      </trkpt>
      <trkpt lat="48.82073" lon="2.38893">
        <ele>104.57</ele>
        <time>2019-05-20T19:16:11.999Z</time>
      </trkpt>
      <trkpt lat="48.82079" lon="2.38905">
        <ele>104.44</ele>
        <time>2019-05-20T19:16:13.999Z</time>
      </trkpt>
      <trkpt lat="48.82085" lon="2.3892">
        <ele>104.3</ele>
        <time>2019-05-20T19:16:15.999Z</time>
      </trkpt>
      <trkpt lat="48.82091" lon="2.38937">
        <ele>104.15</ele>
        <time>2019-05-20T19:16:17.999Z</time>
      </trkpt>
      <trkpt lat="48.82098" lon="2.38952">
        <ele>104.03</ele>
        <time>2019-05-20T19:16:19.999Z</time>
      </trkpt>
      <trkpt lat="48.82106" lon="2.38969">
        <ele>103.92</ele>
        <time>2019-05-20T19:16:21.999Z</time>
      </trkpt>
      <trkpt lat="48.82111" lon="2.38982">
        <ele>103.79</ele>
        <time>2019-05-20T19:16:24.999Z</time>
      </trkpt>
      <trkpt lat="48.82119" lon="2.38991">
        <ele>103.73</ele>
        <time>2019-05-20T19:16:26.999Z</time>
      </trkpt>
      <trkpt lat="48.82126" lon="2.39002">
        <ele>103.68</ele>
        <time>2019-05-20T19:16:28.999Z</time>
      </trkpt>
      <trkpt lat="48.82134" lon="2.39017">
        <ele>103.64</ele>
        <time>2019-05-20T19:16:31.999Z</time>
      </trkpt>
      <trkpt lat="48.82141" lon="2.39025">
        <ele>103.64</ele>
        <time>2019-05-20T19:16:33.999Z</time>
      </trkpt>
      <trkpt lat="48.8215" lon="2.39034">
        <ele>103.63</ele>
        <time>2019-05-20T19:16:37.999Z</time>
      </trkpt>
      <trkpt lat="48.82158" lon="2.39044">
        <ele>103.63</ele>
        <time>2019-05-20T19:16:42.999Z</time>
      </trkpt>
      <trkpt lat="48.82163" lon="2.39056">
        <ele>103.67</ele>
        <time>2019-05-20T19:16:53.999Z</time>
      </trkpt>
      <trkpt lat="48.82169" lon="2.39069">
        <ele>103.69</ele>
        <time>2019-05-20T19:17:01.999Z</time>
      </trkpt>
      <trkpt lat="48.82175" lon="2.39083">
        <ele>103.69</ele>
        <time>2019-05-20T19:17:06.999Z</time>
      </trkpt>
      <trkpt lat="48.82183" lon="2.39097">
        <ele>103.69</ele>
        <time>2019-05-20T19:17:10.999Z</time>
      </trkpt>
      <trkpt lat="48.8219" lon="2.39109">
        <ele>103.69</ele>
        <time>2019-05-20T19:17:13.999Z</time>
      </trkpt>
      <trkpt lat="48.82196" lon="2.39122">
        <ele>103.69</ele>
        <time>2019-05-20T19:17:16.999Z</time>
      </trkpt>
      <trkpt lat="48.82203" lon="2.39138">
        <ele>103.68</ele>
        <time>2019-05-20T19:17:19.999Z</time>
      </trkpt>
      <trkpt lat="48.8221" lon="2.39155">
        <ele>103.6</ele>
        <time>2019-05-20T19:17:22.999Z</time>
      </trkpt>
      <trkpt lat="48.82216" lon="2.39167">
        <ele>103.58</ele>
        <time>2019-05-20T19:17:24.999Z</time>
      </trkpt>
      <trkpt lat="48.82222" lon="2.39179">
        <ele>103.57</ele>
        <time>2019-05-20T19:17:26.999Z</time>
      </trkpt>
      <trkpt lat="48.82229" lon="2.39193">
        <ele>103.56</ele>
        <time>2019-05-20T19:17:29.999Z</time>
      </trkpt>
      <trkpt lat="48.82235" lon="2.39208">
        <ele>103.55</ele>
        <time>2019-05-20T19:17:32.999Z</time>
      </trkpt>
      <trkpt lat="48.82239" lon="2.3922">
        <ele>103.54</ele>
        <time>2019-05-20T19:17:35.999Z</time>
      </trkpt>
      <trkpt lat="48.82244" lon="2.39233">
        <ele>103.52</ele>
        <time>2019-05-20T19:17:39.999Z</time>
      </trkpt>
      <trkpt lat="48.82247" lon="2.39248">
        <ele>103.48</ele>
        <time>2019-05-20T19:17:44.999Z</time>
      </trkpt>
      <trkpt lat="48.82241" lon="2.39262">
        <ele>103.45</ele>
        <time>2019-05-20T19:17:49.999Z</time>
      </trkpt>
      <trkpt lat="48.82234" lon="2.3927">
        <ele>103.44</ele>
        <time>2019-05-20T19:17:52.999Z</time>
      </trkpt>
      <trkpt lat="48.82227" lon="2.39279">
        <ele>103.42</ele>
        <time>2019-05-20T19:17:55.999Z</time>
      </trkpt>
      <trkpt lat="48.82219" lon="2.39288">
        <ele>103.4</ele>
        <time>2019-05-20T19:17:58.999Z</time>
      </trkpt>
      <trkpt lat="48.82212" lon="2.39297">
        <ele>103.38</ele>
        <time>2019-05-20T19:18:01.999Z</time>
      </trkpt>
      <trkpt lat="48.82203" lon="2.39309">
        <ele>103.37</ele>
        <time>2019-05-20T19:18:04.999Z</time>
      </trkpt>
      <trkpt lat="48.82194" lon="2.3932">
        <ele>103.35</ele>
        <time>2019-05-20T19:18:07.999Z</time>
      </trkpt>
      <trkpt lat="48.82186" lon="2.39332">
        <ele>103.26</ele>
        <time>2019-05-20T19:18:10.999Z</time>
      </trkpt>
      <trkpt lat="48.82176" lon="2.39344">
        <ele>103.24</ele>
        <time>2019-05-20T19:18:13.999Z</time>
      </trkpt>
      <trkpt lat="48.82167" lon="2.39357">
        <ele>103.08</ele>
        <time>2019-05-20T19:18:16.999Z</time>
      </trkpt>
      <trkpt lat="48.82161" lon="2.39366">
        <ele>103</ele>
        <time>2019-05-20T19:18:18.999Z</time>
      </trkpt>
      <trkpt lat="48.82153" lon="2.39378">
        <ele>102.91</ele>
        <time>2019-05-20T19:18:21.999Z</time>
      </trkpt>
      <trkpt lat="48.82143" lon="2.39391">
        <ele>102.81</ele>
        <time>2019-05-20T19:18:24.999Z</time>
      </trkpt>
      <trkpt lat="48.82137" lon="2.394">
        <ele>102.75</ele>
        <time>2019-05-20T19:18:26.999Z</time>
      </trkpt>
      <trkpt lat="48.82127" lon="2.39414">
        <ele>102.69</ele>
        <time>2019-05-20T19:18:29.999Z</time>
      </trkpt>
      <trkpt lat="48.82118" lon="2.39428">
        <ele>102.65</ele>
        <time>2019-05-20T19:18:32.999Z</time>
      </trkpt>
      <trkpt lat="48.82111" lon="2.39437">
        <ele>102.64</ele>
        <time>2019-05-20T19:18:34.999Z</time>
      </trkpt>
      <trkpt lat="48.82103" lon="2.39448">
        <ele>102.64</ele>
        <time>2019-05-20T19:18:36.999Z</time>
      </trkpt>
      <trkpt lat="48.82095" lon="2.39459">
        <ele>102.63</ele>
        <time>2019-05-20T19:18:38.999Z</time>
      </trkpt>
      <trkpt lat="48.82088" lon="2.39469">
        <ele>102.63</ele>
        <time>2019-05-20T19:18:40.999Z</time>
      </trkpt>
      <trkpt lat="48.82081" lon="2.39477">
        <ele>102.63</ele>
        <time>2019-05-20T19:18:42.999Z</time>
      </trkpt>
      <trkpt lat="48.82073" lon="2.39485">
        <ele>102.63</ele>
        <time>2019-05-20T19:18:44.999Z</time>
      </trkpt>
      <trkpt lat="48.82063" lon="2.39499">
        <ele>102.63</ele>
        <time>2019-05-20T19:18:47.999Z</time>
      </trkpt>
      <trkpt lat="48.82053" lon="2.39512">
        <ele>102.6</ele>
        <time>2019-05-20T19:18:50.999Z</time>
      </trkpt>
      <trkpt lat="48.82046" lon="2.39521">
        <ele>102.57</ele>
        <time>2019-05-20T19:18:52.999Z</time>
      </trkpt>
      <trkpt lat="48.82037" lon="2.39533">
        <ele>102.55</ele>
        <time>2019-05-20T19:18:55.999Z</time>
      </trkpt>
      <trkpt lat="48.82031" lon="2.39544">
        <ele>102.59</ele>
        <time>2019-05-20T19:18:57.999Z</time>
      </trkpt>
      <trkpt lat="48.82024" lon="2.39557">
        <ele>102.76</ele>
        <time>2019-05-20T19:18:59.999Z</time>
      </trkpt>
      <trkpt lat="48.82018" lon="2.39569">
        <ele>102.97</ele>
        <time>2019-05-20T19:19:01.999Z</time>
      </trkpt>
      <trkpt lat="48.82012" lon="2.39579">
        <ele>103.17</ele>
        <time>2019-05-20T19:19:03.999Z</time>
      </trkpt>
      <trkpt lat="48.82002" lon="2.39592">
        <ele>103.42</ele>
        <time>2019-05-20T19:19:06.999Z</time>
      </trkpt>
      <trkpt lat="48.81995" lon="2.39601">
        <ele>103.57</ele>
        <time>2019-05-20T19:19:08.999Z</time>
      </trkpt>
      <trkpt lat="48.81984" lon="2.39611">
        <ele>103.87</ele>
        <time>2019-05-20T19:19:11.999Z</time>
      </trkpt>
      <trkpt lat="48.81976" lon="2.39619">
        <ele>104.08</ele>
        <time>2019-05-20T19:19:13.999Z</time>
      </trkpt>
      <trkpt lat="48.81968" lon="2.3963">
        <ele>104.12</ele>
        <time>2019-05-20T19:19:15.999Z</time>
      </trkpt>
      <trkpt lat="48.81961" lon="2.39639">
        <ele>104.31</ele>
        <time>2019-05-20T19:19:17.999Z</time>
      </trkpt>
      <trkpt lat="48.81949" lon="2.39647">
        <ele>104.5</ele>
        <time>2019-05-20T19:19:24.999Z</time>
      </trkpt>
      <trkpt lat="48.81942" lon="2.39659">
        <ele>104.5</ele>
        <time>2019-05-20T19:19:27.999Z</time>
      </trkpt>
      <trkpt lat="48.81931" lon="2.39669">
        <ele>104.39</ele>
        <time>2019-05-20T19:19:29.999Z</time>
      </trkpt>
      <trkpt lat="48.8192" lon="2.39677">
        <ele>104.37</ele>
        <time>2019-05-20T19:19:31.999Z</time>
      </trkpt>
      <trkpt lat="48.81911" lon="2.39684">
        <ele>104.33</ele>
        <time>2019-05-20T19:19:33.999Z</time>
      </trkpt>
      <trkpt lat="48.81902" lon="2.39697">
        <ele>104.25</ele>
        <time>2019-05-20T19:19:36.999Z</time>
      </trkpt>
      <trkpt lat="48.81893" lon="2.39709">
        <ele>104.17</ele>
        <time>2019-05-20T19:19:39.999Z</time>
      </trkpt>
      <trkpt lat="48.81884" lon="2.3972">
        <ele>104.11</ele>
        <time>2019-05-20T19:19:42.999Z</time>
      </trkpt>
      <trkpt lat="48.81875" lon="2.39733">
        <ele>103.88</ele>
        <time>2019-05-20T19:19:45.999Z</time>
      </trkpt>
      <trkpt lat="48.81868" lon="2.39746">
        <ele>103.87</ele>
        <time>2019-05-20T19:19:48.999Z</time>
      </trkpt>
      <trkpt lat="48.81861" lon="2.3976">
        <ele>104</ele>
        <time>2019-05-20T19:19:51.999Z</time>
      </trkpt>
      <trkpt lat="48.81855" lon="2.39771">
        <ele>104.12</ele>
        <time>2019-05-20T19:19:53.999Z</time>
      </trkpt>
      <trkpt lat="48.81847" lon="2.39782">
        <ele>104.42</ele>
        <time>2019-05-20T19:19:55.999Z</time>
      </trkpt>
      <trkpt lat="48.81839" lon="2.39791">
        <ele>104.55</ele>
        <time>2019-05-20T19:19:57.999Z</time>
      </trkpt>
      <trkpt lat="48.81831" lon="2.39798">
        <ele>104.68</ele>
        <time>2019-05-20T19:19:59.999Z</time>
      </trkpt>
      <trkpt lat="48.81822" lon="2.39809">
        <ele>104.7</ele>
        <time>2019-05-20T19:20:02.999Z</time>
      </trkpt>
      <trkpt lat="48.81817" lon="2.39822">
        <ele>104.73</ele>
        <time>2019-05-20T19:20:06.999Z</time>
      </trkpt>
      <trkpt lat="48.81822" lon="2.3984">
        <ele>104.74</ele>
        <time>2019-05-20T19:20:10.999Z</time>
      </trkpt>
      <trkpt lat="48.81831" lon="2.39854">
        <ele>104.73</ele>
        <time>2019-05-20T19:20:13.999Z</time>
      </trkpt>
      <trkpt lat="48.81839" lon="2.39865">
        <ele>104.68</ele>
        <time>2019-05-20T19:20:15.999Z</time>
      </trkpt>
      <trkpt lat="48.81848" lon="2.39878">
        <ele>104.64</ele>
        <time>2019-05-20T19:20:18.999Z</time>
      </trkpt>
      <trkpt lat="48.81858" lon="2.39885">
        <ele>104.63</ele>
        <time>2019-05-20T19:20:21.999Z</time>
      </trkpt>
      <trkpt lat="48.8187" lon="2.39892">
        <ele>104.61</ele>
        <time>2019-05-20T19:20:24.999Z</time>
      </trkpt>
      <trkpt lat="48.81879" lon="2.39897">
        <ele>104.59</ele>
        <time>2019-05-20T19:20:27.999Z</time>
      </trkpt>
      <trkpt lat="48.81887" lon="2.39906">
        <ele>104.55</ele>
        <time>2019-05-20T19:20:31.999Z</time>
      </trkpt>
      <trkpt lat="48.81891" lon="2.3992">
        <ele>104.48</ele>
        <time>2019-05-20T19:20:36.999Z</time>
      </trkpt>
      <trkpt lat="48.81889" lon="2.39934">
        <ele>104.36</ele>
        <time>2019-05-20T19:20:45.999Z</time>
      </trkpt>
      <trkpt lat="48.81885" lon="2.3995">
        <ele>104.28</ele>
        <time>2019-05-20T19:20:51.999Z</time>
      </trkpt>
      <trkpt lat="48.81878" lon="2.39966">
        <ele>104.25</ele>
        <time>2019-05-20T19:20:55.999Z</time>
      </trkpt>
      <trkpt lat="48.81871" lon="2.39982">
        <ele>104.24</ele>
        <time>2019-05-20T19:20:58.999Z</time>
      </trkpt>
      <trkpt lat="48.81865" lon="2.39998">
        <ele>104.11</ele>
        <time>2019-05-20T19:21:01.999Z</time>
      </trkpt>
      <trkpt lat="48.8186" lon="2.40011">
        <ele>104.02</ele>
        <time>2019-05-20T19:21:03.999Z</time>
      </trkpt>
      <trkpt lat="48.81856" lon="2.40025">
        <ele>103.96</ele>
        <time>2019-05-20T19:21:05.999Z</time>
      </trkpt>
      <trkpt lat="48.81851" lon="2.40038">
        <ele>103.91</ele>
        <time>2019-05-20T19:21:07.999Z</time>
      </trkpt>
      <trkpt lat="48.81846" lon="2.4005">
        <ele>103.81</ele>
        <time>2019-05-20T19:21:09.999Z</time>
      </trkpt>
      <trkpt lat="48.8184" lon="2.40062">
        <ele>103.72</ele>
        <time>2019-05-20T19:21:11.999Z</time>
      </trkpt>
      <trkpt lat="48.81834" lon="2.40075">
        <ele>103.65</ele>
        <time>2019-05-20T19:21:13.999Z</time>
      </trkpt>
      <trkpt lat="48.81829" lon="2.40089">
        <ele>103.62</ele>
        <time>2019-05-20T19:21:15.999Z</time>
      </trkpt>
      <trkpt lat="48.81824" lon="2.40102">
        <ele>103.56</ele>
        <time>2019-05-20T19:21:17.999Z</time>
      </trkpt>
      <trkpt lat="48.81819" lon="2.40115">
        <ele>103.48</ele>
        <time>2019-05-20T19:21:19.999Z</time>
      </trkpt>
      <trkpt lat="48.81815" lon="2.40128">
        <ele>103.44</ele>
        <time>2019-05-20T19:21:21.999Z</time>
      </trkpt>
      <trkpt lat="48.81811" lon="2.40141">
        <ele>103.39</ele>
        <time>2019-05-20T19:21:23.999Z</time>
      </trkpt>
      <trkpt lat="48.81805" lon="2.40156">
        <ele>103.32</ele>
        <time>2019-05-20T19:21:26.999Z</time>
      </trkpt>
      <trkpt lat="48.81799" lon="2.40171">
        <ele>103.28</ele>
        <time>2019-05-20T19:21:29.999Z</time>
      </trkpt>
      <trkpt lat="48.81793" lon="2.40187">
        <ele>103.22</ele>
        <time>2019-05-20T19:21:32.999Z</time>
      </trkpt>
      <trkpt lat="48.81786" lon="2.40202">
        <ele>103.14</ele>
        <time>2019-05-20T19:21:35.999Z</time>
      </trkpt>
      <trkpt lat="48.8178" lon="2.40214">
        <ele>103.1</ele>
        <time>2019-05-20T19:21:37.999Z</time>
      </trkpt>
      <trkpt lat="48.81772" lon="2.4023">
        <ele>103.04</ele>
        <time>2019-05-20T19:21:40.999Z</time>
      </trkpt>
      <trkpt lat="48.81765" lon="2.40239">
        <ele>103</ele>
        <time>2019-05-20T19:21:42.999Z</time>
      </trkpt>
      <trkpt lat="48.81757" lon="2.40252">
        <ele>102.94</ele>
        <time>2019-05-20T19:21:45.999Z</time>
      </trkpt>
      <trkpt lat="48.81748" lon="2.40262">
        <ele>102.8</ele>
        <time>2019-05-20T19:21:48.999Z</time>
      </trkpt>
      <trkpt lat="48.81738" lon="2.40272">
        <ele>102.62</ele>
        <time>2019-05-20T19:21:51.999Z</time>
      </trkpt>
      <trkpt lat="48.81727" lon="2.40282">
        <ele>102.48</ele>
        <time>2019-05-20T19:21:54.999Z</time>
      </trkpt>
      <trkpt lat="48.81716" lon="2.4029">
        <ele>102.34</ele>
        <time>2019-05-20T19:21:57.999Z</time>
      </trkpt>
      <trkpt lat="48.81705" lon="2.40299">
        <ele>102.24</ele>
        <time>2019-05-20T19:22:00.999Z</time>
      </trkpt>
      <trkpt lat="48.81693" lon="2.40309">
        <ele>102.12</ele>
        <time>2019-05-20T19:22:03.999Z</time>
      </trkpt>
      <trkpt lat="48.81686" lon="2.40316">
        <ele>102.06</ele>
        <time>2019-05-20T19:22:05.999Z</time>
      </trkpt>
      <trkpt lat="48.81677" lon="2.40322">
        <ele>102.01</ele>
        <time>2019-05-20T19:22:07.999Z</time>
      </trkpt>
      <trkpt lat="48.81669" lon="2.4033">
        <ele>101.95</ele>
        <time>2019-05-20T19:22:09.999Z</time>
      </trkpt>
      <trkpt lat="48.81658" lon="2.40339">
        <ele>101.88</ele>
        <time>2019-05-20T19:22:12.999Z</time>
      </trkpt>
      <trkpt lat="48.81647" lon="2.40349">
        <ele>101.81</ele>
        <time>2019-05-20T19:22:15.999Z</time>
      </trkpt>
      <trkpt lat="48.81639" lon="2.40356">
        <ele>101.8</ele>
        <time>2019-05-20T19:22:17.999Z</time>
      </trkpt>
      <trkpt lat="48.8163" lon="2.40363">
        <ele>101.79</ele>
        <time>2019-05-20T19:22:19.999Z</time>
      </trkpt>
      <trkpt lat="48.81622" lon="2.4037">
        <ele>101.8</ele>
        <time>2019-05-20T19:22:21.999Z</time>
      </trkpt>
      <trkpt lat="48.81613" lon="2.40377">
        <ele>101.81</ele>
        <time>2019-05-20T19:22:23.999Z</time>
      </trkpt>
      <trkpt lat="48.81604" lon="2.40383">
        <ele>101.79</ele>
        <time>2019-05-20T19:22:25.999Z</time>
      </trkpt>
      <trkpt lat="48.81595" lon="2.40389">
        <ele>101.78</ele>
        <time>2019-05-20T19:22:27.999Z</time>
      </trkpt>
      <trkpt lat="48.81585" lon="2.40393">
        <ele>101.7</ele>
        <time>2019-05-20T19:22:29.999Z</time>
      </trkpt>
      <trkpt lat="48.81575" lon="2.40398">
        <ele>101.59</ele>
        <time>2019-05-20T19:22:31.999Z</time>
      </trkpt>
      <trkpt lat="48.81565" lon="2.40403">
        <ele>101.46</ele>
        <time>2019-05-20T19:22:33.999Z</time>
      </trkpt>
      <trkpt lat="48.81556" lon="2.40408">
        <ele>101.36</ele>
        <time>2019-05-20T19:22:35.999Z</time>
      </trkpt>
      <trkpt lat="48.81546" lon="2.40411">
        <ele>101.26</ele>
        <time>2019-05-20T19:22:37.999Z</time>
      </trkpt>
      <trkpt lat="48.81537" lon="2.40415">
        <ele>101.18</ele>
        <time>2019-05-20T19:22:39.999Z</time>
      </trkpt>
      <trkpt lat="48.81524" lon="2.4042">
        <ele>101.12</ele>
        <time>2019-05-20T19:22:42.999Z</time>
      </trkpt>
      <trkpt lat="48.81512" lon="2.40424">
        <ele>101.05</ele>
        <time>2019-05-20T19:22:45.999Z</time>
      </trkpt>
      <trkpt lat="48.81501" lon="2.40428">
        <ele>100.98</ele>
        <time>2019-05-20T19:22:48.999Z</time>
      </trkpt>
      <trkpt lat="48.8149" lon="2.40432">
        <ele>100.95</ele>
        <time>2019-05-20T19:22:51.999Z</time>
      </trkpt>
      <trkpt lat="48.81479" lon="2.40437">
        <ele>100.93</ele>
        <time>2019-05-20T19:22:54.999Z</time>
      </trkpt>
      <trkpt lat="48.8147" lon="2.40441">
        <ele>100.9</ele>
        <time>2019-05-20T19:22:57.999Z</time>
      </trkpt>
      <trkpt lat="48.81461" lon="2.40447">
        <ele>100.87</ele>
        <time>2019-05-20T19:23:01.999Z</time>
      </trkpt>
      <trkpt lat="48.81455" lon="2.40463">
        <ele>100.84</ele>
        <time>2019-05-20T19:23:05.999Z</time>
      </trkpt>
      <trkpt lat="48.81452" lon="2.40478">
        <ele>100.82</ele>
        <time>2019-05-20T19:23:08.999Z</time>
      </trkpt>
      <trkpt lat="48.81451" lon="2.40496">
        <ele>100.79</ele>
        <time>2019-05-20T19:23:11.999Z</time>
      </trkpt>
      <trkpt lat="48.8145" lon="2.40512">
        <ele>100.77</ele>
        <time>2019-05-20T19:23:14.999Z</time>
      </trkpt>
      <trkpt lat="48.8145" lon="2.40528">
        <ele>100.74</ele>
        <time>2019-05-20T19:23:17.999Z</time>
      </trkpt>
      <trkpt lat="48.8145" lon="2.40544">
        <ele>100.71</ele>
        <time>2019-05-20T19:23:20.999Z</time>
      </trkpt>
      <trkpt lat="48.8145" lon="2.4056">
        <ele>100.67</ele>
        <time>2019-05-20T19:23:24.999Z</time>
      </trkpt>
      <trkpt lat="48.81452" lon="2.40573">
        <ele>100.61</ele>
        <time>2019-05-20T19:23:29.999Z</time>
      </trkpt>
      <trkpt lat="48.81454" lon="2.40588">
        <ele>100.55</ele>
        <time>2019-05-20T19:23:34.999Z</time>
      </trkpt>
      <trkpt lat="48.81456" lon="2.40601">
        <ele>100.5</ele>
        <time>2019-05-20T19:23:38.999Z</time>
      </trkpt>
      <trkpt lat="48.81459" lon="2.40616">
        <ele>100.44</ele>
        <time>2019-05-20T19:23:42.999Z</time>
      </trkpt>
      <trkpt lat="48.81461" lon="2.40631">
        <ele>100.34</ele>
        <time>2019-05-20T19:23:48.999Z</time>
      </trkpt>
      <trkpt lat="48.81462" lon="2.40646">
        <ele>100.26</ele>
        <time>2019-05-20T19:23:53.999Z</time>
      </trkpt>
      <trkpt lat="48.81463" lon="2.40663">
        <ele>100.18</ele>
        <time>2019-05-20T19:23:58.999Z</time>
      </trkpt>
      <trkpt lat="48.81461" lon="2.40678">
        <ele>100.1</ele>
        <time>2019-05-20T19:24:03.999Z</time>
      </trkpt>
      <trkpt lat="48.8146" lon="2.40693">
        <ele>100.04</ele>
        <time>2019-05-20T19:24:07.999Z</time>
      </trkpt>
      <trkpt lat="48.81461" lon="2.4071">
        <ele>99.97</ele>
        <time>2019-05-20T19:24:11.999Z</time>
      </trkpt>
      <trkpt lat="48.81458" lon="2.40724">
        <ele>99.89</ele>
        <time>2019-05-20T19:24:16.999Z</time>
      </trkpt>
      <trkpt lat="48.81453" lon="2.40739">
        <ele>99.81</ele>
        <time>2019-05-20T19:24:21.999Z</time>
      </trkpt>
      <trkpt lat="48.81453" lon="2.40753">
        <ele>99.71</ele>
        <time>2019-05-20T19:24:27.999Z</time>
      </trkpt>
      <trkpt lat="48.81464" lon="2.40754">
        <ele>99.55</ele>
        <time>2019-05-20T19:24:36.999Z</time>
      </trkpt>
      <trkpt lat="48.81459" lon="2.40765">
        <ele>99.3</ele>
        <time>2019-05-20T19:24:49.999Z</time>
      </trkpt>
      <trkpt lat="48.81456" lon="2.40782">
        <ele>99.17</ele>
        <time>2019-05-20T19:24:54.999Z</time>
      </trkpt>
      <trkpt lat="48.81455" lon="2.40796">
        <ele>99.07</ele>
        <time>2019-05-20T19:24:58.999Z</time>
      </trkpt>
      <trkpt lat="48.81449" lon="2.40806">
        <ele>98.75</ele>
        <time>2019-05-20T19:25:12.999Z</time>
      </trkpt>
      <trkpt lat="48.81444" lon="2.4082">
        <ele>98.6</ele>
        <time>2019-05-20T19:25:19.999Z</time>
      </trkpt>
      <trkpt lat="48.81444" lon="2.40838">
        <ele>98.51</ele>
        <time>2019-05-20T19:25:23.999Z</time>
      </trkpt>
      <trkpt lat="48.81443" lon="2.40852">
        <ele>98.45</ele>
        <time>2019-05-20T19:25:26.999Z</time>
      </trkpt>
      <trkpt lat="48.81443" lon="2.40869">
        <ele>98.37</ele>
        <time>2019-05-20T19:25:30.999Z</time>
      </trkpt>
      <trkpt lat="48.81443" lon="2.40884">
        <ele>98.29</ele>
        <time>2019-05-20T19:25:34.999Z</time>
      </trkpt>
      <trkpt lat="48.81444" lon="2.40899">
        <ele>98.22</ele>
        <time>2019-05-20T19:25:38.999Z</time>
      </trkpt>
      <trkpt lat="48.81443" lon="2.40915">
        <ele>98.13</ele>
        <time>2019-05-20T19:25:44.999Z</time>
      </trkpt>
      <trkpt lat="48.81433" lon="2.40917">
        <ele>97.75</ele>
        <time>2019-05-20T19:26:07.999Z</time>
      </trkpt>
      <trkpt lat="48.81424" lon="2.40915">
        <ele>97.66</ele>
        <time>2019-05-20T19:26:10.999Z</time>
      </trkpt>
      <trkpt lat="48.81413" lon="2.40914">
        <ele>97.54</ele>
        <time>2019-05-20T19:26:14.999Z</time>
      </trkpt>
      <trkpt lat="48.81402" lon="2.40914">
        <ele>97.43</ele>
        <time>2019-05-20T19:26:18.999Z</time>
      </trkpt>
      <trkpt lat="48.81391" lon="2.40913">
        <ele>97.35</ele>
        <time>2019-05-20T19:26:21.999Z</time>
      </trkpt>
      <trkpt lat="48.8138" lon="2.40911">
        <ele>97.27</ele>
        <time>2019-05-20T19:26:24.999Z</time>
      </trkpt>
      <trkpt lat="48.81368" lon="2.40909">
        <ele>96.91</ele>
        <time>2019-05-20T19:26:27.999Z</time>
      </trkpt>
      <trkpt lat="48.81357" lon="2.40908">
        <ele>96.63</ele>
        <time>2019-05-20T19:26:30.999Z</time>
      </trkpt>
      <trkpt lat="48.81347" lon="2.40909">
        <ele>96.53</ele>
        <time>2019-05-20T19:26:35.999Z</time>
      </trkpt>
      <trkpt lat="48.81353" lon="2.40922">
        <ele>96.26</ele>
        <time>2019-05-20T19:26:51.999Z</time>
      </trkpt>
      <trkpt lat="48.81363" lon="2.40922">
        <ele>96.15</ele>
        <time>2019-05-20T19:27:04.999Z</time>
      </trkpt>
      <trkpt lat="48.81358" lon="2.40909">
        <ele>96.01</ele>
        <time>2019-05-20T19:27:14.999Z</time>
      </trkpt>
      <trkpt lat="48.81348" lon="2.40907">
        <ele>95.92</ele>
        <time>2019-05-20T19:27:18.999Z</time>
      </trkpt>
      <trkpt lat="48.81337" lon="2.40904">
        <ele>95.84</ele>
        <time>2019-05-20T19:27:22.999Z</time>
      </trkpt>
      <trkpt lat="48.81328" lon="2.40902">
        <ele>95.75</ele>
        <time>2019-05-20T19:27:26.999Z</time>
      </trkpt>
      <trkpt lat="48.81318" lon="2.40899">
        <ele>95.67</ele>
        <time>2019-05-20T19:27:30.999Z</time>
      </trkpt>
      <trkpt lat="48.81307" lon="2.40895">
        <ele>95.59</ele>
        <time>2019-05-20T19:27:34.999Z</time>
      </trkpt>
      <trkpt lat="48.81297" lon="2.40892">
        <ele>95.52</ele>
        <time>2019-05-20T19:27:38.999Z</time>
      </trkpt>
      <trkpt lat="48.81288" lon="2.40888">
        <ele>95.46</ele>
        <time>2019-05-20T19:27:41.999Z</time>
      </trkpt>
      <trkpt lat="48.81276" lon="2.40884">
        <ele>95.4</ele>
        <time>2019-05-20T19:27:44.999Z</time>
      </trkpt>
      <trkpt lat="48.81263" lon="2.40881">
        <ele>95.07</ele>
        <time>2019-05-20T19:27:47.999Z</time>
      </trkpt>
      <trkpt lat="48.81252" lon="2.40878">
        <ele>94.83</ele>
        <time>2019-05-20T19:27:50.999Z</time>
      </trkpt>
      <trkpt lat="48.81236" lon="2.40875">
        <ele>94.7</ele>
        <time>2019-05-20T19:27:54.999Z</time>
      </trkpt>
      <trkpt lat="48.81225" lon="2.40873">
        <ele>94.59</ele>
        <time>2019-05-20T19:27:57.999Z</time>
      </trkpt>
      <trkpt lat="48.81214" lon="2.4087">
        <ele>94.56</ele>
        <time>2019-05-20T19:28:00.999Z</time>
      </trkpt>
      <trkpt lat="48.81204" lon="2.40866">
        <ele>94.54</ele>
        <time>2019-05-20T19:28:03.999Z</time>
      </trkpt>
      <trkpt lat="48.81189" lon="2.40859">
        <ele>94.43</ele>
        <time>2019-05-20T19:28:07.999Z</time>
      </trkpt>
      <trkpt lat="48.81177" lon="2.40855">
        <ele>94.24</ele>
        <time>2019-05-20T19:28:10.999Z</time>
      </trkpt>
      <trkpt lat="48.81165" lon="2.40852">
        <ele>94.12</ele>
        <time>2019-05-20T19:28:13.999Z</time>
      </trkpt>
      <trkpt lat="48.81152" lon="2.4085">
        <ele>94.02</ele>
        <time>2019-05-20T19:28:16.999Z</time>
      </trkpt>
      <trkpt lat="48.8114" lon="2.40848">
        <ele>93.95</ele>
        <time>2019-05-20T19:28:19.999Z</time>
      </trkpt>
      <trkpt lat="48.81124" lon="2.40846">
        <ele>93.88</ele>
        <time>2019-05-20T19:28:23.999Z</time>
      </trkpt>
      <trkpt lat="48.81107" lon="2.40844">
        <ele>93.83</ele>
        <time>2019-05-20T19:28:27.999Z</time>
      </trkpt>
      <trkpt lat="48.81094" lon="2.40841">
        <ele>93.82</ele>
        <time>2019-05-20T19:28:30.999Z</time>
      </trkpt>
      <trkpt lat="48.81077" lon="2.40836">
        <ele>93.79</ele>
        <time>2019-05-20T19:28:34.999Z</time>
      </trkpt>
      <trkpt lat="48.81065" lon="2.40831">
        <ele>93.77</ele>
        <time>2019-05-20T19:28:37.999Z</time>
      </trkpt>
      <trkpt lat="48.81054" lon="2.40827">
        <ele>93.76</ele>
        <time>2019-05-20T19:28:40.999Z</time>
      </trkpt>
      <trkpt lat="48.81042" lon="2.40823">
        <ele>93.75</ele>
        <time>2019-05-20T19:28:43.999Z</time>
      </trkpt>
      <trkpt lat="48.81025" lon="2.40817">
        <ele>93.66</ele>
        <time>2019-05-20T19:28:47.999Z</time>
      </trkpt>
      <trkpt lat="48.81014" lon="2.40814">
        <ele>93.6</ele>
        <time>2019-05-20T19:28:49.999Z</time>
      </trkpt>
      <trkpt lat="48.81002" lon="2.4081">
        <ele>93.53</ele>
        <time>2019-05-20T19:28:51.999Z</time>
      </trkpt>
      <trkpt lat="48.80989" lon="2.40806">
        <ele>93.48</ele>
        <time>2019-05-20T19:28:53.999Z</time>
      </trkpt>
      <trkpt lat="48.8097" lon="2.40798">
        <ele>93.47</ele>
        <time>2019-05-20T19:28:56.999Z</time>
      </trkpt>
      <trkpt lat="48.80954" lon="2.40794">
        <ele>93.47</ele>
        <time>2019-05-20T19:28:58.999Z</time>
      </trkpt>
      <trkpt lat="48.80938" lon="2.4079">
        <ele>93.47</ele>
        <time>2019-05-20T19:29:00.999Z</time>
      </trkpt>
      <trkpt lat="48.80924" lon="2.40785">
        <ele>93.42</ele>
        <time>2019-05-20T19:29:02.999Z</time>
      </trkpt>
      <trkpt lat="48.80911" lon="2.40781">
        <ele>93.36</ele>
        <time>2019-05-20T19:29:04.999Z</time>
      </trkpt>
      <trkpt lat="48.80896" lon="2.40779">
        <ele>93.39</ele>
        <time>2019-05-20T19:29:06.999Z</time>
      </trkpt>
      <trkpt lat="48.80882" lon="2.40776">
        <ele>93.16</ele>
        <time>2019-05-20T19:29:08.999Z</time>
      </trkpt>
      <trkpt lat="48.80867" lon="2.40772">
        <ele>93.3</ele>
        <time>2019-05-20T19:29:10.999Z</time>
      </trkpt>
      <trkpt lat="48.80852" lon="2.40774">
        <ele>93.36</ele>
        <time>2019-05-20T19:29:12.999Z</time>
      </trkpt>
      <trkpt lat="48.80838" lon="2.4077">
        <ele>93.32</ele>
        <time>2019-05-20T19:29:14.999Z</time>
      </trkpt>
      <trkpt lat="48.80824" lon="2.4077">
        <ele>93.34</ele>
        <time>2019-05-20T19:29:16.999Z</time>
      </trkpt>
      <trkpt lat="48.80809" lon="2.40768">
        <ele>93.25</ele>
        <time>2019-05-20T19:29:18.999Z</time>
      </trkpt>
      <trkpt lat="48.80795" lon="2.40765">
        <ele>93.15</ele>
        <time>2019-05-20T19:29:20.999Z</time>
      </trkpt>
      <trkpt lat="48.80784" lon="2.40765">
        <ele>93.11</ele>
        <time>2019-05-20T19:29:22.999Z</time>
      </trkpt>
      <trkpt lat="48.80773" lon="2.40762">
        <ele>92.97</ele>
        <time>2019-05-20T19:29:25.999Z</time>
      </trkpt>
      <trkpt lat="48.80762" lon="2.40759">
        <ele>92.83</ele>
        <time>2019-05-20T19:29:28.999Z</time>
      </trkpt>
      <trkpt lat="48.80753" lon="2.40754">
        <ele>92.5</ele>
        <time>2019-05-20T19:29:32.999Z</time>
      </trkpt>
      <trkpt lat="48.80744" lon="2.40754">
        <ele>92.3</ele>
        <time>2019-05-20T19:29:37.999Z</time>
      </trkpt>
      <trkpt lat="48.80735" lon="2.40755">
        <ele>92.86</ele>
        <time>2019-05-20T19:29:51.999Z</time>
      </trkpt>
      <trkpt lat="48.80725" lon="2.40763">
        <ele>93.08</ele>
        <time>2019-05-20T19:29:55.999Z</time>
      </trkpt>
      <trkpt lat="48.80715" lon="2.40769">
        <ele>93.16</ele>
        <time>2019-05-20T19:29:57.999Z</time>
      </trkpt>
      <trkpt lat="48.80706" lon="2.4077">
        <ele>93.24</ele>
        <time>2019-05-20T19:29:59.999Z</time>
      </trkpt>
      <trkpt lat="48.80694" lon="2.40772">
        <ele>93.33</ele>
        <time>2019-05-20T19:30:02.999Z</time>
      </trkpt>
      <trkpt lat="48.80683" lon="2.40775">
        <ele>93.37</ele>
        <time>2019-05-20T19:30:05.999Z</time>
      </trkpt>
      <trkpt lat="48.80672" lon="2.40778">
        <ele>93.4</ele>
        <time>2019-05-20T19:30:08.999Z</time>
      </trkpt>
      <trkpt lat="48.8066" lon="2.40779">
        <ele>93.41</ele>
        <time>2019-05-20T19:30:11.999Z</time>
      </trkpt>
      <trkpt lat="48.80649" lon="2.4078">
        <ele>93.39</ele>
        <time>2019-05-20T19:30:14.999Z</time>
      </trkpt>
      <trkpt lat="48.80637" lon="2.40782">
        <ele>93.2</ele>
        <time>2019-05-20T19:30:17.999Z</time>
      </trkpt>
      <trkpt lat="48.80628" lon="2.40783">
        <ele>92.94</ele>
        <time>2019-05-20T19:30:19.999Z</time>
      </trkpt>
      <trkpt lat="48.80619" lon="2.40785">
        <ele>92.79</ele>
        <time>2019-05-20T19:30:21.999Z</time>
      </trkpt>
      <trkpt lat="48.80609" lon="2.40787">
        <ele>92.57</ele>
        <time>2019-05-20T19:30:23.999Z</time>
      </trkpt>
      <trkpt lat="48.80596" lon="2.40788">
        <ele>92.47</ele>
        <time>2019-05-20T19:30:26.999Z</time>
      </trkpt>
      <trkpt lat="48.80587" lon="2.40791">
        <ele>92.62</ele>
        <time>2019-05-20T19:30:28.999Z</time>
      </trkpt>
      <trkpt lat="48.80578" lon="2.40797">
        <ele>92.64</ele>
        <time>2019-05-20T19:30:31.999Z</time>
      </trkpt>
      <trkpt lat="48.80567" lon="2.40804">
        <ele>92.6</ele>
        <time>2019-05-20T19:30:35.999Z</time>
      </trkpt>
      <trkpt lat="48.80558" lon="2.40809">
        <ele>92.55</ele>
        <time>2019-05-20T19:30:38.999Z</time>
      </trkpt>
      <trkpt lat="48.80547" lon="2.40815">
        <ele>92.37</ele>
        <time>2019-05-20T19:30:41.999Z</time>
      </trkpt>
      <trkpt lat="48.80537" lon="2.40819">
        <ele>92.32</ele>
        <time>2019-05-20T19:30:44.999Z</time>
      </trkpt>
      <trkpt lat="48.80526" lon="2.40823">
        <ele>92.01</ele>
        <time>2019-05-20T19:30:47.999Z</time>
      </trkpt>
      <trkpt lat="48.80513" lon="2.40829">
        <ele>91.5</ele>
        <time>2019-05-20T19:30:50.999Z</time>
      </trkpt>
      <trkpt lat="48.80504" lon="2.40835">
        <ele>91.44</ele>
        <time>2019-05-20T19:30:53.999Z</time>
      </trkpt>
      <trkpt lat="48.80495" lon="2.40843">
        <ele>91.39</ele>
        <time>2019-05-20T19:30:56.999Z</time>
      </trkpt>
      <trkpt lat="48.80486" lon="2.40855">
        <ele>91.3</ele>
        <time>2019-05-20T19:31:01.999Z</time>
      </trkpt>
      <trkpt lat="48.80477" lon="2.40864">
        <ele>91.26</ele>
        <time>2019-05-20T19:31:04.999Z</time>
      </trkpt>
      <trkpt lat="48.80466" lon="2.40867">
        <ele>91.24</ele>
        <time>2019-05-20T19:31:06.999Z</time>
      </trkpt>
      <trkpt lat="48.80457" lon="2.40869">
        <ele>91.07</ele>
        <time>2019-05-20T19:31:08.999Z</time>
      </trkpt>
      <trkpt lat="48.80443" lon="2.40883">
        <ele>90.94</ele>
        <time>2019-05-20T19:31:10.999Z</time>
      </trkpt>
      <trkpt lat="48.80431" lon="2.40889">
        <ele>90.85</ele>
        <time>2019-05-20T19:31:13.999Z</time>
      </trkpt>
      <trkpt lat="48.80418" lon="2.40895">
        <ele>90.82</ele>
        <time>2019-05-20T19:31:15.999Z</time>
      </trkpt>
      <trkpt lat="48.80407" lon="2.40902">
        <ele>90.87</ele>
        <time>2019-05-20T19:31:17.999Z</time>
      </trkpt>
      <trkpt lat="48.80397" lon="2.40913">
        <ele>91.02</ele>
        <time>2019-05-20T19:31:20.999Z</time>
      </trkpt>
      <trkpt lat="48.80388" lon="2.40924">
        <ele>91.03</ele>
        <time>2019-05-20T19:31:23.999Z</time>
      </trkpt>
      <trkpt lat="48.80381" lon="2.40935">
        <ele>91.04</ele>
        <time>2019-05-20T19:31:26.999Z</time>
      </trkpt>
      <trkpt lat="48.80375" lon="2.40946">
        <ele>91.07</ele>
        <time>2019-05-20T19:31:29.999Z</time>
      </trkpt>
      <trkpt lat="48.80368" lon="2.40955">
        <ele>91.13</ele>
        <time>2019-05-20T19:31:36.999Z</time>
      </trkpt>
      <trkpt lat="48.80378" lon="2.40959">
        <ele>91.2</ele>
        <time>2019-05-20T19:32:08.999Z</time>
      </trkpt>
      <trkpt lat="48.80389" lon="2.40955">
        <ele>91.18</ele>
        <time>2019-05-20T19:32:10.999Z</time>
      </trkpt>
      <trkpt lat="48.80394" lon="2.40942">
        <ele>91.18</ele>
        <time>2019-05-20T19:32:11.999Z</time>
      </trkpt>
      <trkpt lat="48.80384" lon="2.40938">
        <ele>91.09</ele>
        <time>2019-05-20T19:32:19.999Z</time>
      </trkpt>
      <trkpt lat="48.80375" lon="2.4095">
        <ele>90.88</ele>
        <time>2019-05-20T19:32:22.999Z</time>
      </trkpt>
      <trkpt lat="48.80367" lon="2.4096">
        <ele>90.61</ele>
        <time>2019-05-20T19:32:24.999Z</time>
      </trkpt>
      <trkpt lat="48.80359" lon="2.4097">
        <ele>90.4</ele>
        <time>2019-05-20T19:32:26.999Z</time>
      </trkpt>
      <trkpt lat="48.80351" lon="2.40979">
        <ele>90.24</ele>
        <time>2019-05-20T19:32:28.999Z</time>
      </trkpt>
      <trkpt lat="48.80342" lon="2.40989">
        <ele>90.09</ele>
        <time>2019-05-20T19:32:30.999Z</time>
      </trkpt>
      <trkpt lat="48.80334" lon="2.40998">
        <ele>89.95</ele>
        <time>2019-05-20T19:32:32.999Z</time>
      </trkpt>
      <trkpt lat="48.80324" lon="2.41008">
        <ele>89.89</ele>
        <time>2019-05-20T19:32:34.999Z</time>
      </trkpt>
      <trkpt lat="48.80315" lon="2.41017">
        <ele>89.85</ele>
        <time>2019-05-20T19:32:36.999Z</time>
      </trkpt>
      <trkpt lat="48.80306" lon="2.41028">
        <ele>89.83</ele>
        <time>2019-05-20T19:32:38.999Z</time>
      </trkpt>
      <trkpt lat="48.80297" lon="2.41039">
        <ele>89.84</ele>
        <time>2019-05-20T19:32:40.999Z</time>
      </trkpt>
      <trkpt lat="48.80289" lon="2.41048">
        <ele>89.82</ele>
        <time>2019-05-20T19:32:42.999Z</time>
      </trkpt>
      <trkpt lat="48.80279" lon="2.41059">
        <ele>89.79</ele>
        <time>2019-05-20T19:32:44.999Z</time>
      </trkpt>
      <trkpt lat="48.80271" lon="2.41068">
        <ele>89.74</ele>
        <time>2019-05-20T19:32:46.999Z</time>
      </trkpt>
      <trkpt lat="48.80264" lon="2.41076">
        <ele>89.75</ele>
        <time>2019-05-20T19:32:48.999Z</time>
      </trkpt>
      <trkpt lat="48.80255" lon="2.41084">
        <ele>89.78</ele>
        <time>2019-05-20T19:32:50.999Z</time>
      </trkpt>
      <trkpt lat="48.80247" lon="2.41092">
        <ele>89.78</ele>
        <time>2019-05-20T19:32:52.999Z</time>
      </trkpt>
      <trkpt lat="48.80238" lon="2.41101">
        <ele>89.7</ele>
        <time>2019-05-20T19:32:54.999Z</time>
      </trkpt>
      <trkpt lat="48.80229" lon="2.41112">
        <ele>89.61</ele>
        <time>2019-05-20T19:32:56.999Z</time>
      </trkpt>
      <trkpt lat="48.80219" lon="2.41124">
        <ele>89.53</ele>
        <time>2019-05-20T19:32:58.999Z</time>
      </trkpt>
      <trkpt lat="48.80209" lon="2.41135">
        <ele>89.54</ele>
        <time>2019-05-20T19:33:00.999Z</time>
      </trkpt>
      <trkpt lat="48.80199" lon="2.41146">
        <ele>89.65</ele>
        <time>2019-05-20T19:33:02.999Z</time>
      </trkpt>
      <trkpt lat="48.80191" lon="2.41154">
        <ele>89.66</ele>
        <time>2019-05-20T19:33:04.999Z</time>
      </trkpt>
      <trkpt lat="48.8018" lon="2.41164">
        <ele>89.66</ele>
        <time>2019-05-20T19:33:07.999Z</time>
      </trkpt>
      <trkpt lat="48.80172" lon="2.41173">
        <ele>89.66</ele>
        <time>2019-05-20T19:33:10.999Z</time>
      </trkpt>
      <trkpt lat="48.80161" lon="2.41185">
        <ele>89.67</ele>
        <time>2019-05-20T19:33:13.999Z</time>
      </trkpt>
      <trkpt lat="48.80153" lon="2.41194">
        <ele>89.69</ele>
        <time>2019-05-20T19:33:15.999Z</time>
      </trkpt>
      <trkpt lat="48.80145" lon="2.41202">
        <ele>89.68</ele>
        <time>2019-05-20T19:33:17.999Z</time>
      </trkpt>
      <trkpt lat="48.80137" lon="2.41211">
        <ele>89.66</ele>
        <time>2019-05-20T19:33:19.999Z</time>
      </trkpt>
      <trkpt lat="48.80129" lon="2.41219">
        <ele>89.64</ele>
        <time>2019-05-20T19:33:21.999Z</time>
      </trkpt>
      <trkpt lat="48.8012" lon="2.41228">
        <ele>89.65</ele>
        <time>2019-05-20T19:33:23.999Z</time>
      </trkpt>
      <trkpt lat="48.80112" lon="2.41236">
        <ele>89.69</ele>
        <time>2019-05-20T19:33:25.999Z</time>
      </trkpt>
      <trkpt lat="48.80103" lon="2.41245">
        <ele>89.69</ele>
        <time>2019-05-20T19:33:27.999Z</time>
      </trkpt>
      <trkpt lat="48.80095" lon="2.41255">
        <ele>89.67</ele>
        <time>2019-05-20T19:33:29.999Z</time>
      </trkpt>
      <trkpt lat="48.80085" lon="2.41265">
        <ele>89.62</ele>
        <time>2019-05-20T19:33:31.999Z</time>
      </trkpt>
      <trkpt lat="48.80076" lon="2.41276">
        <ele>89.58</ele>
        <time>2019-05-20T19:33:33.999Z</time>
      </trkpt>
      <trkpt lat="48.80065" lon="2.41285">
        <ele>89.56</ele>
        <time>2019-05-20T19:33:35.999Z</time>
      </trkpt>
      <trkpt lat="48.80055" lon="2.41293">
        <ele>89.57</ele>
        <time>2019-05-20T19:33:37.999Z</time>
      </trkpt>
      <trkpt lat="48.80047" lon="2.413">
        <ele>89.67</ele>
        <time>2019-05-20T19:33:39.999Z</time>
      </trkpt>
      <trkpt lat="48.80037" lon="2.41309">
        <ele>89.79</ele>
        <time>2019-05-20T19:33:42.999Z</time>
      </trkpt>
      <trkpt lat="48.80026" lon="2.41319">
        <ele>89.85</ele>
        <time>2019-05-20T19:33:45.999Z</time>
      </trkpt>
      <trkpt lat="48.80018" lon="2.41326">
        <ele>89.88</ele>
        <time>2019-05-20T19:33:47.999Z</time>
      </trkpt>
      <trkpt lat="48.80009" lon="2.41334">
        <ele>89.91</ele>
        <time>2019-05-20T19:33:49.999Z</time>
      </trkpt>
      <trkpt lat="48.80001" lon="2.41342">
        <ele>89.92</ele>
        <time>2019-05-20T19:33:51.999Z</time>
      </trkpt>
      <trkpt lat="48.79992" lon="2.4135">
        <ele>89.91</ele>
        <time>2019-05-20T19:33:53.999Z</time>
      </trkpt>
      <trkpt lat="48.79982" lon="2.41356">
        <ele>89.88</ele>
        <time>2019-05-20T19:33:55.999Z</time>
      </trkpt>
      <trkpt lat="48.79971" lon="2.41364">
        <ele>89.86</ele>
        <time>2019-05-20T19:33:57.999Z</time>
      </trkpt>
      <trkpt lat="48.79961" lon="2.41373">
        <ele>89.84</ele>
        <time>2019-05-20T19:33:59.999Z</time>
      </trkpt>
      <trkpt lat="48.79951" lon="2.41381">
        <ele>89.86</ele>
        <time>2019-05-20T19:34:01.999Z</time>
      </trkpt>
      <trkpt lat="48.79941" lon="2.4139">
        <ele>89.95</ele>
        <time>2019-05-20T19:34:03.999Z</time>
      </trkpt>
      <trkpt lat="48.7993" lon="2.41399">
        <ele>90.04</ele>
        <time>2019-05-20T19:34:05.999Z</time>
      </trkpt>
      <trkpt lat="48.79919" lon="2.41407">
        <ele>90.15</ele>
        <time>2019-05-20T19:34:07.999Z</time>
      </trkpt>
      <trkpt lat="48.79908" lon="2.41416">
        <ele>90.3</ele>
        <time>2019-05-20T19:34:09.999Z</time>
      </trkpt>
      <trkpt lat="48.79897" lon="2.41424">
        <ele>90.49</ele>
        <time>2019-05-20T19:34:11.999Z</time>
      </trkpt>
      <trkpt lat="48.79887" lon="2.41431">
        <ele>90.63</ele>
        <time>2019-05-20T19:34:13.999Z</time>
      </trkpt>
      <trkpt lat="48.79876" lon="2.4144">
        <ele>91</ele>
        <time>2019-05-20T19:34:16.999Z</time>
      </trkpt>
      <trkpt lat="48.79867" lon="2.41448">
        <ele>91.15</ele>
        <time>2019-05-20T19:34:20.999Z</time>
      </trkpt>
      <trkpt lat="48.79863" lon="2.41461">
        <ele>91.49</ele>
        <time>2019-05-20T19:34:33.999Z</time>
      </trkpt>
      <trkpt lat="48.79855" lon="2.41472">
        <ele>91.6</ele>
        <time>2019-05-20T19:34:37.999Z</time>
      </trkpt>
      <trkpt lat="48.79847" lon="2.41481">
        <ele>91.66</ele>
        <time>2019-05-20T19:34:40.999Z</time>
      </trkpt>
      <trkpt lat="48.7984" lon="2.41489">
        <ele>91.69</ele>
        <time>2019-05-20T19:34:43.999Z</time>
      </trkpt>
      <trkpt lat="48.79832" lon="2.41497">
        <ele>91.71</ele>
        <time>2019-05-20T19:34:46.999Z</time>
      </trkpt>
      <trkpt lat="48.79822" lon="2.41505">
        <ele>91.75</ele>
        <time>2019-05-20T19:34:50.999Z</time>
      </trkpt>
      <trkpt lat="48.79831" lon="2.41504">
        <ele>90.91</ele>
        <time>2019-05-20T19:36:36.999Z</time>
      </trkpt>
      <trkpt lat="48.79822" lon="2.41506">
        <ele>91.38</ele>
        <time>2019-05-20T19:38:45.999Z</time>
      </trkpt>
      <trkpt lat="48.79813" lon="2.41502">
        <ele>91.45</ele>
        <time>2019-05-20T19:39:15.999Z</time>
      </trkpt>
      <trkpt lat="48.79804" lon="2.41511">
        <ele>91.46</ele>
        <time>2019-05-20T19:39:19.999Z</time>
      </trkpt>
      <trkpt lat="48.79795" lon="2.41521">
        <ele>91.46</ele>
        <time>2019-05-20T19:39:23.999Z</time>
      </trkpt>
      <trkpt lat="48.79787" lon="2.41529">
        <ele>91.46</ele>
        <time>2019-05-20T19:39:26.999Z</time>
      </trkpt>
      <trkpt lat="48.79778" lon="2.41538">
        <ele>91.45</ele>
        <time>2019-05-20T19:39:29.999Z</time>
      </trkpt>
      <trkpt lat="48.7977" lon="2.41547">
        <ele>91.44</ele>
        <time>2019-05-20T19:39:32.999Z</time>
      </trkpt>
      <trkpt lat="48.79763" lon="2.41558">
        <ele>91.43</ele>
        <time>2019-05-20T19:39:35.999Z</time>
      </trkpt>
      <trkpt lat="48.79755" lon="2.41567">
        <ele>91.41</ele>
        <time>2019-05-20T19:39:38.999Z</time>
      </trkpt>
      <trkpt lat="48.79745" lon="2.41576">
        <ele>91.39</ele>
        <time>2019-05-20T19:39:41.999Z</time>
      </trkpt>
      <trkpt lat="48.79736" lon="2.41584">
        <ele>91.37</ele>
        <time>2019-05-20T19:39:44.999Z</time>
      </trkpt>
      <trkpt lat="48.79729" lon="2.41595">
        <ele>91.35</ele>
        <time>2019-05-20T19:39:47.999Z</time>
      </trkpt>
      <trkpt lat="48.79721" lon="2.41605">
        <ele>91.34</ele>
        <time>2019-05-20T19:39:50.999Z</time>
      </trkpt>
      <trkpt lat="48.79714" lon="2.41615">
        <ele>91.33</ele>
        <time>2019-05-20T19:39:53.999Z</time>
      </trkpt>
      <trkpt lat="48.79706" lon="2.41625">
        <ele>91.32</ele>
        <time>2019-05-20T19:39:56.999Z</time>
      </trkpt>
      <trkpt lat="48.79697" lon="2.41635">
        <ele>91.32</ele>
        <time>2019-05-20T19:39:59.999Z</time>
      </trkpt>
      <trkpt lat="48.79688" lon="2.41646">
        <ele>91.31</ele>
        <time>2019-05-20T19:40:03.999Z</time>
      </trkpt>
      <trkpt lat="48.79678" lon="2.41656">
        <ele>91.31</ele>
        <time>2019-05-20T19:40:07.999Z</time>
      </trkpt>
      <trkpt lat="48.7967" lon="2.41666">
        <ele>91.3</ele>
        <time>2019-05-20T19:40:11.999Z</time>
      </trkpt>
      <trkpt lat="48.79662" lon="2.41675">
        <ele>91.3</ele>
        <time>2019-05-20T19:40:15.999Z</time>
      </trkpt>
      <trkpt lat="48.79653" lon="2.41684">
        <ele>91.3</ele>
        <time>2019-05-20T19:40:20.999Z</time>
      </trkpt>
      <trkpt lat="48.79643" lon="2.41692">
        <ele>91.31</ele>
        <time>2019-05-20T19:40:27.999Z</time>
      </trkpt>
      <trkpt lat="48.79646" lon="2.41705">
        <ele>91.46</ele>
        <time>2019-05-20T19:40:48.999Z</time>
      </trkpt>
      <trkpt lat="48.79655" lon="2.41703">
        <ele>91.56</ele>
        <time>2019-05-20T19:40:54.999Z</time>
      </trkpt>
      <trkpt lat="48.79647" lon="2.41711">
        <ele>91.7</ele>
        <time>2019-05-20T19:41:04.999Z</time>
      </trkpt>
      <trkpt lat="48.79655" lon="2.4172">
        <ele>91.8</ele>
        <time>2019-05-20T19:41:11.999Z</time>
      </trkpt>
      <trkpt lat="48.79661" lon="2.41731">
        <ele>91.85</ele>
        <time>2019-05-20T19:41:16.999Z</time>
      </trkpt>
      <trkpt lat="48.79662" lon="2.41745">
        <ele>91.93</ele>
        <time>2019-05-20T19:41:47.999Z</time>
      </trkpt>
      <trkpt lat="48.79671" lon="2.41745">
        <ele>91.46</ele>
        <time>2019-05-20T19:42:55.999Z</time>
      </trkpt>
      <trkpt lat="48.79664" lon="2.41733">
        <ele>91.32</ele>
        <time>2019-05-20T19:43:13.999Z</time>
      </trkpt>
      <trkpt lat="48.79659" lon="2.41722">
        <ele>91.28</ele>
        <time>2019-05-20T19:43:16.999Z</time>
      </trkpt>
      <trkpt lat="48.79651" lon="2.41711">
        <ele>91.23</ele>
        <time>2019-05-20T19:43:20.999Z</time>
      </trkpt>
      <trkpt lat="48.79641" lon="2.41709">
        <ele>91.18</ele>
        <time>2019-05-20T19:43:25.999Z</time>
      </trkpt>
      <trkpt lat="48.79631" lon="2.41713">
        <ele>91.14</ele>
        <time>2019-05-20T19:43:29.999Z</time>
      </trkpt>
      <trkpt lat="48.79622" lon="2.41713">
        <ele>91.12</ele>
        <time>2019-05-20T19:43:32.999Z</time>
      </trkpt>
      <trkpt lat="48.7962" lon="2.41729">
        <ele>91.09</ele>
        <time>2019-05-20T19:43:38.999Z</time>
      </trkpt>
      <trkpt lat="48.79625" lon="2.41744">
        <ele>91.07</ele>
        <time>2019-05-20T19:43:41.999Z</time>
      </trkpt>
      <trkpt lat="48.79623" lon="2.41759">
        <ele>91.05</ele>
        <time>2019-05-20T19:43:45.999Z</time>
      </trkpt>
      <trkpt lat="48.79618" lon="2.41772">
        <ele>91.03</ele>
        <time>2019-05-20T19:43:48.999Z</time>
      </trkpt>
      <trkpt lat="48.79611" lon="2.41787">
        <ele>91.01</ele>
        <time>2019-05-20T19:43:52.999Z</time>
      </trkpt>
      <trkpt lat="48.79607" lon="2.418">
        <ele>90.99</ele>
        <time>2019-05-20T19:43:55.999Z</time>
      </trkpt>
      <trkpt lat="48.79601" lon="2.41815">
        <ele>90.88</ele>
        <time>2019-05-20T19:43:58.999Z</time>
      </trkpt>
      <trkpt lat="48.79596" lon="2.41827">
        <ele>90.84</ele>
        <time>2019-05-20T19:44:00.999Z</time>
      </trkpt>
      <trkpt lat="48.79592" lon="2.4184">
        <ele>90.82</ele>
        <time>2019-05-20T19:44:02.999Z</time>
      </trkpt>
      <trkpt lat="48.79587" lon="2.41853">
        <ele>90.8</ele>
        <time>2019-05-20T19:44:04.999Z</time>
      </trkpt>
      <trkpt lat="48.79582" lon="2.41865">
        <ele>90.8</ele>
        <time>2019-05-20T19:44:06.999Z</time>
      </trkpt>
      <trkpt lat="48.79578" lon="2.41877">
        <ele>90.8</ele>
        <time>2019-05-20T19:44:09.999Z</time>
      </trkpt>
      <trkpt lat="48.7957" lon="2.41893">
        <ele>90.82</ele>
        <time>2019-05-20T19:44:12.999Z</time>
      </trkpt>
      <trkpt lat="48.79564" lon="2.41903">
        <ele>90.81</ele>
        <time>2019-05-20T19:44:14.999Z</time>
      </trkpt>
      <trkpt lat="48.79557" lon="2.41913">
        <ele>90.8</ele>
        <time>2019-05-20T19:44:16.999Z</time>
      </trkpt>
      <trkpt lat="48.79546" lon="2.41924">
        <ele>90.79</ele>
        <time>2019-05-20T19:44:19.999Z</time>
      </trkpt>
      <trkpt lat="48.79538" lon="2.41932">
        <ele>90.8</ele>
        <time>2019-05-20T19:44:21.999Z</time>
      </trkpt>
      <trkpt lat="48.7953" lon="2.4194">
        <ele>90.81</ele>
        <time>2019-05-20T19:44:23.999Z</time>
      </trkpt>
      <trkpt lat="48.79523" lon="2.41948">
        <ele>90.81</ele>
        <time>2019-05-20T19:44:25.999Z</time>
      </trkpt>
      <trkpt lat="48.79514" lon="2.41956">
        <ele>90.81</ele>
        <time>2019-05-20T19:44:28.999Z</time>
      </trkpt>
      <trkpt lat="48.79505" lon="2.41967">
        <ele>90.81</ele>
        <time>2019-05-20T19:44:31.999Z</time>
      </trkpt>
      <trkpt lat="48.79495" lon="2.41978">
        <ele>90.79</ele>
        <time>2019-05-20T19:44:34.999Z</time>
      </trkpt>
      <trkpt lat="48.79488" lon="2.41987">
        <ele>90.78</ele>
        <time>2019-05-20T19:44:36.999Z</time>
      </trkpt>
      <trkpt lat="48.79478" lon="2.41998">
        <ele>90.75</ele>
        <time>2019-05-20T19:44:39.999Z</time>
      </trkpt>
      <trkpt lat="48.79469" lon="2.42008">
        <ele>90.72</ele>
        <time>2019-05-20T19:44:42.999Z</time>
      </trkpt>
      <trkpt lat="48.79458" lon="2.4202">
        <ele>90.69</ele>
        <time>2019-05-20T19:44:45.999Z</time>
      </trkpt>
      <trkpt lat="48.79451" lon="2.42028">
        <ele>90.65</ele>
        <time>2019-05-20T19:44:47.999Z</time>
      </trkpt>
      <trkpt lat="48.7944" lon="2.4204">
        <ele>90.62</ele>
        <time>2019-05-20T19:44:50.999Z</time>
      </trkpt>
      <trkpt lat="48.79431" lon="2.4205">
        <ele>90.6</ele>
        <time>2019-05-20T19:44:52.999Z</time>
      </trkpt>
      <trkpt lat="48.79424" lon="2.42058">
        <ele>90.59</ele>
        <time>2019-05-20T19:44:54.999Z</time>
      </trkpt>
      <trkpt lat="48.79414" lon="2.42071">
        <ele>90.57</ele>
        <time>2019-05-20T19:44:57.999Z</time>
      </trkpt>
      <trkpt lat="48.79404" lon="2.4208">
        <ele>90.57</ele>
        <time>2019-05-20T19:45:00.999Z</time>
      </trkpt>
      <trkpt lat="48.79395" lon="2.42089">
        <ele>90.57</ele>
        <time>2019-05-20T19:45:03.999Z</time>
      </trkpt>
      <trkpt lat="48.79384" lon="2.42096">
        <ele>90.55</ele>
        <time>2019-05-20T19:45:07.999Z</time>
      </trkpt>
      <trkpt lat="48.79374" lon="2.42103">
        <ele>90.54</ele>
        <time>2019-05-20T19:45:10.999Z</time>
      </trkpt>
      <trkpt lat="48.79363" lon="2.4211">
        <ele>90.43</ele>
        <time>2019-05-20T19:45:13.999Z</time>
      </trkpt>
      <trkpt lat="48.7935" lon="2.42117">
        <ele>90.3</ele>
        <time>2019-05-20T19:45:16.999Z</time>
      </trkpt>
      <trkpt lat="48.79341" lon="2.42122">
        <ele>90.24</ele>
        <time>2019-05-20T19:45:18.999Z</time>
      </trkpt>
      <trkpt lat="48.79332" lon="2.42127">
        <ele>90.2</ele>
        <time>2019-05-20T19:45:20.999Z</time>
      </trkpt>
      <trkpt lat="48.79322" lon="2.42132">
        <ele>90.15</ele>
        <time>2019-05-20T19:45:22.999Z</time>
      </trkpt>
      <trkpt lat="48.79313" lon="2.42136">
        <ele>90.11</ele>
        <time>2019-05-20T19:45:24.999Z</time>
      </trkpt>
      <trkpt lat="48.79303" lon="2.4214">
        <ele>90.06</ele>
        <time>2019-05-20T19:45:26.999Z</time>
      </trkpt>
      <trkpt lat="48.79293" lon="2.42144">
        <ele>90.02</ele>
        <time>2019-05-20T19:45:28.999Z</time>
      </trkpt>
      <trkpt lat="48.79284" lon="2.42147">
        <ele>89.95</ele>
        <time>2019-05-20T19:45:30.999Z</time>
      </trkpt>
      <trkpt lat="48.79275" lon="2.4215">
        <ele>89.87</ele>
        <time>2019-05-20T19:45:32.999Z</time>
      </trkpt>
      <trkpt lat="48.79263" lon="2.42154">
        <ele>89.73</ele>
        <time>2019-05-20T19:45:35.999Z</time>
      </trkpt>
      <trkpt lat="48.79252" lon="2.42157">
        <ele>89.65</ele>
        <time>2019-05-20T19:45:38.999Z</time>
      </trkpt>
      <trkpt lat="48.7924" lon="2.4216">
        <ele>89.58</ele>
        <time>2019-05-20T19:45:41.999Z</time>
      </trkpt>
      <trkpt lat="48.79228" lon="2.42163">
        <ele>89.53</ele>
        <time>2019-05-20T19:45:44.999Z</time>
      </trkpt>
      <trkpt lat="48.79217" lon="2.42166">
        <ele>89.53</ele>
        <time>2019-05-20T19:45:47.999Z</time>
      </trkpt>
      <trkpt lat="48.79207" lon="2.42168">
        <ele>89.52</ele>
        <time>2019-05-20T19:45:50.999Z</time>
      </trkpt>
      <trkpt lat="48.79196" lon="2.4217">
        <ele>89.52</ele>
        <time>2019-05-20T19:45:54.999Z</time>
      </trkpt>
      <trkpt lat="48.79184" lon="2.42169">
        <ele>89.51</ele>
        <time>2019-05-20T19:45:58.999Z</time>
      </trkpt>
      <trkpt lat="48.79173" lon="2.42169">
        <ele>89.48</ele>
        <time>2019-05-20T19:46:00.999Z</time>
      </trkpt>
      <trkpt lat="48.79161" lon="2.42175">
        <ele>89.42</ele>
        <time>2019-05-20T19:46:03.999Z</time>
      </trkpt>
      <trkpt lat="48.79149" lon="2.4218">
        <ele>89.38</ele>
        <time>2019-05-20T19:46:06.999Z</time>
      </trkpt>
      <trkpt lat="48.79139" lon="2.42181">
        <ele>89.38</ele>
        <time>2019-05-20T19:46:09.999Z</time>
      </trkpt>
      <trkpt lat="48.79129" lon="2.42182">
        <ele>89.36</ele>
        <time>2019-05-20T19:46:12.999Z</time>
      </trkpt>
      <trkpt lat="48.79118" lon="2.42184">
        <ele>89.35</ele>
        <time>2019-05-20T19:46:16.999Z</time>
      </trkpt>
      <trkpt lat="48.79107" lon="2.42183">
        <ele>89.31</ele>
        <time>2019-05-20T19:46:21.999Z</time>
      </trkpt>
      <trkpt lat="48.79097" lon="2.42182">
        <ele>89.28</ele>
        <time>2019-05-20T19:46:25.999Z</time>
      </trkpt>
      <trkpt lat="48.79087" lon="2.4218">
        <ele>89.25</ele>
        <time>2019-05-20T19:46:29.999Z</time>
      </trkpt>
      <trkpt lat="48.79077" lon="2.4218">
        <ele>89.22</ele>
        <time>2019-05-20T19:46:32.999Z</time>
      </trkpt>
      <trkpt lat="48.79067" lon="2.4218">
        <ele>89.19</ele>
        <time>2019-05-20T19:46:35.999Z</time>
      </trkpt>
      <trkpt lat="48.79054" lon="2.42178">
        <ele>89.08</ele>
        <time>2019-05-20T19:46:38.999Z</time>
      </trkpt>
      <trkpt lat="48.79042" lon="2.42176">
        <ele>89.05</ele>
        <time>2019-05-20T19:46:41.999Z</time>
      </trkpt>
      <trkpt lat="48.79031" lon="2.42173">
        <ele>89.03</ele>
        <time>2019-05-20T19:46:44.999Z</time>
      </trkpt>
      <trkpt lat="48.7902" lon="2.42173">
        <ele>89</ele>
        <time>2019-05-20T19:46:47.999Z</time>
      </trkpt>
      <trkpt lat="48.79009" lon="2.42171">
        <ele>88.86</ele>
        <time>2019-05-20T19:46:50.999Z</time>
      </trkpt>
      <trkpt lat="48.78996" lon="2.42167">
        <ele>88.73</ele>
        <time>2019-05-20T19:46:53.999Z</time>
      </trkpt>
      <trkpt lat="48.78984" lon="2.42165">
        <ele>88.7</ele>
        <time>2019-05-20T19:46:56.999Z</time>
      </trkpt>
      <trkpt lat="48.78973" lon="2.42161">
        <ele>88.69</ele>
        <time>2019-05-20T19:46:59.999Z</time>
      </trkpt>
      <trkpt lat="48.78964" lon="2.42157">
        <ele>88.68</ele>
        <time>2019-05-20T19:47:02.999Z</time>
      </trkpt>
      <trkpt lat="48.78954" lon="2.42153">
        <ele>88.67</ele>
        <time>2019-05-20T19:47:05.999Z</time>
      </trkpt>
      <trkpt lat="48.78944" lon="2.4215">
        <ele>88.66</ele>
        <time>2019-05-20T19:47:08.999Z</time>
      </trkpt>
      <trkpt lat="48.78935" lon="2.42146">
        <ele>88.64</ele>
        <time>2019-05-20T19:47:11.999Z</time>
      </trkpt>
      <trkpt lat="48.78925" lon="2.4214">
        <ele>88.62</ele>
        <time>2019-05-20T19:47:15.999Z</time>
      </trkpt>
      <trkpt lat="48.78918" lon="2.42132">
        <ele>88.59</ele>
        <time>2019-05-20T19:47:19.999Z</time>
      </trkpt>
      <trkpt lat="48.7891" lon="2.42122">
        <ele>88.56</ele>
        <time>2019-05-20T19:47:23.999Z</time>
      </trkpt>
      <trkpt lat="48.78902" lon="2.42113">
        <ele>88.54</ele>
        <time>2019-05-20T19:47:26.999Z</time>
      </trkpt>
      <trkpt lat="48.78894" lon="2.42107">
        <ele>88.38</ele>
        <time>2019-05-20T19:47:28.999Z</time>
      </trkpt>
      <trkpt lat="48.78885" lon="2.42103">
        <ele>88.27</ele>
        <time>2019-05-20T19:47:30.999Z</time>
      </trkpt>
      <trkpt lat="48.78875" lon="2.42098">
        <ele>88.19</ele>
        <time>2019-05-20T19:47:32.999Z</time>
      </trkpt>
      <trkpt lat="48.78864" lon="2.42093">
        <ele>88.13</ele>
        <time>2019-05-20T19:47:34.999Z</time>
      </trkpt>
      <trkpt lat="48.78852" lon="2.42088">
        <ele>88.09</ele>
        <time>2019-05-20T19:47:36.999Z</time>
      </trkpt>
      <trkpt lat="48.7884" lon="2.42083">
        <ele>88.06</ele>
        <time>2019-05-20T19:47:38.999Z</time>
      </trkpt>
      <trkpt lat="48.78828" lon="2.42078">
        <ele>88.04</ele>
        <time>2019-05-20T19:47:40.999Z</time>
      </trkpt>
      <trkpt lat="48.78819" lon="2.42074">
        <ele>88.04</ele>
        <time>2019-05-20T19:47:42.999Z</time>
      </trkpt>
      <trkpt lat="48.7881" lon="2.4207">
        <ele>88.03</ele>
        <time>2019-05-20T19:47:44.999Z</time>
      </trkpt>
      <trkpt lat="48.78801" lon="2.42067">
        <ele>88.01</ele>
        <time>2019-05-20T19:47:46.999Z</time>
      </trkpt>
      <trkpt lat="48.78791" lon="2.42065">
        <ele>87.98</ele>
        <time>2019-05-20T19:47:48.999Z</time>
      </trkpt>
      <trkpt lat="48.78782" lon="2.4206">
        <ele>87.94</ele>
        <time>2019-05-20T19:47:50.999Z</time>
      </trkpt>
      <trkpt lat="48.78773" lon="2.42055">
        <ele>87.92</ele>
        <time>2019-05-20T19:47:52.999Z</time>
      </trkpt>
      <trkpt lat="48.78764" lon="2.42049">
        <ele>87.92</ele>
        <time>2019-05-20T19:47:54.999Z</time>
      </trkpt>
      <trkpt lat="48.78755" lon="2.42044">
        <ele>87.88</ele>
        <time>2019-05-20T19:47:56.999Z</time>
      </trkpt>
      <trkpt lat="48.78743" lon="2.42038">
        <ele>87.8</ele>
        <time>2019-05-20T19:47:59.999Z</time>
      </trkpt>
      <trkpt lat="48.78733" lon="2.42033">
        <ele>87.76</ele>
        <time>2019-05-20T19:48:02.999Z</time>
      </trkpt>
      <trkpt lat="48.78724" lon="2.42029">
        <ele>87.73</ele>
        <time>2019-05-20T19:48:08.999Z</time>
      </trkpt>
      <trkpt lat="48.78713" lon="2.42021">
        <ele>87.71</ele>
        <time>2019-05-20T19:48:16.999Z</time>
      </trkpt>
      <trkpt lat="48.78704" lon="2.42016">
        <ele>87.69</ele>
        <time>2019-05-20T19:48:19.999Z</time>
      </trkpt>
      <trkpt lat="48.78692" lon="2.42008">
        <ele>87.62</ele>
        <time>2019-05-20T19:48:22.999Z</time>
      </trkpt>
      <trkpt lat="48.78683" lon="2.42004">
        <ele>87.51</ele>
        <time>2019-05-20T19:48:24.999Z</time>
      </trkpt>
      <trkpt lat="48.7867" lon="2.41999">
        <ele>87.39</ele>
        <time>2019-05-20T19:48:27.999Z</time>
      </trkpt>
      <trkpt lat="48.7866" lon="2.41996">
        <ele>87.33</ele>
        <time>2019-05-20T19:48:29.999Z</time>
      </trkpt>
      <trkpt lat="48.7865" lon="2.41993">
        <ele>87.28</ele>
        <time>2019-05-20T19:48:31.999Z</time>
      </trkpt>
      <trkpt lat="48.7864" lon="2.41988">
        <ele>87.24</ele>
        <time>2019-05-20T19:48:33.999Z</time>
      </trkpt>
      <trkpt lat="48.78631" lon="2.41982">
        <ele>87.19</ele>
        <time>2019-05-20T19:48:35.999Z</time>
      </trkpt>
      <trkpt lat="48.7862" lon="2.41975">
        <ele>87.16</ele>
        <time>2019-05-20T19:48:37.999Z</time>
      </trkpt>
      <trkpt lat="48.7861" lon="2.41968">
        <ele>87.13</ele>
        <time>2019-05-20T19:48:39.999Z</time>
      </trkpt>
      <trkpt lat="48.78599" lon="2.4196">
        <ele>87.11</ele>
        <time>2019-05-20T19:48:41.999Z</time>
      </trkpt>
      <trkpt lat="48.78587" lon="2.41952">
        <ele>87.1</ele>
        <time>2019-05-20T19:48:43.999Z</time>
      </trkpt>
      <trkpt lat="48.78575" lon="2.41946">
        <ele>87.08</ele>
        <time>2019-05-20T19:48:45.999Z</time>
      </trkpt>
      <trkpt lat="48.78563" lon="2.41938">
        <ele>87.06</ele>
        <time>2019-05-20T19:48:47.999Z</time>
      </trkpt>
      <trkpt lat="48.7855" lon="2.41929">
        <ele>87.03</ele>
        <time>2019-05-20T19:48:49.999Z</time>
      </trkpt>
      <trkpt lat="48.78536" lon="2.4192">
        <ele>87</ele>
        <time>2019-05-20T19:48:51.999Z</time>
      </trkpt>
      <trkpt lat="48.78522" lon="2.41911">
        <ele>86.96</ele>
        <time>2019-05-20T19:48:53.999Z</time>
      </trkpt>
      <trkpt lat="48.78508" lon="2.41902">
        <ele>86.9</ele>
        <time>2019-05-20T19:48:55.999Z</time>
      </trkpt>
      <trkpt lat="48.78493" lon="2.41895">
        <ele>86.86</ele>
        <time>2019-05-20T19:48:57.999Z</time>
      </trkpt>
      <trkpt lat="48.7848" lon="2.41884">
        <ele>86.83</ele>
        <time>2019-05-20T19:48:59.999Z</time>
      </trkpt>
      <trkpt lat="48.78466" lon="2.41876">
        <ele>87.02</ele>
        <time>2019-05-20T19:49:01.999Z</time>
      </trkpt>
      <trkpt lat="48.78454" lon="2.41867">
        <ele>87.07</ele>
        <time>2019-05-20T19:49:03.999Z</time>
      </trkpt>
      <trkpt lat="48.78442" lon="2.41857">
        <ele>86.88</ele>
        <time>2019-05-20T19:49:05.999Z</time>
      </trkpt>
      <trkpt lat="48.78428" lon="2.41851">
        <ele>86.74</ele>
        <time>2019-05-20T19:49:07.999Z</time>
      </trkpt>
      <trkpt lat="48.78414" lon="2.41844">
        <ele>86.74</ele>
        <time>2019-05-20T19:49:09.999Z</time>
      </trkpt>
      <trkpt lat="48.78401" lon="2.41835">
        <ele>86.57</ele>
        <time>2019-05-20T19:49:11.999Z</time>
      </trkpt>
      <trkpt lat="48.78388" lon="2.41825">
        <ele>86.46</ele>
        <time>2019-05-20T19:49:13.999Z</time>
      </trkpt>
      <trkpt lat="48.78376" lon="2.41814">
        <ele>86.38</ele>
        <time>2019-05-20T19:49:15.999Z</time>
      </trkpt>
      <trkpt lat="48.78365" lon="2.41803">
        <ele>86.22</ele>
        <time>2019-05-20T19:49:17.999Z</time>
      </trkpt>
      <trkpt lat="48.78352" lon="2.41793">
        <ele>86.17</ele>
        <time>2019-05-20T19:49:19.999Z</time>
      </trkpt>
      <trkpt lat="48.7834" lon="2.41783">
        <ele>86.24</ele>
        <time>2019-05-20T19:49:21.999Z</time>
      </trkpt>
      <trkpt lat="48.78329" lon="2.41774">
        <ele>85.3</ele>
        <time>2019-05-20T19:49:23.999Z</time>
      </trkpt>
      <trkpt lat="48.78318" lon="2.41764">
        <ele>83.88</ele>
        <time>2019-05-20T19:49:25.999Z</time>
      </trkpt>
      <trkpt lat="48.78307" lon="2.41756">
        <ele>82.89</ele>
        <time>2019-05-20T19:49:27.999Z</time>
      </trkpt>
      <trkpt lat="48.78295" lon="2.41748">
        <ele>82.44</ele>
        <time>2019-05-20T19:49:29.999Z</time>
      </trkpt>
      <trkpt lat="48.78283" lon="2.41739">
        <ele>82.26</ele>
        <time>2019-05-20T19:49:31.999Z</time>
      </trkpt>
      <trkpt lat="48.78272" lon="2.41731">
        <ele>82.4</ele>
        <time>2019-05-20T19:49:33.999Z</time>
      </trkpt>
      <trkpt lat="48.78259" lon="2.41722">
        <ele>82.37</ele>
        <time>2019-05-20T19:49:35.999Z</time>
      </trkpt>
      <trkpt lat="48.78246" lon="2.41715">
        <ele>82.72</ele>
        <time>2019-05-20T19:49:37.999Z</time>
      </trkpt>
      <trkpt lat="48.78233" lon="2.41706">
        <ele>82.94</ele>
        <time>2019-05-20T19:49:39.999Z</time>
      </trkpt>
      <trkpt lat="48.7822" lon="2.41697">
        <ele>83.31</ele>
        <time>2019-05-20T19:49:41.999Z</time>
      </trkpt>
      <trkpt lat="48.78208" lon="2.41687">
        <ele>82.78</ele>
        <time>2019-05-20T19:49:43.999Z</time>
      </trkpt>
      <trkpt lat="48.78196" lon="2.41677">
        <ele>82.41</ele>
        <time>2019-05-20T19:49:45.999Z</time>
      </trkpt>
      <trkpt lat="48.78183" lon="2.41668">
        <ele>82.2</ele>
        <time>2019-05-20T19:49:47.999Z</time>
      </trkpt>
      <trkpt lat="48.7817" lon="2.41655">
        <ele>82.3</ele>
        <time>2019-05-20T19:49:49.999Z</time>
      </trkpt>
      <trkpt lat="48.78156" lon="2.41647">
        <ele>82.55</ele>
        <time>2019-05-20T19:49:51.999Z</time>
      </trkpt>
      <trkpt lat="48.78144" lon="2.41637">
        <ele>82.86</ele>
        <time>2019-05-20T19:49:53.999Z</time>
      </trkpt>
      <trkpt lat="48.7813" lon="2.41628">
        <ele>83.58</ele>
        <time>2019-05-20T19:49:55.999Z</time>
      </trkpt>
      <trkpt lat="48.78117" lon="2.41622">
        <ele>84.16</ele>
        <time>2019-05-20T19:49:57.999Z</time>
      </trkpt>
      <trkpt lat="48.78104" lon="2.41615">
        <ele>84.43</ele>
        <time>2019-05-20T19:49:59.999Z</time>
      </trkpt>
      <trkpt lat="48.78091" lon="2.41605">
        <ele>84.36</ele>
        <time>2019-05-20T19:50:01.999Z</time>
      </trkpt>
      <trkpt lat="48.78078" lon="2.41597">
        <ele>84.43</ele>
        <time>2019-05-20T19:50:03.999Z</time>
      </trkpt>
      <trkpt lat="48.78065" lon="2.41588">
        <ele>84.66</ele>
        <time>2019-05-20T19:50:05.999Z</time>
      </trkpt>
      <trkpt lat="48.78052" lon="2.4158">
        <ele>84.92</ele>
        <time>2019-05-20T19:50:07.999Z</time>
      </trkpt>
      <trkpt lat="48.7804" lon="2.41571">
        <ele>85.24</ele>
        <time>2019-05-20T19:50:09.999Z</time>
      </trkpt>
      <trkpt lat="48.78027" lon="2.41563">
        <ele>85.29</ele>
        <time>2019-05-20T19:50:11.999Z</time>
      </trkpt>
      <trkpt lat="48.78014" lon="2.41555">
        <ele>85.37</ele>
        <time>2019-05-20T19:50:13.999Z</time>
      </trkpt>
      <trkpt lat="48.78001" lon="2.41545">
        <ele>85.97</ele>
        <time>2019-05-20T19:50:16.000Z</time>
      </trkpt>
      <trkpt lat="48.77987" lon="2.41536">
        <ele>86.32</ele>
        <time>2019-05-20T19:50:18.000Z</time>
      </trkpt>
      <trkpt lat="48.77974" lon="2.41526">
        <ele>86.46</ele>
        <time>2019-05-20T19:50:20.000Z</time>
      </trkpt>
      <trkpt lat="48.7796" lon="2.41515">
        <ele>86.78</ele>
        <time>2019-05-20T19:50:22.000Z</time>
      </trkpt>
      <trkpt lat="48.77947" lon="2.41505">
        <ele>86.78</ele>
        <time>2019-05-20T19:50:24.000Z</time>
      </trkpt>
      <trkpt lat="48.77935" lon="2.41495">
        <ele>86.57</ele>
        <time>2019-05-20T19:50:26.000Z</time>
      </trkpt>
      <trkpt lat="48.77921" lon="2.41484">
        <ele>86.31</ele>
        <time>2019-05-20T19:50:28.000Z</time>
      </trkpt>
      <trkpt lat="48.77907" lon="2.41476">
        <ele>85.98</ele>
        <time>2019-05-20T19:50:30.000Z</time>
      </trkpt>
      <trkpt lat="48.77894" lon="2.41466">
        <ele>85.21</ele>
        <time>2019-05-20T19:50:32.000Z</time>
      </trkpt>
      <trkpt lat="48.77881" lon="2.41455">
        <ele>84.66</ele>
        <time>2019-05-20T19:50:34.000Z</time>
      </trkpt>
      <trkpt lat="48.77867" lon="2.41444">
        <ele>84.32</ele>
        <time>2019-05-20T19:50:36.000Z</time>
      </trkpt>
      <trkpt lat="48.77855" lon="2.41433">
        <ele>83.87</ele>
        <time>2019-05-20T19:50:38.000Z</time>
      </trkpt>
      <trkpt lat="48.7784" lon="2.41422">
        <ele>83.94</ele>
        <time>2019-05-20T19:50:40.000Z</time>
      </trkpt>
      <trkpt lat="48.77827" lon="2.4141">
        <ele>84.05</ele>
        <time>2019-05-20T19:50:42.000Z</time>
      </trkpt>
      <trkpt lat="48.77815" lon="2.41399">
        <ele>84.29</ele>
        <time>2019-05-20T19:50:44.000Z</time>
      </trkpt>
      <trkpt lat="48.77802" lon="2.41388">
        <ele>84.41</ele>
        <time>2019-05-20T19:50:46.000Z</time>
      </trkpt>
      <trkpt lat="48.77789" lon="2.41379">
        <ele>84.73</ele>
        <time>2019-05-20T19:50:48.000Z</time>
      </trkpt>
      <trkpt lat="48.77776" lon="2.4137">
        <ele>84.83</ele>
        <time>2019-05-20T19:50:50.000Z</time>
      </trkpt>
      <trkpt lat="48.77764" lon="2.41359">
        <ele>84.79</ele>
        <time>2019-05-20T19:50:52.000Z</time>
      </trkpt>
      <trkpt lat="48.77752" lon="2.41349">
        <ele>84.19</ele>
        <time>2019-05-20T19:50:54.000Z</time>
      </trkpt>
      <trkpt lat="48.77741" lon="2.41336">
        <ele>83.81</ele>
        <time>2019-05-20T19:50:56.000Z</time>
      </trkpt>
      <trkpt lat="48.77729" lon="2.41324">
        <ele>83.58</ele>
        <time>2019-05-20T19:50:58.000Z</time>
      </trkpt>
      <trkpt lat="48.77718" lon="2.41311">
        <ele>83.7</ele>
        <time>2019-05-20T19:51:00.000Z</time>
      </trkpt>
      <trkpt lat="48.77707" lon="2.41295">
        <ele>83.74</ele>
        <time>2019-05-20T19:51:02.000Z</time>
      </trkpt>
      <trkpt lat="48.77694" lon="2.4128">
        <ele>84.03</ele>
        <time>2019-05-20T19:51:04.000Z</time>
      </trkpt>
      <trkpt lat="48.77682" lon="2.41266">
        <ele>84.63</ele>
        <time>2019-05-20T19:51:06.000Z</time>
      </trkpt>
      <trkpt lat="48.77669" lon="2.41253">
        <ele>84.91</ele>
        <time>2019-05-20T19:51:08.000Z</time>
      </trkpt>
      <trkpt lat="48.77655" lon="2.41239">
        <ele>85.35</ele>
        <time>2019-05-20T19:51:10.000Z</time>
      </trkpt>
      <trkpt lat="48.77641" lon="2.41225">
        <ele>86.18</ele>
        <time>2019-05-20T19:51:12.000Z</time>
      </trkpt>
      <trkpt lat="48.77626" lon="2.41212">
        <ele>87.07</ele>
        <time>2019-05-20T19:51:14.000Z</time>
      </trkpt>
      <trkpt lat="48.77618" lon="2.41206">
        <ele>87.52</ele>
        <time>2019-05-20T19:51:15.000Z</time>
      </trkpt>
      <trkpt lat="48.77604" lon="2.41193">
        <ele>88.17</ele>
        <time>2019-05-20T19:51:17.000Z</time>
      </trkpt>
      <trkpt lat="48.77589" lon="2.41181">
        <ele>88.39</ele>
        <time>2019-05-20T19:51:19.000Z</time>
      </trkpt>
      <trkpt lat="48.77574" lon="2.41168">
        <ele>88.48</ele>
        <time>2019-05-20T19:51:21.000Z</time>
      </trkpt>
      <trkpt lat="48.77559" lon="2.41156">
        <ele>88.72</ele>
        <time>2019-05-20T19:51:23.000Z</time>
      </trkpt>
      <trkpt lat="48.77544" lon="2.41145">
        <ele>88.8</ele>
        <time>2019-05-20T19:51:25.000Z</time>
      </trkpt>
      <trkpt lat="48.77531" lon="2.41133">
        <ele>88.82</ele>
        <time>2019-05-20T19:51:27.000Z</time>
      </trkpt>
      <trkpt lat="48.77519" lon="2.41121">
        <ele>89.06</ele>
        <time>2019-05-20T19:51:29.000Z</time>
      </trkpt>
      <trkpt lat="48.77508" lon="2.41115">
        <ele>89.42</ele>
        <time>2019-05-20T19:51:31.000Z</time>
      </trkpt>
      <trkpt lat="48.77499" lon="2.41111">
        <ele>89.93</ele>
        <time>2019-05-20T19:51:33.000Z</time>
      </trkpt>
      <trkpt lat="48.77487" lon="2.41104">
        <ele>90.54</ele>
        <time>2019-05-20T19:51:36.000Z</time>
      </trkpt>
      <trkpt lat="48.77476" lon="2.41099">
        <ele>90.57</ele>
        <time>2019-05-20T19:51:41.000Z</time>
      </trkpt>
      <trkpt lat="48.77467" lon="2.41098">
        <ele>90.54</ele>
        <time>2019-05-20T19:51:43.000Z</time>
      </trkpt>
      <trkpt lat="48.77457" lon="2.41096">
        <ele>90.47</ele>
        <time>2019-05-20T19:51:48.000Z</time>
      </trkpt>
      <trkpt lat="48.77448" lon="2.41094">
        <ele>90.33</ele>
        <time>2019-05-20T19:51:52.000Z</time>
      </trkpt>
      <trkpt lat="48.77439" lon="2.4109">
        <ele>90.24</ele>
        <time>2019-05-20T19:51:55.000Z</time>
      </trkpt>
      <trkpt lat="48.77429" lon="2.41086">
        <ele>90.16</ele>
        <time>2019-05-20T19:51:59.000Z</time>
      </trkpt>
      <trkpt lat="48.7742" lon="2.41081">
        <ele>90.08</ele>
        <time>2019-05-20T19:52:04.000Z</time>
      </trkpt>
      <trkpt lat="48.7741" lon="2.41079">
        <ele>89.99</ele>
        <time>2019-05-20T19:52:09.000Z</time>
      </trkpt>
      <trkpt lat="48.77401" lon="2.41074">
        <ele>89.84</ele>
        <time>2019-05-20T19:52:14.000Z</time>
      </trkpt>
      <trkpt lat="48.77392" lon="2.41066">
        <ele>89.64</ele>
        <time>2019-05-20T19:52:19.000Z</time>
      </trkpt>
      <trkpt lat="48.77384" lon="2.41057">
        <ele>89.48</ele>
        <time>2019-05-20T19:52:24.000Z</time>
      </trkpt>
      <trkpt lat="48.77376" lon="2.41051">
        <ele>90.17</ele>
        <time>2019-05-20T19:52:59.000Z</time>
      </trkpt>
      <trkpt lat="48.77384" lon="2.41058">
        <ele>92.83</ele>
        <time>2019-05-20T19:54:28.000Z</time>
      </trkpt>
      <trkpt lat="48.7738" lon="2.41044">
        <ele>95.05</ele>
        <time>2019-05-20T19:56:22.000Z</time>
      </trkpt>
      <trkpt lat="48.77372" lon="2.41034">
        <ele>95.18</ele>
        <time>2019-05-20T19:56:28.000Z</time>
      </trkpt>
      <trkpt lat="48.77363" lon="2.41021">
        <ele>95.26</ele>
        <time>2019-05-20T19:56:32.000Z</time>
      </trkpt>
      <trkpt lat="48.77356" lon="2.41011">
        <ele>95.32</ele>
        <time>2019-05-20T19:56:36.000Z</time>
      </trkpt>
      <trkpt lat="48.7735" lon="2.40998">
        <ele>95.37</ele>
        <time>2019-05-20T19:56:41.000Z</time>
      </trkpt>
      <trkpt lat="48.77344" lon="2.40984">
        <ele>95.39</ele>
        <time>2019-05-20T19:56:45.000Z</time>
      </trkpt>
      <trkpt lat="48.77338" lon="2.40969">
        <ele>95.4</ele>
        <time>2019-05-20T19:56:49.000Z</time>
      </trkpt>
      <trkpt lat="48.77335" lon="2.40956">
        <ele>95.42</ele>
        <time>2019-05-20T19:56:54.000Z</time>
      </trkpt>
      <trkpt lat="48.77332" lon="2.4094">
        <ele>95.45</ele>
        <time>2019-05-20T19:57:03.000Z</time>
      </trkpt>
      <trkpt lat="48.77322" lon="2.40932">
        <ele>95.46</ele>
        <time>2019-05-20T19:57:07.000Z</time>
      </trkpt>
      <trkpt lat="48.77311" lon="2.40927">
        <ele>95.45</ele>
        <time>2019-05-20T19:57:10.000Z</time>
      </trkpt>
      <trkpt lat="48.77301" lon="2.40927">
        <ele>95.44</ele>
        <time>2019-05-20T19:57:13.000Z</time>
      </trkpt>
      <trkpt lat="48.77289" lon="2.40926">
        <ele>95.43</ele>
        <time>2019-05-20T19:57:16.000Z</time>
      </trkpt>
      <trkpt lat="48.7728" lon="2.40925">
        <ele>95.33</ele>
        <time>2019-05-20T19:57:18.000Z</time>
      </trkpt>
      <trkpt lat="48.77271" lon="2.40924">
        <ele>95.26</ele>
        <time>2019-05-20T19:57:20.000Z</time>
      </trkpt>
      <trkpt lat="48.77257" lon="2.4092">
        <ele>95.18</ele>
        <time>2019-05-20T19:57:23.000Z</time>
      </trkpt>
      <trkpt lat="48.77247" lon="2.40918">
        <ele>95.14</ele>
        <time>2019-05-20T19:57:25.000Z</time>
      </trkpt>
      <trkpt lat="48.77237" lon="2.40916">
        <ele>95.09</ele>
        <time>2019-05-20T19:57:27.000Z</time>
      </trkpt>
      <trkpt lat="48.77227" lon="2.40914">
        <ele>95.04</ele>
        <time>2019-05-20T19:57:29.000Z</time>
      </trkpt>
      <trkpt lat="48.77218" lon="2.40912">
        <ele>95</ele>
        <time>2019-05-20T19:57:31.000Z</time>
      </trkpt>
      <trkpt lat="48.77208" lon="2.40911">
        <ele>94.95</ele>
        <time>2019-05-20T19:57:33.000Z</time>
      </trkpt>
      <trkpt lat="48.77198" lon="2.40909">
        <ele>94.89</ele>
        <time>2019-05-20T19:57:35.000Z</time>
      </trkpt>
      <trkpt lat="48.77187" lon="2.40907">
        <ele>94.82</ele>
        <time>2019-05-20T19:57:37.000Z</time>
      </trkpt>
      <trkpt lat="48.77176" lon="2.40906">
        <ele>94.74</ele>
        <time>2019-05-20T19:57:39.000Z</time>
      </trkpt>
      <trkpt lat="48.77167" lon="2.40904">
        <ele>94.68</ele>
        <time>2019-05-20T19:57:41.000Z</time>
      </trkpt>
      <trkpt lat="48.77156" lon="2.40902">
        <ele>94.62</ele>
        <time>2019-05-20T19:57:43.000Z</time>
      </trkpt>
      <trkpt lat="48.77147" lon="2.409">
        <ele>94.56</ele>
        <time>2019-05-20T19:57:45.000Z</time>
      </trkpt>
      <trkpt lat="48.77137" lon="2.40898">
        <ele>94.5</ele>
        <time>2019-05-20T19:57:47.000Z</time>
      </trkpt>
      <trkpt lat="48.77126" lon="2.40897">
        <ele>94.46</ele>
        <time>2019-05-20T19:57:49.000Z</time>
      </trkpt>
      <trkpt lat="48.77117" lon="2.40897">
        <ele>94.41</ele>
        <time>2019-05-20T19:57:51.000Z</time>
      </trkpt>
      <trkpt lat="48.77107" lon="2.40897">
        <ele>94.36</ele>
        <time>2019-05-20T19:57:53.000Z</time>
      </trkpt>
      <trkpt lat="48.77098" lon="2.40898">
        <ele>94.32</ele>
        <time>2019-05-20T19:57:55.000Z</time>
      </trkpt>
      <trkpt lat="48.77089" lon="2.40897">
        <ele>94.27</ele>
        <time>2019-05-20T19:57:57.000Z</time>
      </trkpt>
      <trkpt lat="48.77079" lon="2.40896">
        <ele>94.22</ele>
        <time>2019-05-20T19:57:59.000Z</time>
      </trkpt>
      <trkpt lat="48.77069" lon="2.40897">
        <ele>94.18</ele>
        <time>2019-05-20T19:58:01.000Z</time>
      </trkpt>
      <trkpt lat="48.77059" lon="2.40897">
        <ele>94.13</ele>
        <time>2019-05-20T19:58:03.000Z</time>
      </trkpt>
      <trkpt lat="48.77047" lon="2.40898">
        <ele>94.1</ele>
        <time>2019-05-20T19:58:05.000Z</time>
      </trkpt>
      <trkpt lat="48.77035" lon="2.40897">
        <ele>94.07</ele>
        <time>2019-05-20T19:58:07.000Z</time>
      </trkpt>
      <trkpt lat="48.77023" lon="2.40897">
        <ele>94.04</ele>
        <time>2019-05-20T19:58:09.000Z</time>
      </trkpt>
      <trkpt lat="48.77012" lon="2.40896">
        <ele>94.01</ele>
        <time>2019-05-20T19:58:11.000Z</time>
      </trkpt>
      <trkpt lat="48.77001" lon="2.40896">
        <ele>93.97</ele>
        <time>2019-05-20T19:58:13.000Z</time>
      </trkpt>
      <trkpt lat="48.76988" lon="2.40894">
        <ele>93.91</ele>
        <time>2019-05-20T19:58:15.000Z</time>
      </trkpt>
      <trkpt lat="48.76977" lon="2.40894">
        <ele>93.85</ele>
        <time>2019-05-20T19:58:17.000Z</time>
      </trkpt>
      <trkpt lat="48.76967" lon="2.40893">
        <ele>93.78</ele>
        <time>2019-05-20T19:58:19.000Z</time>
      </trkpt>
      <trkpt lat="48.76956" lon="2.40892">
        <ele>93.73</ele>
        <time>2019-05-20T19:58:21.000Z</time>
      </trkpt>
      <trkpt lat="48.76946" lon="2.40891">
        <ele>93.68</ele>
        <time>2019-05-20T19:58:23.000Z</time>
      </trkpt>
      <trkpt lat="48.76936" lon="2.4089">
        <ele>93.63</ele>
        <time>2019-05-20T19:58:25.000Z</time>
      </trkpt>
      <trkpt lat="48.76926" lon="2.40889">
        <ele>93.59</ele>
        <time>2019-05-20T19:58:27.000Z</time>
      </trkpt>
      <trkpt lat="48.76917" lon="2.40887">
        <ele>93.54</ele>
        <time>2019-05-20T19:58:29.000Z</time>
      </trkpt>
      <trkpt lat="48.76903" lon="2.40886">
        <ele>93.48</ele>
        <time>2019-05-20T19:58:32.000Z</time>
      </trkpt>
      <trkpt lat="48.7689" lon="2.40888">
        <ele>93.41</ele>
        <time>2019-05-20T19:58:35.000Z</time>
      </trkpt>
      <trkpt lat="48.76876" lon="2.4089">
        <ele>93.36</ele>
        <time>2019-05-20T19:58:38.000Z</time>
      </trkpt>
      <trkpt lat="48.76867" lon="2.40891">
        <ele>93.36</ele>
        <time>2019-05-20T19:58:40.000Z</time>
      </trkpt>
      <trkpt lat="48.76856" lon="2.40892">
        <ele>93.34</ele>
        <time>2019-05-20T19:58:43.000Z</time>
      </trkpt>
      <trkpt lat="48.76846" lon="2.40896">
        <ele>93.33</ele>
        <time>2019-05-20T19:58:46.000Z</time>
      </trkpt>
      <trkpt lat="48.7684" lon="2.40906">
        <ele>93.33</ele>
        <time>2019-05-20T19:58:49.000Z</time>
      </trkpt>
      <trkpt lat="48.76839" lon="2.40921">
        <ele>93.32</ele>
        <time>2019-05-20T19:58:52.000Z</time>
      </trkpt>
      <trkpt lat="48.76839" lon="2.40937">
        <ele>93.33</ele>
        <time>2019-05-20T19:58:55.000Z</time>
      </trkpt>
      <trkpt lat="48.76841" lon="2.4095">
        <ele>93.34</ele>
        <time>2019-05-20T19:58:58.000Z</time>
      </trkpt>
      <trkpt lat="48.7684" lon="2.40965">
        <ele>93.35</ele>
        <time>2019-05-20T19:59:01.000Z</time>
      </trkpt>
      <trkpt lat="48.76835" lon="2.4098">
        <ele>93.37</ele>
        <time>2019-05-20T19:59:04.000Z</time>
      </trkpt>
      <trkpt lat="48.7683" lon="2.40991">
        <ele>93.46</ele>
        <time>2019-05-20T19:59:06.000Z</time>
      </trkpt>
      <trkpt lat="48.76822" lon="2.41001">
        <ele>93.52</ele>
        <time>2019-05-20T19:59:08.000Z</time>
      </trkpt>
      <trkpt lat="48.76812" lon="2.41012">
        <ele>93.57</ele>
        <time>2019-05-20T19:59:10.000Z</time>
      </trkpt>
      <trkpt lat="48.76799" lon="2.41022">
        <ele>93.59</ele>
        <time>2019-05-20T19:59:12.000Z</time>
      </trkpt>
      <trkpt lat="48.76785" lon="2.41028">
        <ele>93.58</ele>
        <time>2019-05-20T19:59:14.000Z</time>
      </trkpt>
      <trkpt lat="48.76774" lon="2.41032">
        <ele>93.55</ele>
        <time>2019-05-20T19:59:16.000Z</time>
      </trkpt>
      <trkpt lat="48.76763" lon="2.41035">
        <ele>93.52</ele>
        <time>2019-05-20T19:59:18.000Z</time>
      </trkpt>
      <trkpt lat="48.76751" lon="2.41037">
        <ele>93.48</ele>
        <time>2019-05-20T19:59:20.000Z</time>
      </trkpt>
      <trkpt lat="48.7674" lon="2.41039">
        <ele>93.44</ele>
        <time>2019-05-20T19:59:22.000Z</time>
      </trkpt>
      <trkpt lat="48.76729" lon="2.4104">
        <ele>93.4</ele>
        <time>2019-05-20T19:59:24.000Z</time>
      </trkpt>
      <trkpt lat="48.76717" lon="2.41043">
        <ele>93.34</ele>
        <time>2019-05-20T19:59:26.000Z</time>
      </trkpt>
      <trkpt lat="48.76707" lon="2.41046">
        <ele>93.28</ele>
        <time>2019-05-20T19:59:28.000Z</time>
      </trkpt>
      <trkpt lat="48.76698" lon="2.41049">
        <ele>93.22</ele>
        <time>2019-05-20T19:59:30.000Z</time>
      </trkpt>
      <trkpt lat="48.76689" lon="2.41051">
        <ele>93.16</ele>
        <time>2019-05-20T19:59:32.000Z</time>
      </trkpt>
      <trkpt lat="48.7668" lon="2.41053">
        <ele>93.1</ele>
        <time>2019-05-20T19:59:34.000Z</time>
      </trkpt>
      <trkpt lat="48.7667" lon="2.41056">
        <ele>93.02</ele>
        <time>2019-05-20T19:59:36.000Z</time>
      </trkpt>
      <trkpt lat="48.7666" lon="2.41058">
        <ele>92.94</ele>
        <time>2019-05-20T19:59:38.000Z</time>
      </trkpt>
      <trkpt lat="48.76649" lon="2.4106">
        <ele>92.85</ele>
        <time>2019-05-20T19:59:40.000Z</time>
      </trkpt>
      <trkpt lat="48.7664" lon="2.41062">
        <ele>92.78</ele>
        <time>2019-05-20T19:59:42.000Z</time>
      </trkpt>
      <trkpt lat="48.76629" lon="2.41063">
        <ele>92.73</ele>
        <time>2019-05-20T19:59:45.000Z</time>
      </trkpt>
      <trkpt lat="48.76619" lon="2.41059">
        <ele>92.71</ele>
        <time>2019-05-20T19:59:49.000Z</time>
      </trkpt>
      <trkpt lat="48.76613" lon="2.41049">
        <ele>92.41</ele>
        <time>2019-05-20T20:00:19.000Z</time>
      </trkpt>
      <trkpt lat="48.76606" lon="2.4106">
        <ele>92.16</ele>
        <time>2019-05-20T20:00:45.000Z</time>
      </trkpt>
      <trkpt lat="48.76609" lon="2.41075">
        <ele>92.16</ele>
        <time>2019-05-20T20:00:51.000Z</time>
      </trkpt>
      <trkpt lat="48.76612" lon="2.4109">
        <ele>92.18</ele>
        <time>2019-05-20T20:00:57.000Z</time>
      </trkpt>
      <trkpt lat="48.76615" lon="2.41105">
        <ele>92.21</ele>
        <time>2019-05-20T20:01:02.000Z</time>
      </trkpt>
      <trkpt lat="48.76618" lon="2.41122">
        <ele>92.26</ele>
        <time>2019-05-20T20:01:07.000Z</time>
      </trkpt>
      <trkpt lat="48.76627" lon="2.41123">
        <ele>92.54</ele>
        <time>2019-05-20T20:01:31.000Z</time>
      </trkpt>
      <trkpt lat="48.7663" lon="2.41136">
        <ele>92.61</ele>
        <time>2019-05-20T20:01:35.000Z</time>
      </trkpt>
      <trkpt lat="48.76632" lon="2.4115">
        <ele>92.67</ele>
        <time>2019-05-20T20:01:38.000Z</time>
      </trkpt>
      <trkpt lat="48.76636" lon="2.41164">
        <ele>92.73</ele>
        <time>2019-05-20T20:01:41.000Z</time>
      </trkpt>
      <trkpt lat="48.76637" lon="2.41183">
        <ele>92.78</ele>
        <time>2019-05-20T20:01:44.000Z</time>
      </trkpt>
      <trkpt lat="48.7664" lon="2.41199">
        <ele>92.84</ele>
        <time>2019-05-20T20:01:47.000Z</time>
      </trkpt>
      <trkpt lat="48.76643" lon="2.41215">
        <ele>92.9</ele>
        <time>2019-05-20T20:01:50.000Z</time>
      </trkpt>
      <trkpt lat="48.76647" lon="2.41233">
        <ele>93.11</ele>
        <time>2019-05-20T20:01:53.000Z</time>
      </trkpt>
      <trkpt lat="48.76651" lon="2.4125">
        <ele>93.15</ele>
        <time>2019-05-20T20:01:56.000Z</time>
      </trkpt>
      <trkpt lat="48.76655" lon="2.41266">
        <ele>93.2</ele>
        <time>2019-05-20T20:01:59.000Z</time>
      </trkpt>
      <trkpt lat="48.76659" lon="2.41279">
        <ele>93.24</ele>
        <time>2019-05-20T20:02:02.000Z</time>
      </trkpt>
      <trkpt lat="48.76662" lon="2.41294">
        <ele>93.3</ele>
        <time>2019-05-20T20:02:06.000Z</time>
      </trkpt>
      <trkpt lat="48.76665" lon="2.41309">
        <ele>93.38</ele>
        <time>2019-05-20T20:02:11.000Z</time>
      </trkpt>
      <trkpt lat="48.76669" lon="2.41322">
        <ele>93.69</ele>
        <time>2019-05-20T20:02:35.000Z</time>
      </trkpt>
      <trkpt lat="48.76669" lon="2.41338">
        <ele>93.8</ele>
        <time>2019-05-20T20:02:41.000Z</time>
      </trkpt>
      <trkpt lat="48.76668" lon="2.41355">
        <ele>93.87</ele>
        <time>2019-05-20T20:02:45.000Z</time>
      </trkpt>
      <trkpt lat="48.7667" lon="2.41371">
        <ele>93.92</ele>
        <time>2019-05-20T20:02:48.000Z</time>
      </trkpt>
      <trkpt lat="48.76673" lon="2.41383">
        <ele>93.96</ele>
        <time>2019-05-20T20:02:51.000Z</time>
      </trkpt>
      <trkpt lat="48.76676" lon="2.41397">
        <ele>94.01</ele>
        <time>2019-05-20T20:02:54.000Z</time>
      </trkpt>
      <trkpt lat="48.7668" lon="2.41412">
        <ele>94.06</ele>
        <time>2019-05-20T20:02:57.000Z</time>
      </trkpt>
      <trkpt lat="48.76684" lon="2.41428">
        <ele>94.1</ele>
        <time>2019-05-20T20:03:00.000Z</time>
      </trkpt>
      <trkpt lat="48.76689" lon="2.41443">
        <ele>94.14</ele>
        <time>2019-05-20T20:03:03.000Z</time>
      </trkpt>
      <trkpt lat="48.76695" lon="2.4146">
        <ele>94.4</ele>
        <time>2019-05-20T20:03:06.000Z</time>
      </trkpt>
      <trkpt lat="48.76701" lon="2.41478">
        <ele>94.63</ele>
        <time>2019-05-20T20:03:09.000Z</time>
      </trkpt>
      <trkpt lat="48.76705" lon="2.41491">
        <ele>94.71</ele>
        <time>2019-05-20T20:03:11.000Z</time>
      </trkpt>
      <trkpt lat="48.7671" lon="2.41506">
        <ele>94.78</ele>
        <time>2019-05-20T20:03:13.000Z</time>
      </trkpt>
      <trkpt lat="48.76715" lon="2.41522">
        <ele>94.82</ele>
        <time>2019-05-20T20:03:15.000Z</time>
      </trkpt>
      <trkpt lat="48.76721" lon="2.4154">
        <ele>94.85</ele>
        <time>2019-05-20T20:03:17.000Z</time>
      </trkpt>
      <trkpt lat="48.76725" lon="2.41558">
        <ele>94.88</ele>
        <time>2019-05-20T20:03:19.000Z</time>
      </trkpt>
      <trkpt lat="48.76731" lon="2.41575">
        <ele>94.91</ele>
        <time>2019-05-20T20:03:21.000Z</time>
      </trkpt>
      <trkpt lat="48.76737" lon="2.41594">
        <ele>94.96</ele>
        <time>2019-05-20T20:03:23.000Z</time>
      </trkpt>
      <trkpt lat="48.76743" lon="2.41613">
        <ele>95.03</ele>
        <time>2019-05-20T20:03:25.000Z</time>
      </trkpt>
      <trkpt lat="48.76749" lon="2.41634">
        <ele>95.13</ele>
        <time>2019-05-20T20:03:27.000Z</time>
      </trkpt>
      <trkpt lat="48.76754" lon="2.41655">
        <ele>95.22</ele>
        <time>2019-05-20T20:03:29.000Z</time>
      </trkpt>
      <trkpt lat="48.76759" lon="2.41673">
        <ele>95.32</ele>
        <time>2019-05-20T20:03:31.000Z</time>
      </trkpt>
      <trkpt lat="48.76765" lon="2.41691">
        <ele>95.44</ele>
        <time>2019-05-20T20:03:33.000Z</time>
      </trkpt>
      <trkpt lat="48.76769" lon="2.41708">
        <ele>95.44</ele>
        <time>2019-05-20T20:03:35.000Z</time>
      </trkpt>
      <trkpt lat="48.76772" lon="2.41725">
        <ele>95.33</ele>
        <time>2019-05-20T20:03:37.000Z</time>
      </trkpt>
      <trkpt lat="48.76777" lon="2.41738">
        <ele>95.31</ele>
        <time>2019-05-20T20:03:39.000Z</time>
      </trkpt>
      <trkpt lat="48.76782" lon="2.41752">
        <ele>95.41</ele>
        <time>2019-05-20T20:03:41.000Z</time>
      </trkpt>
      <trkpt lat="48.76787" lon="2.41765">
        <ele>95.38</ele>
        <time>2019-05-20T20:03:43.000Z</time>
      </trkpt>
      <trkpt lat="48.76792" lon="2.41781">
        <ele>95.58</ele>
        <time>2019-05-20T20:03:45.000Z</time>
      </trkpt>
      <trkpt lat="48.76796" lon="2.41795">
        <ele>95.81</ele>
        <time>2019-05-20T20:03:47.000Z</time>
      </trkpt>
      <trkpt lat="48.768" lon="2.4181">
        <ele>96.16</ele>
        <time>2019-05-20T20:03:49.000Z</time>
      </trkpt>
      <trkpt lat="48.76804" lon="2.41823">
        <ele>96.1</ele>
        <time>2019-05-20T20:03:51.000Z</time>
      </trkpt>
      <trkpt lat="48.76809" lon="2.41838">
        <ele>96.23</ele>
        <time>2019-05-20T20:03:53.000Z</time>
      </trkpt>
      <trkpt lat="48.76814" lon="2.41852">
        <ele>96.37</ele>
        <time>2019-05-20T20:03:55.000Z</time>
      </trkpt>
      <trkpt lat="48.76819" lon="2.41868">
        <ele>96.41</ele>
        <time>2019-05-20T20:03:57.000Z</time>
      </trkpt>
      <trkpt lat="48.76823" lon="2.41883">
        <ele>96.71</ele>
        <time>2019-05-20T20:03:59.000Z</time>
      </trkpt>
      <trkpt lat="48.76827" lon="2.41897">
        <ele>96.84</ele>
        <time>2019-05-20T20:04:01.000Z</time>
      </trkpt>
      <trkpt lat="48.76831" lon="2.41912">
        <ele>97.05</ele>
        <time>2019-05-20T20:04:03.000Z</time>
      </trkpt>
      <trkpt lat="48.76836" lon="2.41928">
        <ele>97.27</ele>
        <time>2019-05-20T20:04:05.000Z</time>
      </trkpt>
      <trkpt lat="48.7684" lon="2.41943">
        <ele>97.33</ele>
        <time>2019-05-20T20:04:07.000Z</time>
      </trkpt>
      <trkpt lat="48.76845" lon="2.4196">
        <ele>97.47</ele>
        <time>2019-05-20T20:04:09.000Z</time>
      </trkpt>
      <trkpt lat="48.7685" lon="2.41977">
        <ele>97.54</ele>
        <time>2019-05-20T20:04:11.000Z</time>
      </trkpt>
      <trkpt lat="48.76854" lon="2.41995">
        <ele>97.66</ele>
        <time>2019-05-20T20:04:13.000Z</time>
      </trkpt>
      <trkpt lat="48.76861" lon="2.42014">
        <ele>97.72</ele>
        <time>2019-05-20T20:04:15.000Z</time>
      </trkpt>
      <trkpt lat="48.76867" lon="2.42032">
        <ele>97.63</ele>
        <time>2019-05-20T20:04:17.000Z</time>
      </trkpt>
      <trkpt lat="48.76872" lon="2.42051">
        <ele>97.43</ele>
        <time>2019-05-20T20:04:19.000Z</time>
      </trkpt>
      <trkpt lat="48.76878" lon="2.4207">
        <ele>97.35</ele>
        <time>2019-05-20T20:04:21.000Z</time>
      </trkpt>
      <trkpt lat="48.76885" lon="2.42088">
        <ele>97.29</ele>
        <time>2019-05-20T20:04:23.000Z</time>
      </trkpt>
      <trkpt lat="48.76893" lon="2.42109">
        <ele>97.51</ele>
        <time>2019-05-20T20:04:25.000Z</time>
      </trkpt>
      <trkpt lat="48.769" lon="2.4213">
        <ele>97.87</ele>
        <time>2019-05-20T20:04:27.000Z</time>
      </trkpt>
      <trkpt lat="48.76907" lon="2.4215">
        <ele>98.23</ele>
        <time>2019-05-20T20:04:29.000Z</time>
      </trkpt>
      <trkpt lat="48.76914" lon="2.4217">
        <ele>98.42</ele>
        <time>2019-05-20T20:04:31.000Z</time>
      </trkpt>
      <trkpt lat="48.76919" lon="2.42189">
        <ele>98.58</ele>
        <time>2019-05-20T20:04:33.000Z</time>
      </trkpt>
      <trkpt lat="48.76923" lon="2.42205">
        <ele>98.71</ele>
        <time>2019-05-20T20:04:35.000Z</time>
      </trkpt>
      <trkpt lat="48.76928" lon="2.42224">
        <ele>98.38</ele>
        <time>2019-05-20T20:04:38.000Z</time>
      </trkpt>
      <trkpt lat="48.76932" lon="2.42243">
        <ele>98.14</ele>
        <time>2019-05-20T20:04:41.000Z</time>
      </trkpt>
      <trkpt lat="48.76936" lon="2.42258">
        <ele>98.1</ele>
        <time>2019-05-20T20:04:44.000Z</time>
      </trkpt>
      <trkpt lat="48.7694" lon="2.42274">
        <ele>98</ele>
        <time>2019-05-20T20:04:47.000Z</time>
      </trkpt>
      <trkpt lat="48.76943" lon="2.4229">
        <ele>97.93</ele>
        <time>2019-05-20T20:04:50.000Z</time>
      </trkpt>
      <trkpt lat="48.76948" lon="2.42308">
        <ele>97.87</ele>
        <time>2019-05-20T20:04:54.000Z</time>
      </trkpt>
      <trkpt lat="48.76951" lon="2.42321">
        <ele>97.8</ele>
        <time>2019-05-20T20:04:57.000Z</time>
      </trkpt>
      <trkpt lat="48.76955" lon="2.42336">
        <ele>97.73</ele>
        <time>2019-05-20T20:05:00.000Z</time>
      </trkpt>
      <trkpt lat="48.7696" lon="2.42352">
        <ele>97.51</ele>
        <time>2019-05-20T20:05:03.000Z</time>
      </trkpt>
      <trkpt lat="48.76965" lon="2.4237">
        <ele>97.42</ele>
        <time>2019-05-20T20:05:06.000Z</time>
      </trkpt>
      <trkpt lat="48.7697" lon="2.42395">
        <ele>97.23</ele>
        <time>2019-05-20T20:05:10.000Z</time>
      </trkpt>
      <trkpt lat="48.76975" lon="2.42412">
        <ele>97.12</ele>
        <time>2019-05-20T20:05:13.000Z</time>
      </trkpt>
      <trkpt lat="48.76978" lon="2.42431">
        <ele>96.94</ele>
        <time>2019-05-20T20:05:16.000Z</time>
      </trkpt>
      <trkpt lat="48.76982" lon="2.4245">
        <ele>96.85</ele>
        <time>2019-05-20T20:05:19.000Z</time>
      </trkpt>
      <trkpt lat="48.7699" lon="2.42471">
        <ele>96.69</ele>
        <time>2019-05-20T20:05:23.000Z</time>
      </trkpt>
      <trkpt lat="48.76999" lon="2.42484">
        <ele>96.62</ele>
        <time>2019-05-20T20:05:25.000Z</time>
      </trkpt>
      <trkpt lat="48.77004" lon="2.42497">
        <ele>96.72</ele>
        <time>2019-05-20T20:05:27.000Z</time>
      </trkpt>
      <trkpt lat="48.77008" lon="2.42509">
        <ele>96.87</ele>
        <time>2019-05-20T20:05:29.000Z</time>
      </trkpt>
      <trkpt lat="48.77012" lon="2.42523">
        <ele>97</ele>
        <time>2019-05-20T20:05:31.000Z</time>
      </trkpt>
      <trkpt lat="48.77016" lon="2.42536">
        <ele>97.15</ele>
        <time>2019-05-20T20:05:33.000Z</time>
      </trkpt>
      <trkpt lat="48.77021" lon="2.42549">
        <ele>97.3</ele>
        <time>2019-05-20T20:05:35.000Z</time>
      </trkpt>
      <trkpt lat="48.77024" lon="2.42563">
        <ele>97.39</ele>
        <time>2019-05-20T20:05:37.000Z</time>
      </trkpt>
      <trkpt lat="48.77028" lon="2.4258">
        <ele>97.44</ele>
        <time>2019-05-20T20:05:40.000Z</time>
      </trkpt>
      <trkpt lat="48.77034" lon="2.42597">
        <ele>97.45</ele>
        <time>2019-05-20T20:05:43.000Z</time>
      </trkpt>
      <trkpt lat="48.77038" lon="2.42612">
        <ele>97.46</ele>
        <time>2019-05-20T20:05:46.000Z</time>
      </trkpt>
      <trkpt lat="48.77042" lon="2.42625">
        <ele>97.49</ele>
        <time>2019-05-20T20:05:49.000Z</time>
      </trkpt>
      <trkpt lat="48.77047" lon="2.4264">
        <ele>97.55</ele>
        <time>2019-05-20T20:05:52.000Z</time>
      </trkpt>
      <trkpt lat="48.77052" lon="2.42655">
        <ele>97.67</ele>
        <time>2019-05-20T20:05:56.000Z</time>
      </trkpt>
      <trkpt lat="48.77057" lon="2.42668">
        <ele>97.94</ele>
        <time>2019-05-20T20:06:03.000Z</time>
      </trkpt>
      <trkpt lat="48.77065" lon="2.42678">
        <ele>98.27</ele>
        <time>2019-05-20T20:06:40.000Z</time>
      </trkpt>
      <trkpt lat="48.7707" lon="2.42693">
        <ele>98.31</ele>
        <time>2019-05-20T20:06:47.000Z</time>
      </trkpt>
      <trkpt lat="48.77072" lon="2.42707">
        <ele>98.34</ele>
        <time>2019-05-20T20:06:51.000Z</time>
      </trkpt>
      <trkpt lat="48.77074" lon="2.42721">
        <ele>98.36</ele>
        <time>2019-05-20T20:06:54.000Z</time>
      </trkpt>
      <trkpt lat="48.77078" lon="2.42739">
        <ele>98.4</ele>
        <time>2019-05-20T20:06:57.000Z</time>
      </trkpt>
      <trkpt lat="48.77081" lon="2.42753">
        <ele>98.42</ele>
        <time>2019-05-20T20:06:59.000Z</time>
      </trkpt>
      <trkpt lat="48.77084" lon="2.42769">
        <ele>98.44</ele>
        <time>2019-05-20T20:07:01.000Z</time>
      </trkpt>
      <trkpt lat="48.77087" lon="2.42785">
        <ele>98.45</ele>
        <time>2019-05-20T20:07:03.000Z</time>
      </trkpt>
      <trkpt lat="48.77092" lon="2.42801">
        <ele>98.44</ele>
        <time>2019-05-20T20:07:05.000Z</time>
      </trkpt>
      <trkpt lat="48.77097" lon="2.42817">
        <ele>98.42</ele>
        <time>2019-05-20T20:07:07.000Z</time>
      </trkpt>
      <trkpt lat="48.77101" lon="2.42843">
        <ele>98.37</ele>
        <time>2019-05-20T20:07:10.000Z</time>
      </trkpt>
      <trkpt lat="48.77105" lon="2.42861">
        <ele>98.31</ele>
        <time>2019-05-20T20:07:12.000Z</time>
      </trkpt>
      <trkpt lat="48.77109" lon="2.42878">
        <ele>98.24</ele>
        <time>2019-05-20T20:07:14.000Z</time>
      </trkpt>
      <trkpt lat="48.77114" lon="2.42896">
        <ele>98.16</ele>
        <time>2019-05-20T20:07:16.000Z</time>
      </trkpt>
      <trkpt lat="48.77119" lon="2.42914">
        <ele>98.1</ele>
        <time>2019-05-20T20:07:18.000Z</time>
      </trkpt>
      <trkpt lat="48.77124" lon="2.42932">
        <ele>98.04</ele>
        <time>2019-05-20T20:07:20.000Z</time>
      </trkpt>
      <trkpt lat="48.7713" lon="2.42951">
        <ele>97.99</ele>
        <time>2019-05-20T20:07:22.000Z</time>
      </trkpt>
      <trkpt lat="48.77136" lon="2.4297">
        <ele>97.9</ele>
        <time>2019-05-20T20:07:24.000Z</time>
      </trkpt>
      <trkpt lat="48.77141" lon="2.42991">
        <ele>97.81</ele>
        <time>2019-05-20T20:07:26.000Z</time>
      </trkpt>
      <trkpt lat="48.77147" lon="2.43012">
        <ele>97.72</ele>
        <time>2019-05-20T20:07:28.000Z</time>
      </trkpt>
      <trkpt lat="48.77153" lon="2.43034">
        <ele>97.64</ele>
        <time>2019-05-20T20:07:30.000Z</time>
      </trkpt>
      <trkpt lat="48.7716" lon="2.43055">
        <ele>97.56</ele>
        <time>2019-05-20T20:07:32.000Z</time>
      </trkpt>
      <trkpt lat="48.77166" lon="2.43073">
        <ele>97.47</ele>
        <time>2019-05-20T20:07:34.000Z</time>
      </trkpt>
      <trkpt lat="48.77174" lon="2.43092">
        <ele>97.34</ele>
        <time>2019-05-20T20:07:36.000Z</time>
      </trkpt>
      <trkpt lat="48.77181" lon="2.4311">
        <ele>97.24</ele>
        <time>2019-05-20T20:07:38.000Z</time>
      </trkpt>
      <trkpt lat="48.77186" lon="2.43127">
        <ele>97.06</ele>
        <time>2019-05-20T20:07:40.000Z</time>
      </trkpt>
      <trkpt lat="48.77192" lon="2.43145">
        <ele>96.9</ele>
        <time>2019-05-20T20:07:42.000Z</time>
      </trkpt>
      <trkpt lat="48.77199" lon="2.43166">
        <ele>97.26</ele>
        <time>2019-05-20T20:07:44.000Z</time>
      </trkpt>
      <trkpt lat="48.77205" lon="2.43187">
        <ele>97.57</ele>
        <time>2019-05-20T20:07:46.000Z</time>
      </trkpt>
      <trkpt lat="48.77211" lon="2.43207">
        <ele>97.65</ele>
        <time>2019-05-20T20:07:48.000Z</time>
      </trkpt>
      <trkpt lat="48.77217" lon="2.43229">
        <ele>97.85</ele>
        <time>2019-05-20T20:07:50.000Z</time>
      </trkpt>
      <trkpt lat="48.77222" lon="2.43249">
        <ele>98.17</ele>
        <time>2019-05-20T20:07:52.000Z</time>
      </trkpt>
      <trkpt lat="48.77229" lon="2.43268">
        <ele>98.21</ele>
        <time>2019-05-20T20:07:54.000Z</time>
      </trkpt>
      <trkpt lat="48.77235" lon="2.43286">
        <ele>98.1</ele>
        <time>2019-05-20T20:07:56.000Z</time>
      </trkpt>
      <trkpt lat="48.77239" lon="2.43305">
        <ele>97.56</ele>
        <time>2019-05-20T20:07:58.000Z</time>
      </trkpt>
      <trkpt lat="48.77245" lon="2.43323">
        <ele>97.69</ele>
        <time>2019-05-20T20:08:00.000Z</time>
      </trkpt>
      <trkpt lat="48.77251" lon="2.43341">
        <ele>97.76</ele>
        <time>2019-05-20T20:08:02.000Z</time>
      </trkpt>
      <trkpt lat="48.77257" lon="2.43358">
        <ele>97.57</ele>
        <time>2019-05-20T20:08:04.000Z</time>
      </trkpt>
      <trkpt lat="48.77262" lon="2.43376">
        <ele>97.21</ele>
        <time>2019-05-20T20:08:06.000Z</time>
      </trkpt>
      <trkpt lat="48.77269" lon="2.43392">
        <ele>97.52</ele>
        <time>2019-05-20T20:08:08.000Z</time>
      </trkpt>
      <trkpt lat="48.77274" lon="2.43407">
        <ele>97.43</ele>
        <time>2019-05-20T20:08:10.000Z</time>
      </trkpt>
      <trkpt lat="48.77276" lon="2.43421">
        <ele>96.9</ele>
        <time>2019-05-20T20:08:12.000Z</time>
      </trkpt>
      <trkpt lat="48.77279" lon="2.43435">
        <ele>95.86</ele>
        <time>2019-05-20T20:08:14.000Z</time>
      </trkpt>
      <trkpt lat="48.77284" lon="2.43449">
        <ele>96.3</ele>
        <time>2019-05-20T20:08:16.000Z</time>
      </trkpt>
      <trkpt lat="48.77289" lon="2.43467">
        <ele>96.47</ele>
        <time>2019-05-20T20:08:19.000Z</time>
      </trkpt>
      <trkpt lat="48.77293" lon="2.43483">
        <ele>96.46</ele>
        <time>2019-05-20T20:08:22.000Z</time>
      </trkpt>
      <trkpt lat="48.77298" lon="2.43499">
        <ele>96.54</ele>
        <time>2019-05-20T20:08:26.000Z</time>
      </trkpt>
      <trkpt lat="48.77306" lon="2.4351">
        <ele>97.89</ele>
        <time>2019-05-20T20:09:30.000Z</time>
      </trkpt>
      <trkpt lat="48.77313" lon="2.43519">
        <ele>98.17</ele>
        <time>2019-05-20T20:09:34.000Z</time>
      </trkpt>
      <trkpt lat="48.77317" lon="2.43533">
        <ele>98.99</ele>
        <time>2019-05-20T20:09:37.000Z</time>
      </trkpt>
      <trkpt lat="48.77321" lon="2.43546">
        <ele>99.96</ele>
        <time>2019-05-20T20:09:39.000Z</time>
      </trkpt>
      <trkpt lat="48.77325" lon="2.43558">
        <ele>100.49</ele>
        <time>2019-05-20T20:09:41.000Z</time>
      </trkpt>
      <trkpt lat="48.7733" lon="2.43571">
        <ele>100.82</ele>
        <time>2019-05-20T20:09:43.000Z</time>
      </trkpt>
      <trkpt lat="48.77334" lon="2.43585">
        <ele>100.96</ele>
        <time>2019-05-20T20:09:45.000Z</time>
      </trkpt>
      <trkpt lat="48.77337" lon="2.43598">
        <ele>101.03</ele>
        <time>2019-05-20T20:09:47.000Z</time>
      </trkpt>
      <trkpt lat="48.77341" lon="2.43611">
        <ele>101.07</ele>
        <time>2019-05-20T20:09:49.000Z</time>
      </trkpt>
      <trkpt lat="48.77346" lon="2.43626">
        <ele>101.1</ele>
        <time>2019-05-20T20:09:51.000Z</time>
      </trkpt>
      <trkpt lat="48.7735" lon="2.43641">
        <ele>101.14</ele>
        <time>2019-05-20T20:09:53.000Z</time>
      </trkpt>
      <trkpt lat="48.77354" lon="2.43656">
        <ele>101.22</ele>
        <time>2019-05-20T20:09:55.000Z</time>
      </trkpt>
      <trkpt lat="48.77358" lon="2.4367">
        <ele>101.27</ele>
        <time>2019-05-20T20:09:57.000Z</time>
      </trkpt>
      <trkpt lat="48.77362" lon="2.43686">
        <ele>101.31</ele>
        <time>2019-05-20T20:09:59.000Z</time>
      </trkpt>
      <trkpt lat="48.77367" lon="2.43702">
        <ele>101.35</ele>
        <time>2019-05-20T20:10:01.000Z</time>
      </trkpt>
      <trkpt lat="48.77371" lon="2.43719">
        <ele>101.37</ele>
        <time>2019-05-20T20:10:03.000Z</time>
      </trkpt>
      <trkpt lat="48.77377" lon="2.43737">
        <ele>101.39</ele>
        <time>2019-05-20T20:10:05.000Z</time>
      </trkpt>
      <trkpt lat="48.77381" lon="2.43753">
        <ele>101.44</ele>
        <time>2019-05-20T20:10:07.000Z</time>
      </trkpt>
      <trkpt lat="48.77386" lon="2.43769">
        <ele>101.48</ele>
        <time>2019-05-20T20:10:09.000Z</time>
      </trkpt>
      <trkpt lat="48.7739" lon="2.43784">
        <ele>101.53</ele>
        <time>2019-05-20T20:10:11.000Z</time>
      </trkpt>
      <trkpt lat="48.77395" lon="2.43799">
        <ele>101.57</ele>
        <time>2019-05-20T20:10:13.000Z</time>
      </trkpt>
      <trkpt lat="48.77399" lon="2.43814">
        <ele>101.61</ele>
        <time>2019-05-20T20:10:15.000Z</time>
      </trkpt>
      <trkpt lat="48.77404" lon="2.43828">
        <ele>101.65</ele>
        <time>2019-05-20T20:10:17.000Z</time>
      </trkpt>
      <trkpt lat="48.77408" lon="2.43841">
        <ele>101.69</ele>
        <time>2019-05-20T20:10:19.000Z</time>
      </trkpt>
      <trkpt lat="48.77413" lon="2.43854">
        <ele>101.72</ele>
        <time>2019-05-20T20:10:21.000Z</time>
      </trkpt>
      <trkpt lat="48.77417" lon="2.43869">
        <ele>101.77</ele>
        <time>2019-05-20T20:10:23.000Z</time>
      </trkpt>
      <trkpt lat="48.77423" lon="2.43883">
        <ele>101.83</ele>
        <time>2019-05-20T20:10:25.000Z</time>
      </trkpt>
      <trkpt lat="48.77428" lon="2.43897">
        <ele>101.9</ele>
        <time>2019-05-20T20:10:27.000Z</time>
      </trkpt>
      <trkpt lat="48.77433" lon="2.43908">
        <ele>101.95</ele>
        <time>2019-05-20T20:10:29.000Z</time>
      </trkpt>
      <trkpt lat="48.77439" lon="2.43919">
        <ele>102</ele>
        <time>2019-05-20T20:10:31.000Z</time>
      </trkpt>
      <trkpt lat="48.77446" lon="2.4393">
        <ele>102.02</ele>
        <time>2019-05-20T20:10:33.000Z</time>
      </trkpt>
      <trkpt lat="48.77452" lon="2.43941">
        <ele>102.02</ele>
        <time>2019-05-20T20:10:35.000Z</time>
      </trkpt>
      <trkpt lat="48.77461" lon="2.4395">
        <ele>102.04</ele>
        <time>2019-05-20T20:10:37.000Z</time>
      </trkpt>
      <trkpt lat="48.7747" lon="2.4396">
        <ele>102.06</ele>
        <time>2019-05-20T20:10:39.000Z</time>
      </trkpt>
      <trkpt lat="48.77479" lon="2.4397">
        <ele>102.08</ele>
        <time>2019-05-20T20:10:41.000Z</time>
      </trkpt>
      <trkpt lat="48.77489" lon="2.43979">
        <ele>102.1</ele>
        <time>2019-05-20T20:10:43.000Z</time>
      </trkpt>
      <trkpt lat="48.77499" lon="2.43987">
        <ele>102.12</ele>
        <time>2019-05-20T20:10:45.000Z</time>
      </trkpt>
      <trkpt lat="48.77511" lon="2.43995">
        <ele>102.16</ele>
        <time>2019-05-20T20:10:47.000Z</time>
      </trkpt>
      <trkpt lat="48.77522" lon="2.44005">
        <ele>102.2</ele>
        <time>2019-05-20T20:10:49.000Z</time>
      </trkpt>
      <trkpt lat="48.77534" lon="2.44016">
        <ele>102.24</ele>
        <time>2019-05-20T20:10:51.000Z</time>
      </trkpt>
      <trkpt lat="48.77546" lon="2.44028">
        <ele>102.34</ele>
        <time>2019-05-20T20:10:53.000Z</time>
      </trkpt>
      <trkpt lat="48.77559" lon="2.44037">
        <ele>102.34</ele>
        <time>2019-05-20T20:10:55.000Z</time>
      </trkpt>
      <trkpt lat="48.7757" lon="2.44047">
        <ele>102.29</ele>
        <time>2019-05-20T20:10:57.000Z</time>
      </trkpt>
      <trkpt lat="48.77583" lon="2.44057">
        <ele>102.31</ele>
        <time>2019-05-20T20:10:59.000Z</time>
      </trkpt>
      <trkpt lat="48.77596" lon="2.44068">
        <ele>102.31</ele>
        <time>2019-05-20T20:11:01.000Z</time>
      </trkpt>
      <trkpt lat="48.77608" lon="2.4408">
        <ele>102.26</ele>
        <time>2019-05-20T20:11:03.000Z</time>
      </trkpt>
      <trkpt lat="48.77621" lon="2.44091">
        <ele>102.37</ele>
        <time>2019-05-20T20:11:05.000Z</time>
      </trkpt>
      <trkpt lat="48.77635" lon="2.44102">
        <ele>102.42</ele>
        <time>2019-05-20T20:11:07.000Z</time>
      </trkpt>
      <trkpt lat="48.77649" lon="2.44115">
        <ele>102.83</ele>
        <time>2019-05-20T20:11:09.000Z</time>
      </trkpt>
      <trkpt lat="48.7766" lon="2.44128">
        <ele>103.11</ele>
        <time>2019-05-20T20:11:11.000Z</time>
      </trkpt>
      <trkpt lat="48.77672" lon="2.44138">
        <ele>103.58</ele>
        <time>2019-05-20T20:11:13.000Z</time>
      </trkpt>
      <trkpt lat="48.77683" lon="2.44148">
        <ele>103.51</ele>
        <time>2019-05-20T20:11:15.000Z</time>
      </trkpt>
      <trkpt lat="48.77693" lon="2.44156">
        <ele>103.43</ele>
        <time>2019-05-20T20:11:17.000Z</time>
      </trkpt>
      <trkpt lat="48.77702" lon="2.44165">
        <ele>103.05</ele>
        <time>2019-05-20T20:11:19.000Z</time>
      </trkpt>
      <trkpt lat="48.77712" lon="2.44173">
        <ele>102.77</ele>
        <time>2019-05-20T20:11:21.000Z</time>
      </trkpt>
      <trkpt lat="48.77721" lon="2.44181">
        <ele>102.64</ele>
        <time>2019-05-20T20:11:23.000Z</time>
      </trkpt>
      <trkpt lat="48.77733" lon="2.44188">
        <ele>102.23</ele>
        <time>2019-05-20T20:11:25.000Z</time>
      </trkpt>
      <trkpt lat="48.77744" lon="2.44199">
        <ele>101.93</ele>
        <time>2019-05-20T20:11:27.000Z</time>
      </trkpt>
      <trkpt lat="48.77754" lon="2.4421">
        <ele>101.31</ele>
        <time>2019-05-20T20:11:29.000Z</time>
      </trkpt>
      <trkpt lat="48.77764" lon="2.44221">
        <ele>100.64</ele>
        <time>2019-05-20T20:11:31.000Z</time>
      </trkpt>
      <trkpt lat="48.77774" lon="2.4423">
        <ele>100.05</ele>
        <time>2019-05-20T20:11:33.000Z</time>
      </trkpt>
      <trkpt lat="48.77786" lon="2.44241">
        <ele>100.03</ele>
        <time>2019-05-20T20:11:35.000Z</time>
      </trkpt>
      <trkpt lat="48.778" lon="2.4425">
        <ele>100.26</ele>
        <time>2019-05-20T20:11:37.000Z</time>
      </trkpt>
      <trkpt lat="48.77813" lon="2.44259">
        <ele>100.34</ele>
        <time>2019-05-20T20:11:39.000Z</time>
      </trkpt>
      <trkpt lat="48.77826" lon="2.44271">
        <ele>100.36</ele>
        <time>2019-05-20T20:11:41.000Z</time>
      </trkpt>
      <trkpt lat="48.77838" lon="2.44281">
        <ele>99.78</ele>
        <time>2019-05-20T20:11:43.000Z</time>
      </trkpt>
      <trkpt lat="48.7785" lon="2.44292">
        <ele>99.38</ele>
        <time>2019-05-20T20:11:45.000Z</time>
      </trkpt>
      <trkpt lat="48.77863" lon="2.44302">
        <ele>98.96</ele>
        <time>2019-05-20T20:11:47.000Z</time>
      </trkpt>
      <trkpt lat="48.77875" lon="2.44312">
        <ele>98.54</ele>
        <time>2019-05-20T20:11:49.000Z</time>
      </trkpt>
      <trkpt lat="48.77886" lon="2.44322">
        <ele>98.35</ele>
        <time>2019-05-20T20:11:51.000Z</time>
      </trkpt>
      <trkpt lat="48.77897" lon="2.44332">
        <ele>98.28</ele>
        <time>2019-05-20T20:11:53.000Z</time>
      </trkpt>
      <trkpt lat="48.77908" lon="2.44343">
        <ele>97.9</ele>
        <time>2019-05-20T20:11:55.000Z</time>
      </trkpt>
      <trkpt lat="48.77919" lon="2.44352">
        <ele>97.69</ele>
        <time>2019-05-20T20:11:57.000Z</time>
      </trkpt>
      <trkpt lat="48.77932" lon="2.44361">
        <ele>97.54</ele>
        <time>2019-05-20T20:11:59.000Z</time>
      </trkpt>
      <trkpt lat="48.77943" lon="2.4437">
        <ele>97.2</ele>
        <time>2019-05-20T20:12:01.000Z</time>
      </trkpt>
      <trkpt lat="48.77955" lon="2.4438">
        <ele>97.2</ele>
        <time>2019-05-20T20:12:03.000Z</time>
      </trkpt>
      <trkpt lat="48.77965" lon="2.44387">
        <ele>96.95</ele>
        <time>2019-05-20T20:12:05.000Z</time>
      </trkpt>
      <trkpt lat="48.77975" lon="2.44395">
        <ele>96.83</ele>
        <time>2019-05-20T20:12:07.000Z</time>
      </trkpt>
      <trkpt lat="48.77983" lon="2.44403">
        <ele>96.91</ele>
        <time>2019-05-20T20:12:09.000Z</time>
      </trkpt>
      <trkpt lat="48.77992" lon="2.4441">
        <ele>97.36</ele>
        <time>2019-05-20T20:12:11.000Z</time>
      </trkpt>
      <trkpt lat="48.78001" lon="2.44418">
        <ele>97.73</ele>
        <time>2019-05-20T20:12:13.000Z</time>
      </trkpt>
      <trkpt lat="48.78011" lon="2.44426">
        <ele>97.99</ele>
        <time>2019-05-20T20:12:15.000Z</time>
      </trkpt>
      <trkpt lat="48.78023" lon="2.44435">
        <ele>98.33</ele>
        <time>2019-05-20T20:12:17.000Z</time>
      </trkpt>
      <trkpt lat="48.78033" lon="2.44445">
        <ele>98.67</ele>
        <time>2019-05-20T20:12:19.000Z</time>
      </trkpt>
      <trkpt lat="48.78044" lon="2.44454">
        <ele>99.15</ele>
        <time>2019-05-20T20:12:21.000Z</time>
      </trkpt>
      <trkpt lat="48.78054" lon="2.44465">
        <ele>99.68</ele>
        <time>2019-05-20T20:12:23.000Z</time>
      </trkpt>
      <trkpt lat="48.78065" lon="2.44475">
        <ele>100.19</ele>
        <time>2019-05-20T20:12:25.000Z</time>
      </trkpt>
      <trkpt lat="48.78077" lon="2.44485">
        <ele>100.94</ele>
        <time>2019-05-20T20:12:27.000Z</time>
      </trkpt>
      <trkpt lat="48.7809" lon="2.44495">
        <ele>101.37</ele>
        <time>2019-05-20T20:12:29.000Z</time>
      </trkpt>
      <trkpt lat="48.78104" lon="2.44506">
        <ele>101.62</ele>
        <time>2019-05-20T20:12:31.000Z</time>
      </trkpt>
      <trkpt lat="48.78116" lon="2.44517">
        <ele>101.91</ele>
        <time>2019-05-20T20:12:33.000Z</time>
      </trkpt>
      <trkpt lat="48.7813" lon="2.44527">
        <ele>102.01</ele>
        <time>2019-05-20T20:12:35.000Z</time>
      </trkpt>
      <trkpt lat="48.78144" lon="2.44538">
        <ele>102.2</ele>
        <time>2019-05-20T20:12:37.000Z</time>
      </trkpt>
      <trkpt lat="48.78157" lon="2.4455">
        <ele>102.34</ele>
        <time>2019-05-20T20:12:39.000Z</time>
      </trkpt>
      <trkpt lat="48.7817" lon="2.44561">
        <ele>102.72</ele>
        <time>2019-05-20T20:12:41.000Z</time>
      </trkpt>
      <trkpt lat="48.78183" lon="2.44572">
        <ele>103.25</ele>
        <time>2019-05-20T20:12:43.000Z</time>
      </trkpt>
      <trkpt lat="48.78195" lon="2.44582">
        <ele>103.37</ele>
        <time>2019-05-20T20:12:45.000Z</time>
      </trkpt>
      <trkpt lat="48.78208" lon="2.44593">
        <ele>103.61</ele>
        <time>2019-05-20T20:12:47.000Z</time>
      </trkpt>
      <trkpt lat="48.78222" lon="2.44604">
        <ele>103.96</ele>
        <time>2019-05-20T20:12:49.000Z</time>
      </trkpt>
      <trkpt lat="48.78236" lon="2.44615">
        <ele>104.93</ele>
        <time>2019-05-20T20:12:51.000Z</time>
      </trkpt>
      <trkpt lat="48.7825" lon="2.44626">
        <ele>105.41</ele>
        <time>2019-05-20T20:12:53.000Z</time>
      </trkpt>
      <trkpt lat="48.78265" lon="2.44635">
        <ele>105.69</ele>
        <time>2019-05-20T20:12:55.000Z</time>
      </trkpt>
      <trkpt lat="48.78277" lon="2.44646">
        <ele>105.77</ele>
        <time>2019-05-20T20:12:57.000Z</time>
      </trkpt>
      <trkpt lat="48.78289" lon="2.44657">
        <ele>105.64</ele>
        <time>2019-05-20T20:12:59.000Z</time>
      </trkpt>
      <trkpt lat="48.78302" lon="2.4467">
        <ele>105.58</ele>
        <time>2019-05-20T20:13:01.000Z</time>
      </trkpt>
      <trkpt lat="48.78316" lon="2.4468">
        <ele>105.38</ele>
        <time>2019-05-20T20:13:03.000Z</time>
      </trkpt>
      <trkpt lat="48.78329" lon="2.44692">
        <ele>105.23</ele>
        <time>2019-05-20T20:13:05.000Z</time>
      </trkpt>
      <trkpt lat="48.78342" lon="2.44703">
        <ele>105.47</ele>
        <time>2019-05-20T20:13:07.000Z</time>
      </trkpt>
      <trkpt lat="48.78356" lon="2.44714">
        <ele>105.88</ele>
        <time>2019-05-20T20:13:09.000Z</time>
      </trkpt>
      <trkpt lat="48.78368" lon="2.44724">
        <ele>106.32</ele>
        <time>2019-05-20T20:13:11.000Z</time>
      </trkpt>
      <trkpt lat="48.7838" lon="2.44736">
        <ele>106.57</ele>
        <time>2019-05-20T20:13:13.000Z</time>
      </trkpt>
      <trkpt lat="48.78391" lon="2.44745">
        <ele>106.77</ele>
        <time>2019-05-20T20:13:15.000Z</time>
      </trkpt>
      <trkpt lat="48.78401" lon="2.44753">
        <ele>107.21</ele>
        <time>2019-05-20T20:13:17.000Z</time>
      </trkpt>
      <trkpt lat="48.7841" lon="2.4476">
        <ele>107.66</ele>
        <time>2019-05-20T20:13:19.000Z</time>
      </trkpt>
      <trkpt lat="48.78418" lon="2.44768">
        <ele>107.71</ele>
        <time>2019-05-20T20:13:21.000Z</time>
      </trkpt>
      <trkpt lat="48.78429" lon="2.44778">
        <ele>106.91</ele>
        <time>2019-05-20T20:13:24.000Z</time>
      </trkpt>
      <trkpt lat="48.78439" lon="2.44787">
        <ele>106.68</ele>
        <time>2019-05-20T20:13:27.000Z</time>
      </trkpt>
      <trkpt lat="48.78448" lon="2.44794">
        <ele>106.62</ele>
        <time>2019-05-20T20:13:30.000Z</time>
      </trkpt>
      <trkpt lat="48.78457" lon="2.448">
        <ele>97.27</ele>
        <time>2019-05-20T20:15:30.000Z</time>
      </trkpt>
      <trkpt lat="48.78463" lon="2.44812">
        <ele>96.73</ele>
        <time>2019-05-20T20:15:35.000Z</time>
      </trkpt>
      <trkpt lat="48.78471" lon="2.44818">
        <ele>96.36</ele>
        <time>2019-05-20T20:15:39.000Z</time>
      </trkpt>
      <trkpt lat="48.78479" lon="2.44828">
        <ele>96.04</ele>
        <time>2019-05-20T20:15:43.000Z</time>
      </trkpt>
      <trkpt lat="48.78489" lon="2.44836">
        <ele>95.76</ele>
        <time>2019-05-20T20:15:47.000Z</time>
      </trkpt>
      <trkpt lat="48.78497" lon="2.44844">
        <ele>95.57</ele>
        <time>2019-05-20T20:15:50.000Z</time>
      </trkpt>
      <trkpt lat="48.78505" lon="2.44852">
        <ele>95.4</ele>
        <time>2019-05-20T20:15:53.000Z</time>
      </trkpt>
      <trkpt lat="48.78516" lon="2.4486">
        <ele>95.25</ele>
        <time>2019-05-20T20:15:56.000Z</time>
      </trkpt>
      <trkpt lat="48.78524" lon="2.44865">
        <ele>95.15</ele>
        <time>2019-05-20T20:15:58.000Z</time>
      </trkpt>
      <trkpt lat="48.78534" lon="2.44873">
        <ele>95.02</ele>
        <time>2019-05-20T20:16:01.000Z</time>
      </trkpt>
      <trkpt lat="48.78543" lon="2.4488">
        <ele>94.25</ele>
        <time>2019-05-20T20:16:03.000Z</time>
      </trkpt>
      <trkpt lat="48.78554" lon="2.4489">
        <ele>93.63</ele>
        <time>2019-05-20T20:16:06.000Z</time>
      </trkpt>
      <trkpt lat="48.78563" lon="2.44897">
        <ele>93.5</ele>
        <time>2019-05-20T20:16:08.000Z</time>
      </trkpt>
      <trkpt lat="48.78572" lon="2.44907">
        <ele>93.42</ele>
        <time>2019-05-20T20:16:10.000Z</time>
      </trkpt>
      <trkpt lat="48.78579" lon="2.44915">
        <ele>93.33</ele>
        <time>2019-05-20T20:16:12.000Z</time>
      </trkpt>
      <trkpt lat="48.78588" lon="2.44927">
        <ele>93.26</ele>
        <time>2019-05-20T20:16:15.000Z</time>
      </trkpt>
      <trkpt lat="48.78597" lon="2.44934">
        <ele>93.25</ele>
        <time>2019-05-20T20:16:18.000Z</time>
      </trkpt>
      <trkpt lat="48.78605" lon="2.44939">
        <ele>93.24</ele>
        <time>2019-05-20T20:16:19.000Z</time>
      </trkpt>
      <trkpt lat="48.78617" lon="2.44944">
        <ele>93.23</ele>
        <time>2019-05-20T20:16:21.000Z</time>
      </trkpt>
      <trkpt lat="48.78625" lon="2.44951">
        <ele>93.21</ele>
        <time>2019-05-20T20:16:23.000Z</time>
      </trkpt>
      <trkpt lat="48.78635" lon="2.44962">
        <ele>93.21</ele>
        <time>2019-05-20T20:16:26.000Z</time>
      </trkpt>
      <trkpt lat="48.78645" lon="2.44972">
        <ele>93.22</ele>
        <time>2019-05-20T20:16:29.000Z</time>
      </trkpt>
      <trkpt lat="48.78654" lon="2.44981">
        <ele>93.22</ele>
        <time>2019-05-20T20:16:32.000Z</time>
      </trkpt>
      <trkpt lat="48.78664" lon="2.4499">
        <ele>93.22</ele>
        <time>2019-05-20T20:16:35.000Z</time>
      </trkpt>
      <trkpt lat="48.78673" lon="2.44998">
        <ele>93.22</ele>
        <time>2019-05-20T20:16:38.000Z</time>
      </trkpt>
      <trkpt lat="48.78681" lon="2.45006">
        <ele>93.22</ele>
        <time>2019-05-20T20:16:41.000Z</time>
      </trkpt>
      <trkpt lat="48.78691" lon="2.45015">
        <ele>93.22</ele>
        <time>2019-05-20T20:16:44.000Z</time>
      </trkpt>
      <trkpt lat="48.78701" lon="2.45023">
        <ele>93.22</ele>
        <time>2019-05-20T20:16:47.000Z</time>
      </trkpt>
      <trkpt lat="48.7871" lon="2.45029">
        <ele>93.23</ele>
        <time>2019-05-20T20:16:50.000Z</time>
      </trkpt>
      <trkpt lat="48.78722" lon="2.45039">
        <ele>93.24</ele>
        <time>2019-05-20T20:16:53.000Z</time>
      </trkpt>
      <trkpt lat="48.78735" lon="2.45046">
        <ele>93.25</ele>
        <time>2019-05-20T20:16:56.000Z</time>
      </trkpt>
      <trkpt lat="48.78746" lon="2.45054">
        <ele>93.26</ele>
        <time>2019-05-20T20:16:59.000Z</time>
      </trkpt>
      <trkpt lat="48.78756" lon="2.45061">
        <ele>93.28</ele>
        <time>2019-05-20T20:17:02.000Z</time>
      </trkpt>
      <trkpt lat="48.78764" lon="2.45069">
        <ele>93.3</ele>
        <time>2019-05-20T20:17:05.000Z</time>
      </trkpt>
      <trkpt lat="48.78772" lon="2.45077">
        <ele>93.32</ele>
        <time>2019-05-20T20:17:08.000Z</time>
      </trkpt>
      <trkpt lat="48.78779" lon="2.45085">
        <ele>93.36</ele>
        <time>2019-05-20T20:17:11.000Z</time>
      </trkpt>
      <trkpt lat="48.7879" lon="2.45095">
        <ele>93.4</ele>
        <time>2019-05-20T20:17:15.000Z</time>
      </trkpt>
      <trkpt lat="48.78798" lon="2.45103">
        <ele>93.43</ele>
        <time>2019-05-20T20:17:18.000Z</time>
      </trkpt>
      <trkpt lat="48.78807" lon="2.45111">
        <ele>93.45</ele>
        <time>2019-05-20T20:17:21.000Z</time>
      </trkpt>
      <trkpt lat="48.78817" lon="2.45119">
        <ele>93.48</ele>
        <time>2019-05-20T20:17:24.000Z</time>
      </trkpt>
      <trkpt lat="48.78827" lon="2.45129">
        <ele>93.51</ele>
        <time>2019-05-20T20:17:27.000Z</time>
      </trkpt>
      <trkpt lat="48.78838" lon="2.45138">
        <ele>93.63</ele>
        <time>2019-05-20T20:17:30.000Z</time>
      </trkpt>
      <trkpt lat="48.78849" lon="2.45147">
        <ele>93.74</ele>
        <time>2019-05-20T20:17:33.000Z</time>
      </trkpt>
      <trkpt lat="48.78863" lon="2.45158">
        <ele>93.9</ele>
        <time>2019-05-20T20:17:37.000Z</time>
      </trkpt>
      <trkpt lat="48.78885" lon="2.45181">
        <ele>94.12</ele>
        <time>2019-05-20T20:17:44.000Z</time>
      </trkpt>
      <trkpt lat="48.78889" lon="2.45199">
        <ele>94.13</ele>
        <time>2019-05-20T20:17:47.000Z</time>
      </trkpt>
      <trkpt lat="48.78902" lon="2.45206">
        <ele>94.12</ele>
        <time>2019-05-20T20:17:49.000Z</time>
      </trkpt>
      <trkpt lat="48.78915" lon="2.45212">
        <ele>93.99</ele>
        <time>2019-05-20T20:17:51.000Z</time>
      </trkpt>
      <trkpt lat="48.78927" lon="2.4522">
        <ele>93.9</ele>
        <time>2019-05-20T20:17:53.000Z</time>
      </trkpt>
      <trkpt lat="48.78936" lon="2.4523">
        <ele>93.87</ele>
        <time>2019-05-20T20:17:56.000Z</time>
      </trkpt>
      <trkpt lat="48.78946" lon="2.45238">
        <ele>93.87</ele>
        <time>2019-05-20T20:17:59.000Z</time>
      </trkpt>
      <trkpt lat="48.78957" lon="2.45244">
        <ele>93.83</ele>
        <time>2019-05-20T20:18:02.000Z</time>
      </trkpt>
      <trkpt lat="48.78965" lon="2.4525">
        <ele>93.7</ele>
        <time>2019-05-20T20:18:04.000Z</time>
      </trkpt>
      <trkpt lat="48.78976" lon="2.45256">
        <ele>93.63</ele>
        <time>2019-05-20T20:18:07.000Z</time>
      </trkpt>
      <trkpt lat="48.78985" lon="2.45263">
        <ele>93.62</ele>
        <time>2019-05-20T20:18:10.000Z</time>
      </trkpt>
      <trkpt lat="48.78993" lon="2.45271">
        <ele>93.61</ele>
        <time>2019-05-20T20:18:13.000Z</time>
      </trkpt>
      <trkpt lat="48.79002" lon="2.45278">
        <ele>93.62</ele>
        <time>2019-05-20T20:18:16.000Z</time>
      </trkpt>
      <trkpt lat="48.79011" lon="2.45287">
        <ele>93.64</ele>
        <time>2019-05-20T20:18:20.000Z</time>
      </trkpt>
      <trkpt lat="48.79018" lon="2.45296">
        <ele>93.68</ele>
        <time>2019-05-20T20:18:24.000Z</time>
      </trkpt>
      <trkpt lat="48.79027" lon="2.45305">
        <ele>93.71</ele>
        <time>2019-05-20T20:18:29.000Z</time>
      </trkpt>
      <trkpt lat="48.79034" lon="2.45312">
        <ele>93.75</ele>
        <time>2019-05-20T20:18:51.000Z</time>
      </trkpt>
      <trkpt lat="48.79039" lon="2.45328">
        <ele>94.85</ele>
        <time>2019-05-20T20:19:59.000Z</time>
      </trkpt>
      <trkpt lat="48.79045" lon="2.45345">
        <ele>94.99</ele>
        <time>2019-05-20T20:20:03.000Z</time>
      </trkpt>
      <trkpt lat="48.79051" lon="2.45358">
        <ele>95.08</ele>
        <time>2019-05-20T20:20:06.000Z</time>
      </trkpt>
      <trkpt lat="48.79058" lon="2.45372">
        <ele>95.17</ele>
        <time>2019-05-20T20:20:09.000Z</time>
      </trkpt>
      <trkpt lat="48.79064" lon="2.45388">
        <ele>95.48</ele>
        <time>2019-05-20T20:20:12.000Z</time>
      </trkpt>
      <trkpt lat="48.7907" lon="2.45403">
        <ele>95.86</ele>
        <time>2019-05-20T20:20:14.000Z</time>
      </trkpt>
      <trkpt lat="48.79076" lon="2.45418">
        <ele>96.11</ele>
        <time>2019-05-20T20:20:16.000Z</time>
      </trkpt>
      <trkpt lat="48.79081" lon="2.45431">
        <ele>96.29</ele>
        <time>2019-05-20T20:20:18.000Z</time>
      </trkpt>
      <trkpt lat="48.79089" lon="2.45444">
        <ele>96.41</ele>
        <time>2019-05-20T20:20:20.000Z</time>
      </trkpt>
      <trkpt lat="48.79096" lon="2.45456">
        <ele>96.51</ele>
        <time>2019-05-20T20:20:22.000Z</time>
      </trkpt>
      <trkpt lat="48.79102" lon="2.45471">
        <ele>96.61</ele>
        <time>2019-05-20T20:20:24.000Z</time>
      </trkpt>
      <trkpt lat="48.79108" lon="2.45486">
        <ele>96.69</ele>
        <time>2019-05-20T20:20:26.000Z</time>
      </trkpt>
      <trkpt lat="48.79113" lon="2.45504">
        <ele>96.78</ele>
        <time>2019-05-20T20:20:28.000Z</time>
      </trkpt>
      <trkpt lat="48.79119" lon="2.4552">
        <ele>96.86</ele>
        <time>2019-05-20T20:20:30.000Z</time>
      </trkpt>
      <trkpt lat="48.7913" lon="2.45533">
        <ele>96.9</ele>
        <time>2019-05-20T20:20:32.000Z</time>
      </trkpt>
      <trkpt lat="48.79135" lon="2.4555">
        <ele>96.97</ele>
        <time>2019-05-20T20:20:34.000Z</time>
      </trkpt>
      <trkpt lat="48.79141" lon="2.45563">
        <ele>97.03</ele>
        <time>2019-05-20T20:20:36.000Z</time>
      </trkpt>
      <trkpt lat="48.79143" lon="2.45577">
        <ele>97.09</ele>
        <time>2019-05-20T20:20:38.000Z</time>
      </trkpt>
      <trkpt lat="48.79146" lon="2.45591">
        <ele>97.17</ele>
        <time>2019-05-20T20:20:40.000Z</time>
      </trkpt>
      <trkpt lat="48.79151" lon="2.45607">
        <ele>97.19</ele>
        <time>2019-05-20T20:20:42.000Z</time>
      </trkpt>
      <trkpt lat="48.79157" lon="2.45623">
        <ele>97.18</ele>
        <time>2019-05-20T20:20:44.000Z</time>
      </trkpt>
      <trkpt lat="48.79163" lon="2.45639">
        <ele>97.17</ele>
        <time>2019-05-20T20:20:46.000Z</time>
      </trkpt>
      <trkpt lat="48.79175" lon="2.45653">
        <ele>97.15</ele>
        <time>2019-05-20T20:20:48.000Z</time>
      </trkpt>
      <trkpt lat="48.7918" lon="2.45666">
        <ele>97.14</ele>
        <time>2019-05-20T20:20:50.000Z</time>
      </trkpt>
      <trkpt lat="48.79186" lon="2.45684">
        <ele>97.15</ele>
        <time>2019-05-20T20:20:52.000Z</time>
      </trkpt>
      <trkpt lat="48.79194" lon="2.45698">
        <ele>97.14</ele>
        <time>2019-05-20T20:20:54.000Z</time>
      </trkpt>
      <trkpt lat="48.79201" lon="2.45714">
        <ele>97.12</ele>
        <time>2019-05-20T20:20:56.000Z</time>
      </trkpt>
      <trkpt lat="48.79209" lon="2.45729">
        <ele>97.13</ele>
        <time>2019-05-20T20:20:58.000Z</time>
      </trkpt>
      <trkpt lat="48.79217" lon="2.45743">
        <ele>97.16</ele>
        <time>2019-05-20T20:21:00.000Z</time>
      </trkpt>
      <trkpt lat="48.79224" lon="2.45759">
        <ele>97.18</ele>
        <time>2019-05-20T20:21:02.000Z</time>
      </trkpt>
      <trkpt lat="48.79229" lon="2.45777">
        <ele>97.2</ele>
        <time>2019-05-20T20:21:04.000Z</time>
      </trkpt>
      <trkpt lat="48.79232" lon="2.45797">
        <ele>97.27</ele>
        <time>2019-05-20T20:21:06.000Z</time>
      </trkpt>
      <trkpt lat="48.7924" lon="2.45812">
        <ele>97.36</ele>
        <time>2019-05-20T20:21:08.000Z</time>
      </trkpt>
      <trkpt lat="48.79242" lon="2.45829">
        <ele>97.43</ele>
        <time>2019-05-20T20:21:10.000Z</time>
      </trkpt>
      <trkpt lat="48.79247" lon="2.45846">
        <ele>97.47</ele>
        <time>2019-05-20T20:21:12.000Z</time>
      </trkpt>
      <trkpt lat="48.79252" lon="2.4586">
        <ele>97.49</ele>
        <time>2019-05-20T20:21:14.000Z</time>
      </trkpt>
      <trkpt lat="48.79257" lon="2.45874">
        <ele>97.5</ele>
        <time>2019-05-20T20:21:16.000Z</time>
      </trkpt>
      <trkpt lat="48.79261" lon="2.45888">
        <ele>97.5</ele>
        <time>2019-05-20T20:21:18.000Z</time>
      </trkpt>
      <trkpt lat="48.79269" lon="2.45901">
        <ele>97.5</ele>
        <time>2019-05-20T20:21:21.000Z</time>
      </trkpt>
      <trkpt lat="48.79272" lon="2.45914">
        <ele>97.44</ele>
        <time>2019-05-20T20:21:23.000Z</time>
      </trkpt>
      <trkpt lat="48.79279" lon="2.45929">
        <ele>97.27</ele>
        <time>2019-05-20T20:21:26.000Z</time>
      </trkpt>
      <trkpt lat="48.79285" lon="2.4594">
        <ele>97.16</ele>
        <time>2019-05-20T20:21:29.000Z</time>
      </trkpt>
      <trkpt lat="48.7929" lon="2.45956">
        <ele>97.04</ele>
        <time>2019-05-20T20:21:32.000Z</time>
      </trkpt>
      <trkpt lat="48.79295" lon="2.45972">
        <ele>95.84</ele>
        <time>2019-05-20T20:21:35.000Z</time>
      </trkpt>
      <trkpt lat="48.79298" lon="2.45986">
        <ele>95.25</ele>
        <time>2019-05-20T20:21:37.000Z</time>
      </trkpt>
      <trkpt lat="48.79303" lon="2.46">
        <ele>94.86</ele>
        <time>2019-05-20T20:21:39.000Z</time>
      </trkpt>
      <trkpt lat="48.79307" lon="2.46015">
        <ele>94.48</ele>
        <time>2019-05-20T20:21:41.000Z</time>
      </trkpt>
      <trkpt lat="48.79313" lon="2.46027">
        <ele>94.4</ele>
        <time>2019-05-20T20:21:43.000Z</time>
      </trkpt>
      <trkpt lat="48.79318" lon="2.46041">
        <ele>94.43</ele>
        <time>2019-05-20T20:21:45.000Z</time>
      </trkpt>
      <trkpt lat="48.79321" lon="2.46054">
        <ele>94.49</ele>
        <time>2019-05-20T20:21:47.000Z</time>
      </trkpt>
      <trkpt lat="48.79327" lon="2.4607">
        <ele>94.5</ele>
        <time>2019-05-20T20:21:50.000Z</time>
      </trkpt>
      <trkpt lat="48.79333" lon="2.46083">
        <ele>94.51</ele>
        <time>2019-05-20T20:21:53.000Z</time>
      </trkpt>
      <trkpt lat="48.7934" lon="2.46095">
        <ele>94.5</ele>
        <time>2019-05-20T20:21:58.000Z</time>
      </trkpt>
      <trkpt lat="48.79347" lon="2.46104">
        <ele>94.62</ele>
        <time>2019-05-20T20:22:04.000Z</time>
      </trkpt>
      <trkpt lat="48.79352" lon="2.46118">
        <ele>96.71</ele>
        <time>2019-05-20T20:22:35.000Z</time>
      </trkpt>
      <trkpt lat="48.7936" lon="2.46129">
        <ele>97.26</ele>
        <time>2019-05-20T20:22:39.000Z</time>
      </trkpt>
      <trkpt lat="48.79368" lon="2.46141">
        <ele>98.72</ele>
        <time>2019-05-20T20:22:42.000Z</time>
      </trkpt>
      <trkpt lat="48.79378" lon="2.46154">
        <ele>101.08</ele>
        <time>2019-05-20T20:22:45.000Z</time>
      </trkpt>
      <trkpt lat="48.79389" lon="2.46165">
        <ele>102.19</ele>
        <time>2019-05-20T20:22:48.000Z</time>
      </trkpt>
      <trkpt lat="48.79398" lon="2.46173">
        <ele>102.57</ele>
        <time>2019-05-20T20:22:50.000Z</time>
      </trkpt>
      <trkpt lat="48.79408" lon="2.46181">
        <ele>102.77</ele>
        <time>2019-05-20T20:22:52.000Z</time>
      </trkpt>
      <trkpt lat="48.79419" lon="2.46189">
        <ele>102.87</ele>
        <time>2019-05-20T20:22:54.000Z</time>
      </trkpt>
      <trkpt lat="48.7943" lon="2.46198">
        <ele>102.92</ele>
        <time>2019-05-20T20:22:56.000Z</time>
      </trkpt>
      <trkpt lat="48.79443" lon="2.46207">
        <ele>102.92</ele>
        <time>2019-05-20T20:22:58.000Z</time>
      </trkpt>
      <trkpt lat="48.79453" lon="2.46216">
        <ele>102.89</ele>
        <time>2019-05-20T20:23:00.000Z</time>
      </trkpt>
      <trkpt lat="48.79464" lon="2.46226">
        <ele>102.86</ele>
        <time>2019-05-20T20:23:02.000Z</time>
      </trkpt>
      <trkpt lat="48.79476" lon="2.46234">
        <ele>102.87</ele>
        <time>2019-05-20T20:23:04.000Z</time>
      </trkpt>
      <trkpt lat="48.79487" lon="2.46244">
        <ele>102.88</ele>
        <time>2019-05-20T20:23:06.000Z</time>
      </trkpt>
      <trkpt lat="48.79499" lon="2.46254">
        <ele>102.87</ele>
        <time>2019-05-20T20:23:08.000Z</time>
      </trkpt>
      <trkpt lat="48.79511" lon="2.46264">
        <ele>102.86</ele>
        <time>2019-05-20T20:23:10.000Z</time>
      </trkpt>
      <trkpt lat="48.79522" lon="2.46273">
        <ele>102.87</ele>
        <time>2019-05-20T20:23:12.000Z</time>
      </trkpt>
      <trkpt lat="48.79534" lon="2.46283">
        <ele>103.01</ele>
        <time>2019-05-20T20:23:14.000Z</time>
      </trkpt>
      <trkpt lat="48.79545" lon="2.46292">
        <ele>103.15</ele>
        <time>2019-05-20T20:23:16.000Z</time>
      </trkpt>
      <trkpt lat="48.79555" lon="2.46305">
        <ele>103.31</ele>
        <time>2019-05-20T20:23:18.000Z</time>
      </trkpt>
      <trkpt lat="48.79565" lon="2.46316">
        <ele>103.62</ele>
        <time>2019-05-20T20:23:20.000Z</time>
      </trkpt>
      <trkpt lat="48.79575" lon="2.46326">
        <ele>103.59</ele>
        <time>2019-05-20T20:23:22.000Z</time>
      </trkpt>
      <trkpt lat="48.79584" lon="2.46335">
        <ele>103.69</ele>
        <time>2019-05-20T20:23:24.000Z</time>
      </trkpt>
      <trkpt lat="48.79592" lon="2.46342">
        <ele>103.86</ele>
        <time>2019-05-20T20:23:26.000Z</time>
      </trkpt>
      <trkpt lat="48.79599" lon="2.46349">
        <ele>103.86</ele>
        <time>2019-05-20T20:23:28.000Z</time>
      </trkpt>
      <trkpt lat="48.79608" lon="2.46355">
        <ele>103.95</ele>
        <time>2019-05-20T20:23:30.000Z</time>
      </trkpt>
      <trkpt lat="48.7962" lon="2.46363">
        <ele>104.2</ele>
        <time>2019-05-20T20:23:33.000Z</time>
      </trkpt>
      <trkpt lat="48.79631" lon="2.46369">
        <ele>104.46</ele>
        <time>2019-05-20T20:23:35.000Z</time>
      </trkpt>
      <trkpt lat="48.79644" lon="2.4637">
        <ele>105.08</ele>
        <time>2019-05-20T20:23:37.000Z</time>
      </trkpt>
      <trkpt lat="48.79655" lon="2.46374">
        <ele>105.62</ele>
        <time>2019-05-20T20:23:39.000Z</time>
      </trkpt>
      <trkpt lat="48.79665" lon="2.46379">
        <ele>105.86</ele>
        <time>2019-05-20T20:23:41.000Z</time>
      </trkpt>
      <trkpt lat="48.79676" lon="2.46383">
        <ele>106.02</ele>
        <time>2019-05-20T20:23:43.000Z</time>
      </trkpt>
      <trkpt lat="48.79686" lon="2.46388">
        <ele>106.19</ele>
        <time>2019-05-20T20:23:45.000Z</time>
      </trkpt>
      <trkpt lat="48.79698" lon="2.46393">
        <ele>106.43</ele>
        <time>2019-05-20T20:23:47.000Z</time>
      </trkpt>
      <trkpt lat="48.79709" lon="2.46398">
        <ele>106.74</ele>
        <time>2019-05-20T20:23:49.000Z</time>
      </trkpt>
      <trkpt lat="48.79721" lon="2.46405">
        <ele>107.1</ele>
        <time>2019-05-20T20:23:51.000Z</time>
      </trkpt>
      <trkpt lat="48.79733" lon="2.46412">
        <ele>107.5</ele>
        <time>2019-05-20T20:23:53.000Z</time>
      </trkpt>
      <trkpt lat="48.79742" lon="2.4642">
        <ele>107.8</ele>
        <time>2019-05-20T20:23:55.000Z</time>
      </trkpt>
      <trkpt lat="48.79753" lon="2.46429">
        <ele>108.1</ele>
        <time>2019-05-20T20:23:57.000Z</time>
      </trkpt>
      <trkpt lat="48.79763" lon="2.46439">
        <ele>108.26</ele>
        <time>2019-05-20T20:23:59.000Z</time>
      </trkpt>
      <trkpt lat="48.79773" lon="2.46449">
        <ele>108.4</ele>
        <time>2019-05-20T20:24:01.000Z</time>
      </trkpt>
      <trkpt lat="48.79782" lon="2.46459">
        <ele>108.59</ele>
        <time>2019-05-20T20:24:03.000Z</time>
      </trkpt>
      <trkpt lat="48.79792" lon="2.46468">
        <ele>108.89</ele>
        <time>2019-05-20T20:24:05.000Z</time>
      </trkpt>
      <trkpt lat="48.79803" lon="2.46476">
        <ele>109.14</ele>
        <time>2019-05-20T20:24:07.000Z</time>
      </trkpt>
      <trkpt lat="48.79813" lon="2.46485">
        <ele>109.41</ele>
        <time>2019-05-20T20:24:09.000Z</time>
      </trkpt>
      <trkpt lat="48.79827" lon="2.46495">
        <ele>109.85</ele>
        <time>2019-05-20T20:24:11.000Z</time>
      </trkpt>
      <trkpt lat="48.7984" lon="2.46505">
        <ele>110.19</ele>
        <time>2019-05-20T20:24:13.000Z</time>
      </trkpt>
      <trkpt lat="48.79851" lon="2.46514">
        <ele>110.46</ele>
        <time>2019-05-20T20:24:15.000Z</time>
      </trkpt>
      <trkpt lat="48.7986" lon="2.46524">
        <ele>110.67</ele>
        <time>2019-05-20T20:24:17.000Z</time>
      </trkpt>
      <trkpt lat="48.7987" lon="2.46535">
        <ele>110.84</ele>
        <time>2019-05-20T20:24:19.000Z</time>
      </trkpt>
      <trkpt lat="48.79879" lon="2.46546">
        <ele>110.89</ele>
        <time>2019-05-20T20:24:21.000Z</time>
      </trkpt>
      <trkpt lat="48.79889" lon="2.46559">
        <ele>110.9</ele>
        <time>2019-05-20T20:24:23.000Z</time>
      </trkpt>
      <trkpt lat="48.79898" lon="2.46573">
        <ele>110.97</ele>
        <time>2019-05-20T20:24:25.000Z</time>
      </trkpt>
      <trkpt lat="48.79907" lon="2.46587">
        <ele>110.91</ele>
        <time>2019-05-20T20:24:27.000Z</time>
      </trkpt>
      <trkpt lat="48.79913" lon="2.46605">
        <ele>110.76</ele>
        <time>2019-05-20T20:24:29.000Z</time>
      </trkpt>
      <trkpt lat="48.79919" lon="2.46623">
        <ele>110.68</ele>
        <time>2019-05-20T20:24:31.000Z</time>
      </trkpt>
      <trkpt lat="48.79924" lon="2.46641">
        <ele>110.87</ele>
        <time>2019-05-20T20:24:33.000Z</time>
      </trkpt>
      <trkpt lat="48.79927" lon="2.46657">
        <ele>111.12</ele>
        <time>2019-05-20T20:24:35.000Z</time>
      </trkpt>
      <trkpt lat="48.7993" lon="2.46672">
        <ele>111.3</ele>
        <time>2019-05-20T20:24:37.000Z</time>
      </trkpt>
      <trkpt lat="48.79932" lon="2.46686">
        <ele>111.62</ele>
        <time>2019-05-20T20:24:39.000Z</time>
      </trkpt>
      <trkpt lat="48.79934" lon="2.46699">
        <ele>111.83</ele>
        <time>2019-05-20T20:24:41.000Z</time>
      </trkpt>
      <trkpt lat="48.79937" lon="2.46719">
        <ele>111.75</ele>
        <time>2019-05-20T20:24:44.000Z</time>
      </trkpt>
      <trkpt lat="48.7994" lon="2.46733">
        <ele>111.54</ele>
        <time>2019-05-20T20:24:46.000Z</time>
      </trkpt>
      <trkpt lat="48.79942" lon="2.46746">
        <ele>111.36</ele>
        <time>2019-05-20T20:24:47.999Z</time>
      </trkpt>
      <trkpt lat="48.79945" lon="2.46761">
        <ele>111.34</ele>
        <time>2019-05-20T20:24:49.999Z</time>
      </trkpt>
      <trkpt lat="48.79947" lon="2.46779">
        <ele>111.45</ele>
        <time>2019-05-20T20:24:51.999Z</time>
      </trkpt>
      <trkpt lat="48.7995" lon="2.46798">
        <ele>111.58</ele>
        <time>2019-05-20T20:24:53.999Z</time>
      </trkpt>
      <trkpt lat="48.79953" lon="2.46816">
        <ele>111.43</ele>
        <time>2019-05-20T20:24:55.999Z</time>
      </trkpt>
      <trkpt lat="48.79956" lon="2.46837">
        <ele>111.46</ele>
        <time>2019-05-20T20:24:57.999Z</time>
      </trkpt>
      <trkpt lat="48.79961" lon="2.46857">
        <ele>111.64</ele>
        <time>2019-05-20T20:24:59.999Z</time>
      </trkpt>
      <trkpt lat="48.79964" lon="2.46875">
        <ele>111.59</ele>
        <time>2019-05-20T20:25:01.999Z</time>
      </trkpt>
      <trkpt lat="48.79967" lon="2.46894">
        <ele>111.66</ele>
        <time>2019-05-20T20:25:03.999Z</time>
      </trkpt>
      <trkpt lat="48.7997" lon="2.46915">
        <ele>111.69</ele>
        <time>2019-05-20T20:25:05.999Z</time>
      </trkpt>
      <trkpt lat="48.79972" lon="2.46935">
        <ele>111.83</ele>
        <time>2019-05-20T20:25:07.999Z</time>
      </trkpt>
      <trkpt lat="48.79972" lon="2.46954">
        <ele>111.88</ele>
        <time>2019-05-20T20:25:09.999Z</time>
      </trkpt>
      <trkpt lat="48.79974" lon="2.46972">
        <ele>111.87</ele>
        <time>2019-05-20T20:25:11.999Z</time>
      </trkpt>
      <trkpt lat="48.79975" lon="2.46988">
        <ele>111.71</ele>
        <time>2019-05-20T20:25:13.999Z</time>
      </trkpt>
      <trkpt lat="48.79976" lon="2.47003">
        <ele>111.57</ele>
        <time>2019-05-20T20:25:15.999Z</time>
      </trkpt>
      <trkpt lat="48.79977" lon="2.47017">
        <ele>111.55</ele>
        <time>2019-05-20T20:25:17.999Z</time>
      </trkpt>
      <trkpt lat="48.7998" lon="2.47037">
        <ele>111.71</ele>
        <time>2019-05-20T20:25:20.999Z</time>
      </trkpt>
      <trkpt lat="48.79984" lon="2.47053">
        <ele>111.78</ele>
        <time>2019-05-20T20:25:23.999Z</time>
      </trkpt>
      <trkpt lat="48.79985" lon="2.47069">
        <ele>111.77</ele>
        <time>2019-05-20T20:25:26.999Z</time>
      </trkpt>
      <trkpt lat="48.79989" lon="2.47084">
        <ele>111.71</ele>
        <time>2019-05-20T20:25:29.999Z</time>
      </trkpt>
      <trkpt lat="48.7999" lon="2.471">
        <ele>111.07</ele>
        <time>2019-05-20T20:25:32.999Z</time>
      </trkpt>
      <trkpt lat="48.79996" lon="2.47118">
        <ele>110</ele>
        <time>2019-05-20T20:25:35.999Z</time>
      </trkpt>
      <trkpt lat="48.80003" lon="2.47134">
        <ele>109.09</ele>
        <time>2019-05-20T20:25:38.999Z</time>
      </trkpt>
      <trkpt lat="48.8001" lon="2.47145">
        <ele>108.54</ele>
        <time>2019-05-20T20:25:40.999Z</time>
      </trkpt>
      <trkpt lat="48.80018" lon="2.47155">
        <ele>108</ele>
        <time>2019-05-20T20:25:42.999Z</time>
      </trkpt>
      <trkpt lat="48.80028" lon="2.47162">
        <ele>107.53</ele>
        <time>2019-05-20T20:25:44.999Z</time>
      </trkpt>
      <trkpt lat="48.80038" lon="2.47169">
        <ele>107.11</ele>
        <time>2019-05-20T20:25:46.999Z</time>
      </trkpt>
      <trkpt lat="48.80049" lon="2.47175">
        <ele>106.74</ele>
        <time>2019-05-20T20:25:49.999Z</time>
      </trkpt>
      <trkpt lat="48.80059" lon="2.47182">
        <ele>106.65</ele>
        <time>2019-05-20T20:25:52.999Z</time>
      </trkpt>
      <trkpt lat="48.80068" lon="2.47188">
        <ele>106.64</ele>
        <time>2019-05-20T20:25:56.999Z</time>
      </trkpt>
      <trkpt lat="48.80077" lon="2.47191">
        <ele>105.25</ele>
        <time>2019-05-20T20:29:52.999Z</time>
      </trkpt>
      <trkpt lat="48.80086" lon="2.47201">
        <ele>104.47</ele>
        <time>2019-05-20T20:30:26.999Z</time>
      </trkpt>
      <trkpt lat="48.80095" lon="2.47207">
        <ele>104.33</ele>
        <time>2019-05-20T20:30:29.999Z</time>
      </trkpt>
      <trkpt lat="48.80104" lon="2.47211">
        <ele>104.2</ele>
        <time>2019-05-20T20:30:32.999Z</time>
      </trkpt>
      <trkpt lat="48.80114" lon="2.47216">
        <ele>104.06</ele>
        <time>2019-05-20T20:30:35.999Z</time>
      </trkpt>
      <trkpt lat="48.80127" lon="2.47223">
        <ele>103.19</ele>
        <time>2019-05-20T20:30:38.999Z</time>
      </trkpt>
      <trkpt lat="48.80137" lon="2.47224">
        <ele>102.62</ele>
        <time>2019-05-20T20:30:40.999Z</time>
      </trkpt>
      <trkpt lat="48.80146" lon="2.47222">
        <ele>102.25</ele>
        <time>2019-05-20T20:30:42.999Z</time>
      </trkpt>
      <trkpt lat="48.80156" lon="2.47221">
        <ele>102.02</ele>
        <time>2019-05-20T20:30:44.999Z</time>
      </trkpt>
      <trkpt lat="48.80167" lon="2.4722">
        <ele>101.89</ele>
        <time>2019-05-20T20:30:46.999Z</time>
      </trkpt>
      <trkpt lat="48.80179" lon="2.47216">
        <ele>101.89</ele>
        <time>2019-05-20T20:30:48.999Z</time>
      </trkpt>
      <trkpt lat="48.80188" lon="2.47211">
        <ele>101.92</ele>
        <time>2019-05-20T20:30:50.999Z</time>
      </trkpt>
      <trkpt lat="48.80198" lon="2.47209">
        <ele>101.93</ele>
        <time>2019-05-20T20:30:52.999Z</time>
      </trkpt>
      <trkpt lat="48.80207" lon="2.47208">
        <ele>101.96</ele>
        <time>2019-05-20T20:30:54.999Z</time>
      </trkpt>
      <trkpt lat="48.80219" lon="2.47205">
        <ele>101.98</ele>
        <time>2019-05-20T20:30:56.999Z</time>
      </trkpt>
      <trkpt lat="48.80231" lon="2.47201">
        <ele>102</ele>
        <time>2019-05-20T20:30:58.999Z</time>
      </trkpt>
      <trkpt lat="48.80242" lon="2.47198">
        <ele>102.02</ele>
        <time>2019-05-20T20:31:00.999Z</time>
      </trkpt>
      <trkpt lat="48.80253" lon="2.47195">
        <ele>102.04</ele>
        <time>2019-05-20T20:31:02.999Z</time>
      </trkpt>
      <trkpt lat="48.80265" lon="2.47191">
        <ele>102.05</ele>
        <time>2019-05-20T20:31:04.999Z</time>
      </trkpt>
      <trkpt lat="48.80276" lon="2.47188">
        <ele>102.05</ele>
        <time>2019-05-20T20:31:06.999Z</time>
      </trkpt>
      <trkpt lat="48.80286" lon="2.47185">
        <ele>102.05</ele>
        <time>2019-05-20T20:31:08.999Z</time>
      </trkpt>
      <trkpt lat="48.80297" lon="2.47182">
        <ele>102.05</ele>
        <time>2019-05-20T20:31:10.999Z</time>
      </trkpt>
      <trkpt lat="48.80307" lon="2.47178">
        <ele>102.06</ele>
        <time>2019-05-20T20:31:12.999Z</time>
      </trkpt>
      <trkpt lat="48.80317" lon="2.47176">
        <ele>102.07</ele>
        <time>2019-05-20T20:31:14.999Z</time>
      </trkpt>
      <trkpt lat="48.80327" lon="2.47174">
        <ele>102.08</ele>
        <time>2019-05-20T20:31:16.999Z</time>
      </trkpt>
      <trkpt lat="48.80336" lon="2.47172">
        <ele>102.09</ele>
        <time>2019-05-20T20:31:18.999Z</time>
      </trkpt>
      <trkpt lat="48.80346" lon="2.4717">
        <ele>102.1</ele>
        <time>2019-05-20T20:31:20.999Z</time>
      </trkpt>
      <trkpt lat="48.80355" lon="2.47169">
        <ele>102.12</ele>
        <time>2019-05-20T20:31:22.999Z</time>
      </trkpt>
      <trkpt lat="48.80364" lon="2.47167">
        <ele>102.14</ele>
        <time>2019-05-20T20:31:24.999Z</time>
      </trkpt>
      <trkpt lat="48.80374" lon="2.47168">
        <ele>102.17</ele>
        <time>2019-05-20T20:31:26.999Z</time>
      </trkpt>
      <trkpt lat="48.80387" lon="2.47168">
        <ele>102.2</ele>
        <time>2019-05-20T20:31:29.999Z</time>
      </trkpt>
      <trkpt lat="48.80401" lon="2.4717">
        <ele>102.24</ele>
        <time>2019-05-20T20:31:32.999Z</time>
      </trkpt>
      <trkpt lat="48.8041" lon="2.47173">
        <ele>102.28</ele>
        <time>2019-05-20T20:31:34.999Z</time>
      </trkpt>
      <trkpt lat="48.80421" lon="2.47173">
        <ele>102.31</ele>
        <time>2019-05-20T20:31:36.999Z</time>
      </trkpt>
      <trkpt lat="48.80432" lon="2.47173">
        <ele>102.34</ele>
        <time>2019-05-20T20:31:38.999Z</time>
      </trkpt>
      <trkpt lat="48.80443" lon="2.47171">
        <ele>102.36</ele>
        <time>2019-05-20T20:31:40.999Z</time>
      </trkpt>
      <trkpt lat="48.80454" lon="2.47169">
        <ele>102.38</ele>
        <time>2019-05-20T20:31:42.999Z</time>
      </trkpt>
      <trkpt lat="48.80466" lon="2.47167">
        <ele>102.39</ele>
        <time>2019-05-20T20:31:44.999Z</time>
      </trkpt>
      <trkpt lat="48.80478" lon="2.47166">
        <ele>102.41</ele>
        <time>2019-05-20T20:31:46.999Z</time>
      </trkpt>
      <trkpt lat="48.8049" lon="2.47164">
        <ele>102.45</ele>
        <time>2019-05-20T20:31:48.999Z</time>
      </trkpt>
      <trkpt lat="48.80503" lon="2.47162">
        <ele>102.48</ele>
        <time>2019-05-20T20:31:50.999Z</time>
      </trkpt>
      <trkpt lat="48.80515" lon="2.4716">
        <ele>102.51</ele>
        <time>2019-05-20T20:31:52.999Z</time>
      </trkpt>
      <trkpt lat="48.80528" lon="2.47157">
        <ele>102.54</ele>
        <time>2019-05-20T20:31:54.999Z</time>
      </trkpt>
      <trkpt lat="48.8054" lon="2.47154">
        <ele>102.57</ele>
        <time>2019-05-20T20:31:56.999Z</time>
      </trkpt>
      <trkpt lat="48.80551" lon="2.47151">
        <ele>102.6</ele>
        <time>2019-05-20T20:31:58.999Z</time>
      </trkpt>
      <trkpt lat="48.80564" lon="2.47148">
        <ele>102.63</ele>
        <time>2019-05-20T20:32:00.999Z</time>
      </trkpt>
      <trkpt lat="48.80576" lon="2.47146">
        <ele>102.66</ele>
        <time>2019-05-20T20:32:02.999Z</time>
      </trkpt>
      <trkpt lat="48.80588" lon="2.47144">
        <ele>102.69</ele>
        <time>2019-05-20T20:32:04.999Z</time>
      </trkpt>
      <trkpt lat="48.80598" lon="2.47142">
        <ele>102.73</ele>
        <time>2019-05-20T20:32:06.999Z</time>
      </trkpt>
      <trkpt lat="48.8061" lon="2.47141">
        <ele>102.77</ele>
        <time>2019-05-20T20:32:08.999Z</time>
      </trkpt>
      <trkpt lat="48.8062" lon="2.4714">
        <ele>102.81</ele>
        <time>2019-05-20T20:32:10.999Z</time>
      </trkpt>
      <trkpt lat="48.80633" lon="2.4714">
        <ele>102.83</ele>
        <time>2019-05-20T20:32:13.999Z</time>
      </trkpt>
      <trkpt lat="48.80644" lon="2.47142">
        <ele>102.84</ele>
        <time>2019-05-20T20:32:16.999Z</time>
      </trkpt>
      <trkpt lat="48.80656" lon="2.47141">
        <ele>102.85</ele>
        <time>2019-05-20T20:32:19.999Z</time>
      </trkpt>
      <trkpt lat="48.80665" lon="2.47138">
        <ele>102.87</ele>
        <time>2019-05-20T20:32:22.999Z</time>
      </trkpt>
      <trkpt lat="48.80675" lon="2.47136">
        <ele>102.88</ele>
        <time>2019-05-20T20:32:25.999Z</time>
      </trkpt>
      <trkpt lat="48.80684" lon="2.47134">
        <ele>102.89</ele>
        <time>2019-05-20T20:32:28.999Z</time>
      </trkpt>
      <trkpt lat="48.80693" lon="2.47132">
        <ele>102.91</ele>
        <time>2019-05-20T20:32:31.999Z</time>
      </trkpt>
      <trkpt lat="48.80702" lon="2.47129">
        <ele>102.93</ele>
        <time>2019-05-20T20:32:35.999Z</time>
      </trkpt>
      <trkpt lat="48.80714" lon="2.47131">
        <ele>102.95</ele>
        <time>2019-05-20T20:32:39.999Z</time>
      </trkpt>
      <trkpt lat="48.80724" lon="2.47133">
        <ele>102.97</ele>
        <time>2019-05-20T20:32:42.999Z</time>
      </trkpt>
      <trkpt lat="48.80734" lon="2.47132">
        <ele>103.06</ele>
        <time>2019-05-20T20:32:44.999Z</time>
      </trkpt>
      <trkpt lat="48.80745" lon="2.4713">
        <ele>103.09</ele>
        <time>2019-05-20T20:32:46.999Z</time>
      </trkpt>
      <trkpt lat="48.80756" lon="2.4713">
        <ele>103.11</ele>
        <time>2019-05-20T20:32:49.999Z</time>
      </trkpt>
      <trkpt lat="48.80767" lon="2.47124">
        <ele>103.13</ele>
        <time>2019-05-20T20:32:52.999Z</time>
      </trkpt>
      <trkpt lat="48.8078" lon="2.47118">
        <ele>103.17</ele>
        <time>2019-05-20T20:32:55.999Z</time>
      </trkpt>
      <trkpt lat="48.80793" lon="2.47118">
        <ele>103.18</ele>
        <time>2019-05-20T20:32:57.999Z</time>
      </trkpt>
      <trkpt lat="48.80803" lon="2.47119">
        <ele>103.18</ele>
        <time>2019-05-20T20:32:59.999Z</time>
      </trkpt>
      <trkpt lat="48.80814" lon="2.47122">
        <ele>103.18</ele>
        <time>2019-05-20T20:33:01.999Z</time>
      </trkpt>
      <trkpt lat="48.80825" lon="2.47123">
        <ele>103.19</ele>
        <time>2019-05-20T20:33:03.999Z</time>
      </trkpt>
      <trkpt lat="48.80835" lon="2.47124">
        <ele>103.18</ele>
        <time>2019-05-20T20:33:05.999Z</time>
      </trkpt>
      <trkpt lat="48.80845" lon="2.47123">
        <ele>103.18</ele>
        <time>2019-05-20T20:33:07.999Z</time>
      </trkpt>
      <trkpt lat="48.80859" lon="2.4712">
        <ele>103.18</ele>
        <time>2019-05-20T20:33:09.999Z</time>
      </trkpt>
      <trkpt lat="48.8087" lon="2.47118">
        <ele>103.18</ele>
        <time>2019-05-20T20:33:11.999Z</time>
      </trkpt>
      <trkpt lat="48.80883" lon="2.47117">
        <ele>103.18</ele>
        <time>2019-05-20T20:33:13.999Z</time>
      </trkpt>
      <trkpt lat="48.80895" lon="2.47118">
        <ele>103.17</ele>
        <time>2019-05-20T20:33:15.999Z</time>
      </trkpt>
      <trkpt lat="48.80906" lon="2.47118">
        <ele>103.17</ele>
        <time>2019-05-20T20:33:17.999Z</time>
      </trkpt>
      <trkpt lat="48.80917" lon="2.47118">
        <ele>103.17</ele>
        <time>2019-05-20T20:33:19.999Z</time>
      </trkpt>
      <trkpt lat="48.80928" lon="2.47118">
        <ele>103.17</ele>
        <time>2019-05-20T20:33:21.999Z</time>
      </trkpt>
      <trkpt lat="48.8094" lon="2.47117">
        <ele>103.17</ele>
        <time>2019-05-20T20:33:24.999Z</time>
      </trkpt>
      <trkpt lat="48.80951" lon="2.47118">
        <ele>103.17</ele>
        <time>2019-05-20T20:33:27.999Z</time>
      </trkpt>
      <trkpt lat="48.80962" lon="2.47123">
        <ele>103.17</ele>
        <time>2019-05-20T20:33:30.999Z</time>
      </trkpt>
      <trkpt lat="48.80971" lon="2.47128">
        <ele>103.17</ele>
        <time>2019-05-20T20:33:33.999Z</time>
      </trkpt>
      <trkpt lat="48.80982" lon="2.4713">
        <ele>103.18</ele>
        <time>2019-05-20T20:33:38.999Z</time>
      </trkpt>
      <trkpt lat="48.80993" lon="2.47129">
        <ele>103.21</ele>
        <time>2019-05-20T20:33:44.999Z</time>
      </trkpt>
      <trkpt lat="48.81002" lon="2.47126">
        <ele>103.25</ele>
        <time>2019-05-20T20:33:55.999Z</time>
      </trkpt>
      <trkpt lat="48.81001" lon="2.4711">
        <ele>102.96</ele>
        <time>2019-05-20T20:34:31.999Z</time>
      </trkpt>
      <trkpt lat="48.81005" lon="2.47097">
        <ele>102.87</ele>
        <time>2019-05-20T20:34:35.999Z</time>
      </trkpt>
      <trkpt lat="48.81014" lon="2.47087">
        <ele>102.76</ele>
        <time>2019-05-20T20:34:40.999Z</time>
      </trkpt>
      <trkpt lat="48.81024" lon="2.4708">
        <ele>102.7</ele>
        <time>2019-05-20T20:34:43.999Z</time>
      </trkpt>
      <trkpt lat="48.81033" lon="2.47072">
        <ele>102.63</ele>
        <time>2019-05-20T20:34:47.999Z</time>
      </trkpt>
      <trkpt lat="48.81043" lon="2.47064">
        <ele>102.58</ele>
        <time>2019-05-20T20:34:50.999Z</time>
      </trkpt>
      <trkpt lat="48.81051" lon="2.47055">
        <ele>102.53</ele>
        <time>2019-05-20T20:34:53.999Z</time>
      </trkpt>
      <trkpt lat="48.8106" lon="2.47047">
        <ele>102.48</ele>
        <time>2019-05-20T20:34:57.999Z</time>
      </trkpt>
      <trkpt lat="48.81069" lon="2.4704">
        <ele>102.45</ele>
        <time>2019-05-20T20:35:01.999Z</time>
      </trkpt>
      <trkpt lat="48.81077" lon="2.47027">
        <ele>102.42</ele>
        <time>2019-05-20T20:35:05.999Z</time>
      </trkpt>
      <trkpt lat="48.81081" lon="2.47014">
        <ele>102.4</ele>
        <time>2019-05-20T20:35:08.999Z</time>
      </trkpt>
      <trkpt lat="48.81089" lon="2.47004">
        <ele>102.39</ele>
        <time>2019-05-20T20:35:11.999Z</time>
      </trkpt>
      <trkpt lat="48.81096" lon="2.46992">
        <ele>102.38</ele>
        <time>2019-05-20T20:35:14.999Z</time>
      </trkpt>
      <trkpt lat="48.81104" lon="2.46984">
        <ele>102.37</ele>
        <time>2019-05-20T20:35:17.999Z</time>
      </trkpt>
      <trkpt lat="48.81113" lon="2.46977">
        <ele>102.38</ele>
        <time>2019-05-20T20:35:20.999Z</time>
      </trkpt>
      <trkpt lat="48.81121" lon="2.46966">
        <ele>102.38</ele>
        <time>2019-05-20T20:35:23.999Z</time>
      </trkpt>
      <trkpt lat="48.81129" lon="2.46958">
        <ele>102.4</ele>
        <time>2019-05-20T20:35:26.999Z</time>
      </trkpt>
      <trkpt lat="48.81139" lon="2.46948">
        <ele>102.41</ele>
        <time>2019-05-20T20:35:30.999Z</time>
      </trkpt>
      <trkpt lat="48.81147" lon="2.46941">
        <ele>102.42</ele>
        <time>2019-05-20T20:35:33.999Z</time>
      </trkpt>
      <trkpt lat="48.81158" lon="2.46936">
        <ele>102.43</ele>
        <time>2019-05-20T20:35:37.999Z</time>
      </trkpt>
      <trkpt lat="48.81168" lon="2.46927">
        <ele>102.44</ele>
        <time>2019-05-20T20:35:41.999Z</time>
      </trkpt>
      <trkpt lat="48.81175" lon="2.46918">
        <ele>102.45</ele>
        <time>2019-05-20T20:35:45.999Z</time>
      </trkpt>
      <trkpt lat="48.81182" lon="2.46908">
        <ele>102.47</ele>
        <time>2019-05-20T20:35:50.999Z</time>
      </trkpt>
      <trkpt lat="48.81189" lon="2.46896">
        <ele>102.49</ele>
        <time>2019-05-20T20:35:56.999Z</time>
      </trkpt>
      <trkpt lat="48.8119" lon="2.46882">
        <ele>102.62</ele>
        <time>2019-05-20T20:36:59.999Z</time>
      </trkpt>
      <trkpt lat="48.81197" lon="2.46874">
        <ele>102.86</ele>
        <time>2019-05-20T20:37:48.999Z</time>
      </trkpt>
      <trkpt lat="48.81204" lon="2.46863">
        <ele>102.89</ele>
        <time>2019-05-20T20:37:53.999Z</time>
      </trkpt>
      <trkpt lat="48.81214" lon="2.46854">
        <ele>102.92</ele>
        <time>2019-05-20T20:37:57.999Z</time>
      </trkpt>
      <trkpt lat="48.81221" lon="2.46845">
        <ele>102.94</ele>
        <time>2019-05-20T20:38:01.999Z</time>
      </trkpt>
      <trkpt lat="48.81228" lon="2.46834">
        <ele>102.97</ele>
        <time>2019-05-20T20:38:07.999Z</time>
      </trkpt>
      <trkpt lat="48.81231" lon="2.4682">
        <ele>103.04</ele>
        <time>2019-05-20T20:38:17.999Z</time>
      </trkpt>
      <trkpt lat="48.81236" lon="2.46806">
        <ele>103.07</ele>
        <time>2019-05-20T20:38:43.999Z</time>
      </trkpt>
      <trkpt lat="48.81242" lon="2.46792">
        <ele>103.08</ele>
        <time>2019-05-20T20:38:47.999Z</time>
      </trkpt>
      <trkpt lat="48.81249" lon="2.46777">
        <ele>103.09</ele>
        <time>2019-05-20T20:38:51.999Z</time>
      </trkpt>
      <trkpt lat="48.81257" lon="2.46765">
        <ele>103.1</ele>
        <time>2019-05-20T20:38:54.999Z</time>
      </trkpt>
      <trkpt lat="48.81266" lon="2.46754">
        <ele>103.11</ele>
        <time>2019-05-20T20:38:57.999Z</time>
      </trkpt>
      <trkpt lat="48.81274" lon="2.4674">
        <ele>103.18</ele>
        <time>2019-05-20T20:39:00.999Z</time>
      </trkpt>
      <trkpt lat="48.81282" lon="2.46727">
        <ele>103.21</ele>
        <time>2019-05-20T20:39:03.999Z</time>
      </trkpt>
      <trkpt lat="48.81292" lon="2.46714">
        <ele>103.24</ele>
        <time>2019-05-20T20:39:06.999Z</time>
      </trkpt>
      <trkpt lat="48.813" lon="2.467">
        <ele>103.25</ele>
        <time>2019-05-20T20:39:09.999Z</time>
      </trkpt>
      <trkpt lat="48.81309" lon="2.46686">
        <ele>103.25</ele>
        <time>2019-05-20T20:39:12.999Z</time>
      </trkpt>
      <trkpt lat="48.81315" lon="2.46675">
        <ele>103.23</ele>
        <time>2019-05-20T20:39:14.999Z</time>
      </trkpt>
      <trkpt lat="48.81324" lon="2.4666">
        <ele>103.22</ele>
        <time>2019-05-20T20:39:17.999Z</time>
      </trkpt>
      <trkpt lat="48.81332" lon="2.46645">
        <ele>103.22</ele>
        <time>2019-05-20T20:39:20.999Z</time>
      </trkpt>
      <trkpt lat="48.81339" lon="2.46634">
        <ele>103.24</ele>
        <time>2019-05-20T20:39:22.999Z</time>
      </trkpt>
      <trkpt lat="48.81344" lon="2.46623">
        <ele>103.26</ele>
        <time>2019-05-20T20:39:24.999Z</time>
      </trkpt>
      <trkpt lat="48.81351" lon="2.46606">
        <ele>103.3</ele>
        <time>2019-05-20T20:39:27.999Z</time>
      </trkpt>
      <trkpt lat="48.81356" lon="2.46595">
        <ele>103.34</ele>
        <time>2019-05-20T20:39:29.999Z</time>
      </trkpt>
      <trkpt lat="48.81365" lon="2.4658">
        <ele>103.39</ele>
        <time>2019-05-20T20:39:32.999Z</time>
      </trkpt>
      <trkpt lat="48.81372" lon="2.46568">
        <ele>103.42</ele>
        <time>2019-05-20T20:39:34.999Z</time>
      </trkpt>
      <trkpt lat="48.81379" lon="2.46559">
        <ele>103.43</ele>
        <time>2019-05-20T20:39:36.999Z</time>
      </trkpt>
      <trkpt lat="48.81387" lon="2.46551">
        <ele>103.45</ele>
        <time>2019-05-20T20:39:38.999Z</time>
      </trkpt>
      <trkpt lat="48.81396" lon="2.46544">
        <ele>103.49</ele>
        <time>2019-05-20T20:39:40.999Z</time>
      </trkpt>
      <trkpt lat="48.81405" lon="2.46535">
        <ele>103.52</ele>
        <time>2019-05-20T20:39:42.999Z</time>
      </trkpt>
      <trkpt lat="48.81417" lon="2.46528">
        <ele>103.55</ele>
        <time>2019-05-20T20:39:45.999Z</time>
      </trkpt>
      <trkpt lat="48.81424" lon="2.46517">
        <ele>103.58</ele>
        <time>2019-05-20T20:39:47.999Z</time>
      </trkpt>
      <trkpt lat="48.81432" lon="2.46512">
        <ele>103.6</ele>
        <time>2019-05-20T20:39:49.999Z</time>
      </trkpt>
      <trkpt lat="48.81442" lon="2.46493">
        <ele>103.64</ele>
        <time>2019-05-20T20:39:52.999Z</time>
      </trkpt>
      <trkpt lat="48.81442" lon="2.46478">
        <ele>103.7</ele>
        <time>2019-05-20T20:39:54.999Z</time>
      </trkpt>
      <trkpt lat="48.81447" lon="2.46466">
        <ele>103.74</ele>
        <time>2019-05-20T20:39:56.999Z</time>
      </trkpt>
      <trkpt lat="48.81449" lon="2.46446">
        <ele>103.76</ele>
        <time>2019-05-20T20:39:58.999Z</time>
      </trkpt>
      <trkpt lat="48.81455" lon="2.4643">
        <ele>103.8</ele>
        <time>2019-05-20T20:40:00.999Z</time>
      </trkpt>
      <trkpt lat="48.81458" lon="2.46415">
        <ele>103.83</ele>
        <time>2019-05-20T20:40:02.999Z</time>
      </trkpt>
      <trkpt lat="48.81462" lon="2.46399">
        <ele>103.83</ele>
        <time>2019-05-20T20:40:04.999Z</time>
      </trkpt>
      <trkpt lat="48.81471" lon="2.46385">
        <ele>103.83</ele>
        <time>2019-05-20T20:40:07.999Z</time>
      </trkpt>
      <trkpt lat="48.81476" lon="2.46363">
        <ele>103.83</ele>
        <time>2019-05-20T20:40:10.999Z</time>
      </trkpt>
      <trkpt lat="48.81483" lon="2.46352">
        <ele>103.83</ele>
        <time>2019-05-20T20:40:13.999Z</time>
      </trkpt>
      <trkpt lat="48.81487" lon="2.46337">
        <ele>103.83</ele>
        <time>2019-05-20T20:40:17.999Z</time>
      </trkpt>
      <trkpt lat="48.81487" lon="2.46321">
        <ele>103.84</ele>
        <time>2019-05-20T20:40:29.999Z</time>
      </trkpt>
      <trkpt lat="48.81488" lon="2.46305">
        <ele>103.85</ele>
        <time>2019-05-20T20:40:34.999Z</time>
      </trkpt>
      <trkpt lat="48.81489" lon="2.46289">
        <ele>103.85</ele>
        <time>2019-05-20T20:40:39.999Z</time>
      </trkpt>
      <trkpt lat="48.81496" lon="2.46297">
        <ele>103.93</ele>
        <time>2019-05-20T20:41:11.999Z</time>
      </trkpt>
      <trkpt lat="48.81503" lon="2.46306">
        <ele>103.99</ele>
        <time>2019-05-20T20:41:21.999Z</time>
      </trkpt>
      <trkpt lat="48.81497" lon="2.46296">
        <ele>104.04</ele>
        <time>2019-05-20T20:41:29.999Z</time>
      </trkpt>
      <trkpt lat="48.81488" lon="2.46283">
        <ele>104.05</ele>
        <time>2019-05-20T20:41:33.999Z</time>
      </trkpt>
      <trkpt lat="48.81482" lon="2.46271">
        <ele>104.05</ele>
        <time>2019-05-20T20:41:36.999Z</time>
      </trkpt>
      <trkpt lat="48.81478" lon="2.46256">
        <ele>104.05</ele>
        <time>2019-05-20T20:41:39.999Z</time>
      </trkpt>
      <trkpt lat="48.81469" lon="2.46241">
        <ele>104.05</ele>
        <time>2019-05-20T20:41:42.999Z</time>
      </trkpt>
      <trkpt lat="48.81466" lon="2.46225">
        <ele>104.04</ele>
        <time>2019-05-20T20:41:48.999Z</time>
      </trkpt>
      <trkpt lat="48.81472" lon="2.46211">
        <ele>104.03</ele>
        <time>2019-05-20T20:41:51.999Z</time>
      </trkpt>
      <trkpt lat="48.81482" lon="2.46198">
        <ele>103.98</ele>
        <time>2019-05-20T20:41:54.999Z</time>
      </trkpt>
      <trkpt lat="48.81492" lon="2.46183">
        <ele>103.98</ele>
        <time>2019-05-20T20:41:57.999Z</time>
      </trkpt>
      <trkpt lat="48.81498" lon="2.46173">
        <ele>103.99</ele>
        <time>2019-05-20T20:41:59.999Z</time>
      </trkpt>
      <trkpt lat="48.81508" lon="2.46159">
        <ele>104</ele>
        <time>2019-05-20T20:42:02.999Z</time>
      </trkpt>
      <trkpt lat="48.81515" lon="2.46149">
        <ele>104</ele>
        <time>2019-05-20T20:42:04.999Z</time>
      </trkpt>
      <trkpt lat="48.81522" lon="2.46141">
        <ele>104</ele>
        <time>2019-05-20T20:42:06.999Z</time>
      </trkpt>
      <trkpt lat="48.8153" lon="2.46132">
        <ele>104.02</ele>
        <time>2019-05-20T20:42:08.999Z</time>
      </trkpt>
      <trkpt lat="48.8154" lon="2.4612">
        <ele>104.03</ele>
        <time>2019-05-20T20:42:11.999Z</time>
      </trkpt>
      <trkpt lat="48.81548" lon="2.46106">
        <ele>104.05</ele>
        <time>2019-05-20T20:42:14.999Z</time>
      </trkpt>
      <trkpt lat="48.81558" lon="2.46093">
        <ele>104.1</ele>
        <time>2019-05-20T20:42:17.999Z</time>
      </trkpt>
      <trkpt lat="48.81567" lon="2.46079">
        <ele>104.15</ele>
        <time>2019-05-20T20:42:20.999Z</time>
      </trkpt>
      <trkpt lat="48.81574" lon="2.46066">
        <ele>104.19</ele>
        <time>2019-05-20T20:42:23.999Z</time>
      </trkpt>
      <trkpt lat="48.81583" lon="2.46052">
        <ele>104.23</ele>
        <time>2019-05-20T20:42:26.999Z</time>
      </trkpt>
      <trkpt lat="48.81588" lon="2.46041">
        <ele>104.27</ele>
        <time>2019-05-20T20:42:28.999Z</time>
      </trkpt>
      <trkpt lat="48.81596" lon="2.46024">
        <ele>104.31</ele>
        <time>2019-05-20T20:42:31.999Z</time>
      </trkpt>
      <trkpt lat="48.81598" lon="2.46006">
        <ele>104.32</ele>
        <time>2019-05-20T20:42:33.999Z</time>
      </trkpt>
      <trkpt lat="48.81603" lon="2.45993">
        <ele>104.31</ele>
        <time>2019-05-20T20:42:35.999Z</time>
      </trkpt>
      <trkpt lat="48.81607" lon="2.45973">
        <ele>104.3</ele>
        <time>2019-05-20T20:42:38.999Z</time>
      </trkpt>
      <trkpt lat="48.81609" lon="2.45959">
        <ele>104.32</ele>
        <time>2019-05-20T20:42:40.999Z</time>
      </trkpt>
      <trkpt lat="48.81611" lon="2.45943">
        <ele>104.34</ele>
        <time>2019-05-20T20:42:42.999Z</time>
      </trkpt>
      <trkpt lat="48.81614" lon="2.45926">
        <ele>104.36</ele>
        <time>2019-05-20T20:42:44.999Z</time>
      </trkpt>
      <trkpt lat="48.81617" lon="2.4591">
        <ele>104.37</ele>
        <time>2019-05-20T20:42:46.999Z</time>
      </trkpt>
      <trkpt lat="48.81621" lon="2.45898">
        <ele>104.38</ele>
        <time>2019-05-20T20:42:48.999Z</time>
      </trkpt>
      <trkpt lat="48.81625" lon="2.45885">
        <ele>104.39</ele>
        <time>2019-05-20T20:42:50.999Z</time>
      </trkpt>
      <trkpt lat="48.81629" lon="2.45869">
        <ele>104.4</ele>
        <time>2019-05-20T20:42:52.999Z</time>
      </trkpt>
      <trkpt lat="48.81633" lon="2.45852">
        <ele>104.41</ele>
        <time>2019-05-20T20:42:54.999Z</time>
      </trkpt>
      <trkpt lat="48.81634" lon="2.45834">
        <ele>104.42</ele>
        <time>2019-05-20T20:42:56.999Z</time>
      </trkpt>
      <trkpt lat="48.81636" lon="2.45821">
        <ele>104.44</ele>
        <time>2019-05-20T20:42:58.999Z</time>
      </trkpt>
      <trkpt lat="48.81639" lon="2.45801">
        <ele>104.47</ele>
        <time>2019-05-20T20:43:00.999Z</time>
      </trkpt>
      <trkpt lat="48.8164" lon="2.45785">
        <ele>104.5</ele>
        <time>2019-05-20T20:43:02.999Z</time>
      </trkpt>
      <trkpt lat="48.81643" lon="2.4577">
        <ele>104.52</ele>
        <time>2019-05-20T20:43:04.999Z</time>
      </trkpt>
      <trkpt lat="48.81646" lon="2.45756">
        <ele>104.53</ele>
        <time>2019-05-20T20:43:06.999Z</time>
      </trkpt>
      <trkpt lat="48.81651" lon="2.4574">
        <ele>104.54</ele>
        <time>2019-05-20T20:43:08.999Z</time>
      </trkpt>
      <trkpt lat="48.81656" lon="2.45724">
        <ele>104.54</ele>
        <time>2019-05-20T20:43:10.999Z</time>
      </trkpt>
      <trkpt lat="48.81659" lon="2.4571">
        <ele>104.55</ele>
        <time>2019-05-20T20:43:12.999Z</time>
      </trkpt>
      <trkpt lat="48.81663" lon="2.45697">
        <ele>104.56</ele>
        <time>2019-05-20T20:43:14.999Z</time>
      </trkpt>
      <trkpt lat="48.81667" lon="2.45683">
        <ele>104.57</ele>
        <time>2019-05-20T20:43:16.999Z</time>
      </trkpt>
      <trkpt lat="48.81671" lon="2.45668">
        <ele>104.58</ele>
        <time>2019-05-20T20:43:18.999Z</time>
      </trkpt>
      <trkpt lat="48.81675" lon="2.45653">
        <ele>104.59</ele>
        <time>2019-05-20T20:43:20.999Z</time>
      </trkpt>
      <trkpt lat="48.81679" lon="2.45638">
        <ele>104.61</ele>
        <time>2019-05-20T20:43:22.999Z</time>
      </trkpt>
      <trkpt lat="48.81683" lon="2.45625">
        <ele>104.62</ele>
        <time>2019-05-20T20:43:24.999Z</time>
      </trkpt>
      <trkpt lat="48.81686" lon="2.45612">
        <ele>104.63</ele>
        <time>2019-05-20T20:43:26.999Z</time>
      </trkpt>
      <trkpt lat="48.8169" lon="2.45595">
        <ele>104.63</ele>
        <time>2019-05-20T20:43:29.999Z</time>
      </trkpt>
      <trkpt lat="48.81695" lon="2.4558">
        <ele>104.63</ele>
        <time>2019-05-20T20:43:33.999Z</time>
      </trkpt>
      <trkpt lat="48.81698" lon="2.45567">
        <ele>104.64</ele>
        <time>2019-05-20T20:43:37.999Z</time>
      </trkpt>
      <trkpt lat="48.81703" lon="2.4555">
        <ele>104.64</ele>
        <time>2019-05-20T20:43:41.999Z</time>
      </trkpt>
      <trkpt lat="48.81707" lon="2.45534">
        <ele>104.65</ele>
        <time>2019-05-20T20:43:44.999Z</time>
      </trkpt>
      <trkpt lat="48.81708" lon="2.45521">
        <ele>104.65</ele>
        <time>2019-05-20T20:43:46.999Z</time>
      </trkpt>
      <trkpt lat="48.81709" lon="2.45506">
        <ele>104.62</ele>
        <time>2019-05-20T20:43:48.999Z</time>
      </trkpt>
      <trkpt lat="48.8172" lon="2.45289">
        <ele>104.53</ele>
        <time>2019-05-20T20:44:21.999Z</time>
      </trkpt>
      <trkpt lat="48.8173" lon="2.45283">
        <ele>104.54</ele>
        <time>2019-05-20T20:44:25.999Z</time>
      </trkpt>
      <trkpt lat="48.81732" lon="2.45267">
        <ele>104.44</ele>
        <time>2019-05-20T20:44:46.999Z</time>
      </trkpt>
      <trkpt lat="48.81735" lon="2.4525">
        <ele>104.42</ele>
        <time>2019-05-20T20:44:51.999Z</time>
      </trkpt>
      <trkpt lat="48.81741" lon="2.45237">
        <ele>104.36</ele>
        <time>2019-05-20T20:44:53.999Z</time>
      </trkpt>
      <trkpt lat="48.81745" lon="2.4522">
        <ele>104.19</ele>
        <time>2019-05-20T20:44:57.999Z</time>
      </trkpt>
      <trkpt lat="48.81749" lon="2.45202">
        <ele>103.29</ele>
        <time>2019-05-20T20:45:00.999Z</time>
      </trkpt>
      <trkpt lat="48.81754" lon="2.45189">
        <ele>102.78</ele>
        <time>2019-05-20T20:45:02.999Z</time>
      </trkpt>
      <trkpt lat="48.81759" lon="2.45173">
        <ele>102.45</ele>
        <time>2019-05-20T20:45:04.999Z</time>
      </trkpt>
      <trkpt lat="48.81765" lon="2.45157">
        <ele>102.19</ele>
        <time>2019-05-20T20:45:06.999Z</time>
      </trkpt>
      <trkpt lat="48.8177" lon="2.45139">
        <ele>101.96</ele>
        <time>2019-05-20T20:45:08.999Z</time>
      </trkpt>
      <trkpt lat="48.81775" lon="2.45117">
        <ele>101.69</ele>
        <time>2019-05-20T20:45:10.999Z</time>
      </trkpt>
      <trkpt lat="48.81777" lon="2.45094">
        <ele>101.37</ele>
        <time>2019-05-20T20:45:12.999Z</time>
      </trkpt>
      <trkpt lat="48.81779" lon="2.45072">
        <ele>101.05</ele>
        <time>2019-05-20T20:45:14.999Z</time>
      </trkpt>
      <trkpt lat="48.81783" lon="2.4505">
        <ele>100.71</ele>
        <time>2019-05-20T20:45:16.999Z</time>
      </trkpt>
      <trkpt lat="48.81786" lon="2.4503">
        <ele>100.46</ele>
        <time>2019-05-20T20:45:18.999Z</time>
      </trkpt>
      <trkpt lat="48.81789" lon="2.45009">
        <ele>100.21</ele>
        <time>2019-05-20T20:45:20.999Z</time>
      </trkpt>
      <trkpt lat="48.81792" lon="2.44988">
        <ele>99.99</ele>
        <time>2019-05-20T20:45:22.999Z</time>
      </trkpt>
      <trkpt lat="48.81796" lon="2.44957">
        <ele>99.65</ele>
        <time>2019-05-20T20:45:25.999Z</time>
      </trkpt>
      <trkpt lat="48.81797" lon="2.44936">
        <ele>99.45</ele>
        <time>2019-05-20T20:45:27.999Z</time>
      </trkpt>
      <trkpt lat="48.81797" lon="2.44915">
        <ele>99.22</ele>
        <time>2019-05-20T20:45:29.999Z</time>
      </trkpt>
      <trkpt lat="48.81799" lon="2.44881">
        <ele>98.79</ele>
        <time>2019-05-20T20:45:32.999Z</time>
      </trkpt>
      <trkpt lat="48.81799" lon="2.44859">
        <ele>98.51</ele>
        <time>2019-05-20T20:45:34.999Z</time>
      </trkpt>
      <trkpt lat="48.81799" lon="2.4484">
        <ele>98.23</ele>
        <time>2019-05-20T20:45:36.999Z</time>
      </trkpt>
      <trkpt lat="48.818" lon="2.44812">
        <ele>97.82</ele>
        <time>2019-05-20T20:45:39.999Z</time>
      </trkpt>
      <trkpt lat="48.81801" lon="2.44792">
        <ele>97.6</ele>
        <time>2019-05-20T20:45:41.999Z</time>
      </trkpt>
      <trkpt lat="48.81802" lon="2.44761">
        <ele>97.3</ele>
        <time>2019-05-20T20:45:44.999Z</time>
      </trkpt>
      <trkpt lat="48.81802" lon="2.44742">
        <ele>97.08</ele>
        <time>2019-05-20T20:45:46.999Z</time>
      </trkpt>
      <trkpt lat="48.81801" lon="2.44725">
        <ele>96.85</ele>
        <time>2019-05-20T20:45:48.999Z</time>
      </trkpt>
      <trkpt lat="48.818" lon="2.44706">
        <ele>96.65</ele>
        <time>2019-05-20T20:45:50.999Z</time>
      </trkpt>
      <trkpt lat="48.81799" lon="2.44687">
        <ele>96.48</ele>
        <time>2019-05-20T20:45:52.999Z</time>
      </trkpt>
      <trkpt lat="48.81801" lon="2.44669">
        <ele>96.36</ele>
        <time>2019-05-20T20:45:54.999Z</time>
      </trkpt>
      <trkpt lat="48.81801" lon="2.4465">
        <ele>96.26</ele>
        <time>2019-05-20T20:45:56.999Z</time>
      </trkpt>
      <trkpt lat="48.81801" lon="2.44628">
        <ele>96.14</ele>
        <time>2019-05-20T20:45:58.999Z</time>
      </trkpt>
      <trkpt lat="48.81801" lon="2.44608">
        <ele>96.04</ele>
        <time>2019-05-20T20:46:00.999Z</time>
      </trkpt>
      <trkpt lat="48.81801" lon="2.44587">
        <ele>95.95</ele>
        <time>2019-05-20T20:46:02.999Z</time>
      </trkpt>
      <trkpt lat="48.81801" lon="2.44567">
        <ele>95.92</ele>
        <time>2019-05-20T20:46:04.999Z</time>
      </trkpt>
      <trkpt lat="48.81799" lon="2.44546">
        <ele>95.92</ele>
        <time>2019-05-20T20:46:06.999Z</time>
      </trkpt>
      <trkpt lat="48.81798" lon="2.44524">
        <ele>96.04</ele>
        <time>2019-05-20T20:46:08.999Z</time>
      </trkpt>
      <trkpt lat="48.81796" lon="2.44504">
        <ele>96.07</ele>
        <time>2019-05-20T20:46:10.999Z</time>
      </trkpt>
      <trkpt lat="48.81794" lon="2.44484">
        <ele>96.01</ele>
        <time>2019-05-20T20:46:12.999Z</time>
      </trkpt>
      <trkpt lat="48.81792" lon="2.44465">
        <ele>95.67</ele>
        <time>2019-05-20T20:46:14.999Z</time>
      </trkpt>
      <trkpt lat="48.81791" lon="2.44442">
        <ele>96.03</ele>
        <time>2019-05-20T20:46:16.999Z</time>
      </trkpt>
      <trkpt lat="48.8179" lon="2.44421">
        <ele>96.14</ele>
        <time>2019-05-20T20:46:18.999Z</time>
      </trkpt>
      <trkpt lat="48.81792" lon="2.44399">
        <ele>96.22</ele>
        <time>2019-05-20T20:46:20.999Z</time>
      </trkpt>
      <trkpt lat="48.81791" lon="2.44376">
        <ele>95.97</ele>
        <time>2019-05-20T20:46:22.999Z</time>
      </trkpt>
      <trkpt lat="48.81793" lon="2.44353">
        <ele>95.86</ele>
        <time>2019-05-20T20:46:24.999Z</time>
      </trkpt>
      <trkpt lat="48.81794" lon="2.44329">
        <ele>95.87</ele>
        <time>2019-05-20T20:46:26.999Z</time>
      </trkpt>
      <trkpt lat="48.81794" lon="2.44307">
        <ele>95.93</ele>
        <time>2019-05-20T20:46:28.999Z</time>
      </trkpt>
      <trkpt lat="48.81792" lon="2.44286">
        <ele>95.97</ele>
        <time>2019-05-20T20:46:30.999Z</time>
      </trkpt>
      <trkpt lat="48.81794" lon="2.44265">
        <ele>96.12</ele>
        <time>2019-05-20T20:46:32.999Z</time>
      </trkpt>
      <trkpt lat="48.81794" lon="2.44243">
        <ele>96.43</ele>
        <time>2019-05-20T20:46:34.999Z</time>
      </trkpt>
      <trkpt lat="48.81796" lon="2.44223">
        <ele>96.52</ele>
        <time>2019-05-20T20:46:36.999Z</time>
      </trkpt>
      <trkpt lat="48.81798" lon="2.44205">
        <ele>96.16</ele>
        <time>2019-05-20T20:46:38.999Z</time>
      </trkpt>
      <trkpt lat="48.81801" lon="2.44186">
        <ele>96.3</ele>
        <time>2019-05-20T20:46:40.999Z</time>
      </trkpt>
      <trkpt lat="48.81805" lon="2.44167">
        <ele>96.38</ele>
        <time>2019-05-20T20:46:42.999Z</time>
      </trkpt>
      <trkpt lat="48.8181" lon="2.44147">
        <ele>96.47</ele>
        <time>2019-05-20T20:46:44.999Z</time>
      </trkpt>
      <trkpt lat="48.81814" lon="2.44129">
        <ele>96.88</ele>
        <time>2019-05-20T20:46:46.999Z</time>
      </trkpt>
      <trkpt lat="48.81817" lon="2.44112">
        <ele>97.12</ele>
        <time>2019-05-20T20:46:48.999Z</time>
      </trkpt>
      <trkpt lat="48.81818" lon="2.44095">
        <ele>97.12</ele>
        <time>2019-05-20T20:46:50.999Z</time>
      </trkpt>
      <trkpt lat="48.81822" lon="2.44077">
        <ele>97.35</ele>
        <time>2019-05-20T20:46:52.999Z</time>
      </trkpt>
      <trkpt lat="48.81825" lon="2.44058">
        <ele>98.27</ele>
        <time>2019-05-20T20:46:54.999Z</time>
      </trkpt>
      <trkpt lat="48.81827" lon="2.44043">
        <ele>99.05</ele>
        <time>2019-05-20T20:46:56.999Z</time>
      </trkpt>
      <trkpt lat="48.8183" lon="2.44028">
        <ele>99.14</ele>
        <time>2019-05-20T20:46:58.999Z</time>
      </trkpt>
      <trkpt lat="48.81833" lon="2.44014">
        <ele>98.92</ele>
        <time>2019-05-20T20:47:00.999Z</time>
      </trkpt>
      <trkpt lat="48.81835" lon="2.43998">
        <ele>98.76</ele>
        <time>2019-05-20T20:47:02.999Z</time>
      </trkpt>
      <trkpt lat="48.81837" lon="2.43981">
        <ele>98.6</ele>
        <time>2019-05-20T20:47:04.999Z</time>
      </trkpt>
      <trkpt lat="48.81836" lon="2.43961">
        <ele>98.28</ele>
        <time>2019-05-20T20:47:06.999Z</time>
      </trkpt>
      <trkpt lat="48.81835" lon="2.43941">
        <ele>97.84</ele>
        <time>2019-05-20T20:47:08.999Z</time>
      </trkpt>
      <trkpt lat="48.81834" lon="2.43917">
        <ele>97.71</ele>
        <time>2019-05-20T20:47:10.999Z</time>
      </trkpt>
      <trkpt lat="48.81833" lon="2.43894">
        <ele>97.53</ele>
        <time>2019-05-20T20:47:12.999Z</time>
      </trkpt>
      <trkpt lat="48.81833" lon="2.43872">
        <ele>97.26</ele>
        <time>2019-05-20T20:47:14.999Z</time>
      </trkpt>
      <trkpt lat="48.81832" lon="2.43848">
        <ele>96.58</ele>
        <time>2019-05-20T20:47:16.999Z</time>
      </trkpt>
      <trkpt lat="48.8183" lon="2.43825">
        <ele>96.03</ele>
        <time>2019-05-20T20:47:18.999Z</time>
      </trkpt>
      <trkpt lat="48.81828" lon="2.438">
        <ele>95.6</ele>
        <time>2019-05-20T20:47:20.999Z</time>
      </trkpt>
      <trkpt lat="48.81825" lon="2.43774">
        <ele>96.01</ele>
        <time>2019-05-20T20:47:22.999Z</time>
      </trkpt>
      <trkpt lat="48.81825" lon="2.43751">
        <ele>95.78</ele>
        <time>2019-05-20T20:47:24.999Z</time>
      </trkpt>
      <trkpt lat="48.81823" lon="2.43728">
        <ele>95.63</ele>
        <time>2019-05-20T20:47:26.999Z</time>
      </trkpt>
      <trkpt lat="48.81825" lon="2.43703">
        <ele>95.75</ele>
        <time>2019-05-20T20:47:28.999Z</time>
      </trkpt>
      <trkpt lat="48.81825" lon="2.4368">
        <ele>95.65</ele>
        <time>2019-05-20T20:47:30.999Z</time>
      </trkpt>
      <trkpt lat="48.81826" lon="2.43657">
        <ele>95.58</ele>
        <time>2019-05-20T20:47:32.999Z</time>
      </trkpt>
      <trkpt lat="48.81826" lon="2.43635">
        <ele>95.25</ele>
        <time>2019-05-20T20:47:34.999Z</time>
      </trkpt>
      <trkpt lat="48.81826" lon="2.43612">
        <ele>95.11</ele>
        <time>2019-05-20T20:47:36.999Z</time>
      </trkpt>
      <trkpt lat="48.81825" lon="2.43589">
        <ele>95.41</ele>
        <time>2019-05-20T20:47:38.999Z</time>
      </trkpt>
      <trkpt lat="48.81825" lon="2.43566">
        <ele>95.56</ele>
        <time>2019-05-20T20:47:40.999Z</time>
      </trkpt>
      <trkpt lat="48.81823" lon="2.43544">
        <ele>95.72</ele>
        <time>2019-05-20T20:47:42.999Z</time>
      </trkpt>
      <trkpt lat="48.81821" lon="2.43521">
        <ele>95.88</ele>
        <time>2019-05-20T20:47:44.999Z</time>
      </trkpt>
      <trkpt lat="48.81821" lon="2.43498">
        <ele>96.08</ele>
        <time>2019-05-20T20:47:46.999Z</time>
      </trkpt>
      <trkpt lat="48.81822" lon="2.43476">
        <ele>96.19</ele>
        <time>2019-05-20T20:47:48.999Z</time>
      </trkpt>
      <trkpt lat="48.81822" lon="2.43451">
        <ele>97.23</ele>
        <time>2019-05-20T20:47:50.999Z</time>
      </trkpt>
      <trkpt lat="48.8182" lon="2.43428">
        <ele>98.17</ele>
        <time>2019-05-20T20:47:52.999Z</time>
      </trkpt>
      <trkpt lat="48.81817" lon="2.43404">
        <ele>98.85</ele>
        <time>2019-05-20T20:47:54.999Z</time>
      </trkpt>
      <trkpt lat="48.81816" lon="2.43382">
        <ele>99.23</ele>
        <time>2019-05-20T20:47:56.999Z</time>
      </trkpt>
      <trkpt lat="48.81815" lon="2.43359">
        <ele>99.36</ele>
        <time>2019-05-20T20:47:58.999Z</time>
      </trkpt>
      <trkpt lat="48.81813" lon="2.43337">
        <ele>99.38</ele>
        <time>2019-05-20T20:48:00.999Z</time>
      </trkpt>
      <trkpt lat="48.81812" lon="2.43316">
        <ele>99.17</ele>
        <time>2019-05-20T20:48:02.999Z</time>
      </trkpt>
      <trkpt lat="48.81812" lon="2.43294">
        <ele>98.88</ele>
        <time>2019-05-20T20:48:04.999Z</time>
      </trkpt>
      <trkpt lat="48.81813" lon="2.43276">
        <ele>97.34</ele>
        <time>2019-05-20T20:48:06.999Z</time>
      </trkpt>
      <trkpt lat="48.81813" lon="2.43256">
        <ele>96.4</ele>
        <time>2019-05-20T20:48:08.999Z</time>
      </trkpt>
      <trkpt lat="48.81813" lon="2.43237">
        <ele>95.86</ele>
        <time>2019-05-20T20:48:10.999Z</time>
      </trkpt>
      <trkpt lat="48.81813" lon="2.43217">
        <ele>95.46</ele>
        <time>2019-05-20T20:48:12.999Z</time>
      </trkpt>
      <trkpt lat="48.8181" lon="2.43195">
        <ele>95.53</ele>
        <time>2019-05-20T20:48:14.999Z</time>
      </trkpt>
      <trkpt lat="48.81808" lon="2.43175">
        <ele>95.77</ele>
        <time>2019-05-20T20:48:16.999Z</time>
      </trkpt>
      <trkpt lat="48.81806" lon="2.43155">
        <ele>95.74</ele>
        <time>2019-05-20T20:48:18.999Z</time>
      </trkpt>
      <trkpt lat="48.81804" lon="2.43133">
        <ele>96.05</ele>
        <time>2019-05-20T20:48:20.999Z</time>
      </trkpt>
      <trkpt lat="48.81804" lon="2.43113">
        <ele>96.31</ele>
        <time>2019-05-20T20:48:22.999Z</time>
      </trkpt>
      <trkpt lat="48.81805" lon="2.43091">
        <ele>96.84</ele>
        <time>2019-05-20T20:48:24.999Z</time>
      </trkpt>
      <trkpt lat="48.81804" lon="2.43071">
        <ele>97.39</ele>
        <time>2019-05-20T20:48:26.999Z</time>
      </trkpt>
      <trkpt lat="48.81806" lon="2.43053">
        <ele>97.84</ele>
        <time>2019-05-20T20:48:28.999Z</time>
      </trkpt>
      <trkpt lat="48.81806" lon="2.43035">
        <ele>98.09</ele>
        <time>2019-05-20T20:48:30.999Z</time>
      </trkpt>
      <trkpt lat="48.81807" lon="2.43018">
        <ele>97.86</ele>
        <time>2019-05-20T20:48:32.999Z</time>
      </trkpt>
      <trkpt lat="48.81807" lon="2.43">
        <ele>97.86</ele>
        <time>2019-05-20T20:48:34.999Z</time>
      </trkpt>
      <trkpt lat="48.81807" lon="2.4298">
        <ele>97.62</ele>
        <time>2019-05-20T20:48:36.999Z</time>
      </trkpt>
      <trkpt lat="48.81808" lon="2.42961">
        <ele>96.8</ele>
        <time>2019-05-20T20:48:38.999Z</time>
      </trkpt>
      <trkpt lat="48.81809" lon="2.42942">
        <ele>96.03</ele>
        <time>2019-05-20T20:48:40.999Z</time>
      </trkpt>
      <trkpt lat="48.81809" lon="2.42923">
        <ele>95.39</ele>
        <time>2019-05-20T20:48:42.999Z</time>
      </trkpt>
      <trkpt lat="48.8181" lon="2.42903">
        <ele>94.74</ele>
        <time>2019-05-20T20:48:44.999Z</time>
      </trkpt>
      <trkpt lat="48.8181" lon="2.42883">
        <ele>94.16</ele>
        <time>2019-05-20T20:48:46.999Z</time>
      </trkpt>
      <trkpt lat="48.81812" lon="2.42862">
        <ele>93.28</ele>
        <time>2019-05-20T20:48:48.999Z</time>
      </trkpt>
      <trkpt lat="48.8181" lon="2.42837">
        <ele>92.95</ele>
        <time>2019-05-20T20:48:50.999Z</time>
      </trkpt>
      <trkpt lat="48.81809" lon="2.42813">
        <ele>92.77</ele>
        <time>2019-05-20T20:48:52.999Z</time>
      </trkpt>
      <trkpt lat="48.81807" lon="2.42788">
        <ele>92.84</ele>
        <time>2019-05-20T20:48:54.999Z</time>
      </trkpt>
      <trkpt lat="48.81807" lon="2.42764">
        <ele>92.56</ele>
        <time>2019-05-20T20:48:56.999Z</time>
      </trkpt>
      <trkpt lat="48.81807" lon="2.42742">
        <ele>92.48</ele>
        <time>2019-05-20T20:48:58.999Z</time>
      </trkpt>
      <trkpt lat="48.81806" lon="2.4272">
        <ele>92.53</ele>
        <time>2019-05-20T20:49:00.999Z</time>
      </trkpt>
      <trkpt lat="48.81807" lon="2.42699">
        <ele>92.6</ele>
        <time>2019-05-20T20:49:02.999Z</time>
      </trkpt>
      <trkpt lat="48.81806" lon="2.42678">
        <ele>92.37</ele>
        <time>2019-05-20T20:49:04.999Z</time>
      </trkpt>
      <trkpt lat="48.81804" lon="2.42658">
        <ele>92.13</ele>
        <time>2019-05-20T20:49:06.999Z</time>
      </trkpt>
      <trkpt lat="48.81803" lon="2.42638">
        <ele>91.9</ele>
        <time>2019-05-20T20:49:08.999Z</time>
      </trkpt>
      <trkpt lat="48.81803" lon="2.42618">
        <ele>91.91</ele>
        <time>2019-05-20T20:49:10.999Z</time>
      </trkpt>
      <trkpt lat="48.81803" lon="2.42599">
        <ele>92.15</ele>
        <time>2019-05-20T20:49:12.999Z</time>
      </trkpt>
      <trkpt lat="48.81801" lon="2.42581">
        <ele>92.57</ele>
        <time>2019-05-20T20:49:14.999Z</time>
      </trkpt>
      <trkpt lat="48.81801" lon="2.42565">
        <ele>92.82</ele>
        <time>2019-05-20T20:49:16.999Z</time>
      </trkpt>
      <trkpt lat="48.81801" lon="2.4255">
        <ele>93.26</ele>
        <time>2019-05-20T20:49:18.999Z</time>
      </trkpt>
      <trkpt lat="48.81802" lon="2.4253">
        <ele>93.46</ele>
        <time>2019-05-20T20:49:20.999Z</time>
      </trkpt>
      <trkpt lat="48.81805" lon="2.42515">
        <ele>93.63</ele>
        <time>2019-05-20T20:49:22.999Z</time>
      </trkpt>
      <trkpt lat="48.81809" lon="2.42494">
        <ele>93.66</ele>
        <time>2019-05-20T20:49:25.999Z</time>
      </trkpt>
      <trkpt lat="48.81813" lon="2.4248">
        <ele>93.69</ele>
        <time>2019-05-20T20:49:28.999Z</time>
      </trkpt>
      <trkpt lat="48.81818" lon="2.42465">
        <ele>93.74</ele>
        <time>2019-05-20T20:49:32.999Z</time>
      </trkpt>
      <trkpt lat="48.8182" lon="2.42452">
        <ele>93.83</ele>
        <time>2019-05-20T20:49:49.999Z</time>
      </trkpt>
      <trkpt lat="48.81827" lon="2.4244">
        <ele>90.81</ele>
        <time>2019-05-20T20:53:42.999Z</time>
      </trkpt>
      <trkpt lat="48.81824" lon="2.42427">
        <ele>90.78</ele>
        <time>2019-05-20T20:53:45.999Z</time>
      </trkpt>
      <trkpt lat="48.8183" lon="2.42413">
        <ele>90.73</ele>
        <time>2019-05-20T20:53:49.999Z</time>
      </trkpt>
      <trkpt lat="48.8183" lon="2.42396">
        <ele>90.66</ele>
        <time>2019-05-20T20:53:53.999Z</time>
      </trkpt>
      <trkpt lat="48.81836" lon="2.42385">
        <ele>90.46</ele>
        <time>2019-05-20T20:53:55.999Z</time>
      </trkpt>
      <trkpt lat="48.81831" lon="2.42366">
        <ele>90.43</ele>
        <time>2019-05-20T20:53:57.999Z</time>
      </trkpt>
      <trkpt lat="48.81826" lon="2.4235">
        <ele>90.38</ele>
        <time>2019-05-20T20:54:01.999Z</time>
      </trkpt>
      <trkpt lat="48.81823" lon="2.42335">
        <ele>90.34</ele>
        <time>2019-05-20T20:54:04.999Z</time>
      </trkpt>
      <trkpt lat="48.81821" lon="2.42321">
        <ele>90.31</ele>
        <time>2019-05-20T20:54:07.999Z</time>
      </trkpt>
      <trkpt lat="48.81816" lon="2.42309">
        <ele>90.22</ele>
        <time>2019-05-20T20:54:19.999Z</time>
      </trkpt>
      <trkpt lat="48.81819" lon="2.42294">
        <ele>90.19</ele>
        <time>2019-05-20T20:54:23.999Z</time>
      </trkpt>
      <trkpt lat="48.81821" lon="2.4228">
        <ele>90.16</ele>
        <time>2019-05-20T20:54:26.999Z</time>
      </trkpt>
      <trkpt lat="48.81824" lon="2.42264">
        <ele>90.1</ele>
        <time>2019-05-20T20:54:31.999Z</time>
      </trkpt>
      <trkpt lat="48.81826" lon="2.42246">
        <ele>90.05</ele>
        <time>2019-05-20T20:54:36.999Z</time>
      </trkpt>
      <trkpt lat="48.81828" lon="2.4223">
        <ele>90.02</ele>
        <time>2019-05-20T20:54:39.999Z</time>
      </trkpt>
      <trkpt lat="48.81828" lon="2.42212">
        <ele>90.01</ele>
        <time>2019-05-20T20:54:42.999Z</time>
      </trkpt>
      <trkpt lat="48.81828" lon="2.42195">
        <ele>90</ele>
        <time>2019-05-20T20:54:46.999Z</time>
      </trkpt>
      <trkpt lat="48.81829" lon="2.4218">
        <ele>90</ele>
        <time>2019-05-20T20:54:50.999Z</time>
      </trkpt>
      <trkpt lat="48.81833" lon="2.42164">
        <ele>90</ele>
        <time>2019-05-20T20:54:54.999Z</time>
      </trkpt>
      <trkpt lat="48.81836" lon="2.42149">
        <ele>90</ele>
        <time>2019-05-20T20:54:57.999Z</time>
      </trkpt>
      <trkpt lat="48.81838" lon="2.42133">
        <ele>90.01</ele>
        <time>2019-05-20T20:55:00.999Z</time>
      </trkpt>
      <trkpt lat="48.8184" lon="2.42116">
        <ele>90.02</ele>
        <time>2019-05-20T20:55:03.999Z</time>
      </trkpt>
      <trkpt lat="48.81841" lon="2.42101">
        <ele>90.03</ele>
        <time>2019-05-20T20:55:06.999Z</time>
      </trkpt>
      <trkpt lat="48.81844" lon="2.42084">
        <ele>90.04</ele>
        <time>2019-05-20T20:55:09.999Z</time>
      </trkpt>
      <trkpt lat="48.81846" lon="2.42069">
        <ele>90.06</ele>
        <time>2019-05-20T20:55:12.999Z</time>
      </trkpt>
      <trkpt lat="48.81847" lon="2.4205">
        <ele>90.09</ele>
        <time>2019-05-20T20:55:16.999Z</time>
      </trkpt>
      <trkpt lat="48.81847" lon="2.42029">
        <ele>90.1</ele>
        <time>2019-05-20T20:55:19.999Z</time>
      </trkpt>
      <trkpt lat="48.81847" lon="2.42012">
        <ele>90.11</ele>
        <time>2019-05-20T20:55:22.999Z</time>
      </trkpt>
      <trkpt lat="48.81846" lon="2.41998">
        <ele>90.11</ele>
        <time>2019-05-20T20:55:26.999Z</time>
      </trkpt>
      <trkpt lat="48.81846" lon="2.41983">
        <ele>90.08</ele>
        <time>2019-05-20T20:55:41.999Z</time>
      </trkpt>
      <trkpt lat="48.81849" lon="2.41968">
        <ele>90.08</ele>
        <time>2019-05-20T20:55:50.999Z</time>
      </trkpt>
      <trkpt lat="48.81858" lon="2.41964">
        <ele>90.22</ele>
        <time>2019-05-20T20:55:58.999Z</time>
      </trkpt>
      <trkpt lat="48.8187" lon="2.41966">
        <ele>90.31</ele>
        <time>2019-05-20T20:56:02.999Z</time>
      </trkpt>
      <trkpt lat="48.81879" lon="2.41967">
        <ele>90.39</ele>
        <time>2019-05-20T20:56:05.999Z</time>
      </trkpt>
      <trkpt lat="48.81891" lon="2.41968">
        <ele>90.67</ele>
        <time>2019-05-20T20:56:08.999Z</time>
      </trkpt>
      <trkpt lat="48.819" lon="2.4197">
        <ele>91</ele>
        <time>2019-05-20T20:56:10.999Z</time>
      </trkpt>
      <trkpt lat="48.8191" lon="2.41971">
        <ele>91.23</ele>
        <time>2019-05-20T20:56:12.999Z</time>
      </trkpt>
      <trkpt lat="48.81921" lon="2.41974">
        <ele>91.34</ele>
        <time>2019-05-20T20:56:15.999Z</time>
      </trkpt>
      <trkpt lat="48.8193" lon="2.41976">
        <ele>91.45</ele>
        <time>2019-05-20T20:56:17.999Z</time>
      </trkpt>
      <trkpt lat="48.81942" lon="2.41976">
        <ele>91.55</ele>
        <time>2019-05-20T20:56:19.999Z</time>
      </trkpt>
      <trkpt lat="48.81951" lon="2.4198">
        <ele>91.62</ele>
        <time>2019-05-20T20:56:21.999Z</time>
      </trkpt>
      <trkpt lat="48.81965" lon="2.41982">
        <ele>91.74</ele>
        <time>2019-05-20T20:56:24.999Z</time>
      </trkpt>
      <trkpt lat="48.81978" lon="2.41982">
        <ele>91.78</ele>
        <time>2019-05-20T20:56:26.999Z</time>
      </trkpt>
      <trkpt lat="48.8199" lon="2.4198">
        <ele>91.79</ele>
        <time>2019-05-20T20:56:28.999Z</time>
      </trkpt>
      <trkpt lat="48.82003" lon="2.41978">
        <ele>91.78</ele>
        <time>2019-05-20T20:56:30.999Z</time>
      </trkpt>
      <trkpt lat="48.82018" lon="2.41978">
        <ele>91.77</ele>
        <time>2019-05-20T20:56:32.999Z</time>
      </trkpt>
      <trkpt lat="48.82029" lon="2.41979">
        <ele>91.78</ele>
        <time>2019-05-20T20:56:34.999Z</time>
      </trkpt>
      <trkpt lat="48.82039" lon="2.41981">
        <ele>91.8</ele>
        <time>2019-05-20T20:56:36.999Z</time>
      </trkpt>
      <trkpt lat="48.8205" lon="2.4198">
        <ele>91.83</ele>
        <time>2019-05-20T20:56:38.999Z</time>
      </trkpt>
      <trkpt lat="48.82061" lon="2.41979">
        <ele>91.84</ele>
        <time>2019-05-20T20:56:41.999Z</time>
      </trkpt>
      <trkpt lat="48.82075" lon="2.41979">
        <ele>91.9</ele>
        <time>2019-05-20T20:56:44.999Z</time>
      </trkpt>
      <trkpt lat="48.82085" lon="2.41977">
        <ele>91.91</ele>
        <time>2019-05-20T20:56:48.999Z</time>
      </trkpt>
      <trkpt lat="48.82096" lon="2.41975">
        <ele>91.93</ele>
        <time>2019-05-20T20:56:52.999Z</time>
      </trkpt>
      <trkpt lat="48.82106" lon="2.41975">
        <ele>91.94</ele>
        <time>2019-05-20T20:56:55.999Z</time>
      </trkpt>
      <trkpt lat="48.82115" lon="2.4198">
        <ele>91.95</ele>
        <time>2019-05-20T20:56:59.999Z</time>
      </trkpt>
      <trkpt lat="48.82123" lon="2.41987">
        <ele>91.96</ele>
        <time>2019-05-20T20:57:01.999Z</time>
      </trkpt>
      <trkpt lat="48.82131" lon="2.41995">
        <ele>92.98</ele>
        <time>2019-05-20T20:57:35.999Z</time>
      </trkpt>
      <trkpt lat="48.82139" lon="2.41988">
        <ele>94.66</ele>
        <time>2019-05-20T20:57:57.999Z</time>
      </trkpt>
      <trkpt lat="48.82148" lon="2.41989">
        <ele>95.52</ele>
        <time>2019-05-20T20:58:07.999Z</time>
      </trkpt>
      <trkpt lat="48.8216" lon="2.4199">
        <ele>95.9</ele>
        <time>2019-05-20T20:58:12.999Z</time>
      </trkpt>
      <trkpt lat="48.82172" lon="2.41991">
        <ele>96.12</ele>
        <time>2019-05-20T20:58:15.999Z</time>
      </trkpt>
      <trkpt lat="48.82183" lon="2.41992">
        <ele>97.46</ele>
        <time>2019-05-20T20:58:18.999Z</time>
      </trkpt>
      <trkpt lat="48.82196" lon="2.41992">
        <ele>97.97</ele>
        <time>2019-05-20T20:58:20.999Z</time>
      </trkpt>
      <trkpt lat="48.82208" lon="2.41992">
        <ele>98.64</ele>
        <time>2019-05-20T20:58:22.999Z</time>
      </trkpt>
      <trkpt lat="48.82222" lon="2.41989">
        <ele>98.71</ele>
        <time>2019-05-20T20:58:25.999Z</time>
      </trkpt>
      <trkpt lat="48.82232" lon="2.41989">
        <ele>98.78</ele>
        <time>2019-05-20T20:58:28.999Z</time>
      </trkpt>
      <trkpt lat="48.82241" lon="2.41989">
        <ele>99.21</ele>
        <time>2019-05-20T20:58:30.999Z</time>
      </trkpt>
      <trkpt lat="48.82252" lon="2.41986">
        <ele>99.51</ele>
        <time>2019-05-20T20:58:32.999Z</time>
      </trkpt>
      <trkpt lat="48.82264" lon="2.41985">
        <ele>99.76</ele>
        <time>2019-05-20T20:58:34.999Z</time>
      </trkpt>
      <trkpt lat="48.82277" lon="2.41987">
        <ele>100.03</ele>
        <time>2019-05-20T20:58:37.999Z</time>
      </trkpt>
      <trkpt lat="48.82289" lon="2.41992">
        <ele>100.05</ele>
        <time>2019-05-20T20:58:40.999Z</time>
      </trkpt>
      <trkpt lat="48.82301" lon="2.41992">
        <ele>100.07</ele>
        <time>2019-05-20T20:58:43.999Z</time>
      </trkpt>
      <trkpt lat="48.82311" lon="2.41993">
        <ele>100.09</ele>
        <time>2019-05-20T20:58:45.999Z</time>
      </trkpt>
      <trkpt lat="48.8232" lon="2.41994">
        <ele>100.03</ele>
        <time>2019-05-20T20:58:47.999Z</time>
      </trkpt>
      <trkpt lat="48.82332" lon="2.41996">
        <ele>100.01</ele>
        <time>2019-05-20T20:58:49.999Z</time>
      </trkpt>
      <trkpt lat="48.82343" lon="2.41996">
        <ele>100.05</ele>
        <time>2019-05-20T20:58:52.999Z</time>
      </trkpt>
      <trkpt lat="48.82355" lon="2.41995">
        <ele>100.09</ele>
        <time>2019-05-20T20:58:54.999Z</time>
      </trkpt>
      <trkpt lat="48.82366" lon="2.41995">
        <ele>100.1</ele>
        <time>2019-05-20T20:58:56.999Z</time>
      </trkpt>
      <trkpt lat="48.8238" lon="2.41998">
        <ele>100.15</ele>
        <time>2019-05-20T20:58:58.999Z</time>
      </trkpt>
      <trkpt lat="48.82392" lon="2.42002">
        <ele>100.15</ele>
        <time>2019-05-20T20:59:00.999Z</time>
      </trkpt>
      <trkpt lat="48.82404" lon="2.42003">
        <ele>100.15</ele>
        <time>2019-05-20T20:59:04.999Z</time>
      </trkpt>
      <trkpt lat="48.82414" lon="2.42006">
        <ele>100.17</ele>
        <time>2019-05-20T20:59:07.999Z</time>
      </trkpt>
      <trkpt lat="48.82423" lon="2.42007">
        <ele>100.25</ele>
        <time>2019-05-20T20:59:12.999Z</time>
      </trkpt>
      <trkpt lat="48.82435" lon="2.42008">
        <ele>100.32</ele>
        <time>2019-05-20T20:59:17.000Z</time>
      </trkpt>
      <trkpt lat="48.82445" lon="2.42008">
        <ele>100.38</ele>
        <time>2019-05-20T20:59:20.000Z</time>
      </trkpt>
      <trkpt lat="48.82458" lon="2.42006">
        <ele>100.75</ele>
        <time>2019-05-20T20:59:23.000Z</time>
      </trkpt>
      <trkpt lat="48.82468" lon="2.42005">
        <ele>100.85</ele>
        <time>2019-05-20T20:59:25.000Z</time>
      </trkpt>
      <trkpt lat="48.82481" lon="2.42006">
        <ele>100.9</ele>
        <time>2019-05-20T20:59:27.000Z</time>
      </trkpt>
      <trkpt lat="48.82496" lon="2.42006">
        <ele>100.96</ele>
        <time>2019-05-20T20:59:29.000Z</time>
      </trkpt>
      <trkpt lat="48.82511" lon="2.42007">
        <ele>101.11</ele>
        <time>2019-05-20T20:59:31.000Z</time>
      </trkpt>
      <trkpt lat="48.82526" lon="2.42006">
        <ele>101.24</ele>
        <time>2019-05-20T20:59:33.000Z</time>
      </trkpt>
      <trkpt lat="48.82541" lon="2.42005">
        <ele>101.35</ele>
        <time>2019-05-20T20:59:35.000Z</time>
      </trkpt>
      <trkpt lat="48.82551" lon="2.42005">
        <ele>101.4</ele>
        <time>2019-05-20T20:59:36.000Z</time>
      </trkpt>
      <trkpt lat="48.82567" lon="2.42004">
        <ele>101.47</ele>
        <time>2019-05-20T20:59:38.000Z</time>
      </trkpt>
      <trkpt lat="48.82583" lon="2.42002">
        <ele>101.58</ele>
        <time>2019-05-20T20:59:40.000Z</time>
      </trkpt>
      <trkpt lat="48.82598" lon="2.41998">
        <ele>101.71</ele>
        <time>2019-05-20T20:59:42.000Z</time>
      </trkpt>
      <trkpt lat="48.82613" lon="2.41992">
        <ele>101.86</ele>
        <time>2019-05-20T20:59:44.000Z</time>
      </trkpt>
      <trkpt lat="48.82629" lon="2.41988">
        <ele>101.99</ele>
        <time>2019-05-20T20:59:46.000Z</time>
      </trkpt>
      <trkpt lat="48.82644" lon="2.41984">
        <ele>102.07</ele>
        <time>2019-05-20T20:59:48.000Z</time>
      </trkpt>
      <trkpt lat="48.8266" lon="2.4198">
        <ele>102.15</ele>
        <time>2019-05-20T20:59:50.000Z</time>
      </trkpt>
      <trkpt lat="48.82676" lon="2.41976">
        <ele>102.26</ele>
        <time>2019-05-20T20:59:52.000Z</time>
      </trkpt>
      <trkpt lat="48.82692" lon="2.41972">
        <ele>102.37</ele>
        <time>2019-05-20T20:59:54.000Z</time>
      </trkpt>
      <trkpt lat="48.82708" lon="2.41967">
        <ele>102.47</ele>
        <time>2019-05-20T20:59:56.000Z</time>
      </trkpt>
      <trkpt lat="48.82724" lon="2.41962">
        <ele>102.64</ele>
        <time>2019-05-20T20:59:58.000Z</time>
      </trkpt>
      <trkpt lat="48.82739" lon="2.41956">
        <ele>102.95</ele>
        <time>2019-05-20T21:00:00.000Z</time>
      </trkpt>
      <trkpt lat="48.82755" lon="2.41952">
        <ele>103.29</ele>
        <time>2019-05-20T21:00:02.000Z</time>
      </trkpt>
      <trkpt lat="48.82769" lon="2.41952">
        <ele>103.62</ele>
        <time>2019-05-20T21:00:04.000Z</time>
      </trkpt>
      <trkpt lat="48.82782" lon="2.41951">
        <ele>103.87</ele>
        <time>2019-05-20T21:00:06.000Z</time>
      </trkpt>
      <trkpt lat="48.82795" lon="2.41949">
        <ele>104.3</ele>
        <time>2019-05-20T21:00:08.000Z</time>
      </trkpt>
      <trkpt lat="48.82807" lon="2.41949">
        <ele>104.75</ele>
        <time>2019-05-20T21:00:10.000Z</time>
      </trkpt>
      <trkpt lat="48.8282" lon="2.4195">
        <ele>105.15</ele>
        <time>2019-05-20T21:00:12.000Z</time>
      </trkpt>
      <trkpt lat="48.82832" lon="2.41953">
        <ele>105.42</ele>
        <time>2019-05-20T21:00:14.000Z</time>
      </trkpt>
      <trkpt lat="48.82843" lon="2.41957">
        <ele>105.68</ele>
        <time>2019-05-20T21:00:16.000Z</time>
      </trkpt>
      <trkpt lat="48.82854" lon="2.41961">
        <ele>105.96</ele>
        <time>2019-05-20T21:00:18.000Z</time>
      </trkpt>
      <trkpt lat="48.82864" lon="2.41964">
        <ele>106.09</ele>
        <time>2019-05-20T21:00:20.000Z</time>
      </trkpt>
      <trkpt lat="48.82875" lon="2.41967">
        <ele>106.15</ele>
        <time>2019-05-20T21:00:22.000Z</time>
      </trkpt>
      <trkpt lat="48.82886" lon="2.41971">
        <ele>106.29</ele>
        <time>2019-05-20T21:00:24.000Z</time>
      </trkpt>
      <trkpt lat="48.82895" lon="2.41975">
        <ele>106.33</ele>
        <time>2019-05-20T21:00:26.000Z</time>
      </trkpt>
      <trkpt lat="48.82904" lon="2.4198">
        <ele>106.31</ele>
        <time>2019-05-20T21:00:28.000Z</time>
      </trkpt>
      <trkpt lat="48.82913" lon="2.41986">
        <ele>106.34</ele>
        <time>2019-05-20T21:00:30.000Z</time>
      </trkpt>
      <trkpt lat="48.82923" lon="2.41994">
        <ele>106.44</ele>
        <time>2019-05-20T21:00:32.000Z</time>
      </trkpt>
      <trkpt lat="48.82932" lon="2.42">
        <ele>106.51</ele>
        <time>2019-05-20T21:00:34.000Z</time>
      </trkpt>
      <trkpt lat="48.82941" lon="2.42008">
        <ele>106.1</ele>
        <time>2019-05-20T21:00:36.000Z</time>
      </trkpt>
      <trkpt lat="48.8295" lon="2.42016">
        <ele>105.71</ele>
        <time>2019-05-20T21:00:38.000Z</time>
      </trkpt>
      <trkpt lat="48.82961" lon="2.42022">
        <ele>105.45</ele>
        <time>2019-05-20T21:00:40.000Z</time>
      </trkpt>
      <trkpt lat="48.82972" lon="2.42029">
        <ele>105.28</ele>
        <time>2019-05-20T21:00:42.000Z</time>
      </trkpt>
      <trkpt lat="48.82983" lon="2.42036">
        <ele>104.81</ele>
        <time>2019-05-20T21:00:44.000Z</time>
      </trkpt>
      <trkpt lat="48.82996" lon="2.42041">
        <ele>104.64</ele>
        <time>2019-05-20T21:00:46.000Z</time>
      </trkpt>
      <trkpt lat="48.83009" lon="2.42045">
        <ele>104.42</ele>
        <time>2019-05-20T21:00:48.000Z</time>
      </trkpt>
      <trkpt lat="48.83023" lon="2.42048">
        <ele>104.56</ele>
        <time>2019-05-20T21:00:50.000Z</time>
      </trkpt>
      <trkpt lat="48.8304" lon="2.42052">
        <ele>105.35</ele>
        <time>2019-05-20T21:00:52.000Z</time>
      </trkpt>
      <trkpt lat="48.83054" lon="2.42056">
        <ele>106.36</ele>
        <time>2019-05-20T21:00:54.000Z</time>
      </trkpt>
      <trkpt lat="48.83067" lon="2.42057">
        <ele>106.96</ele>
        <time>2019-05-20T21:00:56.000Z</time>
      </trkpt>
      <trkpt lat="48.83083" lon="2.4206">
        <ele>107.98</ele>
        <time>2019-05-20T21:00:58.000Z</time>
      </trkpt>
      <trkpt lat="48.83098" lon="2.42062">
        <ele>108.98</ele>
        <time>2019-05-20T21:01:00.000Z</time>
      </trkpt>
      <trkpt lat="48.83111" lon="2.42064">
        <ele>109.83</ele>
        <time>2019-05-20T21:01:02.000Z</time>
      </trkpt>
      <trkpt lat="48.83125" lon="2.42063">
        <ele>110.55</ele>
        <time>2019-05-20T21:01:04.000Z</time>
      </trkpt>
      <trkpt lat="48.83138" lon="2.42063">
        <ele>111.31</ele>
        <time>2019-05-20T21:01:06.000Z</time>
      </trkpt>
      <trkpt lat="48.83151" lon="2.42063">
        <ele>111.88</ele>
        <time>2019-05-20T21:01:08.000Z</time>
      </trkpt>
      <trkpt lat="48.83165" lon="2.42062">
        <ele>112.25</ele>
        <time>2019-05-20T21:01:10.000Z</time>
      </trkpt>
      <trkpt lat="48.83178" lon="2.42061">
        <ele>112.74</ele>
        <time>2019-05-20T21:01:12.000Z</time>
      </trkpt>
      <trkpt lat="48.8319" lon="2.4206">
        <ele>113.27</ele>
        <time>2019-05-20T21:01:14.000Z</time>
      </trkpt>
      <trkpt lat="48.83202" lon="2.42058">
        <ele>113.63</ele>
        <time>2019-05-20T21:01:16.000Z</time>
      </trkpt>
      <trkpt lat="48.83214" lon="2.42058">
        <ele>113.79</ele>
        <time>2019-05-20T21:01:18.000Z</time>
      </trkpt>
      <trkpt lat="48.83226" lon="2.42055">
        <ele>113.74</ele>
        <time>2019-05-20T21:01:20.000Z</time>
      </trkpt>
      <trkpt lat="48.83238" lon="2.42054">
        <ele>113.36</ele>
        <time>2019-05-20T21:01:22.000Z</time>
      </trkpt>
      <trkpt lat="48.83249" lon="2.42053">
        <ele>112.76</ele>
        <time>2019-05-20T21:01:24.000Z</time>
      </trkpt>
      <trkpt lat="48.83262" lon="2.42051">
        <ele>112.57</ele>
        <time>2019-05-20T21:01:26.000Z</time>
      </trkpt>
      <trkpt lat="48.83275" lon="2.42049">
        <ele>112.71</ele>
        <time>2019-05-20T21:01:28.000Z</time>
      </trkpt>
      <trkpt lat="48.83287" lon="2.42047">
        <ele>112.73</ele>
        <time>2019-05-20T21:01:30.000Z</time>
      </trkpt>
      <trkpt lat="48.833" lon="2.42045">
        <ele>112.97</ele>
        <time>2019-05-20T21:01:32.000Z</time>
      </trkpt>
      <trkpt lat="48.83312" lon="2.42044">
        <ele>113.25</ele>
        <time>2019-05-20T21:01:34.000Z</time>
      </trkpt>
      <trkpt lat="48.83324" lon="2.42045">
        <ele>113.69</ele>
        <time>2019-05-20T21:01:36.000Z</time>
      </trkpt>
      <trkpt lat="48.83338" lon="2.42046">
        <ele>113.78</ele>
        <time>2019-05-20T21:01:38.000Z</time>
      </trkpt>
      <trkpt lat="48.83352" lon="2.42046">
        <ele>113.88</ele>
        <time>2019-05-20T21:01:40.000Z</time>
      </trkpt>
      <trkpt lat="48.83363" lon="2.42047">
        <ele>114.08</ele>
        <time>2019-05-20T21:01:42.000Z</time>
      </trkpt>
      <trkpt lat="48.83374" lon="2.42044">
        <ele>114.27</ele>
        <time>2019-05-20T21:01:44.000Z</time>
      </trkpt>
      <trkpt lat="48.83385" lon="2.42042">
        <ele>114.59</ele>
        <time>2019-05-20T21:01:46.000Z</time>
      </trkpt>
      <trkpt lat="48.83397" lon="2.42041">
        <ele>115.2</ele>
        <time>2019-05-20T21:01:48.000Z</time>
      </trkpt>
      <trkpt lat="48.83407" lon="2.42039">
        <ele>115.22</ele>
        <time>2019-05-20T21:01:50.000Z</time>
      </trkpt>
      <trkpt lat="48.83418" lon="2.42035">
        <ele>114.99</ele>
        <time>2019-05-20T21:01:52.000Z</time>
      </trkpt>
      <trkpt lat="48.83429" lon="2.4203">
        <ele>114.82</ele>
        <time>2019-05-20T21:01:54.000Z</time>
      </trkpt>
      <trkpt lat="48.83438" lon="2.42025">
        <ele>114.64</ele>
        <time>2019-05-20T21:01:56.000Z</time>
      </trkpt>
      <trkpt lat="48.83449" lon="2.42021">
        <ele>114.44</ele>
        <time>2019-05-20T21:01:58.000Z</time>
      </trkpt>
      <trkpt lat="48.8346" lon="2.42016">
        <ele>115</ele>
        <time>2019-05-20T21:02:00.000Z</time>
      </trkpt>
      <trkpt lat="48.83469" lon="2.42012">
        <ele>115.46</ele>
        <time>2019-05-20T21:02:02.000Z</time>
      </trkpt>
      <trkpt lat="48.8348" lon="2.42004">
        <ele>115.64</ele>
        <time>2019-05-20T21:02:05.000Z</time>
      </trkpt>
      <trkpt lat="48.8349" lon="2.41998">
        <ele>115.63</ele>
        <time>2019-05-20T21:02:08.000Z</time>
      </trkpt>
      <trkpt lat="48.83499" lon="2.41993">
        <ele>115.55</ele>
        <time>2019-05-20T21:02:12.000Z</time>
      </trkpt>
      <trkpt lat="48.83509" lon="2.41992">
        <ele>111.45</ele>
        <time>2019-05-20T21:05:06.000Z</time>
      </trkpt>
      <trkpt lat="48.8352" lon="2.41982">
        <ele>111.22</ele>
        <time>2019-05-20T21:05:10.000Z</time>
      </trkpt>
      <trkpt lat="48.83529" lon="2.41974">
        <ele>111.07</ele>
        <time>2019-05-20T21:05:13.000Z</time>
      </trkpt>
      <trkpt lat="48.83539" lon="2.41961">
        <ele>110.52</ele>
        <time>2019-05-20T21:05:16.000Z</time>
      </trkpt>
      <trkpt lat="48.83548" lon="2.41954">
        <ele>109.88</ele>
        <time>2019-05-20T21:05:18.000Z</time>
      </trkpt>
      <trkpt lat="48.83556" lon="2.41945">
        <ele>109.5</ele>
        <time>2019-05-20T21:05:20.000Z</time>
      </trkpt>
      <trkpt lat="48.83562" lon="2.41934">
        <ele>109.27</ele>
        <time>2019-05-20T21:05:22.000Z</time>
      </trkpt>
      <trkpt lat="48.83568" lon="2.41921">
        <ele>109.12</ele>
        <time>2019-05-20T21:05:24.000Z</time>
      </trkpt>
      <trkpt lat="48.83577" lon="2.41915">
        <ele>109.01</ele>
        <time>2019-05-20T21:05:26.000Z</time>
      </trkpt>
      <trkpt lat="48.83585" lon="2.4191">
        <ele>108.94</ele>
        <time>2019-05-20T21:05:28.000Z</time>
      </trkpt>
      <trkpt lat="48.83593" lon="2.41902">
        <ele>108.89</ele>
        <time>2019-05-20T21:05:30.000Z</time>
      </trkpt>
      <trkpt lat="48.83602" lon="2.41896">
        <ele>108.85</ele>
        <time>2019-05-20T21:05:32.000Z</time>
      </trkpt>
      <trkpt lat="48.8361" lon="2.41889">
        <ele>108.82</ele>
        <time>2019-05-20T21:05:34.000Z</time>
      </trkpt>
      <trkpt lat="48.83619" lon="2.41882">
        <ele>108.79</ele>
        <time>2019-05-20T21:05:36.000Z</time>
      </trkpt>
      <trkpt lat="48.83628" lon="2.41876">
        <ele>108.74</ele>
        <time>2019-05-20T21:05:38.000Z</time>
      </trkpt>
      <trkpt lat="48.83638" lon="2.4187">
        <ele>108.7</ele>
        <time>2019-05-20T21:05:40.000Z</time>
      </trkpt>
      <trkpt lat="48.83646" lon="2.41864">
        <ele>108.67</ele>
        <time>2019-05-20T21:05:42.000Z</time>
      </trkpt>
      <trkpt lat="48.83656" lon="2.41856">
        <ele>108.65</ele>
        <time>2019-05-20T21:05:44.000Z</time>
      </trkpt>
      <trkpt lat="48.83664" lon="2.41853">
        <ele>108.64</ele>
        <time>2019-05-20T21:05:46.000Z</time>
      </trkpt>
      <trkpt lat="48.83674" lon="2.41847">
        <ele>108.63</ele>
        <time>2019-05-20T21:05:48.000Z</time>
      </trkpt>
      <trkpt lat="48.83682" lon="2.4184">
        <ele>108.63</ele>
        <time>2019-05-20T21:05:50.000Z</time>
      </trkpt>
      <trkpt lat="48.83692" lon="2.41833">
        <ele>108.64</ele>
        <time>2019-05-20T21:05:52.000Z</time>
      </trkpt>
      <trkpt lat="48.837" lon="2.41827">
        <ele>108.66</ele>
        <time>2019-05-20T21:05:54.000Z</time>
      </trkpt>
      <trkpt lat="48.83709" lon="2.41823">
        <ele>108.67</ele>
        <time>2019-05-20T21:05:56.000Z</time>
      </trkpt>
      <trkpt lat="48.83717" lon="2.41815">
        <ele>108.68</ele>
        <time>2019-05-20T21:05:58.000Z</time>
      </trkpt>
      <trkpt lat="48.83725" lon="2.41809">
        <ele>108.68</ele>
        <time>2019-05-20T21:06:00.000Z</time>
      </trkpt>
      <trkpt lat="48.83737" lon="2.41801">
        <ele>108.68</ele>
        <time>2019-05-20T21:06:03.000Z</time>
      </trkpt>
      <trkpt lat="48.83746" lon="2.41795">
        <ele>108.68</ele>
        <time>2019-05-20T21:06:06.000Z</time>
      </trkpt>
      <trkpt lat="48.83756" lon="2.4179">
        <ele>108.67</ele>
        <time>2019-05-20T21:06:09.000Z</time>
      </trkpt>
      <trkpt lat="48.83767" lon="2.41784">
        <ele>108.62</ele>
        <time>2019-05-20T21:06:12.000Z</time>
      </trkpt>
      <trkpt lat="48.83778" lon="2.41777">
        <ele>108.57</ele>
        <time>2019-05-20T21:06:15.000Z</time>
      </trkpt>
      <trkpt lat="48.83787" lon="2.41772">
        <ele>108.55</ele>
        <time>2019-05-20T21:06:17.000Z</time>
      </trkpt>
      <trkpt lat="48.83799" lon="2.41768">
        <ele>108.51</ele>
        <time>2019-05-20T21:06:20.000Z</time>
      </trkpt>
      <trkpt lat="48.83809" lon="2.41766">
        <ele>108.49</ele>
        <time>2019-05-20T21:06:22.000Z</time>
      </trkpt>
      <trkpt lat="48.83818" lon="2.41765">
        <ele>108.48</ele>
        <time>2019-05-20T21:06:24.000Z</time>
      </trkpt>
      <trkpt lat="48.8383" lon="2.41762">
        <ele>108.47</ele>
        <time>2019-05-20T21:06:26.000Z</time>
      </trkpt>
      <trkpt lat="48.83841" lon="2.41758">
        <ele>108.46</ele>
        <time>2019-05-20T21:06:28.000Z</time>
      </trkpt>
      <trkpt lat="48.83851" lon="2.41753">
        <ele>108.46</ele>
        <time>2019-05-20T21:06:30.000Z</time>
      </trkpt>
      <trkpt lat="48.8386" lon="2.41749">
        <ele>108.46</ele>
        <time>2019-05-20T21:06:32.000Z</time>
      </trkpt>
      <trkpt lat="48.83871" lon="2.41741">
        <ele>108.46</ele>
        <time>2019-05-20T21:06:35.000Z</time>
      </trkpt>
      <trkpt lat="48.83884" lon="2.41739">
        <ele>108.45</ele>
        <time>2019-05-20T21:06:38.000Z</time>
      </trkpt>
      <trkpt lat="48.839" lon="2.41742">
        <ele>108.45</ele>
        <time>2019-05-20T21:06:41.000Z</time>
      </trkpt>
      <trkpt lat="48.83909" lon="2.41743">
        <ele>108.44</ele>
        <time>2019-05-20T21:06:43.000Z</time>
      </trkpt>
      <trkpt lat="48.8392" lon="2.41746">
        <ele>108.42</ele>
        <time>2019-05-20T21:06:45.000Z</time>
      </trkpt>
      <trkpt lat="48.83931" lon="2.41748">
        <ele>108.38</ele>
        <time>2019-05-20T21:06:47.000Z</time>
      </trkpt>
      <trkpt lat="48.83941" lon="2.41751">
        <ele>108.31</ele>
        <time>2019-05-20T21:06:49.000Z</time>
      </trkpt>
      <trkpt lat="48.83952" lon="2.41754">
        <ele>108.19</ele>
        <time>2019-05-20T21:06:51.000Z</time>
      </trkpt>
      <trkpt lat="48.83963" lon="2.41755">
        <ele>108.09</ele>
        <time>2019-05-20T21:06:53.000Z</time>
      </trkpt>
      <trkpt lat="48.83974" lon="2.41755">
        <ele>108.02</ele>
        <time>2019-05-20T21:06:55.000Z</time>
      </trkpt>
      <trkpt lat="48.83984" lon="2.41754">
        <ele>107.97</ele>
        <time>2019-05-20T21:06:57.000Z</time>
      </trkpt>
      <trkpt lat="48.83994" lon="2.41755">
        <ele>107.99</ele>
        <time>2019-05-20T21:06:58.000Z</time>
      </trkpt>
      <trkpt lat="48.84006" lon="2.41753">
        <ele>108.03</ele>
        <time>2019-05-20T21:07:00.000Z</time>
      </trkpt>
      <trkpt lat="48.84017" lon="2.41754">
        <ele>108.03</ele>
        <time>2019-05-20T21:07:03.000Z</time>
      </trkpt>
      <trkpt lat="48.84026" lon="2.41754">
        <ele>108.06</ele>
        <time>2019-05-20T21:07:05.000Z</time>
      </trkpt>
      <trkpt lat="48.84037" lon="2.41754">
        <ele>108.08</ele>
        <time>2019-05-20T21:07:07.000Z</time>
      </trkpt>
      <trkpt lat="48.84047" lon="2.41755">
        <ele>108.09</ele>
        <time>2019-05-20T21:07:09.000Z</time>
      </trkpt>
      <trkpt lat="48.84056" lon="2.41757">
        <ele>108.1</ele>
        <time>2019-05-20T21:07:11.000Z</time>
      </trkpt>
      <trkpt lat="48.84065" lon="2.41761">
        <ele>108.09</ele>
        <time>2019-05-20T21:07:14.000Z</time>
      </trkpt>
      <trkpt lat="48.84074" lon="2.41757">
        <ele>108.09</ele>
        <time>2019-05-20T21:07:17.000Z</time>
      </trkpt>
      <trkpt lat="48.84084" lon="2.41758">
        <ele>108.07</ele>
        <time>2019-05-20T21:07:19.000Z</time>
      </trkpt>
      <trkpt lat="48.84097" lon="2.41761">
        <ele>108.04</ele>
        <time>2019-05-20T21:07:21.000Z</time>
      </trkpt>
      <trkpt lat="48.84108" lon="2.41764">
        <ele>108.01</ele>
        <time>2019-05-20T21:07:23.000Z</time>
      </trkpt>
      <trkpt lat="48.84121" lon="2.41767">
        <ele>107.98</ele>
        <time>2019-05-20T21:07:25.000Z</time>
      </trkpt>
      <trkpt lat="48.84134" lon="2.41766">
        <ele>107.97</ele>
        <time>2019-05-20T21:07:27.000Z</time>
      </trkpt>
      <trkpt lat="48.84146" lon="2.41767">
        <ele>107.96</ele>
        <time>2019-05-20T21:07:29.000Z</time>
      </trkpt>
      <trkpt lat="48.84158" lon="2.41765">
        <ele>107.94</ele>
        <time>2019-05-20T21:07:31.000Z</time>
      </trkpt>
      <trkpt lat="48.84172" lon="2.41768">
        <ele>107.88</ele>
        <time>2019-05-20T21:07:34.000Z</time>
      </trkpt>
      <trkpt lat="48.84185" lon="2.41771">
        <ele>107.84</ele>
        <time>2019-05-20T21:07:37.000Z</time>
      </trkpt>
      <trkpt lat="48.84197" lon="2.41775">
        <ele>107.8</ele>
        <time>2019-05-20T21:07:40.000Z</time>
      </trkpt>
      <trkpt lat="48.84206" lon="2.41774">
        <ele>107.78</ele>
        <time>2019-05-20T21:07:42.000Z</time>
      </trkpt>
      <trkpt lat="48.84216" lon="2.41773">
        <ele>107.77</ele>
        <time>2019-05-20T21:07:44.000Z</time>
      </trkpt>
      <trkpt lat="48.84229" lon="2.41772">
        <ele>107.75</ele>
        <time>2019-05-20T21:07:47.000Z</time>
      </trkpt>
      <trkpt lat="48.84242" lon="2.41772">
        <ele>107.76</ele>
        <time>2019-05-20T21:07:50.000Z</time>
      </trkpt>
      <trkpt lat="48.84255" lon="2.41774">
        <ele>107.77</ele>
        <time>2019-05-20T21:07:53.000Z</time>
      </trkpt>
      <trkpt lat="48.84267" lon="2.41772">
        <ele>107.76</ele>
        <time>2019-05-20T21:07:55.000Z</time>
      </trkpt>
      <trkpt lat="48.84282" lon="2.41769">
        <ele>107.73</ele>
        <time>2019-05-20T21:07:57.000Z</time>
      </trkpt>
      <trkpt lat="48.84292" lon="2.4177">
        <ele>107.69</ele>
        <time>2019-05-20T21:07:59.000Z</time>
      </trkpt>
      <trkpt lat="48.84303" lon="2.41771">
        <ele>107.66</ele>
        <time>2019-05-20T21:08:01.000Z</time>
      </trkpt>
      <trkpt lat="48.84314" lon="2.41773">
        <ele>107.64</ele>
        <time>2019-05-20T21:08:03.000Z</time>
      </trkpt>
      <trkpt lat="48.84323" lon="2.41776">
        <ele>107.64</ele>
        <time>2019-05-20T21:08:05.000Z</time>
      </trkpt>
      <trkpt lat="48.84334" lon="2.41774">
        <ele>107.63</ele>
        <time>2019-05-20T21:08:07.000Z</time>
      </trkpt>
      <trkpt lat="48.84344" lon="2.41769">
        <ele>107.62</ele>
        <time>2019-05-20T21:08:09.000Z</time>
      </trkpt>
      <trkpt lat="48.84353" lon="2.41764">
        <ele>107.62</ele>
        <time>2019-05-20T21:08:14.000Z</time>
      </trkpt>
      <trkpt lat="48.84361" lon="2.41753">
        <ele>107.52</ele>
        <time>2019-05-20T21:08:51.000Z</time>
      </trkpt>
      <trkpt lat="48.84366" lon="2.41738">
        <ele>107.47</ele>
        <time>2019-05-20T21:08:56.000Z</time>
      </trkpt>
      <trkpt lat="48.84371" lon="2.41722">
        <ele>107.43</ele>
        <time>2019-05-20T21:08:59.000Z</time>
      </trkpt>
      <trkpt lat="48.84375" lon="2.41702">
        <ele>107.4</ele>
        <time>2019-05-20T21:09:02.000Z</time>
      </trkpt>
      <trkpt lat="48.84376" lon="2.41688">
        <ele>107.27</ele>
        <time>2019-05-20T21:09:04.000Z</time>
      </trkpt>
      <trkpt lat="48.84378" lon="2.41671">
        <ele>107.14</ele>
        <time>2019-05-20T21:09:07.000Z</time>
      </trkpt>
      <trkpt lat="48.84379" lon="2.41656">
        <ele>106.98</ele>
        <time>2019-05-20T21:09:09.000Z</time>
      </trkpt>
      <trkpt lat="48.8438" lon="2.41642">
        <ele>106.87</ele>
        <time>2019-05-20T21:09:11.000Z</time>
      </trkpt>
      <trkpt lat="48.84382" lon="2.41628">
        <ele>106.84</ele>
        <time>2019-05-20T21:09:13.000Z</time>
      </trkpt>
      <trkpt lat="48.84384" lon="2.41611">
        <ele>106.83</ele>
        <time>2019-05-20T21:09:16.000Z</time>
      </trkpt>
      <trkpt lat="48.84385" lon="2.41594">
        <ele>106.81</ele>
        <time>2019-05-20T21:09:19.000Z</time>
      </trkpt>
      <trkpt lat="48.84387" lon="2.4158">
        <ele>106.79</ele>
        <time>2019-05-20T21:09:21.000Z</time>
      </trkpt>
      <trkpt lat="48.84388" lon="2.4156">
        <ele>106.76</ele>
        <time>2019-05-20T21:09:24.000Z</time>
      </trkpt>
      <trkpt lat="48.8439" lon="2.41546">
        <ele>106.75</ele>
        <time>2019-05-20T21:09:26.000Z</time>
      </trkpt>
      <trkpt lat="48.84391" lon="2.41531">
        <ele>106.75</ele>
        <time>2019-05-20T21:09:28.000Z</time>
      </trkpt>
      <trkpt lat="48.84393" lon="2.41512">
        <ele>106.73</ele>
        <time>2019-05-20T21:09:31.000Z</time>
      </trkpt>
      <trkpt lat="48.84395" lon="2.41498">
        <ele>106.72</ele>
        <time>2019-05-20T21:09:33.000Z</time>
      </trkpt>
      <trkpt lat="48.84398" lon="2.41482">
        <ele>106.72</ele>
        <time>2019-05-20T21:09:36.000Z</time>
      </trkpt>
      <trkpt lat="48.84402" lon="2.41469">
        <ele>106.72</ele>
        <time>2019-05-20T21:09:38.000Z</time>
      </trkpt>
      <trkpt lat="48.84406" lon="2.4145">
        <ele>106.73</ele>
        <time>2019-05-20T21:09:41.000Z</time>
      </trkpt>
      <trkpt lat="48.84408" lon="2.4143">
        <ele>106.73</ele>
        <time>2019-05-20T21:09:44.000Z</time>
      </trkpt>
      <trkpt lat="48.84409" lon="2.41412">
        <ele>106.72</ele>
        <time>2019-05-20T21:09:47.000Z</time>
      </trkpt>
      <trkpt lat="48.84411" lon="2.41394">
        <ele>106.73</ele>
        <time>2019-05-20T21:09:50.000Z</time>
      </trkpt>
      <trkpt lat="48.84412" lon="2.41374">
        <ele>106.72</ele>
        <time>2019-05-20T21:09:53.000Z</time>
      </trkpt>
      <trkpt lat="48.84413" lon="2.41354">
        <ele>106.7</ele>
        <time>2019-05-20T21:09:56.000Z</time>
      </trkpt>
      <trkpt lat="48.84414" lon="2.41339">
        <ele>106.71</ele>
        <time>2019-05-20T21:09:58.000Z</time>
      </trkpt>
      <trkpt lat="48.84415" lon="2.41326">
        <ele>106.72</ele>
        <time>2019-05-20T21:10:00.000Z</time>
      </trkpt>
      <trkpt lat="48.84415" lon="2.41308">
        <ele>106.74</ele>
        <time>2019-05-20T21:10:03.000Z</time>
      </trkpt>
      <trkpt lat="48.84415" lon="2.4129">
        <ele>106.75</ele>
        <time>2019-05-20T21:10:06.000Z</time>
      </trkpt>
      <trkpt lat="48.84415" lon="2.41273">
        <ele>106.75</ele>
        <time>2019-05-20T21:10:09.000Z</time>
      </trkpt>
      <trkpt lat="48.84417" lon="2.41256">
        <ele>106.75</ele>
        <time>2019-05-20T21:10:12.000Z</time>
      </trkpt>
      <trkpt lat="48.8442" lon="2.41234">
        <ele>106.75</ele>
        <time>2019-05-20T21:10:15.000Z</time>
      </trkpt>
      <trkpt lat="48.84421" lon="2.41218">
        <ele>106.74</ele>
        <time>2019-05-20T21:10:18.000Z</time>
      </trkpt>
      <trkpt lat="48.84423" lon="2.41204">
        <ele>106.74</ele>
        <time>2019-05-20T21:10:20.000Z</time>
      </trkpt>
      <trkpt lat="48.84425" lon="2.4119">
        <ele>106.73</ele>
        <time>2019-05-20T21:10:22.000Z</time>
      </trkpt>
      <trkpt lat="48.84425" lon="2.41175">
        <ele>106.69</ele>
        <time>2019-05-20T21:10:25.000Z</time>
      </trkpt>
      <trkpt lat="48.84426" lon="2.41158">
        <ele>106.35</ele>
        <time>2019-05-20T21:10:28.000Z</time>
      </trkpt>
      <trkpt lat="48.84428" lon="2.41144">
        <ele>106.31</ele>
        <time>2019-05-20T21:10:30.000Z</time>
      </trkpt>
      <trkpt lat="48.84429" lon="2.4113">
        <ele>106.28</ele>
        <time>2019-05-20T21:10:32.000Z</time>
      </trkpt>
      <trkpt lat="48.84433" lon="2.41117">
        <ele>106.24</ele>
        <time>2019-05-20T21:10:34.000Z</time>
      </trkpt>
      <trkpt lat="48.84433" lon="2.41098">
        <ele>106.18</ele>
        <time>2019-05-20T21:10:37.000Z</time>
      </trkpt>
      <trkpt lat="48.84436" lon="2.4108">
        <ele>106.13</ele>
        <time>2019-05-20T21:10:40.000Z</time>
      </trkpt>
      <trkpt lat="48.84437" lon="2.41062">
        <ele>105.78</ele>
        <time>2019-05-20T21:10:43.000Z</time>
      </trkpt>
      <trkpt lat="48.84439" lon="2.41046">
        <ele>105.73</ele>
        <time>2019-05-20T21:10:46.000Z</time>
      </trkpt>
      <trkpt lat="48.84441" lon="2.41032">
        <ele>105.53</ele>
        <time>2019-05-20T21:10:50.000Z</time>
      </trkpt>
      <trkpt lat="48.84448" lon="2.41021">
        <ele>105.32</ele>
        <time>2019-05-20T21:10:54.000Z</time>
      </trkpt>
      <trkpt lat="48.84451" lon="2.41006">
        <ele>105</ele>
        <time>2019-05-20T21:11:00.000Z</time>
      </trkpt>
      <trkpt lat="48.84449" lon="2.40992">
        <ele>105.2</ele>
        <time>2019-05-20T21:11:38.000Z</time>
      </trkpt>
      <trkpt lat="48.84453" lon="2.40975">
        <ele>105.23</ele>
        <time>2019-05-20T21:11:42.000Z</time>
      </trkpt>
      <trkpt lat="48.84458" lon="2.40961">
        <ele>105.12</ele>
        <time>2019-05-20T21:11:45.000Z</time>
      </trkpt>
      <trkpt lat="48.84461" lon="2.40946">
        <ele>104.93</ele>
        <time>2019-05-20T21:11:48.000Z</time>
      </trkpt>
      <trkpt lat="48.8446" lon="2.40925">
        <ele>104.53</ele>
        <time>2019-05-20T21:11:51.000Z</time>
      </trkpt>
      <trkpt lat="48.84461" lon="2.4091">
        <ele>103.95</ele>
        <time>2019-05-20T21:11:53.000Z</time>
      </trkpt>
      <trkpt lat="48.84464" lon="2.40897">
        <ele>103.28</ele>
        <time>2019-05-20T21:11:55.000Z</time>
      </trkpt>
      <trkpt lat="48.84462" lon="2.4088">
        <ele>102.56</ele>
        <time>2019-05-20T21:11:57.000Z</time>
      </trkpt>
      <trkpt lat="48.84467" lon="2.40858">
        <ele>96.84</ele>
        <time>2019-05-20T21:12:00.000Z</time>
      </trkpt>
      <trkpt lat="48.84472" lon="2.40838">
        <ele>95.89</ele>
        <time>2019-05-20T21:12:02.000Z</time>
      </trkpt>
      <trkpt lat="48.84473" lon="2.40822">
        <ele>94.81</ele>
        <time>2019-05-20T21:12:04.000Z</time>
      </trkpt>
      <trkpt lat="48.84474" lon="2.40807">
        <ele>93.76</ele>
        <time>2019-05-20T21:12:06.000Z</time>
      </trkpt>
      <trkpt lat="48.84475" lon="2.4079">
        <ele>92.53</ele>
        <time>2019-05-20T21:12:08.000Z</time>
      </trkpt>
      <trkpt lat="48.84476" lon="2.40772">
        <ele>90.53</ele>
        <time>2019-05-20T21:12:11.000Z</time>
      </trkpt>
      <trkpt lat="48.84481" lon="2.40753">
        <ele>88.57</ele>
        <time>2019-05-20T21:12:14.000Z</time>
      </trkpt>
      <trkpt lat="48.84484" lon="2.4074">
        <ele>81.59</ele>
        <time>2019-05-20T21:12:16.000Z</time>
      </trkpt>
      <trkpt lat="48.84486" lon="2.40721">
        <ele>70.52</ele>
        <time>2019-05-20T21:12:18.000Z</time>
      </trkpt>
      <trkpt lat="48.84488" lon="2.40702">
        <ele>61.5</ele>
        <time>2019-05-20T21:12:20.000Z</time>
      </trkpt>
      <trkpt lat="48.84491" lon="2.40682">
        <ele>54.26</ele>
        <time>2019-05-20T21:12:22.000Z</time>
      </trkpt>
      <trkpt lat="48.84493" lon="2.40666">
        <ele>48.73</ele>
        <time>2019-05-20T21:12:24.000Z</time>
      </trkpt>
      <trkpt lat="48.84494" lon="2.40651">
        <ele>48.36</ele>
        <time>2019-05-20T21:12:26.000Z</time>
      </trkpt>
      <trkpt lat="48.84489" lon="2.40637">
        <ele>48.04</ele>
        <time>2019-05-20T21:12:28.000Z</time>
      </trkpt>
      <trkpt lat="48.84484" lon="2.40622">
        <ele>47.77</ele>
        <time>2019-05-20T21:12:31.000Z</time>
      </trkpt>
      <trkpt lat="48.84485" lon="2.40602">
        <ele>48.83</ele>
        <time>2019-05-20T21:12:35.000Z</time>
      </trkpt>
      <trkpt lat="48.84484" lon="2.40587">
        <ele>50.33</ele>
        <time>2019-05-20T21:12:37.000Z</time>
      </trkpt>
      <trkpt lat="48.84485" lon="2.40572">
        <ele>51.49</ele>
        <time>2019-05-20T21:12:39.000Z</time>
      </trkpt>
      <trkpt lat="48.84485" lon="2.40558">
        <ele>53.32</ele>
        <time>2019-05-20T21:12:41.000Z</time>
      </trkpt>
      <trkpt lat="48.84486" lon="2.40544">
        <ele>53.64</ele>
        <time>2019-05-20T21:12:43.000Z</time>
      </trkpt>
      <trkpt lat="48.84487" lon="2.40528">
        <ele>54.63</ele>
        <time>2019-05-20T21:12:45.000Z</time>
      </trkpt>
      <trkpt lat="48.84488" lon="2.40511">
        <ele>56.32</ele>
        <time>2019-05-20T21:12:47.000Z</time>
      </trkpt>
      <trkpt lat="48.8449" lon="2.40493">
        <ele>58.23</ele>
        <time>2019-05-20T21:12:49.000Z</time>
      </trkpt>
      <trkpt lat="48.8449" lon="2.40477">
        <ele>59.98</ele>
        <time>2019-05-20T21:12:51.000Z</time>
      </trkpt>
      <trkpt lat="48.84491" lon="2.4046">
        <ele>61.81</ele>
        <time>2019-05-20T21:12:53.000Z</time>
      </trkpt>
      <trkpt lat="48.84493" lon="2.40442">
        <ele>62.84</ele>
        <time>2019-05-20T21:12:55.000Z</time>
      </trkpt>
      <trkpt lat="48.84494" lon="2.40424">
        <ele>63.33</ele>
        <time>2019-05-20T21:12:57.000Z</time>
      </trkpt>
      <trkpt lat="48.84496" lon="2.40404">
        <ele>63.06</ele>
        <time>2019-05-20T21:12:59.000Z</time>
      </trkpt>
      <trkpt lat="48.84498" lon="2.40383">
        <ele>63.64</ele>
        <time>2019-05-20T21:13:01.000Z</time>
      </trkpt>
      <trkpt lat="48.84501" lon="2.40363">
        <ele>64.5</ele>
        <time>2019-05-20T21:13:03.000Z</time>
      </trkpt>
      <trkpt lat="48.84502" lon="2.40343">
        <ele>65.66</ele>
        <time>2019-05-20T21:13:05.000Z</time>
      </trkpt>
      <trkpt lat="48.84504" lon="2.40325">
        <ele>67.08</ele>
        <time>2019-05-20T21:13:07.000Z</time>
      </trkpt>
      <trkpt lat="48.84506" lon="2.40307">
        <ele>68.41</ele>
        <time>2019-05-20T21:13:10.000Z</time>
      </trkpt>
      <trkpt lat="48.84507" lon="2.40291">
        <ele>69.83</ele>
        <time>2019-05-20T21:13:13.000Z</time>
      </trkpt>
      <trkpt lat="48.84515" lon="2.4028">
        <ele>70.23</ele>
        <time>2019-05-20T21:13:16.000Z</time>
      </trkpt>
      <trkpt lat="48.8452" lon="2.40269">
        <ele>70.7</ele>
        <time>2019-05-20T21:13:19.000Z</time>
      </trkpt>
      <trkpt lat="48.84523" lon="2.40254">
        <ele>71.39</ele>
        <time>2019-05-20T21:13:23.000Z</time>
      </trkpt>
      <trkpt lat="48.84521" lon="2.40239">
        <ele>71.92</ele>
        <time>2019-05-20T21:13:26.000Z</time>
      </trkpt>
      <trkpt lat="48.84519" lon="2.40224">
        <ele>72.43</ele>
        <time>2019-05-20T21:13:29.000Z</time>
      </trkpt>
      <trkpt lat="48.84516" lon="2.40211">
        <ele>72.97</ele>
        <time>2019-05-20T21:13:31.000Z</time>
      </trkpt>
      <trkpt lat="48.84514" lon="2.40197">
        <ele>73.97</ele>
        <time>2019-05-20T21:13:34.000Z</time>
      </trkpt>
      <trkpt lat="48.84514" lon="2.4018">
        <ele>75.57</ele>
        <time>2019-05-20T21:13:39.000Z</time>
      </trkpt>
      <trkpt lat="48.84514" lon="2.40163">
        <ele>83.75</ele>
        <time>2019-05-20T21:14:21.000Z</time>
      </trkpt>
      <trkpt lat="48.84517" lon="2.40148">
        <ele>85.63</ele>
        <time>2019-05-20T21:14:24.000Z</time>
      </trkpt>
      <trkpt lat="48.84518" lon="2.40132">
        <ele>87.38</ele>
        <time>2019-05-20T21:14:27.000Z</time>
      </trkpt>
      <trkpt lat="48.84519" lon="2.40114">
        <ele>89.01</ele>
        <time>2019-05-20T21:14:30.000Z</time>
      </trkpt>
      <trkpt lat="48.8452" lon="2.40097">
        <ele>90.53</ele>
        <time>2019-05-20T21:14:33.000Z</time>
      </trkpt>
      <trkpt lat="48.84522" lon="2.40083">
        <ele>91.95</ele>
        <time>2019-05-20T21:14:36.000Z</time>
      </trkpt>
      <trkpt lat="48.84523" lon="2.40069">
        <ele>93.28</ele>
        <time>2019-05-20T21:14:39.000Z</time>
      </trkpt>
      <trkpt lat="48.84516" lon="2.4006">
        <ele>110.47</ele>
        <time>2019-05-20T21:17:29.000Z</time>
      </trkpt>
      <trkpt lat="48.84525" lon="2.40053">
        <ele>113.3</ele>
        <time>2019-05-20T21:19:19.000Z</time>
      </trkpt>
      <trkpt lat="48.84518" lon="2.40043">
        <ele>114.11</ele>
        <time>2019-05-20T21:21:13.000Z</time>
      </trkpt>
      <trkpt lat="48.84518" lon="2.40029">
        <ele>114.15</ele>
        <time>2019-05-20T21:21:16.000Z</time>
      </trkpt>
      <trkpt lat="48.84519" lon="2.40015">
        <ele>114.18</ele>
        <time>2019-05-20T21:21:19.000Z</time>
      </trkpt>
      <trkpt lat="48.8452" lon="2.40001">
        <ele>114.21</ele>
        <time>2019-05-20T21:21:22.000Z</time>
      </trkpt>
      <trkpt lat="48.84522" lon="2.39982">
        <ele>114.3</ele>
        <time>2019-05-20T21:21:25.000Z</time>
      </trkpt>
      <trkpt lat="48.84524" lon="2.39967">
        <ele>114.31</ele>
        <time>2019-05-20T21:21:27.000Z</time>
      </trkpt>
      <trkpt lat="48.84526" lon="2.39946">
        <ele>114.32</ele>
        <time>2019-05-20T21:21:30.000Z</time>
      </trkpt>
      <trkpt lat="48.84527" lon="2.39931">
        <ele>114.32</ele>
        <time>2019-05-20T21:21:32.000Z</time>
      </trkpt>
      <trkpt lat="48.84528" lon="2.39912">
        <ele>114.32</ele>
        <time>2019-05-20T21:21:35.000Z</time>
      </trkpt>
      <trkpt lat="48.84531" lon="2.39891">
        <ele>114.32</ele>
        <time>2019-05-20T21:21:38.000Z</time>
      </trkpt>
      <trkpt lat="48.84533" lon="2.39876">
        <ele>114.32</ele>
        <time>2019-05-20T21:21:40.000Z</time>
      </trkpt>
      <trkpt lat="48.84535" lon="2.3986">
        <ele>114.31</ele>
        <time>2019-05-20T21:21:42.000Z</time>
      </trkpt>
      <trkpt lat="48.84536" lon="2.39845">
        <ele>114.3</ele>
        <time>2019-05-20T21:21:44.000Z</time>
      </trkpt>
      <trkpt lat="48.84537" lon="2.39829">
        <ele>114.3</ele>
        <time>2019-05-20T21:21:46.000Z</time>
      </trkpt>
      <trkpt lat="48.84538" lon="2.39812">
        <ele>114.28</ele>
        <time>2019-05-20T21:21:49.000Z</time>
      </trkpt>
      <trkpt lat="48.8454" lon="2.39798">
        <ele>114.28</ele>
        <time>2019-05-20T21:21:51.000Z</time>
      </trkpt>
      <trkpt lat="48.84544" lon="2.39782">
        <ele>114.27</ele>
        <time>2019-05-20T21:21:54.000Z</time>
      </trkpt>
      <trkpt lat="48.84547" lon="2.39765">
        <ele>114.25</ele>
        <time>2019-05-20T21:21:57.000Z</time>
      </trkpt>
      <trkpt lat="48.84549" lon="2.39746">
        <ele>114.24</ele>
        <time>2019-05-20T21:22:00.000Z</time>
      </trkpt>
      <trkpt lat="48.84548" lon="2.39729">
        <ele>114.23</ele>
        <time>2019-05-20T21:22:02.000Z</time>
      </trkpt>
      <trkpt lat="48.84548" lon="2.39713">
        <ele>114.21</ele>
        <time>2019-05-20T21:22:04.000Z</time>
      </trkpt>
      <trkpt lat="48.84551" lon="2.39696">
        <ele>114.2</ele>
        <time>2019-05-20T21:22:06.000Z</time>
      </trkpt>
      <trkpt lat="48.84554" lon="2.39681">
        <ele>114.18</ele>
        <time>2019-05-20T21:22:09.000Z</time>
      </trkpt>
      <trkpt lat="48.84555" lon="2.39665">
        <ele>114.16</ele>
        <time>2019-05-20T21:22:12.000Z</time>
      </trkpt>
      <trkpt lat="48.84557" lon="2.39646">
        <ele>114.15</ele>
        <time>2019-05-20T21:22:14.000Z</time>
      </trkpt>
      <trkpt lat="48.84558" lon="2.39628">
        <ele>114.14</ele>
        <time>2019-05-20T21:22:16.000Z</time>
      </trkpt>
      <trkpt lat="48.84557" lon="2.39608">
        <ele>114.06</ele>
        <time>2019-05-20T21:22:18.000Z</time>
      </trkpt>
      <trkpt lat="48.84559" lon="2.39589">
        <ele>113.99</ele>
        <time>2019-05-20T21:22:20.000Z</time>
      </trkpt>
      <trkpt lat="48.84561" lon="2.39574">
        <ele>113.98</ele>
        <time>2019-05-20T21:22:22.000Z</time>
      </trkpt>
      <trkpt lat="48.84561" lon="2.39557">
        <ele>113.84</ele>
        <time>2019-05-20T21:22:24.000Z</time>
      </trkpt>
      <trkpt lat="48.84561" lon="2.39541">
        <ele>113.83</ele>
        <time>2019-05-20T21:22:26.000Z</time>
      </trkpt>
      <trkpt lat="48.84562" lon="2.39524">
        <ele>113.81</ele>
        <time>2019-05-20T21:22:28.000Z</time>
      </trkpt>
      <trkpt lat="48.84563" lon="2.3951">
        <ele>113.81</ele>
        <time>2019-05-20T21:22:30.000Z</time>
      </trkpt>
      <trkpt lat="48.84572" lon="2.39496">
        <ele>113.81</ele>
        <time>2019-05-20T21:22:33.000Z</time>
      </trkpt>
      <trkpt lat="48.84579" lon="2.39485">
        <ele>113.82</ele>
        <time>2019-05-20T21:22:36.000Z</time>
      </trkpt>
      <trkpt lat="48.84587" lon="2.39472">
        <ele>113.82</ele>
        <time>2019-05-20T21:22:39.000Z</time>
      </trkpt>
      <trkpt lat="48.84595" lon="2.39459">
        <ele>113.82</ele>
        <time>2019-05-20T21:22:42.000Z</time>
      </trkpt>
      <trkpt lat="48.84604" lon="2.39447">
        <ele>113.82</ele>
        <time>2019-05-20T21:22:45.000Z</time>
      </trkpt>
      <trkpt lat="48.84611" lon="2.39438">
        <ele>113.84</ele>
        <time>2019-05-20T21:22:48.000Z</time>
      </trkpt>
      <trkpt lat="48.84621" lon="2.39436">
        <ele>114.02</ele>
        <time>2019-05-20T21:22:52.000Z</time>
      </trkpt>
      <trkpt lat="48.84629" lon="2.39448">
        <ele>114.1</ele>
        <time>2019-05-20T21:22:55.000Z</time>
      </trkpt>
      <trkpt lat="48.84641" lon="2.39443">
        <ele>114.1</ele>
        <time>2019-05-20T21:22:58.000Z</time>
      </trkpt>
      <trkpt lat="48.84651" lon="2.39437">
        <ele>114.06</ele>
        <time>2019-05-20T21:23:00.000Z</time>
      </trkpt>
      <trkpt lat="48.84663" lon="2.39427">
        <ele>114.05</ele>
        <time>2019-05-20T21:23:02.000Z</time>
      </trkpt>
      <trkpt lat="48.84673" lon="2.39416">
        <ele>114</ele>
        <time>2019-05-20T21:23:04.000Z</time>
      </trkpt>
      <trkpt lat="48.84688" lon="2.39405">
        <ele>113.93</ele>
        <time>2019-05-20T21:23:06.000Z</time>
      </trkpt>
      <trkpt lat="48.84699" lon="2.3939">
        <ele>113.9</ele>
        <time>2019-05-20T21:23:08.000Z</time>
      </trkpt>
      <trkpt lat="48.84702" lon="2.39375">
        <ele>113.9</ele>
        <time>2019-05-20T21:23:11.000Z</time>
      </trkpt>
      <trkpt lat="48.84708" lon="2.39362">
        <ele>113.89</ele>
        <time>2019-05-20T21:23:14.000Z</time>
      </trkpt>
      <trkpt lat="48.84711" lon="2.39348">
        <ele>113.86</ele>
        <time>2019-05-20T21:23:17.000Z</time>
      </trkpt>
      <trkpt lat="48.84717" lon="2.39337">
        <ele>113.83</ele>
        <time>2019-05-20T21:23:19.000Z</time>
      </trkpt>
      <trkpt lat="48.84726" lon="2.39327">
        <ele>113.55</ele>
        <time>2019-05-20T21:23:21.000Z</time>
      </trkpt>
      <trkpt lat="48.84737" lon="2.39319">
        <ele>113.33</ele>
        <time>2019-05-20T21:23:23.000Z</time>
      </trkpt>
      <trkpt lat="48.8475" lon="2.3931">
        <ele>113.14</ele>
        <time>2019-05-20T21:23:25.000Z</time>
      </trkpt>
      <trkpt lat="48.8476" lon="2.393">
        <ele>113.05</ele>
        <time>2019-05-20T21:23:27.000Z</time>
      </trkpt>
      <trkpt lat="48.84769" lon="2.39294">
        <ele>112.97</ele>
        <time>2019-05-20T21:23:29.000Z</time>
      </trkpt>
      <trkpt lat="48.84781" lon="2.39288">
        <ele>112.95</ele>
        <time>2019-05-20T21:23:32.000Z</time>
      </trkpt>
      <trkpt lat="48.84793" lon="2.39289">
        <ele>112.92</ele>
        <time>2019-05-20T21:23:36.000Z</time>
      </trkpt>
      <trkpt lat="48.84803" lon="2.39292">
        <ele>112.89</ele>
        <time>2019-05-20T21:24:16.000Z</time>
      </trkpt>
      <trkpt lat="48.84812" lon="2.39289">
        <ele>112.89</ele>
        <time>2019-05-20T21:24:19.000Z</time>
      </trkpt>
      <trkpt lat="48.84821" lon="2.3929">
        <ele>112.88</ele>
        <time>2019-05-20T21:24:23.000Z</time>
      </trkpt>
      <trkpt lat="48.84831" lon="2.39283">
        <ele>112.85</ele>
        <time>2019-05-20T21:24:26.000Z</time>
      </trkpt>
      <trkpt lat="48.84842" lon="2.39275">
        <ele>112.82</ele>
        <time>2019-05-20T21:24:29.000Z</time>
      </trkpt>
      <trkpt lat="48.84853" lon="2.39266">
        <ele>112.56</ele>
        <time>2019-05-20T21:24:32.000Z</time>
      </trkpt>
      <trkpt lat="48.84865" lon="2.39259">
        <ele>112.45</ele>
        <time>2019-05-20T21:24:35.000Z</time>
      </trkpt>
      <trkpt lat="48.84876" lon="2.39254">
        <ele>112.42</ele>
        <time>2019-05-20T21:24:38.000Z</time>
      </trkpt>
      <trkpt lat="48.84886" lon="2.39246">
        <ele>112.39</ele>
        <time>2019-05-20T21:24:41.000Z</time>
      </trkpt>
      <trkpt lat="48.84896" lon="2.39239">
        <ele>112.34</ele>
        <time>2019-05-20T21:24:45.000Z</time>
      </trkpt>
      <trkpt lat="48.8489" lon="2.39228">
        <ele>112.21</ele>
        <time>2019-05-20T21:25:02.000Z</time>
      </trkpt>
      <trkpt lat="48.84899" lon="2.39217">
        <ele>112.02</ele>
        <time>2019-05-20T21:25:16.000Z</time>
      </trkpt>
      <trkpt lat="48.84909" lon="2.39206">
        <ele>111.89</ele>
        <time>2019-05-20T21:25:20.000Z</time>
      </trkpt>
      <trkpt lat="48.84917" lon="2.39198">
        <ele>111.8</ele>
        <time>2019-05-20T21:25:23.000Z</time>
      </trkpt>
      <trkpt lat="48.84924" lon="2.3919">
        <ele>111.71</ele>
        <time>2019-05-20T21:25:26.000Z</time>
      </trkpt>
      <trkpt lat="48.84929" lon="2.39177">
        <ele>111.63</ele>
        <time>2019-05-20T21:25:29.000Z</time>
      </trkpt>
      <trkpt lat="48.84937" lon="2.39167">
        <ele>111.54</ele>
        <time>2019-05-20T21:25:32.000Z</time>
      </trkpt>
      <trkpt lat="48.84945" lon="2.39158">
        <ele>111.49</ele>
        <time>2019-05-20T21:25:34.000Z</time>
      </trkpt>
      <trkpt lat="48.84956" lon="2.39147">
        <ele>111.4</ele>
        <time>2019-05-20T21:25:37.000Z</time>
      </trkpt>
      <trkpt lat="48.84964" lon="2.39139">
        <ele>111.35</ele>
        <time>2019-05-20T21:25:39.000Z</time>
      </trkpt>
      <trkpt lat="48.84974" lon="2.39128">
        <ele>110.69</ele>
        <time>2019-05-20T21:25:42.000Z</time>
      </trkpt>
      <trkpt lat="48.84986" lon="2.39117">
        <ele>110.43</ele>
        <time>2019-05-20T21:25:45.000Z</time>
      </trkpt>
      <trkpt lat="48.84996" lon="2.39106">
        <ele>110.26</ele>
        <time>2019-05-20T21:25:48.000Z</time>
      </trkpt>
      <trkpt lat="48.85004" lon="2.39098">
        <ele>110.25</ele>
        <time>2019-05-20T21:25:50.000Z</time>
      </trkpt>
      <trkpt lat="48.85016" lon="2.39087">
        <ele>110.18</ele>
        <time>2019-05-20T21:25:53.000Z</time>
      </trkpt>
      <trkpt lat="48.85024" lon="2.39081">
        <ele>110.12</ele>
        <time>2019-05-20T21:25:55.000Z</time>
      </trkpt>
      <trkpt lat="48.85032" lon="2.3907">
        <ele>110.11</ele>
        <time>2019-05-20T21:25:57.000Z</time>
      </trkpt>
      <trkpt lat="48.85041" lon="2.39061">
        <ele>110.09</ele>
        <time>2019-05-20T21:26:00.000Z</time>
      </trkpt>
      <trkpt lat="48.85047" lon="2.39048">
        <ele>110.07</ele>
        <time>2019-05-20T21:26:05.000Z</time>
      </trkpt>
      <trkpt lat="48.85052" lon="2.39035">
        <ele>110.06</ele>
        <time>2019-05-20T21:26:09.000Z</time>
      </trkpt>
      <trkpt lat="48.85061" lon="2.39028">
        <ele>110.06</ele>
        <time>2019-05-20T21:26:12.000Z</time>
      </trkpt>
      <trkpt lat="48.85069" lon="2.39021">
        <ele>110.06</ele>
        <time>2019-05-20T21:26:15.000Z</time>
      </trkpt>
      <trkpt lat="48.85078" lon="2.39016">
        <ele>110.06</ele>
        <time>2019-05-20T21:26:18.000Z</time>
      </trkpt>
      <trkpt lat="48.85088" lon="2.3901">
        <ele>110.06</ele>
        <time>2019-05-20T21:26:21.000Z</time>
      </trkpt>
      <trkpt lat="48.85098" lon="2.39004">
        <ele>110.04</ele>
        <time>2019-05-20T21:26:23.000Z</time>
      </trkpt>
      <trkpt lat="48.85106" lon="2.38994">
        <ele>110.03</ele>
        <time>2019-05-20T21:26:25.000Z</time>
      </trkpt>
      <trkpt lat="48.85117" lon="2.38988">
        <ele>110.02</ele>
        <time>2019-05-20T21:26:27.000Z</time>
      </trkpt>
      <trkpt lat="48.85129" lon="2.38979">
        <ele>110.01</ele>
        <time>2019-05-20T21:26:29.000Z</time>
      </trkpt>
      <trkpt lat="48.8514" lon="2.3897">
        <ele>110</ele>
        <time>2019-05-20T21:26:32.000Z</time>
      </trkpt>
      <trkpt lat="48.8515" lon="2.38967">
        <ele>109.98</ele>
        <time>2019-05-20T21:26:34.000Z</time>
      </trkpt>
      <trkpt lat="48.85162" lon="2.38957">
        <ele>109.97</ele>
        <time>2019-05-20T21:26:37.000Z</time>
      </trkpt>
      <trkpt lat="48.8517" lon="2.3895">
        <ele>109.97</ele>
        <time>2019-05-20T21:26:39.000Z</time>
      </trkpt>
      <trkpt lat="48.85178" lon="2.3894">
        <ele>109.96</ele>
        <time>2019-05-20T21:26:41.000Z</time>
      </trkpt>
      <trkpt lat="48.85186" lon="2.38935">
        <ele>109.95</ele>
        <time>2019-05-20T21:26:43.000Z</time>
      </trkpt>
      <trkpt lat="48.85195" lon="2.38931">
        <ele>109.94</ele>
        <time>2019-05-20T21:26:45.000Z</time>
      </trkpt>
      <trkpt lat="48.85207" lon="2.38927">
        <ele>109.94</ele>
        <time>2019-05-20T21:26:48.000Z</time>
      </trkpt>
      <trkpt lat="48.85215" lon="2.38921">
        <ele>109.9</ele>
        <time>2019-05-20T21:26:50.000Z</time>
      </trkpt>
      <trkpt lat="48.85225" lon="2.38911">
        <ele>109.9</ele>
        <time>2019-05-20T21:26:53.000Z</time>
      </trkpt>
      <trkpt lat="48.85235" lon="2.38906">
        <ele>109.9</ele>
        <time>2019-05-20T21:26:56.000Z</time>
      </trkpt>
      <trkpt lat="48.85245" lon="2.38896">
        <ele>109.89</ele>
        <time>2019-05-20T21:27:00.000Z</time>
      </trkpt>
      <trkpt lat="48.85255" lon="2.38886">
        <ele>109.88</ele>
        <time>2019-05-20T21:27:04.000Z</time>
      </trkpt>
      <trkpt lat="48.85263" lon="2.38879">
        <ele>109.86</ele>
        <time>2019-05-20T21:27:07.000Z</time>
      </trkpt>
      <trkpt lat="48.85272" lon="2.38873">
        <ele>109.85</ele>
        <time>2019-05-20T21:27:10.000Z</time>
      </trkpt>
      <trkpt lat="48.85281" lon="2.38866">
        <ele>109.83</ele>
        <time>2019-05-20T21:27:13.000Z</time>
      </trkpt>
      <trkpt lat="48.8529" lon="2.38858">
        <ele>109.81</ele>
        <time>2019-05-20T21:27:16.000Z</time>
      </trkpt>
      <trkpt lat="48.85297" lon="2.38847">
        <ele>109.78</ele>
        <time>2019-05-20T21:27:19.000Z</time>
      </trkpt>
      <trkpt lat="48.85306" lon="2.38841">
        <ele>109.75</ele>
        <time>2019-05-20T21:27:22.000Z</time>
      </trkpt>
      <trkpt lat="48.85314" lon="2.38834">
        <ele>109.72</ele>
        <time>2019-05-20T21:27:25.000Z</time>
      </trkpt>
      <trkpt lat="48.85322" lon="2.38823">
        <ele>109.68</ele>
        <time>2019-05-20T21:27:28.000Z</time>
      </trkpt>
      <trkpt lat="48.85331" lon="2.38812">
        <ele>109.64</ele>
        <time>2019-05-20T21:27:31.000Z</time>
      </trkpt>
      <trkpt lat="48.85337" lon="2.38801">
        <ele>109.6</ele>
        <time>2019-05-20T21:27:34.000Z</time>
      </trkpt>
      <trkpt lat="48.85346" lon="2.38787">
        <ele>109.54</ele>
        <time>2019-05-20T21:27:38.000Z</time>
      </trkpt>
      <trkpt lat="48.85354" lon="2.38778">
        <ele>109.48</ele>
        <time>2019-05-20T21:27:42.000Z</time>
      </trkpt>
      <trkpt lat="48.85361" lon="2.38767">
        <ele>109.4</ele>
        <time>2019-05-20T21:27:47.000Z</time>
      </trkpt>
      <trkpt lat="48.85367" lon="2.38757">
        <ele>109.34</ele>
        <time>2019-05-20T21:27:50.000Z</time>
      </trkpt>
      <trkpt lat="48.85373" lon="2.38743">
        <ele>109.29</ele>
        <time>2019-05-20T21:27:53.000Z</time>
      </trkpt>
      <trkpt lat="48.8538" lon="2.3873">
        <ele>109.24</ele>
        <time>2019-05-20T21:27:56.000Z</time>
      </trkpt>
      <trkpt lat="48.85389" lon="2.38716">
        <ele>109.18</ele>
        <time>2019-05-20T21:27:59.000Z</time>
      </trkpt>
      <trkpt lat="48.85396" lon="2.38705">
        <ele>109.12</ele>
        <time>2019-05-20T21:28:02.000Z</time>
      </trkpt>
      <trkpt lat="48.85402" lon="2.38691">
        <ele>109.04</ele>
        <time>2019-05-20T21:28:06.000Z</time>
      </trkpt>
      <trkpt lat="48.8541" lon="2.38676">
        <ele>108.96</ele>
        <time>2019-05-20T21:28:10.000Z</time>
      </trkpt>
      <trkpt lat="48.85421" lon="2.38672">
        <ele>108.89</ele>
        <time>2019-05-20T21:28:13.000Z</time>
      </trkpt>
      <trkpt lat="48.85429" lon="2.38664">
        <ele>108.82</ele>
        <time>2019-05-20T21:28:16.000Z</time>
      </trkpt>
      <trkpt lat="48.85437" lon="2.38651">
        <ele>108.75</ele>
        <time>2019-05-20T21:28:19.000Z</time>
      </trkpt>
      <trkpt lat="48.85444" lon="2.38643">
        <ele>108.66</ele>
        <time>2019-05-20T21:28:23.000Z</time>
      </trkpt>
      <trkpt lat="48.85454" lon="2.38632">
        <ele>108.58</ele>
        <time>2019-05-20T21:28:26.000Z</time>
      </trkpt>
      <trkpt lat="48.85465" lon="2.38623">
        <ele>108.5</ele>
        <time>2019-05-20T21:28:29.000Z</time>
      </trkpt>
      <trkpt lat="48.85474" lon="2.3861">
        <ele>108.41</ele>
        <time>2019-05-20T21:28:32.000Z</time>
      </trkpt>
      <trkpt lat="48.85481" lon="2.38597">
        <ele>108.33</ele>
        <time>2019-05-20T21:28:35.000Z</time>
      </trkpt>
      <trkpt lat="48.85488" lon="2.38586">
        <ele>108.23</ele>
        <time>2019-05-20T21:28:39.000Z</time>
      </trkpt>
      <trkpt lat="48.85495" lon="2.38574">
        <ele>108.13</ele>
        <time>2019-05-20T21:28:43.000Z</time>
      </trkpt>
      <trkpt lat="48.85501" lon="2.38561">
        <ele>108.01</ele>
        <time>2019-05-20T21:28:48.000Z</time>
      </trkpt>
      <trkpt lat="48.85499" lon="2.38545">
        <ele>107.84</ele>
        <time>2019-05-20T21:28:55.000Z</time>
      </trkpt>
      <trkpt lat="48.85506" lon="2.38537">
        <ele>107.54</ele>
        <time>2019-05-20T21:29:05.000Z</time>
      </trkpt>
      <trkpt lat="48.85515" lon="2.38528">
        <ele>107.4</ele>
        <time>2019-05-20T21:29:10.000Z</time>
      </trkpt>
      <trkpt lat="48.85523" lon="2.38517">
        <ele>107.31</ele>
        <time>2019-05-20T21:29:13.000Z</time>
      </trkpt>
      <trkpt lat="48.8553" lon="2.38508">
        <ele>107.22</ele>
        <time>2019-05-20T21:29:16.000Z</time>
      </trkpt>
      <trkpt lat="48.85538" lon="2.38493">
        <ele>107.13</ele>
        <time>2019-05-20T21:29:19.000Z</time>
      </trkpt>
      <trkpt lat="48.85545" lon="2.38483">
        <ele>107.04</ele>
        <time>2019-05-20T21:29:22.000Z</time>
      </trkpt>
      <trkpt lat="48.85552" lon="2.38473">
        <ele>106.96</ele>
        <time>2019-05-20T21:29:25.000Z</time>
      </trkpt>
      <trkpt lat="48.85559" lon="2.38463">
        <ele>106.89</ele>
        <time>2019-05-20T21:29:28.000Z</time>
      </trkpt>
      <trkpt lat="48.85566" lon="2.38448">
        <ele>106.81</ele>
        <time>2019-05-20T21:29:31.000Z</time>
      </trkpt>
      <trkpt lat="48.85573" lon="2.38435">
        <ele>106.73</ele>
        <time>2019-05-20T21:29:34.000Z</time>
      </trkpt>
      <trkpt lat="48.85579" lon="2.38421">
        <ele>106.65</ele>
        <time>2019-05-20T21:29:37.000Z</time>
      </trkpt>
      <trkpt lat="48.85587" lon="2.38407">
        <ele>106.57</ele>
        <time>2019-05-20T21:29:40.000Z</time>
      </trkpt>
      <trkpt lat="48.85594" lon="2.38394">
        <ele>106.49</ele>
        <time>2019-05-20T21:29:43.000Z</time>
      </trkpt>
      <trkpt lat="48.85601" lon="2.3838">
        <ele>106.41</ele>
        <time>2019-05-20T21:29:46.000Z</time>
      </trkpt>
      <trkpt lat="48.85605" lon="2.38366">
        <ele>106.33</ele>
        <time>2019-05-20T21:29:49.000Z</time>
      </trkpt>
      <trkpt lat="48.85613" lon="2.38355">
        <ele>106.26</ele>
        <time>2019-05-20T21:29:52.000Z</time>
      </trkpt>
      <trkpt lat="48.85622" lon="2.38343">
        <ele>106.18</ele>
        <time>2019-05-20T21:29:55.000Z</time>
      </trkpt>
      <trkpt lat="48.85629" lon="2.38331">
        <ele>106.14</ele>
        <time>2019-05-20T21:29:57.000Z</time>
      </trkpt>
      <trkpt lat="48.85636" lon="2.38316">
        <ele>106.07</ele>
        <time>2019-05-20T21:30:00.000Z</time>
      </trkpt>
      <trkpt lat="48.85642" lon="2.38301">
        <ele>106.02</ele>
        <time>2019-05-20T21:30:02.000Z</time>
      </trkpt>
      <trkpt lat="48.85646" lon="2.3828">
        <ele>105.97</ele>
        <time>2019-05-20T21:30:04.000Z</time>
      </trkpt>
      <trkpt lat="48.85651" lon="2.38263">
        <ele>105.89</ele>
        <time>2019-05-20T21:30:07.000Z</time>
      </trkpt>
      <trkpt lat="48.85658" lon="2.38248">
        <ele>105.84</ele>
        <time>2019-05-20T21:30:09.000Z</time>
      </trkpt>
      <trkpt lat="48.85666" lon="2.38238">
        <ele>105.77</ele>
        <time>2019-05-20T21:30:12.000Z</time>
      </trkpt>
      <trkpt lat="48.85673" lon="2.38224">
        <ele>105.7</ele>
        <time>2019-05-20T21:30:15.000Z</time>
      </trkpt>
      <trkpt lat="48.8568" lon="2.38213">
        <ele>105.65</ele>
        <time>2019-05-20T21:30:17.000Z</time>
      </trkpt>
      <trkpt lat="48.85688" lon="2.38203">
        <ele>105.57</ele>
        <time>2019-05-20T21:30:20.000Z</time>
      </trkpt>
      <trkpt lat="48.85698" lon="2.38195">
        <ele>105.5</ele>
        <time>2019-05-20T21:30:23.000Z</time>
      </trkpt>
      <trkpt lat="48.85707" lon="2.38186">
        <ele>105.44</ele>
        <time>2019-05-20T21:30:26.000Z</time>
      </trkpt>
      <trkpt lat="48.85715" lon="2.38172">
        <ele>105.37</ele>
        <time>2019-05-20T21:30:29.000Z</time>
      </trkpt>
      <trkpt lat="48.85725" lon="2.38159">
        <ele>105.31</ele>
        <time>2019-05-20T21:30:32.000Z</time>
      </trkpt>
      <trkpt lat="48.85732" lon="2.38147">
        <ele>105.25</ele>
        <time>2019-05-20T21:30:35.000Z</time>
      </trkpt>
      <trkpt lat="48.85739" lon="2.38138">
        <ele>105.19</ele>
        <time>2019-05-20T21:30:38.000Z</time>
      </trkpt>
      <trkpt lat="48.85745" lon="2.38127">
        <ele>105.11</ele>
        <time>2019-05-20T21:30:42.000Z</time>
      </trkpt>
      <trkpt lat="48.85753" lon="2.38119">
        <ele>105.05</ele>
        <time>2019-05-20T21:30:45.000Z</time>
      </trkpt>
      <trkpt lat="48.85761" lon="2.3811">
        <ele>104.99</ele>
        <time>2019-05-20T21:30:48.000Z</time>
      </trkpt>
      <trkpt lat="48.85767" lon="2.38097">
        <ele>104.92</ele>
        <time>2019-05-20T21:30:52.000Z</time>
      </trkpt>
      <trkpt lat="48.85771" lon="2.38084">
        <ele>104.86</ele>
        <time>2019-05-20T21:30:55.000Z</time>
      </trkpt>
      <trkpt lat="48.85778" lon="2.38072">
        <ele>104.74</ele>
        <time>2019-05-20T21:31:01.000Z</time>
      </trkpt>
      <trkpt lat="48.85783" lon="2.3806">
        <ele>104.43</ele>
        <time>2019-05-20T21:31:13.000Z</time>
      </trkpt>
      <trkpt lat="48.85793" lon="2.38053">
        <ele>104.28</ele>
        <time>2019-05-20T21:31:18.000Z</time>
      </trkpt>
      <trkpt lat="48.85798" lon="2.38042">
        <ele>104.16</ele>
        <time>2019-05-20T21:31:22.000Z</time>
      </trkpt>
      <trkpt lat="48.858" lon="2.38025">
        <ele>104.05</ele>
        <time>2019-05-20T21:31:26.000Z</time>
      </trkpt>
      <trkpt lat="48.85806" lon="2.38011">
        <ele>103.92</ele>
        <time>2019-05-20T21:31:31.000Z</time>
      </trkpt>
      <trkpt lat="48.85814" lon="2.38001">
        <ele>103.82</ele>
        <time>2019-05-20T21:31:35.000Z</time>
      </trkpt>
      <trkpt lat="48.85822" lon="2.37995">
        <ele>103.72</ele>
        <time>2019-05-20T21:31:39.000Z</time>
      </trkpt>
      <trkpt lat="48.85833" lon="2.37986">
        <ele>103.64</ele>
        <time>2019-05-20T21:31:43.000Z</time>
      </trkpt>
      <trkpt lat="48.85842" lon="2.37977">
        <ele>103.57</ele>
        <time>2019-05-20T21:31:46.000Z</time>
      </trkpt>
      <trkpt lat="48.85849" lon="2.37968">
        <ele>103.51</ele>
        <time>2019-05-20T21:31:49.000Z</time>
      </trkpt>
      <trkpt lat="48.85856" lon="2.37957">
        <ele>103.45</ele>
        <time>2019-05-20T21:31:52.000Z</time>
      </trkpt>
      <trkpt lat="48.85863" lon="2.37946">
        <ele>103.4</ele>
        <time>2019-05-20T21:31:55.000Z</time>
      </trkpt>
      <trkpt lat="48.85872" lon="2.37936">
        <ele>103.34</ele>
        <time>2019-05-20T21:31:58.000Z</time>
      </trkpt>
      <trkpt lat="48.8588" lon="2.37925">
        <ele>103.27</ele>
        <time>2019-05-20T21:32:02.000Z</time>
      </trkpt>
      <trkpt lat="48.85889" lon="2.37917">
        <ele>103.19</ele>
        <time>2019-05-20T21:32:07.000Z</time>
      </trkpt>
      <trkpt lat="48.85894" lon="2.37906">
        <ele>103.14</ele>
        <time>2019-05-20T21:32:10.000Z</time>
      </trkpt>
      <trkpt lat="48.85903" lon="2.37896">
        <ele>103.09</ele>
        <time>2019-05-20T21:32:13.000Z</time>
      </trkpt>
      <trkpt lat="48.85912" lon="2.37886">
        <ele>103.02</ele>
        <time>2019-05-20T21:32:17.000Z</time>
      </trkpt>
      <trkpt lat="48.85923" lon="2.37872">
        <ele>102.99</ele>
        <time>2019-05-20T21:32:19.000Z</time>
      </trkpt>
      <trkpt lat="48.85928" lon="2.37861">
        <ele>102.95</ele>
        <time>2019-05-20T21:32:21.000Z</time>
      </trkpt>
      <trkpt lat="48.85936" lon="2.37839">
        <ele>102.9</ele>
        <time>2019-05-20T21:32:24.000Z</time>
      </trkpt>
      <trkpt lat="48.85942" lon="2.37829">
        <ele>102.86</ele>
        <time>2019-05-20T21:32:26.000Z</time>
      </trkpt>
      <trkpt lat="48.85952" lon="2.37816">
        <ele>102.81</ele>
        <time>2019-05-20T21:32:29.000Z</time>
      </trkpt>
      <trkpt lat="48.85964" lon="2.3781">
        <ele>102.75</ele>
        <time>2019-05-20T21:32:32.000Z</time>
      </trkpt>
      <trkpt lat="48.85973" lon="2.37798">
        <ele>102.57</ele>
        <time>2019-05-20T21:32:35.000Z</time>
      </trkpt>
      <trkpt lat="48.85976" lon="2.37785">
        <ele>102.54</ele>
        <time>2019-05-20T21:32:37.000Z</time>
      </trkpt>
      <trkpt lat="48.85982" lon="2.37769">
        <ele>102.51</ele>
        <time>2019-05-20T21:32:39.000Z</time>
      </trkpt>
      <trkpt lat="48.85988" lon="2.37758">
        <ele>102.48</ele>
        <time>2019-05-20T21:32:41.000Z</time>
      </trkpt>
      <trkpt lat="48.85993" lon="2.37745">
        <ele>102.44</ele>
        <time>2019-05-20T21:32:44.000Z</time>
      </trkpt>
      <trkpt lat="48.85991" lon="2.37731">
        <ele>102.39</ele>
        <time>2019-05-20T21:32:48.000Z</time>
      </trkpt>
      <trkpt lat="48.85991" lon="2.37716">
        <ele>102.3</ele>
        <time>2019-05-20T21:32:57.000Z</time>
      </trkpt>
      <trkpt lat="48.85998" lon="2.37704">
        <ele>102.24</ele>
        <time>2019-05-20T21:33:00.000Z</time>
      </trkpt>
      <trkpt lat="48.86005" lon="2.37693">
        <ele>102.17</ele>
        <time>2019-05-20T21:33:02.999Z</time>
      </trkpt>
      <trkpt lat="48.86014" lon="2.37679">
        <ele>102.11</ele>
        <time>2019-05-20T21:33:05.999Z</time>
      </trkpt>
      <trkpt lat="48.86022" lon="2.37671">
        <ele>101.88</ele>
        <time>2019-05-20T21:33:07.999Z</time>
      </trkpt>
      <trkpt lat="48.86033" lon="2.37662">
        <ele>101.54</ele>
        <time>2019-05-20T21:33:10.999Z</time>
      </trkpt>
      <trkpt lat="48.86042" lon="2.37652">
        <ele>101.51</ele>
        <time>2019-05-20T21:33:13.999Z</time>
      </trkpt>
      <trkpt lat="48.8605" lon="2.37636">
        <ele>101.32</ele>
        <time>2019-05-20T21:33:16.999Z</time>
      </trkpt>
      <trkpt lat="48.86059" lon="2.37623">
        <ele>101.28</ele>
        <time>2019-05-20T21:33:19.999Z</time>
      </trkpt>
      <trkpt lat="48.86069" lon="2.3761">
        <ele>101.1</ele>
        <time>2019-05-20T21:33:22.999Z</time>
      </trkpt>
      <trkpt lat="48.86075" lon="2.376">
        <ele>101.08</ele>
        <time>2019-05-20T21:33:24.999Z</time>
      </trkpt>
      <trkpt lat="48.86085" lon="2.37585">
        <ele>101.05</ele>
        <time>2019-05-20T21:33:27.999Z</time>
      </trkpt>
      <trkpt lat="48.86091" lon="2.37567">
        <ele>101.01</ele>
        <time>2019-05-20T21:33:30.999Z</time>
      </trkpt>
      <trkpt lat="48.86099" lon="2.37551">
        <ele>100.96</ele>
        <time>2019-05-20T21:33:33.999Z</time>
      </trkpt>
      <trkpt lat="48.86103" lon="2.37538">
        <ele>100.93</ele>
        <time>2019-05-20T21:33:35.999Z</time>
      </trkpt>
      <trkpt lat="48.86109" lon="2.37523">
        <ele>100.88</ele>
        <time>2019-05-20T21:33:38.999Z</time>
      </trkpt>
      <trkpt lat="48.86118" lon="2.37513">
        <ele>100.83</ele>
        <time>2019-05-20T21:33:41.999Z</time>
      </trkpt>
      <trkpt lat="48.86126" lon="2.37496">
        <ele>100.63</ele>
        <time>2019-05-20T21:33:44.999Z</time>
      </trkpt>
      <trkpt lat="48.86133" lon="2.37483">
        <ele>100.47</ele>
        <time>2019-05-20T21:33:47.999Z</time>
      </trkpt>
      <trkpt lat="48.86143" lon="2.37472">
        <ele>100.22</ele>
        <time>2019-05-20T21:33:50.999Z</time>
      </trkpt>
      <trkpt lat="48.86153" lon="2.37459">
        <ele>100.04</ele>
        <time>2019-05-20T21:33:53.999Z</time>
      </trkpt>
      <trkpt lat="48.86159" lon="2.37449">
        <ele>99.92</ele>
        <time>2019-05-20T21:33:55.999Z</time>
      </trkpt>
      <trkpt lat="48.86165" lon="2.37436">
        <ele>99.85</ele>
        <time>2019-05-20T21:33:57.999Z</time>
      </trkpt>
      <trkpt lat="48.86171" lon="2.37419">
        <ele>99.71</ele>
        <time>2019-05-20T21:33:59.999Z</time>
      </trkpt>
      <trkpt lat="48.86178" lon="2.37409">
        <ele>99.6</ele>
        <time>2019-05-20T21:34:01.999Z</time>
      </trkpt>
      <trkpt lat="48.86185" lon="2.37397">
        <ele>99.51</ele>
        <time>2019-05-20T21:34:03.999Z</time>
      </trkpt>
      <trkpt lat="48.86195" lon="2.37383">
        <ele>99.45</ele>
        <time>2019-05-20T21:34:06.999Z</time>
      </trkpt>
      <trkpt lat="48.86203" lon="2.37374">
        <ele>99.4</ele>
        <time>2019-05-20T21:34:08.999Z</time>
      </trkpt>
      <trkpt lat="48.86209" lon="2.37364">
        <ele>99.36</ele>
        <time>2019-05-20T21:34:10.999Z</time>
      </trkpt>
      <trkpt lat="48.86214" lon="2.3735">
        <ele>99.32</ele>
        <time>2019-05-20T21:34:12.999Z</time>
      </trkpt>
      <trkpt lat="48.8622" lon="2.37338">
        <ele>99.29</ele>
        <time>2019-05-20T21:34:14.999Z</time>
      </trkpt>
      <trkpt lat="48.86228" lon="2.37323">
        <ele>99.23</ele>
        <time>2019-05-20T21:34:17.999Z</time>
      </trkpt>
      <trkpt lat="48.86233" lon="2.37308">
        <ele>99.2</ele>
        <time>2019-05-20T21:34:19.999Z</time>
      </trkpt>
      <trkpt lat="48.8624" lon="2.37297">
        <ele>99.18</ele>
        <time>2019-05-20T21:34:21.999Z</time>
      </trkpt>
      <trkpt lat="48.86246" lon="2.3728">
        <ele>99.17</ele>
        <time>2019-05-20T21:34:24.999Z</time>
      </trkpt>
      <trkpt lat="48.86254" lon="2.37267">
        <ele>99.15</ele>
        <time>2019-05-20T21:34:27.999Z</time>
      </trkpt>
      <trkpt lat="48.8626" lon="2.37258">
        <ele>99.14</ele>
        <time>2019-05-20T21:34:30.999Z</time>
      </trkpt>
      <trkpt lat="48.86268" lon="2.37245">
        <ele>99.11</ele>
        <time>2019-05-20T21:34:34.999Z</time>
      </trkpt>
      <trkpt lat="48.86274" lon="2.37234">
        <ele>99.08</ele>
        <time>2019-05-20T21:34:37.999Z</time>
      </trkpt>
      <trkpt lat="48.86282" lon="2.37224">
        <ele>99.06</ele>
        <time>2019-05-20T21:34:40.999Z</time>
      </trkpt>
      <trkpt lat="48.8629" lon="2.37213">
        <ele>99.03</ele>
        <time>2019-05-20T21:34:43.999Z</time>
      </trkpt>
      <trkpt lat="48.86298" lon="2.37209">
        <ele>99</ele>
        <time>2019-05-20T21:34:46.999Z</time>
      </trkpt>
      <trkpt lat="48.86308" lon="2.37199">
        <ele>98.96</ele>
        <time>2019-05-20T21:34:50.999Z</time>
      </trkpt>
      <trkpt lat="48.86317" lon="2.37192">
        <ele>98.93</ele>
        <time>2019-05-20T21:34:54.999Z</time>
      </trkpt>
      <trkpt lat="48.86324" lon="2.37185">
        <ele>98.9</ele>
        <time>2019-05-20T21:34:57.999Z</time>
      </trkpt>
      <trkpt lat="48.86329" lon="2.37171">
        <ele>98.87</ele>
        <time>2019-05-20T21:35:00.999Z</time>
      </trkpt>
      <trkpt lat="48.86336" lon="2.37158">
        <ele>98.83</ele>
        <time>2019-05-20T21:35:03.999Z</time>
      </trkpt>
      <trkpt lat="48.86345" lon="2.37147">
        <ele>98.8</ele>
        <time>2019-05-20T21:35:06.999Z</time>
      </trkpt>
      <trkpt lat="48.86348" lon="2.37134">
        <ele>98.78</ele>
        <time>2019-05-20T21:35:08.999Z</time>
      </trkpt>
      <trkpt lat="48.86351" lon="2.37114">
        <ele>98.75</ele>
        <time>2019-05-20T21:35:10.999Z</time>
      </trkpt>
      <trkpt lat="48.86356" lon="2.37096">
        <ele>98.43</ele>
        <time>2019-05-20T21:35:12.999Z</time>
      </trkpt>
      <trkpt lat="48.86361" lon="2.3708">
        <ele>98.15</ele>
        <time>2019-05-20T21:35:14.999Z</time>
      </trkpt>
      <trkpt lat="48.86367" lon="2.37067">
        <ele>97.93</ele>
        <time>2019-05-20T21:35:16.999Z</time>
      </trkpt>
      <trkpt lat="48.86374" lon="2.37053">
        <ele>97.74</ele>
        <time>2019-05-20T21:35:18.999Z</time>
      </trkpt>
      <trkpt lat="48.86379" lon="2.37041">
        <ele>97.59</ele>
        <time>2019-05-20T21:35:20.999Z</time>
      </trkpt>
      <trkpt lat="48.86385" lon="2.3703">
        <ele>97.48</ele>
        <time>2019-05-20T21:35:22.999Z</time>
      </trkpt>
      <trkpt lat="48.86391" lon="2.37019">
        <ele>97.38</ele>
        <time>2019-05-20T21:35:24.999Z</time>
      </trkpt>
      <trkpt lat="48.864" lon="2.37006">
        <ele>97.29</ele>
        <time>2019-05-20T21:35:27.999Z</time>
      </trkpt>
      <trkpt lat="48.86409" lon="2.36994">
        <ele>97.25</ele>
        <time>2019-05-20T21:35:30.999Z</time>
      </trkpt>
      <trkpt lat="48.86417" lon="2.36982">
        <ele>97.19</ele>
        <time>2019-05-20T21:35:33.999Z</time>
      </trkpt>
      <trkpt lat="48.86425" lon="2.36972">
        <ele>97.13</ele>
        <time>2019-05-20T21:35:35.999Z</time>
      </trkpt>
      <trkpt lat="48.86436" lon="2.3696">
        <ele>97.09</ele>
        <time>2019-05-20T21:35:38.999Z</time>
      </trkpt>
      <trkpt lat="48.86445" lon="2.36947">
        <ele>97.08</ele>
        <time>2019-05-20T21:35:41.999Z</time>
      </trkpt>
      <trkpt lat="48.86454" lon="2.36933">
        <ele>96.97</ele>
        <time>2019-05-20T21:35:44.999Z</time>
      </trkpt>
      <trkpt lat="48.8646" lon="2.36922">
        <ele>96.89</ele>
        <time>2019-05-20T21:35:46.999Z</time>
      </trkpt>
      <trkpt lat="48.86466" lon="2.3691">
        <ele>96.81</ele>
        <time>2019-05-20T21:35:48.999Z</time>
      </trkpt>
      <trkpt lat="48.86471" lon="2.36898">
        <ele>96.77</ele>
        <time>2019-05-20T21:35:50.999Z</time>
      </trkpt>
      <trkpt lat="48.86478" lon="2.36889">
        <ele>96.69</ele>
        <time>2019-05-20T21:35:52.999Z</time>
      </trkpt>
      <trkpt lat="48.86484" lon="2.36877">
        <ele>96.68</ele>
        <time>2019-05-20T21:35:54.999Z</time>
      </trkpt>
      <trkpt lat="48.86492" lon="2.36862">
        <ele>96.66</ele>
        <time>2019-05-20T21:35:57.999Z</time>
      </trkpt>
      <trkpt lat="48.86501" lon="2.36849">
        <ele>96.63</ele>
        <time>2019-05-20T21:36:00.999Z</time>
      </trkpt>
      <trkpt lat="48.86509" lon="2.36841">
        <ele>96.54</ele>
        <time>2019-05-20T21:36:02.999Z</time>
      </trkpt>
      <trkpt lat="48.86518" lon="2.36827">
        <ele>96.51</ele>
        <time>2019-05-20T21:36:05.999Z</time>
      </trkpt>
      <trkpt lat="48.86525" lon="2.36814">
        <ele>96.32</ele>
        <time>2019-05-20T21:36:07.999Z</time>
      </trkpt>
      <trkpt lat="48.86531" lon="2.368">
        <ele>96.18</ele>
        <time>2019-05-20T21:36:09.999Z</time>
      </trkpt>
      <trkpt lat="48.86538" lon="2.36785">
        <ele>96.09</ele>
        <time>2019-05-20T21:36:11.999Z</time>
      </trkpt>
      <trkpt lat="48.86544" lon="2.36773">
        <ele>96.02</ele>
        <time>2019-05-20T21:36:13.999Z</time>
      </trkpt>
      <trkpt lat="48.86549" lon="2.36763">
        <ele>95.95</ele>
        <time>2019-05-20T21:36:15.999Z</time>
      </trkpt>
      <trkpt lat="48.86556" lon="2.36751">
        <ele>95.88</ele>
        <time>2019-05-20T21:36:17.999Z</time>
      </trkpt>
      <trkpt lat="48.86564" lon="2.36739">
        <ele>95.8</ele>
        <time>2019-05-20T21:36:19.999Z</time>
      </trkpt>
      <trkpt lat="48.86571" lon="2.36727">
        <ele>95.73</ele>
        <time>2019-05-20T21:36:21.999Z</time>
      </trkpt>
      <trkpt lat="48.86577" lon="2.36712">
        <ele>95.67</ele>
        <time>2019-05-20T21:36:23.999Z</time>
      </trkpt>
      <trkpt lat="48.86584" lon="2.36698">
        <ele>95.61</ele>
        <time>2019-05-20T21:36:25.999Z</time>
      </trkpt>
      <trkpt lat="48.86592" lon="2.36684">
        <ele>95.55</ele>
        <time>2019-05-20T21:36:27.999Z</time>
      </trkpt>
      <trkpt lat="48.86599" lon="2.3667">
        <ele>95.5</ele>
        <time>2019-05-20T21:36:29.999Z</time>
      </trkpt>
      <trkpt lat="48.86606" lon="2.36657">
        <ele>95.44</ele>
        <time>2019-05-20T21:36:31.999Z</time>
      </trkpt>
      <trkpt lat="48.86614" lon="2.36646">
        <ele>95.4</ele>
        <time>2019-05-20T21:36:33.999Z</time>
      </trkpt>
      <trkpt lat="48.8662" lon="2.36636">
        <ele>95.37</ele>
        <time>2019-05-20T21:36:35.999Z</time>
      </trkpt>
      <trkpt lat="48.86627" lon="2.36625">
        <ele>95.34</ele>
        <time>2019-05-20T21:36:37.999Z</time>
      </trkpt>
      <trkpt lat="48.86635" lon="2.36611">
        <ele>95.27</ele>
        <time>2019-05-20T21:36:40.999Z</time>
      </trkpt>
      <trkpt lat="48.86642" lon="2.36602">
        <ele>95.25</ele>
        <time>2019-05-20T21:36:42.999Z</time>
      </trkpt>
      <trkpt lat="48.8665" lon="2.3659">
        <ele>95.24</ele>
        <time>2019-05-20T21:36:45.999Z</time>
      </trkpt>
      <trkpt lat="48.86659" lon="2.36578">
        <ele>95.23</ele>
        <time>2019-05-20T21:36:48.999Z</time>
      </trkpt>
      <trkpt lat="48.86666" lon="2.36567">
        <ele>95.21</ele>
        <time>2019-05-20T21:36:51.999Z</time>
      </trkpt>
      <trkpt lat="48.86671" lon="2.36555">
        <ele>95.19</ele>
        <time>2019-05-20T21:36:54.999Z</time>
      </trkpt>
      <trkpt lat="48.86676" lon="2.36544">
        <ele>95.17</ele>
        <time>2019-05-20T21:36:57.999Z</time>
      </trkpt>
      <trkpt lat="48.86681" lon="2.36531">
        <ele>95.14</ele>
        <time>2019-05-20T21:37:01.999Z</time>
      </trkpt>
      <trkpt lat="48.86681" lon="2.36516">
        <ele>95.11</ele>
        <time>2019-05-20T21:37:05.999Z</time>
      </trkpt>
      <trkpt lat="48.86674" lon="2.36503">
        <ele>95.09</ele>
        <time>2019-05-20T21:37:08.999Z</time>
      </trkpt>
      <trkpt lat="48.8667" lon="2.3649">
        <ele>95.07</ele>
        <time>2019-05-20T21:37:11.999Z</time>
      </trkpt>
      <trkpt lat="48.86668" lon="2.36475">
        <ele>95.04</ele>
        <time>2019-05-20T21:37:15.999Z</time>
      </trkpt>
      <trkpt lat="48.86675" lon="2.36462">
        <ele>95</ele>
        <time>2019-05-20T21:37:19.999Z</time>
      </trkpt>
      <trkpt lat="48.86682" lon="2.36453">
        <ele>94.96</ele>
        <time>2019-05-20T21:37:23.999Z</time>
      </trkpt>
      <trkpt lat="48.86689" lon="2.36441">
        <ele>94.92</ele>
        <time>2019-05-20T21:37:27.999Z</time>
      </trkpt>
      <trkpt lat="48.86696" lon="2.3643">
        <ele>94.85</ele>
        <time>2019-05-20T21:37:32.999Z</time>
      </trkpt>
      <trkpt lat="48.86703" lon="2.36416">
        <ele>94.8</ele>
        <time>2019-05-20T21:37:36.999Z</time>
      </trkpt>
      <trkpt lat="48.86709" lon="2.36405">
        <ele>94.76</ele>
        <time>2019-05-20T21:37:39.999Z</time>
      </trkpt>
      <trkpt lat="48.86716" lon="2.36395">
        <ele>94.71</ele>
        <time>2019-05-20T21:37:42.999Z</time>
      </trkpt>
      <trkpt lat="48.86724" lon="2.36382">
        <ele>94.67</ele>
        <time>2019-05-20T21:37:45.999Z</time>
      </trkpt>
      <trkpt lat="48.86731" lon="2.3637">
        <ele>94.62</ele>
        <time>2019-05-20T21:37:48.999Z</time>
      </trkpt>
      <trkpt lat="48.86738" lon="2.36359">
        <ele>94.57</ele>
        <time>2019-05-20T21:37:51.999Z</time>
      </trkpt>
      <trkpt lat="48.86743" lon="2.36347">
        <ele>94.52</ele>
        <time>2019-05-20T21:37:54.999Z</time>
      </trkpt>
      <trkpt lat="48.86741" lon="2.36331">
        <ele>94.43</ele>
        <time>2019-05-20T21:37:59.999Z</time>
      </trkpt>
      <trkpt lat="48.86738" lon="2.36316">
        <ele>94.37</ele>
        <time>2019-05-20T21:38:04.999Z</time>
      </trkpt>
      <trkpt lat="48.86734" lon="2.36302">
        <ele>94.32</ele>
        <time>2019-05-20T21:38:09.999Z</time>
      </trkpt>
      <trkpt lat="48.86727" lon="2.36287">
        <ele>94.3</ele>
        <time>2019-05-20T21:38:11.999Z</time>
      </trkpt>
      <trkpt lat="48.86719" lon="2.36269">
        <ele>94.15</ele>
        <time>2019-05-20T21:38:13.999Z</time>
      </trkpt>
      <trkpt lat="48.8671" lon="2.3625">
        <ele>94.02</ele>
        <time>2019-05-20T21:38:15.999Z</time>
      </trkpt>
      <trkpt lat="48.86704" lon="2.36237">
        <ele>93.99</ele>
        <time>2019-05-20T21:38:17.999Z</time>
      </trkpt>
      <trkpt lat="48.86699" lon="2.36222">
        <ele>93.97</ele>
        <time>2019-05-20T21:38:19.999Z</time>
      </trkpt>
      <trkpt lat="48.86693" lon="2.36209">
        <ele>93.86</ele>
        <time>2019-05-20T21:38:21.999Z</time>
      </trkpt>
      <trkpt lat="48.86686" lon="2.36196">
        <ele>93.71</ele>
        <time>2019-05-20T21:38:23.999Z</time>
      </trkpt>
      <trkpt lat="48.86681" lon="2.36184">
        <ele>93.58</ele>
        <time>2019-05-20T21:38:25.999Z</time>
      </trkpt>
      <trkpt lat="48.86675" lon="2.3617">
        <ele>93.57</ele>
        <time>2019-05-20T21:38:27.999Z</time>
      </trkpt>
      <trkpt lat="48.86671" lon="2.36158">
        <ele>93.56</ele>
        <time>2019-05-20T21:38:29.999Z</time>
      </trkpt>
      <trkpt lat="48.86667" lon="2.3614">
        <ele>93.54</ele>
        <time>2019-05-20T21:38:32.999Z</time>
      </trkpt>
      <trkpt lat="48.86662" lon="2.36123">
        <ele>93.37</ele>
        <time>2019-05-20T21:38:35.999Z</time>
      </trkpt>
      <trkpt lat="48.86657" lon="2.36111">
        <ele>93.37</ele>
        <time>2019-05-20T21:38:37.999Z</time>
      </trkpt>
      <trkpt lat="48.86652" lon="2.36097">
        <ele>93.34</ele>
        <time>2019-05-20T21:38:39.999Z</time>
      </trkpt>
      <trkpt lat="48.86648" lon="2.36084">
        <ele>93.06</ele>
        <time>2019-05-20T21:38:41.999Z</time>
      </trkpt>
      <trkpt lat="48.86645" lon="2.36071">
        <ele>92.93</ele>
        <time>2019-05-20T21:38:43.999Z</time>
      </trkpt>
      <trkpt lat="48.86641" lon="2.36056">
        <ele>92.9</ele>
        <time>2019-05-20T21:38:46.999Z</time>
      </trkpt>
      <trkpt lat="48.8664" lon="2.36037">
        <ele>92.85</ele>
        <time>2019-05-20T21:38:49.999Z</time>
      </trkpt>
      <trkpt lat="48.86638" lon="2.36021">
        <ele>92.74</ele>
        <time>2019-05-20T21:38:54.999Z</time>
      </trkpt>
      <trkpt lat="48.86635" lon="2.36006">
        <ele>92.67</ele>
        <time>2019-05-20T21:38:57.999Z</time>
      </trkpt>
      <trkpt lat="48.86632" lon="2.35991">
        <ele>92.6</ele>
        <time>2019-05-20T21:39:00.999Z</time>
      </trkpt>
      <trkpt lat="48.86628" lon="2.35976">
        <ele>92.53</ele>
        <time>2019-05-20T21:39:03.999Z</time>
      </trkpt>
      <trkpt lat="48.86626" lon="2.35959">
        <ele>92.46</ele>
        <time>2019-05-20T21:39:06.999Z</time>
      </trkpt>
      <trkpt lat="48.8662" lon="2.35944">
        <ele>92.41</ele>
        <time>2019-05-20T21:39:09.999Z</time>
      </trkpt>
      <trkpt lat="48.86615" lon="2.35928">
        <ele>92.37</ele>
        <time>2019-05-20T21:39:12.999Z</time>
      </trkpt>
      <trkpt lat="48.8661" lon="2.35915">
        <ele>92.35</ele>
        <time>2019-05-20T21:39:14.999Z</time>
      </trkpt>
      <trkpt lat="48.86606" lon="2.35903">
        <ele>92.33</ele>
        <time>2019-05-20T21:39:16.999Z</time>
      </trkpt>
      <trkpt lat="48.86601" lon="2.35886">
        <ele>92.3</ele>
        <time>2019-05-20T21:39:19.999Z</time>
      </trkpt>
      <trkpt lat="48.86597" lon="2.35873">
        <ele>92.28</ele>
        <time>2019-05-20T21:39:21.999Z</time>
      </trkpt>
      <trkpt lat="48.86594" lon="2.35856">
        <ele>92.25</ele>
        <time>2019-05-20T21:39:23.999Z</time>
      </trkpt>
      <trkpt lat="48.86589" lon="2.35838">
        <ele>92.21</ele>
        <time>2019-05-20T21:39:26.999Z</time>
      </trkpt>
      <trkpt lat="48.86589" lon="2.35824">
        <ele>92.18</ele>
        <time>2019-05-20T21:39:28.999Z</time>
      </trkpt>
      <trkpt lat="48.86588" lon="2.35808">
        <ele>92.15</ele>
        <time>2019-05-20T21:39:30.999Z</time>
      </trkpt>
      <trkpt lat="48.86587" lon="2.35794">
        <ele>92.12</ele>
        <time>2019-05-20T21:39:32.999Z</time>
      </trkpt>
      <trkpt lat="48.86583" lon="2.35778">
        <ele>92.09</ele>
        <time>2019-05-20T21:39:35.999Z</time>
      </trkpt>
      <trkpt lat="48.86577" lon="2.35765">
        <ele>92</ele>
        <time>2019-05-20T21:39:38.999Z</time>
      </trkpt>
      <trkpt lat="48.86573" lon="2.35751">
        <ele>91.88</ele>
        <time>2019-05-20T21:39:41.999Z</time>
      </trkpt>
      <trkpt lat="48.86568" lon="2.35731">
        <ele>91.71</ele>
        <time>2019-05-20T21:39:44.999Z</time>
      </trkpt>
      <trkpt lat="48.86565" lon="2.35718">
        <ele>91.6</ele>
        <time>2019-05-20T21:39:46.999Z</time>
      </trkpt>
      <trkpt lat="48.8656" lon="2.35699">
        <ele>91.41</ele>
        <time>2019-05-20T21:39:49.999Z</time>
      </trkpt>
      <trkpt lat="48.86557" lon="2.35682">
        <ele>91.2</ele>
        <time>2019-05-20T21:39:52.999Z</time>
      </trkpt>
      <trkpt lat="48.86555" lon="2.35667">
        <ele>91.04</ele>
        <time>2019-05-20T21:39:55.999Z</time>
      </trkpt>
      <trkpt lat="48.86554" lon="2.35653">
        <ele>90.91</ele>
        <time>2019-05-20T21:39:58.999Z</time>
      </trkpt>
      <trkpt lat="48.86552" lon="2.35637">
        <ele>90.75</ele>
        <time>2019-05-20T21:40:02.999Z</time>
      </trkpt>
      <trkpt lat="48.86548" lon="2.35622">
        <ele>90.57</ele>
        <time>2019-05-20T21:40:07.999Z</time>
      </trkpt>
      <trkpt lat="48.86548" lon="2.35605">
        <ele>90.32</ele>
        <time>2019-05-20T21:40:14.999Z</time>
      </trkpt>
      <trkpt lat="48.86543" lon="2.35591">
        <ele>90.13</ele>
        <time>2019-05-20T21:40:18.999Z</time>
      </trkpt>
      <trkpt lat="48.8654" lon="2.35575">
        <ele>89.87</ele>
        <time>2019-05-20T21:40:23.999Z</time>
      </trkpt>
      <trkpt lat="48.86536" lon="2.3556">
        <ele>89.69</ele>
        <time>2019-05-20T21:40:27.999Z</time>
      </trkpt>
      <trkpt lat="48.86535" lon="2.35547">
        <ele>89.55</ele>
        <time>2019-05-20T21:40:31.999Z</time>
      </trkpt>
      <trkpt lat="48.86532" lon="2.35534">
        <ele>89.47</ele>
        <time>2019-05-20T21:40:34.999Z</time>
      </trkpt>
      <trkpt lat="48.86528" lon="2.35516">
        <ele>89.38</ele>
        <time>2019-05-20T21:40:38.999Z</time>
      </trkpt>
      <trkpt lat="48.86525" lon="2.35502">
        <ele>89.23</ele>
        <time>2019-05-20T21:40:41.999Z</time>
      </trkpt>
      <trkpt lat="48.8652" lon="2.35487">
        <ele>88.98</ele>
        <time>2019-05-20T21:40:44.999Z</time>
      </trkpt>
      <trkpt lat="48.86516" lon="2.35472">
        <ele>88.75</ele>
        <time>2019-05-20T21:40:47.999Z</time>
      </trkpt>
      <trkpt lat="48.86514" lon="2.35458">
        <ele>88.47</ele>
        <time>2019-05-20T21:40:50.999Z</time>
      </trkpt>
      <trkpt lat="48.8651" lon="2.35442">
        <ele>88.19</ele>
        <time>2019-05-20T21:40:53.999Z</time>
      </trkpt>
      <trkpt lat="48.86507" lon="2.35429">
        <ele>88.03</ele>
        <time>2019-05-20T21:40:55.999Z</time>
      </trkpt>
      <trkpt lat="48.86502" lon="2.35412">
        <ele>87.83</ele>
        <time>2019-05-20T21:40:58.999Z</time>
      </trkpt>
      <trkpt lat="48.86497" lon="2.35395">
        <ele>87.65</ele>
        <time>2019-05-20T21:41:01.999Z</time>
      </trkpt>
      <trkpt lat="48.86493" lon="2.35382">
        <ele>87.55</ele>
        <time>2019-05-20T21:41:03.999Z</time>
      </trkpt>
      <trkpt lat="48.86489" lon="2.35365">
        <ele>87.43</ele>
        <time>2019-05-20T21:41:06.999Z</time>
      </trkpt>
      <trkpt lat="48.86486" lon="2.35348">
        <ele>87.32</ele>
        <time>2019-05-20T21:41:09.999Z</time>
      </trkpt>
      <trkpt lat="48.86482" lon="2.3533">
        <ele>87.24</ele>
        <time>2019-05-20T21:41:12.999Z</time>
      </trkpt>
      <trkpt lat="48.86479" lon="2.35316">
        <ele>87.21</ele>
        <time>2019-05-20T21:41:14.999Z</time>
      </trkpt>
      <trkpt lat="48.86475" lon="2.35298">
        <ele>87.18</ele>
        <time>2019-05-20T21:41:17.999Z</time>
      </trkpt>
      <trkpt lat="48.86471" lon="2.35285">
        <ele>87.16</ele>
        <time>2019-05-20T21:41:19.999Z</time>
      </trkpt>
      <trkpt lat="48.86467" lon="2.35267">
        <ele>87.14</ele>
        <time>2019-05-20T21:41:22.999Z</time>
      </trkpt>
      <trkpt lat="48.86461" lon="2.35251">
        <ele>87.14</ele>
        <time>2019-05-20T21:41:25.999Z</time>
      </trkpt>
      <trkpt lat="48.86457" lon="2.35232">
        <ele>87.13</ele>
        <time>2019-05-20T21:41:28.999Z</time>
      </trkpt>
      <trkpt lat="48.86453" lon="2.35214">
        <ele>87.15</ele>
        <time>2019-05-20T21:41:31.999Z</time>
      </trkpt>
      <trkpt lat="48.86449" lon="2.35198">
        <ele>87.16</ele>
        <time>2019-05-20T21:41:34.999Z</time>
      </trkpt>
      <trkpt lat="48.86446" lon="2.35181">
        <ele>87.16</ele>
        <time>2019-05-20T21:41:37.999Z</time>
      </trkpt>
      <trkpt lat="48.86445" lon="2.35166">
        <ele>87.19</ele>
        <time>2019-05-20T21:41:40.999Z</time>
      </trkpt>
      <trkpt lat="48.86442" lon="2.35151">
        <ele>87.22</ele>
        <time>2019-05-20T21:41:43.999Z</time>
      </trkpt>
      <trkpt lat="48.8644" lon="2.35135">
        <ele>87.24</ele>
        <time>2019-05-20T21:41:46.999Z</time>
      </trkpt>
      <trkpt lat="48.86437" lon="2.35118">
        <ele>87.28</ele>
        <time>2019-05-20T21:41:49.999Z</time>
      </trkpt>
      <trkpt lat="48.86435" lon="2.35101">
        <ele>87.32</ele>
        <time>2019-05-20T21:41:52.999Z</time>
      </trkpt>
      <trkpt lat="48.86431" lon="2.35086">
        <ele>87.37</ele>
        <time>2019-05-20T21:41:55.999Z</time>
      </trkpt>
      <trkpt lat="48.86427" lon="2.35068">
        <ele>87.41</ele>
        <time>2019-05-20T21:41:58.999Z</time>
      </trkpt>
      <trkpt lat="48.86424" lon="2.35051">
        <ele>87.47</ele>
        <time>2019-05-20T21:42:01.999Z</time>
      </trkpt>
      <trkpt lat="48.86419" lon="2.35036">
        <ele>87.53</ele>
        <time>2019-05-20T21:42:04.999Z</time>
      </trkpt>
      <trkpt lat="48.86415" lon="2.35023">
        <ele>87.6</ele>
        <time>2019-05-20T21:42:07.999Z</time>
      </trkpt>
      <trkpt lat="48.86411" lon="2.35007">
        <ele>87.68</ele>
        <time>2019-05-20T21:42:10.999Z</time>
      </trkpt>
      <trkpt lat="48.86406" lon="2.34989">
        <ele>87.74</ele>
        <time>2019-05-20T21:42:13.999Z</time>
      </trkpt>
      <trkpt lat="48.86401" lon="2.34973">
        <ele>87.77</ele>
        <time>2019-05-20T21:42:16.999Z</time>
      </trkpt>
      <trkpt lat="48.86396" lon="2.34957">
        <ele>87.82</ele>
        <time>2019-05-20T21:42:19.999Z</time>
      </trkpt>
      <trkpt lat="48.8639" lon="2.34939">
        <ele>87.84</ele>
        <time>2019-05-20T21:42:22.999Z</time>
      </trkpt>
      <trkpt lat="48.86387" lon="2.34921">
        <ele>87.85</ele>
        <time>2019-05-20T21:42:25.999Z</time>
      </trkpt>
      <trkpt lat="48.86385" lon="2.34904">
        <ele>87.83</ele>
        <time>2019-05-20T21:42:29.999Z</time>
      </trkpt>
      <trkpt lat="48.86383" lon="2.3489">
        <ele>87.75</ele>
        <time>2019-05-20T21:42:32.999Z</time>
      </trkpt>
      <trkpt lat="48.86379" lon="2.34873">
        <ele>87.62</ele>
        <time>2019-05-20T21:42:36.999Z</time>
      </trkpt>
      <trkpt lat="48.86373" lon="2.34858">
        <ele>87.55</ele>
        <time>2019-05-20T21:42:39.999Z</time>
      </trkpt>
      <trkpt lat="48.86369" lon="2.34845">
        <ele>87.54</ele>
        <time>2019-05-20T21:42:42.999Z</time>
      </trkpt>
      <trkpt lat="48.86366" lon="2.34829">
        <ele>87.55</ele>
        <time>2019-05-20T21:42:45.999Z</time>
      </trkpt>
      <trkpt lat="48.86363" lon="2.34809">
        <ele>87.78</ele>
        <time>2019-05-20T21:42:48.999Z</time>
      </trkpt>
      <trkpt lat="48.86361" lon="2.34793">
        <ele>87.71</ele>
        <time>2019-05-20T21:42:50.999Z</time>
      </trkpt>
      <trkpt lat="48.86358" lon="2.34773">
        <ele>87.56</ele>
        <time>2019-05-20T21:42:53.999Z</time>
      </trkpt>
      <trkpt lat="48.86356" lon="2.34754">
        <ele>87.39</ele>
        <time>2019-05-20T21:42:56.999Z</time>
      </trkpt>
      <trkpt lat="48.86352" lon="2.3474">
        <ele>87.23</ele>
        <time>2019-05-20T21:42:59.999Z</time>
      </trkpt>
      <trkpt lat="48.86343" lon="2.3473">
        <ele>87.1</ele>
        <time>2019-05-20T21:43:02.999Z</time>
      </trkpt>
      <trkpt lat="48.86338" lon="2.34713">
        <ele>86.99</ele>
        <time>2019-05-20T21:43:05.999Z</time>
      </trkpt>
      <trkpt lat="48.86333" lon="2.34696">
        <ele>86.9</ele>
        <time>2019-05-20T21:43:08.999Z</time>
      </trkpt>
      <trkpt lat="48.8633" lon="2.34678">
        <ele>86.84</ele>
        <time>2019-05-20T21:43:11.999Z</time>
      </trkpt>
      <trkpt lat="48.86328" lon="2.34665">
        <ele>86.82</ele>
        <time>2019-05-20T21:43:13.999Z</time>
      </trkpt>
      <trkpt lat="48.86325" lon="2.34648">
        <ele>86.83</ele>
        <time>2019-05-20T21:43:16.999Z</time>
      </trkpt>
      <trkpt lat="48.86324" lon="2.34633">
        <ele>86.86</ele>
        <time>2019-05-20T21:43:19.999Z</time>
      </trkpt>
      <trkpt lat="48.86322" lon="2.34618">
        <ele>86.9</ele>
        <time>2019-05-20T21:43:22.999Z</time>
      </trkpt>
      <trkpt lat="48.86315" lon="2.34608">
        <ele>86.99</ele>
        <time>2019-05-20T21:43:27.999Z</time>
      </trkpt>
      <trkpt lat="48.86309" lon="2.34598">
        <ele>87.15</ele>
        <time>2019-05-20T21:43:37.999Z</time>
      </trkpt>
      <trkpt lat="48.86299" lon="2.34593">
        <ele>87.28</ele>
        <time>2019-05-20T21:43:52.999Z</time>
      </trkpt>
      <trkpt lat="48.8629" lon="2.3459">
        <ele>87.34</ele>
        <time>2019-05-20T21:43:59.999Z</time>
      </trkpt>
      <trkpt lat="48.8628" lon="2.34587">
        <ele>87.43</ele>
        <time>2019-05-20T21:44:04.999Z</time>
      </trkpt>
      <trkpt lat="48.86271" lon="2.34582">
        <ele>87.53</ele>
        <time>2019-05-20T21:44:08.999Z</time>
      </trkpt>
      <trkpt lat="48.86262" lon="2.34579">
        <ele>87.64</ele>
        <time>2019-05-20T21:44:11.999Z</time>
      </trkpt>
      <trkpt lat="48.86253" lon="2.34575">
        <ele>87.77</ele>
        <time>2019-05-20T21:44:14.999Z</time>
      </trkpt>
      <trkpt lat="48.86243" lon="2.34571">
        <ele>87.91</ele>
        <time>2019-05-20T21:44:17.999Z</time>
      </trkpt>
      <trkpt lat="48.86234" lon="2.34566">
        <ele>88.06</ele>
        <time>2019-05-20T21:44:20.999Z</time>
      </trkpt>
      <trkpt lat="48.86223" lon="2.34563">
        <ele>88.22</ele>
        <time>2019-05-20T21:44:23.999Z</time>
      </trkpt>
      <trkpt lat="48.86213" lon="2.34556">
        <ele>88.4</ele>
        <time>2019-05-20T21:44:26.999Z</time>
      </trkpt>
      <trkpt lat="48.86204" lon="2.34553">
        <ele>88.59</ele>
        <time>2019-05-20T21:44:29.999Z</time>
      </trkpt>
      <trkpt lat="48.86194" lon="2.34548">
        <ele>88.78</ele>
        <time>2019-05-20T21:44:32.999Z</time>
      </trkpt>
      <trkpt lat="48.86184" lon="2.34547">
        <ele>89.02</ele>
        <time>2019-05-20T21:44:36.999Z</time>
      </trkpt>
      <trkpt lat="48.86173" lon="2.34549">
        <ele>89.26</ele>
        <time>2019-05-20T21:44:40.999Z</time>
      </trkpt>
      <trkpt lat="48.86164" lon="2.3455">
        <ele>89.44</ele>
        <time>2019-05-20T21:44:43.999Z</time>
      </trkpt>
      <trkpt lat="48.86155" lon="2.34546">
        <ele>89.57</ele>
        <time>2019-05-20T21:44:45.999Z</time>
      </trkpt>
      <trkpt lat="48.86146" lon="2.34537">
        <ele>89.74</ele>
        <time>2019-05-20T21:44:48.999Z</time>
      </trkpt>
      <trkpt lat="48.86137" lon="2.3453">
        <ele>89.91</ele>
        <time>2019-05-20T21:44:51.999Z</time>
      </trkpt>
      <trkpt lat="48.86129" lon="2.34521">
        <ele>90.06</ele>
        <time>2019-05-20T21:44:54.999Z</time>
      </trkpt>
      <trkpt lat="48.86118" lon="2.34513">
        <ele>90.24</ele>
        <time>2019-05-20T21:44:58.999Z</time>
      </trkpt>
      <trkpt lat="48.86108" lon="2.3451">
        <ele>90.37</ele>
        <time>2019-05-20T21:45:01.999Z</time>
      </trkpt>
      <trkpt lat="48.86099" lon="2.34504">
        <ele>90.54</ele>
        <time>2019-05-20T21:45:05.999Z</time>
      </trkpt>
      <trkpt lat="48.86092" lon="2.34513">
        <ele>90.71</ele>
        <time>2019-05-20T21:45:09.999Z</time>
      </trkpt>
      <trkpt lat="48.86089" lon="2.34528">
        <ele>90.83</ele>
        <time>2019-05-20T21:45:12.999Z</time>
      </trkpt>
      <trkpt lat="48.86091" lon="2.34546">
        <ele>90.91</ele>
        <time>2019-05-20T21:45:14.999Z</time>
      </trkpt>
      <trkpt lat="48.86089" lon="2.34561">
        <ele>90.97</ele>
        <time>2019-05-20T21:45:16.999Z</time>
      </trkpt>
      <trkpt lat="48.86081" lon="2.34575">
        <ele>91.02</ele>
        <time>2019-05-20T21:45:19.999Z</time>
      </trkpt>
      <trkpt lat="48.86072" lon="2.34588">
        <ele>91.03</ele>
        <time>2019-05-20T21:45:22.999Z</time>
      </trkpt>
      <trkpt lat="48.86067" lon="2.34602">
        <ele>91.04</ele>
        <time>2019-05-20T21:45:25.999Z</time>
      </trkpt>
      <trkpt lat="48.8606" lon="2.34614">
        <ele>91.06</ele>
        <time>2019-05-20T21:45:28.999Z</time>
      </trkpt>
      <trkpt lat="48.8605" lon="2.34619">
        <ele>91.11</ele>
        <time>2019-05-20T21:45:31.999Z</time>
      </trkpt>
      <trkpt lat="48.86039" lon="2.34625">
        <ele>91.14</ele>
        <time>2019-05-20T21:45:34.999Z</time>
      </trkpt>
      <trkpt lat="48.86029" lon="2.34634">
        <ele>91.28</ele>
        <time>2019-05-20T21:45:37.999Z</time>
      </trkpt>
      <trkpt lat="48.86018" lon="2.34643">
        <ele>91.33</ele>
        <time>2019-05-20T21:45:40.999Z</time>
      </trkpt>
      <trkpt lat="48.86008" lon="2.34651">
        <ele>91.38</ele>
        <time>2019-05-20T21:45:43.999Z</time>
      </trkpt>
      <trkpt lat="48.86" lon="2.34664">
        <ele>91.46</ele>
        <time>2019-05-20T21:45:46.999Z</time>
      </trkpt>
      <trkpt lat="48.8599" lon="2.34675">
        <ele>91.58</ele>
        <time>2019-05-20T21:45:50.999Z</time>
      </trkpt>
      <trkpt lat="48.85981" lon="2.34685">
        <ele>91.68</ele>
        <time>2019-05-20T21:45:53.999Z</time>
      </trkpt>
      <trkpt lat="48.85972" lon="2.34696">
        <ele>91.8</ele>
        <time>2019-05-20T21:45:56.999Z</time>
      </trkpt>
      <trkpt lat="48.85962" lon="2.34703">
        <ele>91.92</ele>
        <time>2019-05-20T21:45:59.999Z</time>
      </trkpt>
      <trkpt lat="48.85954" lon="2.34711">
        <ele>92.07</ele>
        <time>2019-05-20T21:46:03.999Z</time>
      </trkpt>
    </trkseg>
  </trk>
</gpx>